# Wetter Temperatur Luftdruck Luftfeuchtigkeit Sichtweite Windgeschwindigkeit Windrichtung Zeit
1 Clouds 26 1010 76 10000 3.47 202 10:55 14.08.2022
2 Clouds 27 1010 71 10000 3.76 199 08:52 14.08.2022
3 Clear 25 1011 70 10000 2.12 199 06:22 14.08.2022
4 Clear 23 1012 73 10000 0.29 192 03:36 14.08.2022
5 Clouds 21 1011 87 10000 1.42 20 00:33 14.08.2022
6 Clouds 21 1012 89 10000 0.43 17 22:56 13.08.2022
7 Clouds 21 1012 89 10000 0.43 17 22:56 13.08.2022
8 Clouds 21 1012 89 10000 0.7 1 21:47 13.08.2022
9 Clouds 21 1012 89 10000 0.1 354 20:47 13.08.2022
10 Clouds 22 1012 86 10000 0.83 28 19:46 13.08.2022
11 Clouds 23 1011 87 10000 1.69 14 18:19 13.08.2022
12 Clouds 23 1010 94 9448 0.39 67 15:57 13.08.2022
13 Clouds 24 1009 87 10000 1.58 185 14:40 13.08.2022
14 Clear 26 1007 75 10000 2.09 199 13:46 13.08.2022
15 Clear 28 1007 65 10000 3.56 202 11:59 13.08.2022
16 Clear 28 1007 61 10000 3.7 203 10:33 13.08.2022
17 Clear 28 1007 55 10000 3.37 199 09:22 13.08.2022
18 Clear 26 1009 58 10000 1.55 205 05:59 13.08.2022
19 Clear 20 1011 67 10000 2.42 28 00:44 13.08.2022
20 Clear 21 1012 66 10000 2.66 28 22:37 12.08.2022
21 Clear 21 1012 67 10000 2.6 30 21:35 12.08.2022
22 Clouds 21 1013 69 10000 3.08 32 19:46 12.08.2022
23 Clouds 21 1013 70 10000 3.11 34 19:21 12.08.2022
24 Clouds 22 1012 72 10000 3 32 17:59 12.08.2022
25 Clouds 23 1010 77 10000 1.75 34 16:25 12.08.2022
26 Clouds 25 1009 74 10000 0.43 319 14:50 12.08.2022
27 Clouds 27 1007 57 10000 1.99 224 13:26 12.08.2022
28 Clouds 28 1007 54 10000 2.79 208 11:40 12.08.2022
29 Clouds 28 1008 48 10000 2.65 198 08:50 12.08.2022
30 Clouds 28 1009 47 10000 2.21 203 07:45 12.08.2022
31 Clouds 25 1012 52 10000 0.38 251 04:55 12.08.2022
32 Clouds 20 1013 73 10000 3.47 20 00:31 12.08.2022
33 Clouds 20 1014 76 10000 3.55 19 23:55 11.08.2022
34 Clouds 20 1015 79 10000 4.02 20 22:45 11.08.2022
35 Clouds 19 1016 81 10000 3.75 16 21:53 11.08.2022
36 Clouds 20 1016 82 10000 3.07 7 21:28 11.08.2022
37 Clouds 20 1016 82 10000 3.07 7 20:30 11.08.2022
38 Clouds 20 1015 86 10000 1.78 352 19:33 11.08.2022
39 Clouds 20 1014 89 10000 0.95 335 18:53 11.08.2022
40 Clouds 21 1013 92 5825 1.11 19 16:46 11.08.2022
41 Clouds 20 1012 96 2506 0.72 13 15:42 11.08.2022
42 Clouds 20 1012 98 496 0.79 215 14:36 11.08.2022
43 Clouds 21 1011 99 882 2.09 201 11:56 11.08.2022
44 Clouds 22 1011 98 247 2.54 216 08:57 11.08.2022
45 Clouds 23 1010 93 352 2.51 212 06:49 11.08.2022
46 Rain 22 1009 95 1864 0.41 203 02:38 11.08.2022
47 Rain 21 1008 99 500 0.57 237 23:41 10.08.2022
48 Rain 22 1009 96 655 0.43 226 21:49 10.08.2022
49 Clouds 22 1009 97 602 0.72 231 21:18 10.08.2022
50 Clouds 22 1009 97 602 0.72 231 20:35 10.08.2022
51 Clouds 23 1009 98 518 0.83 199 18:53 10.08.2022
52 Clouds 23 1008 96 2024 0.6 199 17:27 10.08.2022
53 Clouds 23 1007 96 2631 1.27 193 14:57 10.08.2022
54 Clouds 24 1006 93 1768 2.13 194 13:34 10.08.2022
55 Clouds 28 1005 70 10000 3.37 204 10:51 10.08.2022
56 Clouds 28 1006 64 10000 3.27 204 08:42 10.08.2022
57 Clouds 27 1007 61 10000 2.84 199 07:35 10.08.2022
58 Clouds 26 1008 59 10000 1.98 201 05:46 10.08.2022
59 Clouds 20 1011 71 10000 1.63 37 02:22 10.08.2022
60 Clouds 21 1010 69 10000 2.03 25 23:33 09.08.2022
61 Clouds 21 1010 69 10000 2.43 26 22:48 09.08.2022
62 Clouds 21 1010 69 10000 2.46 22 21:33 09.08.2022
63 Clouds 22 1011 73 10000 2.08 21 19:33 09.08.2022
64 Clouds 22 1010 77 10000 3.06 20 17:53 09.08.2022
65 Clouds 23 1010 79 10000 2.43 22 17:26 09.08.2022
66 Clouds 23 1010 79 10000 2.43 22 16:33 09.08.2022
67 Clouds 24 1008 78 10000 0.15 350 15:26 09.08.2022
68 Clouds 26 1009 61 10000 1.03 186 12:20 09.08.2022
69 Clouds 24 1012 74 10000 1.23 167 08:55 09.08.2022
70 Clouds 23 1013 78 10000 1.31 173 08:26 09.08.2022
71 Clouds 23 1014 82 10000 0.91 162 07:18 09.08.2022
72 Clouds 21 1013 85 10000 0.4 148 02:54 09.08.2022
73 Clouds 21 1011 81 10000 1.17 33 23:26 08.08.2022
74 Clouds 21 1011 81 10000 1.17 33 22:52 08.08.2022
75 Clouds 21 1012 80 10000 1.19 37 21:48 08.08.2022
76 Clouds 21 1012 79 10000 1.22 50 20:51 08.08.2022
77 Clouds 21 1011 78 10000 1.68 39 19:50 08.08.2022
78 Clouds 22 1011 79 10000 2.27 28 18:19 08.08.2022
79 Clouds 23 1009 82 10000 1.22 50 15:57 08.08.2022
80 Clouds 23 1009 82 10000 1.22 50 15:38 08.08.2022
81 Clouds 25 1008 75 10000 2.28 219 12:39 08.08.2022
82 Clouds 26 1008 68 10000 2.74 216 11:32 08.08.2022
83 Clouds 24 1011 70 10000 0.86 252 08:26 08.08.2022
84 Clouds 23 1012 80 10000 0.74 311 05:35 08.08.2022
85 Clouds 20 1011 96 3260 0.7 312 01:55 08.08.2022
86 Clouds 21 1010 92 8587 0.52 1 21:51 07.08.2022
87 Clouds 21 1010 92 8587 0.52 1 21:32 07.08.2022
88 Clouds 21 1010 96 10000 0.78 146 20:25 07.08.2022
89 Clouds 21 1010 96 10000 0.78 146 19:53 07.08.2022
90 Clouds 22 1010 96 10000 0.59 157 19:29 07.08.2022
91 Clouds 22 1010 97 860 0.79 123 18:21 07.08.2022
92 Clouds 22 1009 99 648 0.86 162 16:53 07.08.2022
93 Clouds 22 1009 98 361 1.24 180 15:54 07.08.2022
94 Clouds 22 1008 97 541 1.25 191 14:39 07.08.2022
95 Clouds 23 1008 89 7643 2.25 204 12:59 07.08.2022
96 Clouds 25 1007 81 8106 3.26 195 10:59 07.08.2022
97 Clouds 25 1008 79 10000 3.04 191 10:28 07.08.2022
98 Clouds 21 1011 93 1786 0.78 200 04:58 07.08.2022
99 Clouds 21 1010 97 2991 0.75 180 03:19 07.08.2022
100 Rain 21 1008 95 10000 0.17 124 23:37 06.08.2022
101 Clouds 21 1009 96 3929 0.67 176 22:20 06.08.2022
102 Clouds 21 1009 92 10000 0.99 183 20:24 06.08.2022
103 Clouds 21 1009 97 4000 1.15 187 19:39 06.08.2022
104 Clouds 22 1009 95 10000 0.72 164 18:22 06.08.2022
105 Clouds 22 1008 94 10000 0.63 202 16:40 06.08.2022
106 Clouds 23 1007 89 10000 0.81 183 14:31 06.08.2022
107 Clouds 23 1007 88 10000 1.38 208 13:40 06.08.2022
108 Clouds 25 1007 80 10000 2.36 194 11:24 06.08.2022
109 Clouds 25 1008 78 10000 2.95 199 09:50 06.08.2022
110 Clouds 25 1009 75 10000 2.96 209 08:28 06.08.2022
111 Clouds 22 1011 82 10000 0.1 156 03:35 06.08.2022
112 Clouds 20 1011 86 10000 1.34 18 23:32 05.08.2022
113 Clouds 19 1012 89 10000 1.24 29 21:54 05.08.2022
114 Clouds 20 1011 88 10000 0.25 197 19:32 05.08.2022
115 Clouds 21 1010 83 10000 0.55 45 18:44 05.08.2022
116 Clouds 22 1010 82 10000 1.54 29 17:27 05.08.2022
117 Clouds 22 1010 82 10000 1.54 29 16:48 05.08.2022
118 Clouds 22 1010 86 10000 0.75 25 15:21 05.08.2022
119 Clouds 22 1010 85 10000 0.74 218 13:59 05.08.2022
120 Clouds 23 1010 83 10000 1.04 211 13:23 05.08.2022
121 Clouds 23 1011 82 10000 0.66 212 12:24 05.08.2022
122 Clouds 22 1011 84 10000 0.68 224 10:44 05.08.2022
123 Clouds 22 1013 87 10000 1.52 198 08:25 05.08.2022
124 Clouds 22 1013 82 10000 1.29 195 06:41 05.08.2022
125 Clouds 21 1011 91 10000 0.33 315 00:34 05.08.2022
126 Clouds 21 1013 93 2918 0.51 349 22:29 04.08.2022
127 Clouds 21 1013 93 3889 0.19 75 21:26 04.08.2022
128 Clouds 21 1013 93 3889 0.19 75 20:43 04.08.2022
129 Clouds 21 1013 91 10000 0.11 141 19:40 04.08.2022
130 Clouds 22 1012 87 10000 0.4 256 18:36 04.08.2022
131 Clouds 22 1012 86 10000 0.88 45 17:38 04.08.2022
132 Clouds 22 1012 94 1963 2.06 177 14:22 04.08.2022
133 Clouds 23 1011 88 10000 2.7 200 12:57 04.08.2022
134 Clouds 26 1010 77 10000 3.98 207 11:18 04.08.2022
135 Clouds 26 1011 64 10000 3.13 200 07:53 04.08.2022
136 Rain 26 1011 63 10000 2.62 203 06:40 04.08.2022
137 Clear 20 1014 71 10000 1.74 28 02:33 04.08.2022
138 Clouds 19 1013 74 10000 1.94 21 23:45 03.08.2022
139 Clouds 20 1013 77 10000 2.13 15 22:55 03.08.2022
140 Clouds 20 1014 83 10000 1.43 25 20:50 03.08.2022
141 Rain 20 1013 82 10000 0.79 60 19:46 03.08.2022
142 Clouds 21 1013 83 10000 0.82 23 18:37 03.08.2022
143 Clouds 22 1012 87 8354 0.2 138 16:26 03.08.2022
144 Clouds 22 1012 87 8354 0.2 138 15:45 03.08.2022
145 Clouds 25 1010 75 10000 3.4 204 12:44 03.08.2022
146 Clouds 27 1010 61 10000 3.53 202 09:46 03.08.2022
147 Clear 23 1013 55 10000 1.24 192 04:51 03.08.2022
148 Clear 22 1012 58 10000 0.74 26 04:21 03.08.2022
149 Clear 18 1013 70 10000 2.81 21 02:25 03.08.2022
150 Clear 18 1013 75 10000 1.55 17 23:54 02.08.2022
151 Clear 19 1013 77 10000 2.23 24 21:59 02.08.2022
152 Clear 19 1013 77 10000 2.23 24 21:40 02.08.2022
153 Clouds 20 1013 79 10000 1.3 44 20:25 02.08.2022
154 Clouds 21 1011 84 10000 0.78 66 16:51 02.08.2022
155 Clouds 23 1009 77 10000 2.33 200 13:54 02.08.2022
156 Clouds 26 1007 67 10000 4.13 205 10:34 02.08.2022
157 Clouds 26 1008 64 10000 3.55 203 08:36 02.08.2022
158 Clear 26 1009 64 10000 3.28 201 07:51 02.08.2022
159 Clear 23 1010 62 10000 0.54 207 04:56 02.08.2022
160 Clear 19 1011 74 10000 2.13 32 02:30 02.08.2022
161 Clouds 19 1010 79 10000 1.13 41 23:25 01.08.2022
162 Clouds 20 1010 80 10000 1.38 34 21:48 01.08.2022
163 Clouds 20 1011 85 10000 1.02 32 20:27 01.08.2022
164 Clouds 20 1011 82 10000 1.55 41 18:56 01.08.2022
165 Clouds 20 1011 90 10000 1 65 17:22 01.08.2022
166 Clouds 20 1011 90 10000 1 65 16:48 01.08.2022
167 Clouds 20 1010 91 10000 0.59 117 15:46 01.08.2022
168 Clouds 22 1009 84 10000 0.62 187 15:19 01.08.2022
169 Clouds 23 1009 75 10000 0.42 219 13:39 01.08.2022
170 Clouds 22 1010 76 10000 0.7 185 11:38 01.08.2022
171 Clouds 21 1011 77 10000 1.07 39 09:38 01.08.2022
172 Clouds 20 1013 92 3750 1.14 307 08:18 01.08.2022
173 Clouds 20 1011 86 10000 0.63 240 04:43 01.08.2022
174 Clouds 20 1010 89 10000 0.5 91 02:31 01.08.2022
175 Clouds 20 1010 89 5468 1.2 44 22:54 31.07.2022
176 Clouds 20 1010 89 5468 1.2 44 22:36 31.07.2022
177 Clouds 19 1010 89 9863 0.5 349 20:46 31.07.2022
178 Clouds 19 1011 90 10000 0.82 27 19:25 31.07.2022
179 Clouds 20 1011 89 10000 0.65 41 17:43 31.07.2022
180 Clouds 21 1010 86 10000 0.26 90 15:30 31.07.2022
181 Rain 21 1009 88 10000 0.35 72 13:21 31.07.2022
182 Rain 21 1009 89 10000 0.5 195 11:45 31.07.2022
183 Clouds 20 1010 96 6424 0.47 203 09:27 31.07.2022
184 Clouds 22 1010 91 10000 1.97 191 06:37 31.07.2022
185 Clouds 20 1010 95 10000 0.27 120 02:56 31.07.2022
186 Clouds 20 1010 91 10000 0.97 40 23:29 30.07.2022
187 Clouds 20 1011 92 10000 0.72 41 22:19 30.07.2022
188 Clouds 20 1011 92 10000 0.72 41 21:40 30.07.2022
189 Clouds 20 1011 92 10000 0.9 45 20:51 30.07.2022
190 Clouds 21 1011 93 10000 0.41 34 19:58 30.07.2022
191 Clouds 20 1012 92 10000 0.49 46 18:26 30.07.2022
192 Rain 20 1012 94 10000 0.37 73 16:54 30.07.2022
193 Clouds 21 1012 96 10000 0.53 194 15:35 30.07.2022
194 Clouds 21 1011 92 8257 1.4 193 14:53 30.07.2022
195 Clouds 22 1011 87 7867 1.61 193 12:47 30.07.2022
196 Clouds 22 1011 88 7416 1.98 184 11:55 30.07.2022
197 Clouds 22 1012 89 3709 2.51 191 10:25 30.07.2022
198 Clouds 22 1012 89 3709 2.51 191 09:46 30.07.2022
199 Clouds 22 1013 88 10000 2.21 190 07:47 30.07.2022
200 Clouds 20 1013 90 10000 0.35 40 02:36 30.07.2022
201 Clouds 20 1012 91 10000 0.15 149 01:46 30.07.2022
202 Clouds 21 1013 89 5661 1.28 29 22:25 29.07.2022
203 Clouds 20 1014 92 5529 0.93 51 20:59 29.07.2022
204 Clouds 20 1014 88 10000 0.92 60 19:48 29.07.2022
205 Clouds 21 1014 90 10000 0.69 29 17:53 29.07.2022
206 Clouds 22 1013 94 4944 0.84 191 15:21 29.07.2022
207 Clouds 21 1014 94 3998 0.36 222 12:59 29.07.2022
208 Clouds 21 1013 97 638 1.79 225 10:35 29.07.2022
209 Clouds 23 1013 89 909 3.4 206 08:49 29.07.2022
210 Clouds 24 1013 82 3579 3.54 206 07:54 29.07.2022
211 Clouds 19 1015 84 10000 1.38 34 01:47 29.07.2022
212 Clouds 19 1015 87 10000 0.99 42 22:49 28.07.2022
213 Clouds 20 1015 86 10000 1.02 31 21:00 28.07.2022
214 Clouds 20 1016 87 10000 0.58 19 20:30 28.07.2022
215 Clouds 20 1016 86 10000 1.36 34 19:43 28.07.2022
216 Clouds 20 1016 89 10000 1.24 43 18:50 28.07.2022
217 Clouds 20 1016 89 10000 0.95 38 17:43 28.07.2022
218 Clouds 21 1015 90 10000 0.93 27 16:51 28.07.2022
219 Clouds 21 1015 93 10000 0.27 47 15:30 28.07.2022
220 Clouds 22 1014 95 329 1.06 214 13:29 28.07.2022
221 Rain 23 1014 94 630 2.66 202 10:37 28.07.2022
222 Clouds 24 1014 79 10000 2.45 200 06:42 28.07.2022
223 Clouds 22 1016 85 10000 1.38 208 05:29 28.07.2022
224 Clouds 20 1014 92 10000 0.4 5 01:23 28.07.2022
225 Rain 21 1015 89 10000 0.53 11 22:41 27.07.2022
226 Clouds 21 1016 93 10000 0.47 2 21:29 27.07.2022
227 Clouds 21 1016 90 10000 0.66 174 19:43 27.07.2022
228 Clouds 22 1015 85 10000 0.83 19 17:50 27.07.2022
229 Clouds 21 1015 90 10000 0.83 351 15:52 27.07.2022
230 Clouds 21 1015 92 9311 0.64 334 15:20 27.07.2022
231 Clouds 21 1015 92 9311 0.64 334 14:40 27.07.2022
232 Clouds 21 1015 91 2685 0.84 358 12:50 27.07.2022
233 Clouds 22 1016 91 312 1.07 182 08:44 27.07.2022
234 Clouds 23 1015 86 7362 1.91 163 07:24 27.07.2022
235 Rain 21 1014 91 10000 0.47 144 02:42 27.07.2022
236 Clouds 21 1015 96 2096 0.24 27 22:29 26.07.2022
237 Clouds 21 1016 96 2096 0.44 113 21:23 26.07.2022
238 Rain 21 1016 96 2096 0.44 113 20:43 26.07.2022
239 Rain 21 1016 97 1986 0.43 33 18:44 26.07.2022
240 Rain 21 1016 96 2157 0.35 137 18:20 26.07.2022
241 Clouds 21 1016 98 1624 0.47 64 16:46 26.07.2022
242 Clouds 22 1015 98 1438 1.12 190 15:42 26.07.2022
243 Clouds 22 1014 93 1931 1.18 199 13:47 26.07.2022
244 Clouds 23 1014 93 2047 2.28 204 11:40 26.07.2022
245 Clouds 23 1014 91 4950 2.66 199 09:32 26.07.2022
246 Clouds 23 1016 91 1898 2.63 202 07:31 26.07.2022
247 Clouds 21 1016 96 3241 0.33 79 01:21 26.07.2022
248 Clouds 21 1016 97 4360 0.36 157 23:33 25.07.2022
249 Clouds 21 1016 97 4280 0.43 151 22:33 25.07.2022
250 Clouds 21 1016 97 4309 0.45 156 21:43 25.07.2022
251 Clouds 21 1017 97 4377 0.49 178 20:42 25.07.2022
252 Clouds 21 1017 96 2322 0.33 173 19:51 25.07.2022
253 Clouds 21 1017 91 10000 0.62 39 18:23 25.07.2022
254 Clouds 21 1017 91 10000 0.62 39 17:33 25.07.2022
255 Clouds 21 1015 98 3361 0.74 191 15:37 25.07.2022
256 Clouds 22 1014 93 469 1.69 206 12:33 25.07.2022
257 Clouds 22 1014 94 694 1.81 192 10:38 25.07.2022
258 Clouds 24 1014 83 10000 3.03 206 06:51 25.07.2022
259 Clouds 21 1014 95 10000 0.51 38 23:56 24.07.2022
260 Clouds 20 1014 97 1484 0.55 141 23:21 24.07.2022
261 Clouds 20 1014 97 1484 0.55 141 22:41 24.07.2022
262 Clouds 21 1014 98 10000 0.73 207 21:30 24.07.2022
263 Clouds 21 1014 94 2973 0.69 209 20:56 24.07.2022
264 Clouds 21 1014 94 2992 0.51 194 20:32 24.07.2022
265 Clouds 21 1015 92 10000 0.34 330 18:59 24.07.2022
266 Clouds 22 1014 98 1185 0.85 153 16:53 24.07.2022
267 Clouds 22 1013 99 519 1.42 181 15:53 24.07.2022
268 Clouds 22 1012 97 1006 1.78 196 14:41 24.07.2022
269 Clouds 23 1011 94 1300 1.91 212 13:43 24.07.2022
270 Clouds 23 1011 92 1301 2.09 201 12:19 24.07.2022
271 Clouds 23 1012 90 1425 2.26 201 11:28 24.07.2022
272 Clouds 24 1012 89 1390 2.43 203 09:33 24.07.2022
273 Clouds 24 1012 82 8387 2.76 199 07:53 24.07.2022
274 Clouds 24 1012 84 4047 2.31 206 06:55 24.07.2022
275 Rain 21 1013 98 3485 0.38 187 02:41 24.07.2022
276 Clouds 22 1012 91 4292 0.43 44 22:37 23.07.2022
277 Clouds 22 1014 95 1747 0.29 161 20:47 23.07.2022
278 Clouds 21 1014 99 905 0.89 202 18:59 23.07.2022
279 Clouds 22 1014 96 1869 0.94 191 17:58 23.07.2022
280 Clouds 22 1013 94 2052 0.56 216 17:25 23.07.2022
281 Clouds 22 1013 91 2130 0.51 182 16:21 23.07.2022
282 Clouds 23 1012 90 10000 0.7 246 15:21 23.07.2022
283 Clouds 23 1012 90 10000 0.7 246 14:52 23.07.2022
284 Clouds 23 1012 90 10000 1.08 184 14:21 23.07.2022
285 Rain 23 1012 90 2614 1.99 200 11:55 23.07.2022
286 Clouds 24 1012 88 821 2.7 205 10:37 23.07.2022
287 Clouds 24 1012 86 1213 3.06 204 09:38 23.07.2022
288 Clouds 24 1013 88 1226 2.2 202 07:18 23.07.2022
289 Clouds 22 1013 92 10000 0.49 173 03:37 23.07.2022
290 Clouds 22 1012 93 10000 0.16 226 00:34 23.07.2022
291 Clouds 21 1013 97 7288 0.6 166 21:36 22.07.2022
292 Clouds 22 1013 93 10000 0.65 189 20:31 22.07.2022
293 Clouds 21 1014 98 1158 0.26 57 18:42 22.07.2022
294 Clouds 22 1013 95 10000 0.46 235 17:40 22.07.2022
295 Clouds 22 1012 95 9072 0.58 185 15:48 22.07.2022
296 Clouds 23 1011 92 2398 1.89 194 12:47 22.07.2022
297 Clouds 26 1011 79 8577 3.4 197 10:23 22.07.2022
298 Clouds 26 1011 77 10000 3.39 200 09:24 22.07.2022
299 Rain 26 1012 77 10000 3.08 201 07:58 22.07.2022
300 Clouds 24 1012 75 10000 0.51 230 04:24 22.07.2022
301 Clouds 21 1013 89 10000 1.18 33 23:44 21.07.2022
302 Clouds 21 1014 92 8863 0.19 275 21:55 21.07.2022
303 Clouds 21 1014 89 10000 0.71 29 20:28 21.07.2022
304 Clouds 21 1014 90 9269 0.4 158 18:52 21.07.2022
305 Clouds 22 1011 85 10000 0.96 1 17:22 21.07.2022
306 Clouds 22 1011 85 10000 0.96 1 16:43 21.07.2022
307 Clouds 23 1011 88 10000 0.58 102 14:49 21.07.2022
308 Clouds 23 1011 86 1592 0.49 194 13:58 21.07.2022
309 Clouds 23 1011 92 1707 1.88 203 12:27 21.07.2022
310 Clouds 23 1011 91 819 2.36 203 10:37 21.07.2022
311 Rain 24 1011 88 1528 2.81 198 08:54 21.07.2022
312 Rain 24 1011 88 1528 2.81 198 08:35 21.07.2022
313 Rain 24 1011 85 8187 2.17 203 07:23 21.07.2022
314 Clouds 22 1009 84 10000 0.59 298 03:48 21.07.2022
315 Clouds 21 1009 92 5884 1.28 340 23:23 20.07.2022
316 Clouds 21 1010 95 5343 0.9 343 22:20 20.07.2022
317 Clouds 21 1010 97 4071 0.15 3 20:50 20.07.2022
318 Clouds 21 1010 97 2892 0.32 45 19:48 20.07.2022
319 Clouds 22 1010 89 10000 0.7 197 19:20 20.07.2022
320 Rain 22 1010 89 10000 0.7 197 18:33 20.07.2022
321 Clouds 22 1010 89 9617 0.92 27 17:43 20.07.2022
322 Clouds 22 1009 93 3770 0.76 223 15:59 20.07.2022
323 Clouds 23 1008 92 2399 1.34 181 14:54 20.07.2022
324 Clouds 24 1008 85 5324 2.33 208 13:53 20.07.2022
325 Clouds 25 1007 80 10000 2.36 201 11:32 20.07.2022
326 Rain 25 1009 76 10000 3.02 198 07:39 20.07.2022
327 Clouds 21 1009 87 10000 0.32 48 02:45 20.07.2022
328 Clouds 21 1009 89 10000 0.51 9 00:46 20.07.2022
329 Clouds 22 1009 89 10000 0.34 344 23:37 19.07.2022
330 Clouds 22 1009 92 10000 0.5 185 22:21 19.07.2022
331 Clouds 22 1009 90 10000 0.53 198 21:18 19.07.2022
332 Clouds 22 1010 90 10000 0.07 210 20:23 19.07.2022
333 Clouds 22 1011 94 10000 0.33 135 18:43 19.07.2022
334 Clouds 22 1010 95 10000 0.35 72 17:57 19.07.2022
335 Clouds 22 1010 97 3984 1.05 189 16:26 19.07.2022
336 Clouds 23 1009 94 4048 1.45 182 14:31 19.07.2022
337 Clouds 25 1008 83 10000 3.09 202 11:38 19.07.2022
338 Clouds 26 1008 81 10000 3.1 202 10:31 19.07.2022
339 Clouds 26 1009 76 10000 3.35 208 08:48 19.07.2022
340 Clouds 26 1010 75 10000 2.86 203 08:22 19.07.2022
341 Clouds 24 1011 81 10000 2.18 197 07:18 19.07.2022
342 Clouds 23 1012 85 8783 1.23 206 05:27 19.07.2022
343 Clouds 23 1012 85 8783 1.23 206 04:48 19.07.2022
344 Clouds 21 1012 92 10000 0.2 307 00:35 19.07.2022
345 Clouds 21 1012 92 10000 0.29 33 23:31 18.07.2022
346 Clouds 21 1012 93 10000 0.51 52 22:58 18.07.2022
347 Clouds 20 1012 93 10000 0.43 44 21:58 18.07.2022
348 Clouds 21 1012 92 10000 0.95 18 20:51 18.07.2022
349 Clouds 22 1012 91 10000 0.75 349 19:26 18.07.2022
350 Clouds 22 1012 92 10000 0.29 40 17:24 18.07.2022
351 Clouds 23 1012 92 10000 0.29 159 15:51 18.07.2022
352 Clouds 23 1011 90 10000 1.24 194 14:34 18.07.2022
353 Clouds 24 1011 86 10000 1.7 200 12:58 18.07.2022
354 Clouds 24 1012 85 4707 2.05 195 11:30 18.07.2022
355 Clouds 26 1011 72 10000 3.95 201 08:54 18.07.2022
356 Clouds 26 1012 71 10000 3.37 201 07:38 18.07.2022
357 Clouds 20 1014 75 10000 1.49 35 01:24 18.07.2022
358 Clouds 20 1014 73 10000 1.62 27 22:43 17.07.2022
359 Clouds 21 1014 73 10000 1.57 31 22:22 17.07.2022
360 Clouds 21 1014 73 10000 1.3 36 21:23 17.07.2022
361 Clouds 21 1014 73 10000 1.3 36 20:44 17.07.2022
362 Clouds 21 1015 73 10000 1.67 30 19:34 17.07.2022
363 Clouds 22 1015 74 10000 1.83 29 18:56 17.07.2022
364 Clouds 22 1014 77 10000 1.73 36 17:39 17.07.2022
365 Clouds 22 1014 83 10000 1.43 43 16:51 17.07.2022
366 Clouds 22 1014 89 10000 0.86 49 16:27 17.07.2022
367 Clouds 24 1013 82 10000 1.1 182 14:58 17.07.2022
368 Clouds 25 1012 70 10000 1.21 210 13:32 17.07.2022
369 Clouds 26 1012 65 10000 1.2 254 12:22 17.07.2022
370 Clouds 25 1014 67 10000 1.45 292 09:30 17.07.2022
371 Clouds 24 1016 67 10000 1.3 343 06:37 17.07.2022
372 Clouds 20 1016 83 10000 0.06 119 02:33 17.07.2022
373 Clouds 20 1015 75 10000 2.23 13 23:22 16.07.2022
374 Clouds 21 1015 76 10000 1.83 16 21:57 16.07.2022
375 Clouds 20 1016 77 10000 1.69 21 20:26 16.07.2022
376 Clouds 21 1015 78 10000 2.32 22 18:42 16.07.2022
377 Clouds 22 1013 81 10000 1.48 30 17:20 16.07.2022
378 Clouds 23 1012 80 10000 0.86 200 15:23 16.07.2022
379 Clouds 25 1011 70 10000 3.13 202 11:55 16.07.2022
380 Clouds 26 1011 62 10000 3.55 202 09:37 16.07.2022
381 Clouds 26 1011 59 10000 3.55 202 08:58 16.07.2022
382 Clouds 26 1011 59 10000 3.55 202 08:33 16.07.2022
383 Clouds 25 1013 57 10000 2.14 201 05:59 16.07.2022
384 Clouds 23 1014 61 10000 1.13 33 03:31 16.07.2022
385 Clouds 19 1014 72 10000 2.97 25 23:52 15.07.2022
386 Clouds 19 1014 72 10000 2.59 25 22:44 15.07.2022
387 Clouds 19 1014 72 10000 2.49 23 21:31 15.07.2022
388 Clouds 20 1014 73 10000 2.69 30 20:32 15.07.2022
389 Clouds 20 1015 77 10000 2.92 30 18:46 15.07.2022
390 Clouds 20 1015 78 10000 2.91 35 17:49 15.07.2022
391 Clouds 21 1014 82 10000 1.66 43 16:23 15.07.2022
392 Clouds 21 1014 84 10000 1.41 22 13:48 15.07.2022
393 Clouds 21 1014 90 7654 1.04 208 12:22 15.07.2022
394 Clouds 21 1014 90 3413 2.65 200 10:51 15.07.2022
395 Clouds 21 1015 81 4544 1.36 332 07:47 15.07.2022
396 Clouds 19 1013 90 5761 1.1 15 02:39 15.07.2022
397 Clouds 20 1012 90 7013 0.05 183 00:39 15.07.2022
398 Clouds 20 1012 84 10000 0.57 256 22:54 14.07.2022
399 Clouds 21 1012 82 10000 1.1 22 21:57 14.07.2022
400 Clouds 21 1012 82 10000 1.1 22 21:33 14.07.2022
401 Clouds 21 1012 82 10000 1.36 31 20:57 14.07.2022
402 Clouds 21 1012 82 10000 1.36 31 20:37 14.07.2022
403 Clouds 21 1013 83 10000 0.57 15 20:18 14.07.2022
404 Clouds 20 1011 89 10000 2.61 40 16:42 14.07.2022
405 Rain 20 1011 96 2493 0.69 338 16:18 14.07.2022
406 Clouds 21 1010 98 1450 1.5 230 14:44 14.07.2022
407 Clouds 21 1010 98 1450 1.5 230 14:44 14.07.2022
408 Clouds 22 1009 91 4523 1.99 193 13:39 14.07.2022
409 Clouds 24 1008 78 6873 3.29 208 12:23 14.07.2022
410 Clouds 25 1008 73 10000 2.53 210 11:26 14.07.2022
411 Clouds 25 1008 73 10000 2.53 210 10:49 14.07.2022
412 Clouds 22 1011 89 4013 1.75 195 08:28 14.07.2022
413 Clouds 22 1010 78 10000 0.95 210 04:18 14.07.2022
414 Clouds 20 1009 86 10000 0.58 72 00:55 14.07.2022
415 Clouds 20 1009 87 10000 0.76 46 00:18 14.07.2022
416 Clouds 20 1010 88 10000 0.67 13 22:28 13.07.2022
417 Clouds 20 1010 88 10000 0.67 13 21:37 13.07.2022
418 Clouds 20 1010 87 10000 0.9 30 20:38 13.07.2022
419 Clouds 22 1009 83 10000 0.41 37 18:26 13.07.2022
420 Clouds 22 1008 85 10000 1.16 34 17:22 13.07.2022
421 Rain 22 1008 88 10000 0.09 89 16:18 13.07.2022
422 Clouds 24 1007 82 10000 2.08 194 13:57 13.07.2022
423 Clouds 24 1007 80 10000 3.35 197 11:33 13.07.2022
424 Clouds 25 1007 78 9118 3.5 199 10:44 13.07.2022
425 Clouds 26 1007 73 8792 3.65 202 09:49 13.07.2022
426 Clouds 26 1007 71 8353 3.88 203 09:20 13.07.2022
427 Clouds 23 1009 78 10000 2.2 211 05:21 13.07.2022
428 Clouds 21 1009 85 10000 0.41 61 00:49 13.07.2022
429 Clouds 21 1009 88 10000 0.35 147 22:48 12.07.2022
430 Clouds 21 1010 87 7104 0.72 165 21:49 12.07.2022
431 Clouds 21 1010 87 6293 0.59 144 20:54 12.07.2022
432 Clouds 21 1010 87 6293 0.59 144 20:36 12.07.2022
433 Clouds 22 1010 88 10000 0.34 109 18:53 12.07.2022
434 Clouds 22 1010 89 10000 0.19 130 17:32 12.07.2022
435 Clouds 22 1009 93 10000 0.87 190 15:37 12.07.2022
436 Rain 23 1008 87 10000 1.93 201 13:55 12.07.2022
437 Clouds 25 1008 79 10000 3.15 201 11:59 12.07.2022
438 Clouds 25 1008 76 10000 3.37 199 10:47 12.07.2022
439 Clouds 25 1010 76 10000 3.49 196 09:19 12.07.2022
440 Clouds 26 1010 73 10000 3.36 200 08:18 12.07.2022
441 Clouds 24 1011 78 10000 2.2 202 05:57 12.07.2022
442 Clouds 24 1011 78 10000 2.2 202 05:39 12.07.2022
443 Clouds 21 1012 89 10000 0.58 32 01:43 12.07.2022
444 Clouds 21 1012 85 10000 0.94 19 22:59 11.07.2022
445 Clouds 21 1012 87 9524 1.06 18 21:45 11.07.2022
446 Clouds 20 1013 88 9106 0.73 11 20:33 11.07.2022
447 Clouds 21 1012 86 10000 0.34 31 19:33 11.07.2022
448 Clouds 22 1012 87 9084 0.82 38 18:32 11.07.2022
449 Clouds 21 1013 89 5814 0.78 33 17:39 11.07.2022
450 Clouds 21 1012 97 1435 0.51 216 16:18 11.07.2022
451 Clouds 23 1010 88 5500 1.76 208 14:32 11.07.2022
452 Clouds 24 1010 77 10000 1.72 196 11:40 11.07.2022
453 Clouds 22 1012 82 10000 0.12 20 10:22 11.07.2022
454 Clouds 24 1010 78 10000 1.84 186 09:42 11.07.2022
455 Clouds 23 1011 79 10000 0.88 184 08:33 11.07.2022
456 Clouds 21 1014 91 5901 0.76 273 05:51 11.07.2022
457 Clouds 21 1012 91 10000 0.43 70 00:22 11.07.2022
458 Clouds 21 1012 90 10000 0.35 43 22:56 10.07.2022
459 Clouds 21 1013 92 10000 0.59 87 21:51 10.07.2022
460 Clouds 21 1013 92 8098 0.51 149 20:54 10.07.2022
461 Clouds 21 1012 90 10000 0.21 174 19:50 10.07.2022
462 Clouds 21 1012 94 4857 0.77 33 18:49 10.07.2022
463 Clouds 21 1012 97 3616 0.27 50 17:37 10.07.2022
464 Clouds 21 1011 97 720 1.07 193 16:57 10.07.2022
465 Clouds 21 1009 98 515 0.84 197 15:33 10.07.2022
466 Clouds 23 1009 91 735 2 198 14:33 10.07.2022
467 Clouds 21 1010 92 5119 0.31 122 12:30 10.07.2022
468 Clouds 21 1011 96 937 0.98 219 11:25 10.07.2022
469 Clouds 21 1011 97 3805 1.5 207 08:46 10.07.2022
470 Clouds 21 1011 95 3369 2.54 196 07:59 10.07.2022
471 Clouds 21 1011 92 3810 0.75 143 03:38 10.07.2022
472 Clouds 21 1009 97 1034 0.46 155 23:30 09.07.2022
473 Clouds 21 1009 96 764 0.23 150 22:25 09.07.2022
474 Clouds 21 1010 96 2042 0.2 299 21:29 09.07.2022
475 Clouds 22 1009 98 411 0.61 224 18:45 09.07.2022
476 Rain 22 1009 96 875 0.63 184 17:59 09.07.2022
477 Clouds 22 1008 96 302 0.55 93 16:59 09.07.2022
478 Rain 22 1008 94 262 1.48 201 15:44 09.07.2022
479 Clouds 23 1007 97 179 0.56 142 15:25 09.07.2022
480 Clouds 23 1007 95 388 2.59 199 13:54 09.07.2022
481 Clouds 24 1007 87 2763 1.68 204 13:27 09.07.2022
482 Rain 24 1008 88 1607 2.39 200 11:33 09.07.2022
483 Clouds 24 1008 87 3413 2.14 187 10:24 09.07.2022
484 Clouds 25 1009 83 6305 2.66 207 08:25 09.07.2022
485 Clouds 25 1009 80 10000 3.1 209 06:59 09.07.2022
486 Clouds 24 1009 80 10000 1.67 206 04:34 09.07.2022
487 Clouds 22 1010 94 5027 0.32 208 23:22 08.07.2022
488 Clouds 22 1011 93 4796 0.34 261 21:59 08.07.2022
489 Clouds 22 1011 94 4738 0.47 258 21:18 08.07.2022
490 Clouds 22 1011 94 4738 0.47 258 20:30 08.07.2022
491 Clouds 22 1011 95 1500 0.67 187 18:33 08.07.2022
492 Clouds 23 1011 96 870 0.44 217 17:33 08.07.2022
493 Clouds 23 1011 96 870 0.44 217 17:33 08.07.2022
494 Clouds 23 1010 96 10000 1.45 213 15:30 08.07.2022
495 Clouds 24 1009 90 10000 1.55 198 14:49 08.07.2022
496 Clouds 27 1008 79 7883 3.3 204 12:28 08.07.2022
497 Clouds 27 1008 76 10000 3.22 201 10:45 08.07.2022
498 Clouds 27 1010 76 10000 3.33 201 09:24 08.07.2022
499 Clouds 26 1011 77 10000 2.15 205 06:55 08.07.2022
500 Clouds 24 1012 81 7518 1.41 198 04:31 08.07.2022
501 Clouds 22 1013 90 10000 0.61 20 23:56 07.07.2022
502 Clouds 22 1013 91 10000 0.68 8 22:47 07.07.2022
503 Clouds 22 1013 92 10000 0.57 2 21:39 07.07.2022
504 Clouds 23 1013 87 10000 0.59 155 18:43 07.07.2022
505 Clouds 23 1012 87 10000 0.25 148 17:41 07.07.2022
506 Clouds 23 1012 90 1707 0.19 222 15:57 07.07.2022
507 Clouds 24 1012 87 2719 1.4 191 13:30 07.07.2022
508 Clouds 24 1012 87 1589 1.97 195 12:40 07.07.2022
509 Clouds 25 1012 84 10000 2.29 208 12:21 07.07.2022
510 Clouds 25 1012 84 10000 2.29 208 11:31 07.07.2022
511 Clouds 25 1013 87 10000 2.88 211 10:44 07.07.2022
512 Clouds 25 1013 83 2182 3.47 204 10:26 07.07.2022
513 Clouds 26 1014 74 10000 2.66 204 07:58 07.07.2022
514 Clouds 23 1017 81 10000 1.31 198 05:23 07.07.2022
515 Clouds 21 1017 84 10000 0.9 39 23:37 06.07.2022
516 Clouds 21 1017 84 10000 1.13 26 23:19 06.07.2022
517 Clouds 21 1017 84 10000 1.13 26 22:57 06.07.2022
518 Clouds 21 1017 84 10000 1.13 26 22:39 06.07.2022
519 Clouds 21 1017 84 10000 1.33 45 21:59 06.07.2022
520 Clouds 21 1016 86 10000 0.31 125 19:41 06.07.2022
521 Clouds 22 1016 83 10000 0.8 92 18:41 06.07.2022
522 Clouds 22 1015 86 10000 1.06 48 16:43 06.07.2022
523 Clouds 24 1013 83 10000 1.57 174 15:28 06.07.2022
524 Clouds 26 1011 79 4557 2.97 203 12:44 06.07.2022
525 Clouds 27 1011 69 10000 2.74 208 11:49 06.07.2022
526 Rain 26 1013 81 9915 2.09 201 10:22 06.07.2022
527 Clouds 26 1013 82 8910 2.61 195 08:41 06.07.2022
528 Clouds 26 1012 80 6974 2.93 203 07:36 06.07.2022
529 Clouds 26 1012 74 10000 2.28 201 05:31 06.07.2022
530 Clouds 22 1012 84 10000 1.23 24 22:49 05.07.2022
531 Clouds 22 1012 86 10000 0.88 49 22:27 05.07.2022
532 Clouds 22 1012 88 10000 0.91 43 20:42 05.07.2022
533 Clouds 22 1012 92 5638 0.15 50 19:44 05.07.2022
534 Clouds 23 1011 86 7242 0.89 151 19:25 05.07.2022
535 Clouds 24 1010 82 10000 0.56 358 17:48 05.07.2022
536 Clouds 24 1010 84 6667 0.53 338 16:56 05.07.2022
537 Clouds 24 1010 87 3246 0.54 181 15:38 05.07.2022
538 Clouds 24 1009 87 10000 0.87 197 14:33 05.07.2022
539 Clouds 25 1008 88 10000 2.71 203 12:48 05.07.2022
540 Clouds 26 1007 84 10000 3.23 202 11:52 05.07.2022
541 Clouds 27 1007 78 10000 3.51 204 10:42 05.07.2022
542 Clouds 28 1007 69 10000 3.28 201 09:28 05.07.2022
543 Clouds 28 1007 71 10000 3.13 202 08:18 05.07.2022
544 Clouds 26 1009 77 10000 2.33 201 05:45 05.07.2022
545 Rain 23 1010 88 2533 0.66 235 04:25 05.07.2022
546 Clouds 22 1010 95 1468 0.54 281 00:38 05.07.2022
547 Clouds 22 1010 97 560 0.42 244 23:34 04.07.2022
548 Clouds 22 1010 97 558 0.99 223 22:50 04.07.2022
549 Clouds 22 1010 97 804 1.31 216 21:48 04.07.2022
550 Clouds 23 1010 97 1139 0.84 260 20:54 04.07.2022
551 Clouds 23 1010 97 1139 0.84 260 20:35 04.07.2022
552 Clouds 22 1010 96 10000 0.87 231 19:55 04.07.2022
553 Clouds 22 1010 96 10000 0.87 231 19:36 04.07.2022
554 Clouds 23 1010 96 7131 0.39 113 18:26 04.07.2022
555 Clouds 23 1009 96 10000 0.43 197 16:34 04.07.2022
556 Clouds 24 1008 92 4039 0.17 11 15:34 04.07.2022
557 Clouds 24 1008 95 643 1.14 213 13:33 04.07.2022
558 Clouds 24 1008 94 662 2.67 209 12:36 04.07.2022
559 Clouds 27 1007 79 4105 3.67 198 10:35 04.07.2022
560 Clouds 27 1007 75 4341 3.25 197 09:53 04.07.2022
561 Clouds 27 1008 77 10000 3.46 199 08:31 04.07.2022
562 Clouds 26 1009 75 10000 2.15 203 05:34 04.07.2022
563 Clouds 22 1009 89 6252 0.25 334 00:42 04.07.2022
564 Clouds 22 1010 89 10000 1.02 20 23:25 03.07.2022
565 Clouds 22 1011 91 10000 1.23 39 21:58 03.07.2022
566 Clouds 22 1011 93 6386 1.29 12 20:41 03.07.2022
567 Clouds 22 1011 97 5533 0.33 266 19:42 03.07.2022
568 Clouds 22 1011 96 4669 0.64 106 19:23 03.07.2022
569 Clouds 22 1010 93 5371 0.41 346 17:45 03.07.2022
570 Clouds 23 1009 89 10000 0.53 312 16:54 03.07.2022
571 Clouds 23 1008 93 1068 1.08 175 15:24 03.07.2022
572 Clouds 23 1008 93 1068 1.08 175 14:32 03.07.2022
573 Rain 24 1008 90 1322 1.59 208 13:48 03.07.2022
574 Clouds 25 1007 81 10000 2.42 199 12:41 03.07.2022
575 Clouds 26 1007 79 2292 2.56 202 11:39 03.07.2022
576 Clouds 25 1008 81 1865 2.04 202 10:39 03.07.2022
577 Clouds 25 1009 81 1489 2.18 189 09:59 03.07.2022
578 Clouds 25 1009 79 8075 2.51 200 07:36 03.07.2022
579 Clouds 23 1010 83 10000 1.53 201 05:18 03.07.2022
580 Clouds 22 1008 90 1425 0.52 321 00:24 03.07.2022
581 Clouds 22 1009 91 4662 0.08 4 22:36 02.07.2022
582 Clouds 22 1009 91 4936 0.31 27 21:38 02.07.2022
583 Clouds 22 1010 91 10000 0.64 39 19:53 02.07.2022
584 Clouds 22 1009 93 10000 0.48 10 19:31 02.07.2022
585 Clouds 22 1010 97 4107 0.47 87 17:58 02.07.2022
586 Clouds 22 1010 97 4107 0.47 87 17:37 02.07.2022
587 Clouds 23 1008 91 10000 0.48 163 15:32 02.07.2022
588 Clouds 24 1006 86 1270 2.54 199 12:24 02.07.2022
589 Clouds 25 1007 83 1210 2.85 204 11:28 02.07.2022
590 Clouds 25 1007 83 1210 2.85 204 10:48 02.07.2022
591 Clouds 25 1007 82 1376 2.74 201 09:49 02.07.2022
592 Clouds 25 1007 81 4674 2.85 199 08:37 02.07.2022
593 Clouds 25 1007 78 10000 2.98 198 08:18 02.07.2022
594 Clouds 22 1008 81 10000 0.82 35 02:53 02.07.2022
595 Clouds 21 1008 91 10000 0.31 336 00:27 02.07.2022
596 Clouds 21 1009 92 10000 0.52 47 22:59 01.07.2022
597 Clouds 21 1010 95 5397 0.76 42 22:26 01.07.2022
598 Clouds 21 1010 95 5397 0.76 42 21:37 01.07.2022
599 Clouds 21 1010 97 4001 0.59 63 20:58 01.07.2022
600 Clouds 21 1010 95 9634 0.29 182 19:48 01.07.2022
601 Rain 22 1009 90 10000 0.96 237 19:22 01.07.2022
602 Rain 22 1009 88 10000 1.63 26 16:40 01.07.2022
603 Rain 23 1008 94 1599 1.71 192 14:27 01.07.2022
604 Clouds 24 1008 90 1618 1.94 222 13:23 01.07.2022
605 Clouds 24 1008 88 3005 2.06 203 10:53 01.07.2022
606 Clouds 24 1009 85 4900 2.46 208 10:19 01.07.2022
607 Clouds 24 1009 85 4900 2.46 208 10:19 01.07.2022
608 Rain 23 1010 89 752 1.69 210 06:21 01.07.2022
609 Clouds 21 1009 94 1629 0.55 144 02:19 01.07.2022
610 Clouds 22 1009 93 4177 0.35 312 23:34 30.06.2022
611 Clouds 22 1009 95 2039 0.49 9 22:50 30.06.2022
612 Clouds 22 1009 95 2039 0.49 9 22:31 30.06.2022
613 Clouds 21 1010 97 3432 0.76 110 21:53 30.06.2022
614 Rain 22 1010 95 10000 0.77 171 20:45 30.06.2022
615 Rain 22 1009 92 10000 0.26 19 20:20 30.06.2022
616 Clouds 22 1009 92 10000 0.26 19 19:47 30.06.2022
617 Clouds 22 1010 94 10000 0.67 348 18:52 30.06.2022
618 Clouds 22 1010 94 10000 0.72 81 17:53 30.06.2022
619 Clouds 22 1010 96 1364 0.6 125 17:18 30.06.2022
620 Rain 22 1009 97 919 0.9 175 16:18 30.06.2022
621 Rain 23 1007 95 336 1.44 195 13:59 30.06.2022
622 Clouds 24 1006 88 2152 2.69 190 13:20 30.06.2022
623 Clouds 24 1006 88 2152 2.69 190 12:33 30.06.2022
624 Clouds 25 1006 85 2374 2.11 192 10:57 30.06.2022
625 Rain 25 1006 84 2696 2.81 205 09:51 30.06.2022
626 Clouds 25 1007 82 1312 3.6 206 09:23 30.06.2022
627 Clouds 25 1008 81 3013 3.34 203 07:41 30.06.2022
628 Clouds 25 1008 76 8986 2.58 213 05:46 30.06.2022
629 Clouds 21 1008 88 10000 0.45 71 23:56 29.06.2022
630 Clouds 21 1008 88 10000 0.67 59 22:42 29.06.2022
631 Clouds 21 1009 89 10000 0.92 31 22:20 29.06.2022
632 Clouds 21 1009 90 10000 0.95 22 20:56 29.06.2022
633 Clouds 21 1009 90 10000 0.95 22 20:32 29.06.2022
634 Clouds 22 1010 91 10000 0.5 48 19:33 29.06.2022
635 Clouds 22 1010 89 10000 0.21 60 17:40 29.06.2022
636 Clouds 22 1009 89 10000 0.24 91 16:33 29.06.2022
637 Clouds 23 1007 92 4763 1.44 218 14:19 29.06.2022
638 Clouds 23 1008 91 2452 1.64 209 12:38 29.06.2022
639 Clouds 24 1008 87 4791 2.64 207 10:20 29.06.2022
640 Clouds 24 1008 87 4791 2.64 207 09:31 29.06.2022
641 Clouds 25 1007 79 1500 3.17 203 07:30 29.06.2022
642 Clouds 24 1007 76 10000 1.6 199 04:49 29.06.2022
643 Clouds 22 1008 89 10000 0.33 298 00:55 29.06.2022
644 Rain 22 1008 89 10000 0.33 298 00:35 29.06.2022
645 Clouds 22 1009 89 10000 0.16 60 22:53 28.06.2022
646 Clouds 22 1009 89 10000 0.27 70 22:23 28.06.2022
647 Clouds 22 1009 89 10000 0.27 70 21:53 28.06.2022
648 Clouds 22 1009 89 10000 0.27 70 21:31 28.06.2022
649 Clouds 23 1009 87 10000 0.63 211 20:27 28.06.2022
650 Clouds 22 1011 88 8056 0.43 168 19:32 28.06.2022
651 Clouds 22 1010 87 10000 0.18 115 18:44 28.06.2022
652 Clouds 23 1010 87 10000 0.25 115 17:39 28.06.2022
653 Clouds 23 1010 87 10000 0.53 189 15:57 28.06.2022
654 Clouds 23 1009 86 6214 0.79 206 15:21 28.06.2022
655 Clouds 23 1009 87 2557 1.6 208 14:20 28.06.2022
656 Clouds 23 1009 87 2557 1.6 208 13:50 28.06.2022
657 Clouds 24 1010 84 4374 2 197 12:54 28.06.2022
658 Clouds 26 1009 71 5533 3.36 201 11:18 28.06.2022
659 Clouds 26 1009 70 3352 3.19 199 09:28 28.06.2022
660 Clouds 26 1009 70 3352 3.19 199 08:43 28.06.2022
661 Clouds 26 1010 68 10000 3.07 200 07:42 28.06.2022
662 Clouds 24 1012 75 10000 1.79 204 05:58 28.06.2022
663 Clouds 21 1013 86 9049 0.4 201 00:56 28.06.2022
664 Clouds 22 1013 83 10000 0.66 26 23:37 27.06.2022
665 Clouds 22 1013 84 10000 0.72 355 22:52 27.06.2022
666 Clouds 22 1013 86 6314 0.68 18 21:37 27.06.2022
667 Clouds 22 1014 87 6041 0.36 359 20:52 27.06.2022
668 Clouds 22 1015 88 6844 0.41 4 19:31 27.06.2022
669 Clouds 22 1014 87 9004 0.14 216 18:25 27.06.2022
670 Clouds 23 1013 87 10000 1.1 197 16:20 27.06.2022
671 Clouds 24 1012 82 7311 2.03 207 15:22 27.06.2022
672 Clouds 25 1012 76 10000 2.7 200 13:36 27.06.2022
673 Clouds 26 1011 65 10000 3.45 203 12:56 27.06.2022
674 Clouds 28 1010 54 10000 3.91 205 10:34 27.06.2022
675 Clear 29 1011 47 10000 4.11 195 09:20 27.06.2022
676 Clear 28 1011 45 10000 3.58 196 08:29 27.06.2022
677 Clear 27 1012 50 10000 3.07 199 06:39 27.06.2022
678 Clear 23 1015 57 10000 0.21 321 03:55 27.06.2022
679 Clear 19 1015 68 10000 2.03 15 00:56 27.06.2022
680 Clear 20 1016 69 10000 1.66 8 22:18 26.06.2022
681 Clear 20 1016 68 10000 2.08 11 20:48 26.06.2022
682 Clouds 21 1016 68 10000 2.27 14 19:42 26.06.2022
683 Clouds 21 1016 68 10000 1.58 26 18:31 26.06.2022
684 Clouds 22 1015 70 10000 0.91 46 16:47 26.06.2022
685 Clouds 25 1012 57 10000 2.73 202 15:26 26.06.2022
686 Clouds 26 1011 53 10000 3.26 203 13:53 26.06.2022
687 Clear 27 1011 49 10000 3.68 202 13:20 26.06.2022
688 Clear 28 1010 44 10000 3.67 199 11:26 26.06.2022
689 Clear 28 1010 43 10000 3.8 197 10:28 26.06.2022
690 Clear 28 1010 43 10000 3.8 197 09:39 26.06.2022
691 Clear 28 1010 36 10000 3.21 201 07:45 26.06.2022
692 Clear 18 1014 63 10000 3.44 27 02:28 26.06.2022
693 Clear 18 1013 65 10000 2.81 19 00:21 26.06.2022
694 Clear 18 1013 65 10000 2.81 19 23:51 25.06.2022
695 Clear 19 1013 65 10000 2.42 15 23:23 25.06.2022
696 Clear 19 1013 65 10000 2.49 13 22:27 25.06.2022
697 Clear 19 1013 65 10000 2.49 13 21:46 25.06.2022
698 Clear 19 1013 66 10000 2.46 11 21:20 25.06.2022
699 Clouds 20 1013 68 10000 2.38 7 20:28 25.06.2022
700 Clouds 20 1013 66 10000 2.82 12 19:42 25.06.2022
701 Clouds 21 1013 76 10000 2.05 19 18:19 25.06.2022
702 Clouds 21 1013 76 10000 2.05 19 18:19 25.06.2022
703 Clouds 21 1012 79 10000 1.02 9 17:24 25.06.2022
704 Clouds 22 1011 78 10000 0.42 197 15:42 25.06.2022
705 Clouds 25 1009 57 10000 3.36 191 13:48 25.06.2022
706 Clouds 27 1008 49 10000 3.67 191 12:38 25.06.2022
707 Clear 28 1008 40 10000 3.39 202 10:58 25.06.2022
708 Clear 28 1009 36 10000 3.61 202 09:22 25.06.2022
709 Clear 28 1009 36 10000 3.61 202 08:46 25.06.2022
710 Clear 27 1009 34 10000 3.49 205 08:19 25.06.2022
711 Clear 24 1012 42 10000 0.77 217 05:23 25.06.2022
712 Clear 17 1013 62 10000 3.15 26 00:43 25.06.2022
713 Clear 18 1013 64 10000 2.45 25 22:56 24.06.2022
714 Clear 18 1013 66 10000 2.13 16 21:57 24.06.2022
715 Clear 19 1013 68 10000 2.3 13 21:19 24.06.2022
716 Clouds 19 1013 71 10000 2.75 12 20:19 24.06.2022
717 Clouds 19 1013 68 10000 2.86 11 20:19 24.06.2022
718 Clouds 19 1013 73 10000 2.81 9 19:22 24.06.2022
719 Clouds 19 1013 73 10000 2.81 9 18:49 24.06.2022
720 Clouds 19 1013 73 10000 2.81 9 18:30 24.06.2022
721 Clouds 19 1013 79 10000 2.52 17 17:41 24.06.2022
722 Clouds 20 1012 82 10000 0.46 193 15:56 24.06.2022
723 Clouds 23 1011 67 10000 3.07 190 14:29 24.06.2022
724 Clouds 23 1011 67 10000 3.07 190 13:55 24.06.2022
725 Clear 26 1009 49 10000 4.38 196 11:54 24.06.2022
726 Clear 26 1009 49 10000 4.38 196 11:34 24.06.2022
727 Clear 27 1010 40 10000 3.94 202 10:22 24.06.2022
728 Clear 27 1010 40 10000 3.94 202 09:40 24.06.2022
729 Clear 27 1011 38 10000 3.8 199 08:52 24.06.2022
730 Clear 25 1012 36 10000 3.04 202 06:58 24.06.2022
731 Clear 25 1012 36 10000 3.04 202 06:40 24.06.2022
732 Clear 24 1013 37 10000 2 207 05:57 24.06.2022
733 Clear 18 1015 53 10000 3.14 26 02:31 24.06.2022
734 Clear 17 1015 57 10000 3.4 26 22:57 23.06.2022
735 Clear 17 1015 57 10000 3.4 26 22:38 23.06.2022
736 Clear 18 1015 60 10000 3.19 19 20:57 23.06.2022
737 Clear 18 1015 60 10000 3.19 19 20:32 23.06.2022
738 Clear 18 1015 67 10000 3.21 17 19:25 23.06.2022
739 Clear 19 1015 74 10000 2.98 21 17:51 23.06.2022
740 Clear 19 1015 82 10000 1.49 22 16:58 23.06.2022
741 Clear 19 1014 83 10000 0.95 203 15:49 23.06.2022
742 Clear 22 1013 66 10000 2.68 195 15:24 23.06.2022
743 Clouds 24 1012 49 10000 3.2 194 13:33 23.06.2022
744 Clouds 26 1012 40 10000 4.17 201 11:27 23.06.2022
745 Clouds 26 1012 40 10000 4.17 201 10:31 23.06.2022
746 Clouds 26 1013 38 10000 3.65 198 08:49 23.06.2022
747 Clear 21 1016 45 10000 1.73 25 03:35 23.06.2022
748 Clear 16 1017 58 10000 3.24 30 00:26 23.06.2022
749 Clear 16 1017 58 10000 3.24 30 23:30 22.06.2022
750 Clear 17 1017 59 10000 3.22 28 22:39 22.06.2022
751 Clear 17 1017 61 10000 3.03 22 21:22 22.06.2022
752 Clear 17 1017 61 10000 3.03 22 20:42 22.06.2022
753 Clear 17 1018 63 10000 3.35 20 19:56 22.06.2022
754 Clouds 17 1018 71 10000 3.28 15 18:47 22.06.2022
755 Clouds 18 1017 80 10000 2.22 22 17:28 22.06.2022
756 Clouds 18 1017 83 10000 0.65 51 16:24 22.06.2022
757 Rain 20 1015 73 10000 1.8 185 15:26 22.06.2022
758 Rain 21 1014 64 10000 3.23 190 14:19 22.06.2022
759 Clouds 21 1014 63 10000 3.06 190 13:37 22.06.2022
760 Clouds 23 1013 52 10000 3.85 201 13:18 22.06.2022
761 Clouds 24 1013 49 10000 4.1 200 11:49 22.06.2022
762 Clouds 24 1013 46 10000 4.21 199 10:55 22.06.2022
763 Clouds 24 1013 46 10000 3.56 197 10:19 22.06.2022
764 Clouds 22 1014 48 10000 2.66 198 08:27 22.06.2022
765 Clouds 19 1015 52 10000 1.74 27 03:50 22.06.2022
766 Clouds 14 1015 58 10000 3.83 34 01:23 22.06.2022
767 Clouds 14 1014 59 10000 4.19 34 00:24 22.06.2022
768 Clouds 15 1014 65 10000 3.8 30 22:18 21.06.2022
769 Clouds 15 1014 75 10000 3.27 18 19:55 21.06.2022
770 Clouds 16 1014 77 10000 3.24 25 18:35 21.06.2022
771 Clouds 16 1014 79 10000 3.38 19 17:39 21.06.2022
772 Clouds 19 1008 67 6443 1.81 165 13:54 21.06.2022
773 Clouds 22 1008 48 10000 3.18 192 11:37 21.06.2022
774 Clouds 22 1008 45 10000 3.87 214 10:18 21.06.2022
775 Clouds 22 1008 44 10000 3.32 216 08:48 21.06.2022
776 Clouds 19 1010 55 10000 0.43 332 07:23 21.06.2022
777 Clouds 14 1010 71 10000 2.67 28 01:43 21.06.2022
778 Clouds 15 1009 72 10000 2.32 26 23:25 20.06.2022
779 Clouds 15 1010 74 10000 2.4 23 21:55 20.06.2022
780 Clouds 15 1011 76 10000 1.78 359 20:53 20.06.2022
781 Clouds 16 1011 79 10000 1.08 333 19:44 20.06.2022
782 Clouds 16 1011 82 10000 0.9 7 18:48 20.06.2022
783 Clouds 16 1011 84 10000 1.21 29 18:23 20.06.2022
784 Clouds 16 1011 84 10000 1.21 29 17:36 20.06.2022
785 Clouds 16 1010 87 10000 1.3 190 15:58 20.06.2022
786 Clouds 17 1009 81 3431 3.03 195 13:34 20.06.2022
787 Clouds 20 1008 65 6671 3.44 205 11:25 20.06.2022
788 Clouds 21 1009 62 3316 4.2 202 09:48 20.06.2022
789 Clouds 21 1009 58 4871 4.07 200 08:45 20.06.2022
790 Clear 21 1009 46 10000 3.5 201 06:59 20.06.2022
791 Clear 16 1011 65 10000 2.01 23 03:29 20.06.2022
792 Clear 14 1010 71 10000 2.72 25 00:37 20.06.2022
793 Clear 15 1011 77 10000 1.63 35 23:25 19.06.2022
794 Clear 15 1012 77 10000 1.51 33 22:19 19.06.2022
795 Clear 15 1012 77 10000 1.51 33 22:19 19.06.2022
796 Clear 15 1012 77 10000 1.51 33 21:41 19.06.2022
797 Clear 15 1012 78 10000 1.38 34 20:46 19.06.2022
798 Clouds 16 1012 74 10000 2.1 27 19:48 19.06.2022
799 Clouds 16 1012 75 10000 1.38 37 19:24 19.06.2022
800 Clouds 16 1012 75 10000 1.38 37 18:31 19.06.2022
801 Clouds 16 1012 76 10000 0.87 83 17:39 19.06.2022
802 Clouds 16 1011 78 10000 0.89 78 16:39 19.06.2022
803 Clouds 17 1011 78 10000 0.86 141 15:44 19.06.2022
804 Clouds 18 1010 72 10000 1.77 182 15:26 19.06.2022
805 Clouds 18 1011 78 10000 1.57 156 14:35 19.06.2022
806 Clouds 18 1010 80 4919 3.14 193 13:44 19.06.2022
807 Clouds 22 1008 50 10000 3.95 218 11:53 19.06.2022
808 Clouds 23 1009 50 9049 4.46 207 10:52 19.06.2022
809 Clouds 23 1010 46 10000 4.47 201 08:55 19.06.2022
810 Clouds 23 1010 46 10000 4.47 201 08:32 19.06.2022
811 Clear 22 1011 47 10000 3.87 202 06:54 19.06.2022
812 Clear 19 1012 48 10000 0.63 25 03:57 19.06.2022
813 Clouds 15 1013 64 10000 2.91 19 00:51 19.06.2022
814 Clouds 15 1012 66 10000 3.23 18 00:22 19.06.2022
815 Clouds 15 1012 66 10000 3.23 18 23:35 18.06.2022
816 Clouds 16 1012 66 10000 2.91 19 22:30 18.06.2022
817 Clouds 16 1013 69 10000 2.41 19 20:54 18.06.2022
818 Clouds 16 1013 71 10000 2.47 22 20:18 18.06.2022
819 Clouds 16 1013 73 10000 2.56 30 19:21 18.06.2022
820 Clouds 16 1013 73 10000 2.56 30 18:42 18.06.2022
821 Clouds 17 1012 79 10000 2.51 18 17:29 18.06.2022
822 Clouds 17 1012 80 10000 0.6 20 16:18 18.06.2022
823 Clouds 18 1011 74 10000 0.72 205 15:18 18.06.2022
824 Clouds 18 1011 74 10000 0.72 205 14:41 18.06.2022
825 Clouds 19 1011 77 10000 1.01 249 12:46 18.06.2022
826 Clouds 19 1012 76 7905 1.9 229 11:29 18.06.2022
827 Clouds 19 1012 73 10000 1.88 222 10:23 18.06.2022
828 Clouds 19 1012 69 10000 2.43 192 09:19 18.06.2022
829 Clouds 19 1013 70 10000 3.13 197 07:58 18.06.2022
830 Clouds 20 1012 58 10000 2.52 176 06:24 18.06.2022
831 Clouds 18 1013 71 10000 1.26 89 02:53 18.06.2022
832 Clouds 16 1012 71 10000 2.7 37 01:23 18.06.2022
833 Clouds 16 1012 71 10000 2.7 37 00:41 18.06.2022
834 Rain 15 1013 74 10000 2.02 39 23:43 17.06.2022
835 Clouds 16 1013 74 10000 2 32 22:55 17.06.2022
836 Clouds 16 1013 76 10000 1.93 21 20:40 17.06.2022
837 Clouds 17 1013 75 10000 2.63 47 19:25 17.06.2022
838 Clouds 17 1013 78 10000 2.42 37 18:25 17.06.2022
839 Clouds 17 1013 78 10000 2.42 37 17:34 17.06.2022
840 Clouds 17 1013 83 10000 2 33 16:38 17.06.2022
841 Clouds 17 1012 85 10000 1.38 42 15:42 17.06.2022
842 Clouds 18 1012 83 10000 0.71 47 14:46 17.06.2022
843 Clouds 18 1012 84 7658 1.31 92 14:19 17.06.2022
844 Clouds 18 1012 82 9453 1.62 82 13:42 17.06.2022
845 Clouds 17 1013 89 7893 1.35 132 12:42 17.06.2022
846 Clouds 18 1013 90 3176 1.71 185 11:56 17.06.2022
847 Clouds 18 1013 90 3176 1.71 185 11:35 17.06.2022
848 Clouds 18 1013 86 3894 0.97 193 09:59 17.06.2022
849 Clouds 19 1014 80 7611 1.93 184 08:27 17.06.2022
850 Clouds 22 1012 65 10000 2.71 182 06:58 17.06.2022
851 Clouds 21 1013 68 10000 1.59 184 05:35 17.06.2022
852 Clouds 17 1014 82 7123 1.63 5 02:42 17.06.2022
853 Clouds 17 1012 70 10000 2.59 28 00:36 17.06.2022
854 Clouds 17 1013 70 10000 1.5 39 22:44 16.06.2022
855 Clouds 17 1013 71 10000 1.29 48 21:36 16.06.2022
856 Clouds 17 1014 71 10000 1.8 44 21:18 16.06.2022
857 Clouds 17 1014 71 10000 1.8 44 20:36 16.06.2022
858 Clouds 17 1014 72 10000 1.71 14 19:55 16.06.2022
859 Clouds 17 1014 74 10000 2.97 25 18:30 16.06.2022
860 Clouds 17 1014 77 10000 3.2 15 17:44 16.06.2022
861 Clouds 18 1014 79 10000 3.15 11 16:46 16.06.2022
862 Clouds 17 1015 85 10000 1.28 65 15:24 16.06.2022
863 Clouds 17 1015 85 10000 1.28 65 14:56 16.06.2022
864 Clouds 18 1014 81 10000 1.6 86 13:45 16.06.2022
865 Clouds 18 1015 86 4020 2 104 12:37 16.06.2022
866 Clouds 19 1014 84 6472 1.73 150 11:54 16.06.2022
867 Clouds 21 1012 75 5684 1.96 182 11:18 16.06.2022
868 Clouds 21 1012 75 5684 1.96 182 10:33 16.06.2022
869 Clouds 24 1011 53 9702 3.69 210 09:26 16.06.2022
870 Clouds 24 1011 53 9702 3.69 210 08:46 16.06.2022
871 Clouds 24 1012 54 6719 3.2 198 07:29 16.06.2022
872 Clouds 23 1012 54 7646 2.77 193 05:42 16.06.2022
873 Clouds 19 1014 70 10000 1.77 36 02:54 16.06.2022
874 Clouds 18 1014 65 10000 2.85 28 01:51 16.06.2022
875 Clouds 18 1013 65 10000 2.63 35 01:21 16.06.2022
876 Clouds 18 1013 65 10000 2.63 35 01:21 16.06.2022
877 Clouds 19 1013 64 10000 2.21 37 23:56 15.06.2022
878 Clouds 19 1013 64 10000 2.21 37 23:56 15.06.2022
879 Clouds 19 1013 64 10000 2.28 31 22:45 15.06.2022
880 Clouds 19 1014 66 10000 2.08 21 21:29 15.06.2022
881 Clouds 19 1014 66 10000 2.08 21 20:57 15.06.2022
882 Clouds 19 1014 66 10000 2.08 21 20:35 15.06.2022
883 Clouds 19 1015 66 10000 3.04 25 19:49 15.06.2022
884 Clouds 19 1015 68 10000 3.19 24 18:30 15.06.2022
885 Clouds 20 1015 67 10000 2.77 32 17:43 15.06.2022
886 Rain 20 1014 72 10000 2.02 26 16:21 15.06.2022
887 Clouds 21 1013 70 9707 0.44 353 14:37 15.06.2022
888 Clouds 24 1011 57 10000 2.33 218 13:20 15.06.2022
889 Rain 24 1011 57 10000 2.33 218 12:40 15.06.2022
890 Clouds 25 1010 48 10000 3.03 232 11:24 15.06.2022
891 Clouds 26 1011 46 10000 3.45 229 10:21 15.06.2022
892 Clouds 27 1010 40 10000 4.3 213 08:59 15.06.2022
893 Clouds 27 1011 39 10000 3.58 202 07:32 15.06.2022
894 Clear 25 1012 42 10000 1.48 212 05:36 15.06.2022
895 Clouds 20 1014 59 10000 2.03 16 02:47 15.06.2022
896 Clouds 18 1014 63 10000 3.7 22 01:36 15.06.2022
897 Clouds 18 1014 63 10000 3.67 21 00:19 15.06.2022
898 Clouds 18 1014 63 10000 3.67 21 23:38 14.06.2022
899 Clouds 18 1014 63 10000 3.52 20 22:46 14.06.2022
900 Clouds 19 1015 63 10000 3.25 21 21:43 14.06.2022
901 Clouds 19 1015 62 10000 2.97 17 20:58 14.06.2022
902 Clouds 19 1015 62 10000 2.97 17 20:40 14.06.2022
903 Clouds 19 1015 64 10000 3.54 18 19:47 14.06.2022
904 Clouds 20 1015 64 10000 3.1 20 18:39 14.06.2022
905 Clouds 21 1014 61 10000 1.23 18 16:53 14.06.2022
906 Clouds 21 1014 61 10000 1.23 18 16:34 14.06.2022
907 Clouds 22 1014 56 10000 0.96 224 15:41 14.06.2022
908 Clouds 24 1012 48 10000 2.42 211 14:53 14.06.2022
909 Clouds 25 1011 42 10000 3 207 13:59 14.06.2022
910 Clouds 26 1011 42 10000 2.75 203 12:59 14.06.2022
911 Clouds 26 1011 40 10000 3.24 215 11:58 14.06.2022
912 Clouds 27 1011 37 10000 3.67 226 10:52 14.06.2022
913 Clouds 28 1010 32 10000 4.21 212 10:29 14.06.2022
914 Clouds 28 1011 32 10000 3.49 202 09:22 14.06.2022
915 Clouds 28 1011 32 10000 3.49 202 08:37 14.06.2022
916 Clouds 26 1013 38 10000 2.81 202 06:32 14.06.2022
917 Clouds 22 1015 54 10000 0.73 303 03:52 14.06.2022
918 Clouds 17 1016 66 10000 2.18 9 01:37 14.06.2022
919 Clouds 18 1015 65 10000 2.16 25 00:24 14.06.2022
920 Clear 18 1015 66 10000 1.66 18 22:58 13.06.2022
921 Clear 18 1015 65 10000 2.01 18 22:23 13.06.2022
922 Clear 18 1015 65 10000 2.01 18 21:39 13.06.2022
923 Clouds 19 1016 65 10000 2.66 14 19:59 13.06.2022
924 Clouds 19 1016 65 10000 2.69 16 19:18 13.06.2022
925 Clouds 20 1015 62 10000 2.23 13 17:56 13.06.2022
926 Clouds 21 1015 60 10000 1.73 25 17:25 13.06.2022
927 Clouds 21 1015 60 10000 1.73 25 16:31 13.06.2022
928 Clouds 22 1014 56 10000 0.65 58 14:52 13.06.2022
929 Clouds 22 1014 56 10000 0.65 58 14:32 13.06.2022
930 Clouds 23 1013 56 10000 0.87 92 13:36 13.06.2022
931 Clouds 23 1015 59 10000 1.3 170 12:23 13.06.2022
932 Clouds 23 1015 55 10000 3.14 209 10:58 13.06.2022
933 Clouds 25 1013 43 10000 4.14 214 10:26 13.06.2022
934 Clouds 26 1013 35 10000 2.88 220 09:22 13.06.2022
935 Clouds 25 1015 36 10000 1.79 215 06:55 13.06.2022
936 Clouds 24 1016 39 10000 1.24 253 05:36 13.06.2022
937 Clouds 18 1018 61 10000 2.54 358 02:47 13.06.2022
938 Clouds 17 1019 64 10000 3.27 11 01:36 13.06.2022
939 Clouds 17 1018 65 10000 3.21 16 23:50 12.06.2022
940 Clouds 17 1018 65 10000 2.99 13 22:50 12.06.2022
941 Clouds 18 1018 64 10000 2.65 6 22:22 12.06.2022
942 Clouds 18 1017 65 10000 2.45 358 20:58 12.06.2022
943 Clouds 18 1017 66 10000 2.46 355 20:19 12.06.2022
944 Clouds 18 1017 66 10000 2.46 355 19:30 12.06.2022
945 Clouds 19 1017 68 10000 3 2 17:47 12.06.2022
946 Clouds 20 1014 62 10000 1.28 19 16:24 12.06.2022
947 Clouds 22 1013 57 10000 0.73 91 14:57 12.06.2022
948 Clouds 23 1012 49 10000 0.62 23 14:21 12.06.2022
949 Clouds 23 1012 49 10000 0.62 23 13:51 12.06.2022
950 Clouds 23 1013 52 10000 0.74 21 12:40 12.06.2022
951 Clouds 23 1014 56 10000 1.37 342 11:39 12.06.2022
952 Clouds 21 1016 67 10000 2.59 305 10:22 12.06.2022
953 Clouds 23 1014 54 7278 3.04 251 09:19 12.06.2022
954 Clouds 23 1014 54 7278 3.04 251 08:45 12.06.2022
955 Clouds 25 1013 40 10000 3.4 221 07:33 12.06.2022
956 Clear 23 1014 44 10000 0.37 301 04:52 12.06.2022
957 Clear 18 1015 60 10000 3.04 17 03:24 12.06.2022
958 Clear 16 1016 59 10000 4.01 23 01:42 12.06.2022
959 Clear 16 1015 60 10000 3.81 21 00:58 12.06.2022
960 Clear 17 1015 59 10000 3.89 19 00:21 12.06.2022
961 Clear 17 1015 59 10000 3.89 19 23:44 11.06.2022
962 Clear 17 1015 59 10000 3.74 21 22:39 11.06.2022
963 Clear 17 1015 59 10000 3.69 20 21:53 11.06.2022
964 Clear 17 1015 60 10000 3.55 18 20:38 11.06.2022
965 Clouds 18 1016 59 10000 3.22 16 19:46 11.06.2022
966 Clouds 18 1016 61 10000 3.42 14 19:26 11.06.2022
967 Clouds 18 1016 61 10000 3.42 14 18:34 11.06.2022
968 Clouds 18 1015 63 10000 3.55 11 17:51 11.06.2022
969 Clouds 19 1015 62 10000 3.52 11 17:28 11.06.2022
970 Clouds 19 1015 62 10000 3.52 11 16:56 11.06.2022
971 Clouds 20 1013 59 10000 2.49 3 16:29 11.06.2022
972 Clouds 20 1013 59 10000 2.49 3 15:42 11.06.2022
973 Clouds 22 1012 51 10000 1.38 197 13:53 11.06.2022
974 Clouds 23 1012 51 10000 0.68 256 12:51 11.06.2022
975 Clouds 22 1013 56 10000 2.57 223 10:54 11.06.2022
976 Clouds 25 1011 41 10000 3.64 232 09:55 11.06.2022
977 Clouds 26 1010 32 10000 2.57 228 09:19 11.06.2022
978 Clouds 25 1012 38 10000 1.91 283 07:43 11.06.2022
979 Clear 24 1012 40 10000 1.53 287 06:30 11.06.2022
980 Clear 22 1013 47 10000 1.13 351 04:49 11.06.2022
981 Clouds 16 1015 57 10000 4.45 23 01:53 11.06.2022
982 Clouds 16 1015 57 10000 4.45 23 01:33 11.06.2022
983 Clouds 16 1015 59 10000 4.53 24 00:20 11.06.2022
984 Clouds 16 1015 60 10000 4.44 21 22:32 10.06.2022
985 Clouds 17 1015 62 10000 4.24 22 21:52 10.06.2022
986 Clouds 17 1015 66 10000 4.16 21 20:42 10.06.2022
987 Clouds 18 1015 69 10000 4.54 15 20:22 10.06.2022
988 Clouds 18 1015 69 10000 4.54 15 19:38 10.06.2022
989 Clouds 17 1016 74 10000 4.77 17 19:18 10.06.2022
990 Clouds 17 1016 74 10000 4.77 17 19:18 10.06.2022
991 Clouds 17 1016 74 10000 4.77 17 19:18 10.06.2022
992 Clouds 17 1017 78 8913 4.76 16 18:18 10.06.2022
993 Clouds 17 1017 78 8913 4.76 16 17:35 10.06.2022
994 Clouds 17 1017 80 7638 3.79 18 16:55 10.06.2022
995 Clouds 17 1017 78 10000 2.68 359 15:47 10.06.2022
996 Clouds 18 1015 73 10000 2.69 336 14:57 10.06.2022
997 Clouds 19 1014 74 8656 2.14 318 13:41 10.06.2022
998 Clouds 22 1012 60 7934 0.8 223 12:24 10.06.2022
999 Clouds 22 1012 60 7934 0.8 223 11:40 10.06.2022
1000 Clouds 23 1011 50 10000 2.97 197 10:37 10.06.2022
1001 Clouds 24 1011 44 10000 3.34 208 09:40 10.06.2022
1002 Clouds 25 1011 37 10000 3.68 219 08:23 10.06.2022
1003 Clouds 25 1011 34 10000 2.13 234 06:51 10.06.2022
1004 Clouds 25 1011 34 10000 2.13 234 06:32 10.06.2022
1005 Clouds 24 1012 36 10000 1.33 253 05:45 10.06.2022
1006 Clouds 19 1014 55 10000 3.15 16 02:55 10.06.2022
1007 Clouds 17 1015 55 10000 4.16 20 01:37 10.06.2022
1008 Clouds 17 1015 56 10000 3.95 18 23:58 09.06.2022
1009 Clouds 17 1015 57 10000 3.78 15 22:56 09.06.2022
1010 Clouds 18 1015 58 10000 3.89 13 21:47 09.06.2022
1011 Clouds 18 1015 60 10000 3.89 10 21:29 09.06.2022
1012 Clouds 18 1015 60 10000 3.89 10 20:47 09.06.2022
1013 Clouds 18 1015 61 10000 4.2 11 19:54 09.06.2022
1014 Clouds 19 1015 60 10000 3.92 11 18:47 09.06.2022
1015 Clouds 19 1015 58 10000 3.36 12 17:56 09.06.2022
1016 Clouds 19 1014 58 10000 3.06 24 16:46 09.06.2022
1017 Clouds 20 1013 58 10000 1.84 55 15:44 09.06.2022
1018 Clouds 22 1012 49 10000 0.99 110 14:34 09.06.2022
1019 Clouds 23 1010 44 10000 1.86 131 13:46 09.06.2022
1020 Clouds 24 1010 40 10000 1.25 190 13:26 09.06.2022
1021 Clouds 24 1010 42 10000 2.7 288 11:53 09.06.2022
1022 Clouds 24 1011 47 10000 4.08 291 10:51 09.06.2022
1023 Clouds 25 1009 37 10000 3.88 261 09:42 09.06.2022
1024 Clouds 26 1009 31 10000 3.84 227 09:23 09.06.2022
1025 Clear 26 1010 27 10000 3.08 193 07:34 09.06.2022
1026 Clear 24 1012 32 10000 1.32 220 05:46 09.06.2022
1027 Clear 17 1014 49 10000 4.03 25 01:59 09.06.2022
1028 Clear 17 1013 49 10000 4.05 24 23:34 08.06.2022
1029 Clear 18 1013 48 10000 3.95 23 22:51 08.06.2022
1030 Clear 18 1013 48 10000 3.86 22 22:26 08.06.2022
1031 Clear 18 1013 48 10000 3.86 22 21:49 08.06.2022
1032 Clear 18 1013 47 10000 3.68 22 20:43 08.06.2022
1033 Clouds 19 1013 44 10000 3.36 18 19:50 08.06.2022
1034 Clouds 20 1013 42 10000 2.67 18 19:18 08.06.2022
1035 Clouds 20 1013 42 10000 2.67 18 18:42 08.06.2022
1036 Clouds 21 1012 43 10000 0.53 10 16:34 08.06.2022
1037 Clouds 24 1009 36 10000 2.43 218 15:27 08.06.2022
1038 Clouds 25 1009 32 10000 2.38 234 13:37 08.06.2022
1039 Clouds 26 1009 35 10000 3.32 240 11:51 08.06.2022
1040 Clouds 26 1009 34 10000 3.51 243 11:24 08.06.2022
1041 Clouds 26 1010 32 10000 3.37 245 09:48 08.06.2022
1042 Clouds 26 1010 30 10000 2.78 218 09:20 08.06.2022
1043 Clear 26 1011 30 10000 1.6 191 08:18 08.06.2022
1044 Clear 24 1013 35 10000 0.45 109 05:36 08.06.2022
1045 Clear 18 1016 55 10000 3.76 33 03:20 08.06.2022
1046 Clear 16 1015 52 10000 4.28 33 00:28 08.06.2022
1047 Clear 16 1015 52 10000 4.34 32 23:25 07.06.2022
1048 Clear 16 1015 52 10000 4.34 32 22:42 07.06.2022
1049 Clear 16 1016 52 10000 4.26 31 22:20 07.06.2022
1050 Clear 17 1016 51 10000 4.2 31 21:28 07.06.2022
1051 Clear 17 1016 51 10000 4.2 31 20:52 07.06.2022
1052 Clear 17 1016 51 10000 4.2 31 20:31 07.06.2022
1053 Clouds 18 1016 49 10000 3.98 34 19:27 07.06.2022
1054 Clouds 18 1016 48 10000 3.7 35 18:19 07.06.2022
1055 Clouds 19 1014 46 10000 2.62 37 17:21 07.06.2022
1056 Clouds 19 1014 46 10000 2.62 37 16:41 07.06.2022
1057 Clouds 20 1013 46 10000 0.41 40 15:44 07.06.2022
1058 Clouds 23 1011 41 10000 1.99 215 15:24 07.06.2022
1059 Clouds 23 1011 41 10000 1.99 215 14:46 07.06.2022
1060 Clouds 25 1010 36 10000 2.98 208 14:27 07.06.2022
1061 Clouds 25 1010 36 10000 3.09 202 13:30 07.06.2022
1062 Clouds 26 1010 34 10000 2.97 194 12:45 07.06.2022
1063 Clouds 26 1010 33 10000 2.62 180 11:37 07.06.2022
1064 Clouds 26 1011 36 10000 2.05 162 10:26 07.06.2022
1065 Clouds 25 1011 39 10000 2.06 147 08:49 07.06.2022
1066 Clouds 25 1011 39 10000 2.06 147 08:49 07.06.2022
1067 Clouds 25 1011 39 10000 2.06 147 08:49 07.06.2022
1068 Clear 26 1011 29 10000 2.14 170 07:32 07.06.2022
1069 Clear 24 1013 35 10000 0.35 94 05:58 07.06.2022
1070 Clear 17 1016 52 10000 3.81 32 03:22 07.06.2022
1071 Clear 15 1016 49 10000 4.56 34 00:44 07.06.2022
1072 Clear 16 1016 48 10000 4.53 36 23:40 06.06.2022
1073 Clear 16 1016 47 10000 4.36 36 22:47 06.06.2022
1074 Clear 16 1017 46 10000 4.28 36 21:56 06.06.2022
1075 Clouds 16 1017 46 10000 4.23 36 20:35 06.06.2022
1076 Clouds 17 1017 44 10000 3.99 37 19:24 06.06.2022
1077 Clouds 17 1017 44 10000 3.99 37 18:47 06.06.2022
1078 Clouds 18 1017 44 10000 3.62 41 17:55 06.06.2022
1079 Clouds 18 1015 44 10000 3.03 48 16:55 06.06.2022
1080 Clouds 19 1014 44 10000 1.45 74 15:45 06.06.2022
1081 Clouds 23 1012 41 10000 1.33 162 14:59 06.06.2022
1082 Clouds 25 1011 33 10000 2.22 177 13:43 06.06.2022
1083 Clouds 26 1010 32 10000 2.49 173 13:20 06.06.2022
1084 Clouds 26 1010 32 10000 2.49 173 12:34 06.06.2022
1085 Clouds 26 1011 32 10000 2.45 165 11:47 06.06.2022
1086 Clouds 26 1012 37 10000 2.18 153 09:53 06.06.2022
1087 Clouds 26 1012 31 10000 2.77 176 08:57 06.06.2022
1088 Clear 25 1013 33 10000 2.42 168 08:28 06.06.2022
1089 Clear 24 1014 34 10000 1.84 172 07:20 06.06.2022
1090 Clear 22 1014 43 10000 0.88 41 04:39 06.06.2022
1091 Clear 15 1017 54 10000 4.45 32 01:57 06.06.2022
1092 Clear 15 1016 54 10000 4.43 31 00:57 06.06.2022
1093 Clear 15 1016 54 10000 4.43 31 00:34 06.06.2022
1094 Clear 15 1016 53 10000 4.36 33 23:25 05.06.2022
1095 Clear 16 1017 51 10000 4.08 37 22:26 05.06.2022
1096 Clouds 16 1017 46 10000 4.27 34 20:29 05.06.2022
1097 Clouds 17 1018 45 10000 3.97 37 19:26 05.06.2022
1098 Clouds 17 1017 45 10000 3.42 44 18:21 05.06.2022
1099 Clouds 17 1017 45 10000 3.42 44 17:46 05.06.2022
1100 Clouds 18 1016 46 10000 2.71 49 17:22 05.06.2022
1101 Clouds 18 1016 46 10000 2.71 49 16:48 05.06.2022
1102 Clouds 19 1014 46 10000 1.35 74 15:41 05.06.2022
1103 Clouds 25 1011 34 10000 1.8 175 14:21 05.06.2022
1104 Clouds 24 1012 37 10000 1.85 195 14:21 05.06.2022
1105 Clouds 25 1011 34 10000 1.57 164 12:34 05.06.2022
1106 Clouds 25 1011 34 10000 1.62 153 11:30 05.06.2022
1107 Clear 25 1013 36 10000 1.47 137 10:25 05.06.2022
1108 Clear 25 1013 36 10000 1.47 137 09:58 05.06.2022
1109 Clear 24 1014 41 10000 1.39 136 08:25 05.06.2022
1110 Clear 24 1014 29 10000 1.08 152 06:48 05.06.2022
1111 Clear 21 1015 36 10000 1.03 49 05:20 05.06.2022
1112 Clear 19 1016 41 10000 2.33 39 03:38 05.06.2022
1113 Clear 14 1018 45 10000 4.68 32 01:31 05.06.2022
1114 Clear 14 1018 43 10000 4.63 33 23:49 04.06.2022
1115 Clear 15 1018 42 10000 4.4 34 21:49 04.06.2022
1116 Clouds 16 1019 42 10000 3.89 36 20:21 04.06.2022
1117 Clouds 16 1018 42 10000 3.44 42 17:59 04.06.2022
1118 Clouds 17 1017 43 10000 2.86 47 16:42 04.06.2022
1119 Clouds 18 1015 43 10000 1.4 75 16:18 04.06.2022
1120 Clouds 18 1015 43 10000 1.4 75 16:18 04.06.2022
1121 Clouds 22 1013 39 10000 2.01 172 14:37 04.06.2022
1122 Clouds 24 1011 33 10000 2.01 185 11:51 04.06.2022
1123 Clouds 24 1012 34 10000 1.65 179 10:57 04.06.2022
1124 Clouds 24 1012 35 10000 1.6 173 10:26 04.06.2022
1125 Clouds 24 1012 35 10000 1.6 173 09:42 04.06.2022
1126 Clouds 24 1013 37 10000 1.69 157 08:40 04.06.2022
1127 Clear 24 1013 31 10000 1.95 157 07:40 04.06.2022
1128 Clear 20 1015 40 10000 1.07 27 04:38 04.06.2022
1129 Clear 14 1017 50 10000 4.5 32 01:25 04.06.2022
1130 Clouds 14 1017 49 10000 4.47 32 23:53 03.06.2022
1131 Clouds 14 1017 49 10000 4.38 33 22:40 03.06.2022
1132 Clouds 15 1017 48 10000 4.21 33 21:24 03.06.2022
1133 Clouds 15 1017 48 10000 4.21 33 20:33 03.06.2022
1134 Clouds 16 1017 47 10000 3.71 38 18:23 03.06.2022
1135 Clouds 17 1015 46 10000 3.06 39 16:47 03.06.2022
1136 Clouds 21 1012 41 10000 1.53 168 15:23 03.06.2022
1137 Clouds 23 1011 33 10000 1.54 173 13:22 03.06.2022
1138 Clouds 24 1011 33 10000 1.45 157 11:40 03.06.2022
1139 Clouds 23 1012 33 10000 1.66 141 09:45 03.06.2022
1140 Clouds 23 1013 33 10000 1.63 135 09:24 03.06.2022
1141 Clear 22 1013 27 10000 1.37 163 07:27 03.06.2022
1142 Clear 22 1013 27 10000 1.37 163 06:39 03.06.2022
1143 Clear 21 1014 33 10000 0.4 102 06:20 03.06.2022
1144 Clear 13 1017 55 10000 4.72 29 00:41 03.06.2022
1145 Clear 14 1017 55 10000 4.67 28 22:48 02.06.2022
1146 Clear 14 1017 55 10000 4.48 28 21:57 02.06.2022
1147 Clouds 15 1018 56 10000 4.21 29 20:22 02.06.2022
1148 Clouds 15 1018 56 10000 4.21 29 19:52 02.06.2022
1149 Clouds 15 1018 52 10000 4.03 36 19:33 02.06.2022
1150 Clouds 16 1017 54 10000 3.54 35 17:58 02.06.2022
1151 Clouds 17 1015 56 10000 2.9 23 16:28 02.06.2022
1152 Clouds 20 1014 47 10000 1.07 347 14:34 02.06.2022
1153 Clouds 22 1012 36 10000 0.73 195 13:30 02.06.2022
1154 Clouds 23 1012 36 10000 1.65 173 12:40 02.06.2022
1155 Clouds 23 1013 32 10000 1.23 206 10:31 02.06.2022
1156 Clouds 22 1014 30 10000 1.18 165 09:28 02.06.2022
1157 Clouds 22 1015 33 10000 1.26 153 08:29 02.06.2022
1158 Clouds 23 1014 23 10000 2.26 176 07:48 02.06.2022
1159 Clear 21 1015 28 10000 1.04 196 05:33 02.06.2022
1160 Clouds 18 1017 43 10000 2.24 37 03:48 02.06.2022
1161 Clear 14 1018 53 10000 4.63 26 23:55 01.06.2022
1162 Clear 14 1018 54 10000 4.61 27 22:55 01.06.2022
1163 Clear 14 1018 54 10000 4.46 27 21:45 01.06.2022
1164 Clear 14 1018 55 10000 4.44 26 21:20 01.06.2022
1165 Clear 14 1018 55 10000 4.44 26 20:38 01.06.2022
1166 Clouds 15 1018 55 10000 3.74 37 19:48 01.06.2022
1167 Clouds 16 1017 56 10000 3.02 47 18:19 01.06.2022
1168 Clouds 16 1016 57 10000 2.28 50 16:46 01.06.2022
1169 Clouds 17 1015 57 10000 0.38 32 15:39 01.06.2022
1170 Clouds 20 1013 50 10000 1.53 240 14:31 01.06.2022
1171 Clouds 22 1013 42 10000 1.4 219 12:46 01.06.2022
1172 Clouds 23 1013 37 10000 1.77 182 10:41 01.06.2022
1173 Clear 22 1014 35 10000 1.67 152 09:27 01.06.2022
1174 Clear 22 1015 36 10000 1.38 158 07:57 01.06.2022
1175 Clear 21 1015 27 10000 1.35 177 06:49 01.06.2022
1176 Clear 13 1018 59 10000 4.22 34 01:44 01.06.2022
1177 Clouds 14 1017 64 10000 3.12 40 23:47 31.05.2022
1178 Clouds 14 1017 64 10000 3.06 38 22:38 31.05.2022
1179 Clouds 14 1017 64 10000 3.05 37 22:18 31.05.2022
1180 Clouds 14 1017 65 10000 3.11 39 21:22 31.05.2022
1181 Clouds 14 1017 65 10000 3.11 39 20:41 31.05.2022
1182 Clouds 15 1017 68 10000 3.19 40 18:57 31.05.2022
1183 Clouds 15 1017 70 10000 3.15 44 18:19 31.05.2022
1184 Clouds 15 1017 70 10000 3.15 44 17:37 31.05.2022
1185 Clouds 17 1014 65 10000 1.6 105 15:42 31.05.2022
1186 Clouds 20 1012 57 10000 1.48 188 15:22 31.05.2022
1187 Clouds 21 1011 50 10000 1.98 241 12:39 31.05.2022
1188 Clouds 22 1011 45 10000 2.26 232 12:18 31.05.2022
1189 Clouds 22 1012 41 10000 1.69 168 10:22 31.05.2022
1190 Clear 22 1013 36 10000 2.29 177 07:43 31.05.2022
1191 Clear 20 1014 43 10000 1.41 200 06:19 31.05.2022
1192 Clear 18 1015 54 10000 1.99 32 03:49 31.05.2022
1193 Clear 13 1016 66 10000 4.2 28 23:45 30.05.2022
1194 Clear 13 1016 67 10000 4.15 27 23:23 30.05.2022
1195 Clear 13 1016 67 10000 4.15 27 22:37 30.05.2022
1196 Clear 13 1016 69 10000 4.09 25 21:40 30.05.2022
1197 Clear 14 1017 72 10000 4 24 20:51 30.05.2022
1198 Clouds 14 1018 74 10000 3.74 26 19:43 30.05.2022
1199 Clouds 15 1018 78 10000 3.15 41 17:53 30.05.2022
1200 Clouds 15 1018 82 9258 3.08 39 17:21 30.05.2022
1201 Clouds 15 1017 85 5746 1.93 25 15:54 30.05.2022
1202 Clouds 20 1012 60 10000 3.82 219 13:26 30.05.2022
1203 Clouds 22 1011 48 10000 3.7 215 11:40 30.05.2022
1204 Clouds 23 1012 40 10000 2.21 175 09:52 30.05.2022
1205 Clouds 22 1012 33 10000 2.71 183 07:51 30.05.2022
1206 Clear 21 1013 32 10000 1.42 182 06:22 30.05.2022
1207 Clear 20 1014 35 10000 0.41 68 04:52 30.05.2022
1208 Clear 13 1016 60 10000 4.48 33 00:43 30.05.2022
1209 Clouds 14 1016 64 10000 4.23 37 22:41 29.05.2022
1210 Clouds 14 1016 66 10000 3.93 35 21:46 29.05.2022
1211 Clouds 15 1016 72 10000 2.77 43 20:29 29.05.2022
1212 Clouds 15 1016 81 10000 1.58 69 19:29 29.05.2022
1213 Clouds 15 1016 81 10000 1.58 69 18:34 29.05.2022
1214 Clouds 17 1014 76 10000 1.1 94 16:25 29.05.2022
1215 Clouds 17 1014 76 10000 1.1 94 15:46 29.05.2022
1216 Clouds 20 1012 67 10000 1.95 178 14:54 29.05.2022
1217 Clouds 20 1011 69 8130 2.1 210 12:57 29.05.2022
1218 Clouds 21 1011 65 5562 2.82 201 11:20 29.05.2022
1219 Clouds 22 1011 62 8623 2.95 193 10:29 29.05.2022
1220 Clouds 22 1011 61 10000 2.52 189 08:31 29.05.2022
1221 Clear 20 1012 60 10000 1.67 199 04:58 29.05.2022
1222 Clear 20 1012 60 10000 1.67 199 04:36 29.05.2022
1223 Clouds 14 1013 65 10000 3.95 35 01:28 29.05.2022
1224 Clouds 14 1013 68 10000 3.92 32 23:48 28.05.2022
1225 Clouds 14 1013 71 10000 3.87 29 23:20 28.05.2022
1226 Clouds 15 1014 73 10000 3.9 29 22:19 28.05.2022
1227 Clouds 15 1015 76 10000 4.03 30 20:58 28.05.2022
1228 Clouds 16 1015 77 10000 2.56 40 19:20 28.05.2022
1229 Clouds 16 1015 79 10000 1.49 70 18:24 28.05.2022
1230 Clouds 16 1015 79 10000 1.49 70 17:33 28.05.2022
1231 Clouds 16 1013 81 10000 2.37 35 15:56 28.05.2022
1232 Clouds 16 1013 81 10000 2.37 35 15:38 28.05.2022
1233 Clouds 19 1012 77 7447 0.64 7 13:38 28.05.2022
1234 Clouds 19 1012 81 9846 0.74 321 12:43 28.05.2022
1235 Clouds 19 1012 81 10000 1.56 241 11:50 28.05.2022
1236 Clouds 22 1010 63 10000 2.77 201 10:41 28.05.2022
1237 Clouds 23 1010 55 10000 2.63 167 09:55 28.05.2022
1238 Clouds 23 1010 55 7767 2.49 164 08:39 28.05.2022
1239 Clear 23 1009 46 10000 3.08 193 06:53 28.05.2022
1240 Clear 21 1010 48 10000 0.41 221 05:24 28.05.2022
1241 Clear 15 1012 67 10000 3.5 23 02:27 28.05.2022
1242 Clouds 15 1011 70 10000 2.78 18 23:59 27.05.2022
1243 Clouds 15 1011 73 10000 2.51 18 22:49 27.05.2022
1244 Clouds 15 1012 75 10000 2.39 19 21:35 27.05.2022
1245 Clouds 16 1012 78 10000 1.96 21 20:46 27.05.2022
1246 Clouds 16 1013 79 10000 1.72 29 20:21 27.05.2022
1247 Clouds 16 1013 80 10000 2.07 37 19:38 27.05.2022
1248 Clouds 17 1014 83 10000 2.19 39 19:20 27.05.2022
1249 Clouds 17 1014 91 8438 1.87 46 17:26 27.05.2022
1250 Clouds 17 1013 92 7584 0.81 53 15:57 27.05.2022
1251 Clouds 18 1012 92 6736 0.42 176 15:20 27.05.2022
1252 Clouds 19 1011 84 9486 1.14 179 13:41 27.05.2022
1253 Clouds 20 1012 79 10000 2.41 181 12:28 27.05.2022
1254 Clouds 20 1012 79 10000 2.41 181 11:31 27.05.2022
1255 Clouds 20 1012 77 10000 2.63 186 10:52 27.05.2022
1256 Clouds 20 1012 73 10000 2.88 186 10:22 27.05.2022
1257 Clouds 20 1012 73 10000 2.88 186 09:31 27.05.2022
1258 Clouds 21 1012 64 10000 2.67 189 07:41 27.05.2022
1259 Clear 19 1012 58 10000 1.87 201 05:27 27.05.2022
1260 Clouds 14 1014 66 10000 3.57 28 01:47 27.05.2022
1261 Clouds 14 1013 68 10000 3.19 30 23:55 26.05.2022
1262 Clouds 15 1013 75 10000 2.11 41 22:29 26.05.2022
1263 Clouds 15 1013 75 10000 2.11 41 21:33 26.05.2022
1264 Clouds 16 1014 84 10000 0.75 43 19:51 26.05.2022
1265 Clouds 16 1014 85 10000 1 37 19:18 26.05.2022
1266 Clouds 16 1014 85 10000 1 37 19:18 26.05.2022
1267 Clouds 16 1015 88 10000 1.35 28 17:36 26.05.2022
1268 Clouds 16 1015 88 10000 1.35 28 17:36 26.05.2022
1269 Clouds 16 1015 91 9417 1.23 26 16:35 26.05.2022
1270 Clouds 17 1014 91 8773 0.07 38 15:34 26.05.2022
1271 Clouds 18 1013 90 2905 1.32 201 14:21 26.05.2022
1272 Clouds 18 1013 84 10000 1.94 196 12:35 26.05.2022
1273 Clouds 19 1013 75 10000 2.74 205 11:21 26.05.2022
1274 Clouds 20 1013 68 10000 3.01 197 09:40 26.05.2022
1275 Clouds 21 1013 65 10000 3.14 193 08:57 26.05.2022
1276 Clouds 21 1013 65 10000 3.09 191 07:51 26.05.2022
1277 Clear 17 1014 56 10000 0.42 68 03:35 26.05.2022
1278 Clear 13 1015 65 10000 2.95 32 00:21 26.05.2022
1279 Clear 13 1016 68 10000 2.62 36 23:22 25.05.2022
1280 Clear 13 1016 72 10000 2.09 45 21:47 25.05.2022
1281 Clear 13 1016 74 10000 1.8 52 21:28 25.05.2022
1282 Clear 13 1016 74 10000 1.8 52 20:34 25.05.2022
1283 Clouds 14 1016 75 10000 2.02 47 19:21 25.05.2022
1284 Clouds 14 1016 78 10000 2.13 29 17:33 25.05.2022
1285 Clouds 15 1016 80 10000 2.03 24 16:36 25.05.2022
1286 Clouds 15 1016 82 9251 1.21 11 15:54 25.05.2022
1287 Clouds 16 1016 81 6982 0.25 150 14:51 25.05.2022
1288 Clouds 16 1016 81 6982 0.25 150 14:32 25.05.2022
1289 Clouds 16 1015 80 4363 1.37 210 13:42 25.05.2022
1290 Clouds 18 1014 69 6947 2.42 215 12:37 25.05.2022
1291 Clouds 20 1013 60 9779 3.35 204 10:43 25.05.2022
1292 Clouds 20 1014 60 10000 3.42 197 09:54 25.05.2022
1293 Clouds 20 1014 57 10000 3.33 191 08:37 25.05.2022
1294 Clouds 19 1015 58 10000 2.71 191 07:22 25.05.2022
1295 Clouds 15 1016 58 10000 1.2 49 03:34 25.05.2022
1296 Clouds 12 1016 72 10000 2.25 49 23:56 24.05.2022
1297 Clouds 12 1016 72 10000 2.25 49 23:31 24.05.2022
1298 Clouds 12 1016 76 10000 2.06 49 22:21 24.05.2022
1299 Clouds 12 1016 76 10000 2.06 49 21:40 24.05.2022
1300 Clouds 12 1016 78 10000 2.11 54 21:20 24.05.2022
1301 Clouds 12 1017 83 10000 1.77 24 19:48 24.05.2022
1302 Clouds 13 1017 85 10000 0.86 49 18:54 24.05.2022
1303 Clouds 13 1015 88 10000 0.99 24 16:45 24.05.2022
1304 Clouds 13 1015 90 3287 0.69 38 16:23 24.05.2022
1305 Clouds 13 1015 95 1589 0.88 166 14:58 24.05.2022
1306 Clouds 13 1015 96 510 2.07 179 14:21 24.05.2022
1307 Clouds 16 1014 77 4528 2.3 198 12:50 24.05.2022
1308 Clouds 16 1014 77 4528 2.3 198 12:50 24.05.2022
1309 Clouds 16 1014 76 4398 2.96 202 11:33 24.05.2022
1310 Clouds 17 1013 72 5386 3.58 202 09:45 24.05.2022
1311 Clouds 17 1013 72 6552 2.99 201 08:50 24.05.2022
1312 Rain 15 1016 71 10000 2.52 213 06:58 24.05.2022
1313 Clouds 13 1016 80 10000 1.22 304 04:30 24.05.2022
1314 Clouds 11 1016 94 4739 0.43 3 02:37 24.05.2022
1315 Clouds 11 1014 72 10000 2.8 23 01:42 24.05.2022
1316 Rain 11 1014 74 10000 1.42 153 23:33 23.05.2022
1317 Clouds 11 1012 63 10000 2.84 39 21:59 23.05.2022
1318 Clouds 11 1012 63 10000 2.84 39 21:41 23.05.2022
1319 Clouds 11 1013 65 10000 3.67 24 20:42 23.05.2022
1320 Clouds 12 1011 70 10000 3.87 35 19:33 23.05.2022
1321 Clouds 12 1011 74 10000 3.48 35 18:59 23.05.2022
1322 Clouds 12 1011 74 10000 3.48 35 18:35 23.05.2022
1323 Clouds 12 1011 79 10000 3.09 38 17:38 23.05.2022
1324 Clouds 13 1012 92 5299 2.38 34 15:47 23.05.2022
1325 Clouds 17 1008 66 10000 1.07 120 13:44 23.05.2022
1326 Clouds 18 1009 61 6542 1.73 168 11:36 23.05.2022
1327 Clouds 19 1008 51 10000 4.57 178 10:43 23.05.2022
1328 Clouds 21 1007 44 10000 4.3 190 09:40 23.05.2022
1329 Clouds 21 1007 41 10000 3.31 191 08:38 23.05.2022
1330 Clouds 19 1009 46 10000 2.35 193 06:47 23.05.2022
1331 Clouds 18 1009 47 10000 1.72 212 06:24 23.05.2022
1332 Clear 12 1012 60 10000 4.29 26 02:36 23.05.2022
1333 Clouds 10 1013 63 10000 4.95 25 01:48 23.05.2022
1334 Clear 10 1012 64 10000 4.69 23 01:19 23.05.2022
1335 Clear 10 1012 70 10000 4.76 19 22:47 22.05.2022
1336 Clear 11 1012 74 10000 5.02 21 22:21 22.05.2022
1337 Clear 11 1012 74 10000 5.02 21 21:50 22.05.2022
1338 Clear 11 1012 78 10000 4.18 21 20:42 22.05.2022
1339 Clouds 13 1011 83 10000 3.42 21 20:20 22.05.2022
1340 Clouds 13 1011 82 10000 2.78 36 18:58 22.05.2022
1341 Clouds 13 1011 82 10000 2.78 36 18:37 22.05.2022
1342 Clouds 13 1011 84 10000 1.97 43 18:18 22.05.2022
1343 Clouds 13 1010 85 8583 1.55 56 16:51 22.05.2022
1344 Clouds 15 1009 85 7464 0.33 88 15:24 22.05.2022
1345 Clouds 15 1009 85 7464 0.33 88 14:36 22.05.2022
1346 Clouds 17 1007 78 3168 2.82 233 12:54 22.05.2022
1347 Clouds 17 1007 78 3168 2.82 233 12:31 22.05.2022
1348 Clouds 20 1005 55 8233 3.82 224 10:45 22.05.2022
1349 Clouds 21 1006 51 10000 3.54 202 09:29 22.05.2022
1350 Clouds 21 1006 44 10000 3.4 204 07:44 22.05.2022
1351 Clouds 20 1007 45 10000 2.36 209 07:20 22.05.2022
1352 Clear 16 1009 49 10000 2.08 27 04:19 22.05.2022
1353 Clear 11 1011 56 10000 4.79 25 00:59 22.05.2022
1354 Clear 11 1011 57 10000 4.7 24 23:57 21.05.2022
1355 Clear 11 1012 58 10000 4.65 25 23:29 21.05.2022
1356 Clear 12 1012 60 10000 4.56 25 21:59 21.05.2022
1357 Clear 12 1012 60 10000 4.56 25 21:38 21.05.2022
1358 Clear 12 1012 62 10000 4.39 25 20:47 21.05.2022
1359 Clouds 12 1012 64 10000 4.24 27 19:55 21.05.2022
1360 Clouds 13 1012 61 10000 4.72 29 19:20 21.05.2022
1361 Clouds 14 1012 63 10000 4.45 27 17:29 21.05.2022
1362 Clouds 17 1010 62 10000 3.71 5 14:58 21.05.2022
1363 Clouds 18 1010 60 10000 2.16 349 14:24 21.05.2022
1364 Clouds 17 1012 72 10000 1.64 31 13:34 21.05.2022
1365 Clouds 17 1011 69 10000 1.1 174 12:39 21.05.2022
1366 Clouds 20 1009 52 8328 3.21 212 11:45 21.05.2022
1367 Clouds 22 1009 40 10000 2.27 195 10:22 21.05.2022
1368 Clouds 22 1009 38 10000 2.01 208 09:18 21.05.2022
1369 Clouds 22 1009 38 10000 2.01 208 08:47 21.05.2022
1370 Clouds 22 1010 33 10000 0.59 157 06:22 21.05.2022
1371 Clouds 12 1015 55 10000 5.74 26 02:23 21.05.2022
1372 Clouds 13 1015 61 10000 5.34 22 23:44 20.05.2022
1373 Clouds 13 1016 66 10000 5.31 21 22:41 20.05.2022
1374 Clouds 13 1017 72 10000 5.38 21 22:18 20.05.2022
1375 Clouds 14 1017 74 10000 5.68 33 21:27 20.05.2022
1376 Clouds 14 1017 74 10000 5.68 33 20:51 20.05.2022
1377 Clouds 15 1019 71 10000 2.85 37 19:55 20.05.2022
1378 Clouds 15 1018 62 10000 4.97 27 18:58 20.05.2022
1379 Clouds 15 1018 65 10000 4.56 33 18:24 20.05.2022
1380 Clouds 16 1018 65 10000 3.84 63 16:49 20.05.2022
1381 Clouds 16 1016 59 10000 1.2 92 15:55 20.05.2022
1382 Clouds 16 1016 59 10000 1.2 92 15:32 20.05.2022
1383 Clouds 21 1013 49 10000 2.39 86 14:28 20.05.2022
1384 Clouds 21 1014 50 10000 2.69 81 13:31 20.05.2022
1385 Clouds 20 1015 60 8551 0.87 20 10:48 20.05.2022
1386 Clouds 21 1015 53 10000 0.18 352 09:32 20.05.2022
1387 Clouds 23 1014 47 10000 1.62 181 08:38 20.05.2022
1388 Clouds 23 1014 38 10000 0.14 290 06:45 20.05.2022
1389 Clouds 22 1015 39 10000 1.01 16 05:53 20.05.2022
1390 Clouds 18 1016 48 10000 3.71 27 03:53 20.05.2022
1391 Clear 12 1018 61 10000 5.66 24 23:54 19.05.2022
1392 Clear 13 1018 62 10000 5.44 24 22:44 19.05.2022
1393 Clear 13 1019 63 10000 5.37 24 21:53 19.05.2022
1394 Clear 13 1019 65 10000 5.19 23 21:24 19.05.2022
1395 Clear 13 1019 65 10000 5.19 23 20:58 19.05.2022
1396 Clouds 14 1020 66 10000 4.91 25 20:21 19.05.2022
1397 Clouds 14 1020 65 10000 5.1 23 19:34 19.05.2022
1398 Clouds 15 1020 75 10000 4.68 27 17:59 19.05.2022
1399 Clouds 16 1019 77 10000 3.4 30 16:29 19.05.2022
1400 Clouds 17 1018 78 10000 2.24 12 14:52 19.05.2022
1401 Clouds 17 1017 82 6192 1.55 20 14:21 19.05.2022
1402 Clouds 21 1014 61 7843 3.12 235 12:23 19.05.2022
1403 Clouds 23 1013 51 10000 3.42 213 11:25 19.05.2022
1404 Clouds 24 1014 42 10000 2.51 188 08:59 19.05.2022
1405 Clear 24 1014 38 10000 2.38 190 07:48 19.05.2022
1406 Clear 21 1016 45 10000 0.74 352 04:50 19.05.2022
1407 Clear 13 1019 61 10000 4.7 24 01:58 19.05.2022
1408 Clear 13 1019 63 10000 4.57 22 23:53 18.05.2022
1409 Clear 14 1018 64 10000 4.32 21 22:46 18.05.2022
1410 Clear 14 1018 64 10000 4.32 21 22:46 18.05.2022
1411 Clear 14 1018 65 10000 3.84 18 21:47 18.05.2022
1412 Clouds 15 1018 67 10000 3.34 15 21:25 18.05.2022
1413 Clouds 16 1018 69 10000 2.85 14 20:24 18.05.2022
1414 Clouds 15 1018 67 10000 3.76 26 19:39 18.05.2022
1415 Clouds 15 1019 73 10000 3.52 30 18:21 18.05.2022
1416 Clouds 15 1019 73 10000 3.52 30 17:41 18.05.2022
1417 Clouds 16 1019 76 10000 3.03 32 17:23 18.05.2022
1418 Clouds 16 1018 77 10000 2.01 36 16:23 18.05.2022
1419 Clouds 16 1018 77 10000 2.01 36 15:40 18.05.2022
1420 Clouds 18 1016 73 10000 0.82 58 14:35 18.05.2022
1421 Clouds 19 1017 75 4654 1.35 27 13:22 18.05.2022
1422 Clouds 19 1017 75 4654 1.35 27 12:42 18.05.2022
1423 Clouds 19 1016 70 4727 0.37 79 11:34 18.05.2022
1424 Clouds 21 1015 57 6365 1.98 172 10:56 18.05.2022
1425 Clouds 22 1015 47 10000 2.33 192 09:24 18.05.2022
1426 Clouds 22 1014 38 10000 1.31 262 07:32 18.05.2022
1427 Clear 20 1016 47 10000 1.04 274 05:56 18.05.2022
1428 Clouds 13 1018 62 10000 4.61 25 01:20 18.05.2022
1429 Clouds 13 1018 63 10000 4.56 23 00:21 18.05.2022
1430 Clouds 13 1017 66 10000 4.18 19 21:56 17.05.2022
1431 Clouds 14 1017 69 10000 3.92 21 21:20 17.05.2022
1432 Clouds 14 1018 67 10000 4.02 24 19:59 17.05.2022
1433 Clouds 15 1017 69 10000 3.93 24 19:27 17.05.2022
1434 Clouds 15 1018 73 10000 3.83 24 17:50 17.05.2022
1435 Clouds 15 1017 76 10000 3.63 21 16:58 17.05.2022
1436 Clouds 16 1017 80 10000 3.08 23 16:29 17.05.2022
1437 Clouds 17 1016 77 5964 1.71 25 15:25 17.05.2022
1438 Clouds 17 1016 77 5964 1.71 25 14:30 17.05.2022
1439 Clouds 16 1016 79 7832 0.76 48 13:32 17.05.2022
1440 Clouds 16 1016 85 3522 0.47 99 11:43 17.05.2022
1441 Clouds 20 1014 60 8907 2.43 194 09:27 17.05.2022
1442 Clouds 21 1014 53 10000 2.28 188 08:25 17.05.2022
1443 Clouds 22 1013 40 10000 1.74 201 06:48 17.05.2022
1444 Clouds 19 1015 51 10000 2.38 32 03:41 17.05.2022
1445 Clouds 13 1017 58 10000 4.78 28 00:43 17.05.2022
1446 Clouds 14 1017 58 10000 4.71 29 22:43 16.05.2022
1447 Clear 14 1018 58 10000 4.36 27 21:45 16.05.2022
1448 Clouds 14 1018 58 10000 4.25 30 20:47 16.05.2022
1449 Clouds 15 1018 59 10000 4 32 19:46 16.05.2022
1450 Clouds 16 1018 58 10000 3.65 45 18:21 16.05.2022
1451 Clouds 18 1015 54 10000 2.79 47 15:53 16.05.2022
1452 Clouds 23 1011 43 10000 0.93 307 14:26 16.05.2022
1453 Clouds 22 1012 43 10000 1.4 95 13:23 16.05.2022
1454 Clouds 23 1012 41 10000 0.88 343 11:31 16.05.2022
1455 Clouds 24 1013 39 10000 2.03 205 09:47 16.05.2022
1456 Clouds 25 1014 29 10000 0.55 80 07:21 16.05.2022
1457 Clouds 22 1015 36 10000 1.91 24 04:41 16.05.2022
1458 Clouds 15 1018 40 10000 5.13 31 23:44 15.05.2022
1459 Clouds 15 1018 40 10000 5.08 31 22:34 15.05.2022
1460 Clouds 15 1018 40 10000 5.08 31 22:34 15.05.2022
1461 Clouds 15 1018 40 10000 4.97 32 21:47 15.05.2022
1462 Clouds 16 1019 41 10000 4.92 31 21:19 15.05.2022
1463 Clouds 16 1019 38 10000 4.76 32 19:56 15.05.2022
1464 Clouds 17 1019 44 10000 4.54 32 17:52 15.05.2022
1465 Clouds 17 1019 46 10000 4.36 32 16:35 15.05.2022
1466 Clouds 24 1012 33 10000 2.65 200 14:18 15.05.2022
1467 Clouds 25 1012 35 10000 1.87 210 13:27 15.05.2022
1468 Clouds 25 1012 34 10000 1.82 205 11:55 15.05.2022
1469 Clouds 26 1013 38 10000 2.22 191 10:35 15.05.2022
1470 Clouds 25 1013 35 9340 1.46 162 08:52 15.05.2022
1471 Clear 25 1014 23 10000 0.49 149 06:59 15.05.2022
1472 Clear 25 1014 23 10000 0.49 149 06:39 15.05.2022
1473 Clear 15 1018 53 10000 5 29 02:24 15.05.2022
1474 Clear 15 1017 52 10000 5.15 30 23:56 14.05.2022
1475 Clear 15 1017 52 10000 5.15 30 23:34 14.05.2022
1476 Clear 16 1017 51 10000 4.81 30 21:45 14.05.2022
1477 Clear 16 1018 50 10000 4.58 31 21:24 14.05.2022
1478 Clouds 17 1018 50 10000 4.33 34 19:54 14.05.2022
1479 Clouds 17 1017 53 10000 4.21 39 19:20 14.05.2022
1480 Clouds 17 1017 53 10000 4.21 39 18:51 14.05.2022
1481 Clouds 17 1017 53 10000 4.21 39 18:51 14.05.2022
1482 Clouds 17 1017 52 10000 3.97 43 17:43 14.05.2022
1483 Clouds 19 1014 51 10000 2.5 54 15:55 14.05.2022
1484 Clouds 22 1012 52 10000 0.89 112 14:38 14.05.2022
1485 Clouds 24 1012 45 10000 1.5 221 12:51 14.05.2022
1486 Clouds 24 1011 43 10000 2.43 193 11:42 14.05.2022
1487 Clouds 25 1011 39 10000 2.56 180 10:39 14.05.2022
1488 Clouds 25 1011 39 10000 2.23 166 10:18 14.05.2022
1489 Clear 25 1011 40 9057 2.09 166 09:19 14.05.2022
1490 Clear 24 1011 32 10000 1.17 170 07:23 14.05.2022
1491 Clear 19 1013 50 10000 3.62 30 03:45 14.05.2022
1492 Clear 14 1015 63 10000 5.09 26 00:25 14.05.2022
1493 Clear 15 1015 63 10000 4.83 27 23:24 13.05.2022
1494 Clear 15 1015 63 10000 4.83 27 22:54 13.05.2022
1495 Clear 15 1015 64 10000 4.46 28 22:20 13.05.2022
1496 Clouds 15 1015 64 10000 4.13 30 20:58 13.05.2022
1497 Clouds 15 1015 64 10000 4.08 31 20:32 13.05.2022
1498 Clouds 16 1015 65 10000 3.83 36 19:51 13.05.2022
1499 Clouds 16 1015 66 10000 3.67 39 18:47 13.05.2022
1500 Clouds 17 1014 68 10000 3.08 46 17:29 13.05.2022
1501 Clouds 17 1013 68 10000 2.39 55 16:29 13.05.2022
1502 Clouds 17 1013 68 10000 2.39 55 15:45 13.05.2022
1503 Clouds 21 1010 61 10000 0.86 132 14:29 13.05.2022
1504 Clouds 22 1010 57 10000 1.66 194 12:47 13.05.2022
1505 Clouds 23 1010 52 10000 2.3 185 11:39 13.05.2022
1506 Clouds 23 1011 47 10000 1.44 162 09:54 13.05.2022
1507 Clouds 23 1011 45 9127 1.13 160 08:51 13.05.2022
1508 Clouds 24 1011 34 10000 1.28 170 07:50 13.05.2022
1509 Clear 23 1012 35 10000 0.51 157 06:49 13.05.2022
1510 Clear 21 1013 45 10000 1.6 17 04:54 13.05.2022
1511 Clouds 14 1015 69 10000 4.09 25 00:57 13.05.2022
1512 Clouds 15 1016 71 10000 4.02 33 22:49 12.05.2022
1513 Clouds 15 1016 71 10000 4.02 33 22:30 12.05.2022
1514 Clouds 15 1017 75 10000 3.55 36 20:49 12.05.2022
1515 Clouds 16 1018 80 10000 3.53 27 19:26 12.05.2022
1516 Clouds 16 1018 81 10000 3.39 30 18:25 12.05.2022
1517 Clouds 16 1018 81 10000 3.39 30 18:25 12.05.2022
1518 Clouds 16 1017 84 10000 3.23 32 16:39 12.05.2022
1519 Clouds 18 1016 81 10000 1.38 137 14:57 12.05.2022
1520 Clouds 19 1014 74 10000 2.06 157 13:48 12.05.2022
1521 Clouds 20 1014 74 10000 1.54 143 11:48 12.05.2022
1522 Clouds 20 1014 67 5653 2.58 182 10:32 12.05.2022
1523 Clouds 24 1012 50 10000 2.9 190 08:53 12.05.2022
1524 Clouds 24 1012 50 10000 2.9 190 08:35 12.05.2022
1525 Clear 23 1014 49 10000 2.47 194 07:25 12.05.2022
1526 Clear 20 1015 61 10000 0.55 215 04:32 12.05.2022
1527 Clouds 16 1016 77 10000 2.33 34 01:30 12.05.2022
1528 Clouds 16 1015 78 10000 1.51 49 23:18 11.05.2022
1529 Clouds 17 1015 79 10000 1.61 57 22:21 11.05.2022
1530 Clouds 17 1016 80 10000 1.63 50 21:26 11.05.2022
1531 Clouds 17 1016 80 10000 1.63 50 21:26 11.05.2022
1532 Clouds 17 1016 82 10000 1.64 51 20:20 11.05.2022
1533 Clouds 16 1018 88 10000 2.28 53 17:37 11.05.2022
1534 Clouds 17 1018 89 8997 1.92 62 16:39 11.05.2022
1535 Clouds 17 1016 91 7541 0.65 134 14:48 11.05.2022
1536 Clouds 18 1015 91 7441 1 163 14:25 11.05.2022
1537 Clouds 22 1013 68 10000 2.22 185 13:25 11.05.2022
1538 Clouds 22 1012 65 10000 2.27 191 11:48 11.05.2022
1539 Clouds 23 1013 57 10000 2.63 189 09:30 11.05.2022
1540 Clear 23 1013 42 10000 2.92 190 06:59 11.05.2022
1541 Clear 13 1018 62 10000 4.08 30 02:27 11.05.2022
1542 Clouds 14 1018 68 10000 3.98 28 22:58 10.05.2022
1543 Clouds 14 1018 68 10000 3.98 28 22:30 10.05.2022
1544 Clouds 15 1017 68 10000 3.65 28 21:41 10.05.2022
1545 Clouds 15 1018 69 10000 3.4 29 20:47 10.05.2022
1546 Clouds 15 1019 71 10000 3.85 30 19:18 10.05.2022
1547 Clouds 16 1019 74 10000 3.39 29 17:43 10.05.2022
1548 Clouds 17 1018 78 10000 2.47 40 16:39 10.05.2022
1549 Clouds 21 1014 67 10000 1.05 140 13:37 10.05.2022
1550 Clouds 23 1014 56 7782 1.93 178 12:30 10.05.2022
1551 Clouds 23 1014 56 7782 1.93 178 11:42 10.05.2022
1552 Clouds 23 1014 56 8033 2.3 178 10:57 10.05.2022
1553 Clouds 23 1014 53 8361 2.82 178 09:52 10.05.2022
1554 Clear 23 1015 41 10000 2.89 183 08:29 10.05.2022
1555 Clear 21 1017 43 10000 1.75 198 06:21 10.05.2022
1556 Clear 14 1020 59 10000 3.57 29 02:31 10.05.2022
1557 Clouds 13 1020 62 10000 4.21 29 00:23 10.05.2022
1558 Clouds 13 1019 64 10000 4.29 28 22:42 09.05.2022
1559 Clouds 13 1019 65 10000 4.35 29 21:48 09.05.2022
1560 Clouds 14 1020 68 10000 3.86 32 20:22 09.05.2022
1561 Clouds 15 1019 73 10000 3.41 30 18:35 09.05.2022
1562 Clouds 15 1019 78 10000 3.17 26 17:33 09.05.2022
1563 Clouds 15 1019 83 10000 2.53 58 16:28 09.05.2022
1564 Clouds 15 1019 83 10000 2.53 58 15:48 09.05.2022
1565 Clouds 17 1017 76 9531 1.57 57 14:46 09.05.2022
1566 Clouds 19 1016 71 6745 1.05 104 14:22 09.05.2022
1567 Rain 19 1016 71 6745 1.05 104 13:32 09.05.2022
1568 Clouds 20 1016 69 5870 1.43 140 11:54 09.05.2022
1569 Clouds 20 1017 67 8098 1.7 164 10:50 09.05.2022
1570 Clouds 20 1017 67 8098 1.7 164 10:31 09.05.2022
1571 Clouds 22 1015 47 10000 2.91 206 08:23 09.05.2022
1572 Clouds 22 1015 47 10000 2.91 206 07:43 09.05.2022
1573 Clouds 14 1019 60 10000 3.82 33 02:44 09.05.2022
1574 Clouds 14 1018 62 10000 3.8 42 23:29 08.05.2022
1575 Clouds 14 1018 62 10000 3.8 42 22:47 08.05.2022
1576 Clouds 15 1017 62 10000 3.12 48 21:47 08.05.2022
1577 Clouds 15 1017 63 10000 2.53 47 20:33 08.05.2022
1578 Clouds 14 1018 68 10000 2.98 34 19:37 08.05.2022
1579 Clouds 15 1019 71 10000 3.22 27 18:49 08.05.2022
1580 Clouds 15 1019 75 10000 3.27 28 17:52 08.05.2022
1581 Clouds 16 1019 78 10000 2.94 27 16:33 08.05.2022
1582 Clouds 17 1017 76 7467 0.51 354 15:25 08.05.2022
1583 Clouds 17 1017 76 7467 0.51 354 14:39 08.05.2022
1584 Clouds 20 1015 64 4887 1.76 163 12:21 08.05.2022
1585 Clouds 20 1016 59 10000 2.78 188 10:27 08.05.2022
1586 Clouds 20 1016 59 10000 2.78 188 09:56 08.05.2022
1587 Clouds 21 1016 54 10000 2.76 182 08:52 08.05.2022
1588 Clouds 21 1016 46 10000 2.1 189 06:57 08.05.2022
1589 Clouds 13 1019 60 10000 3.38 30 03:26 08.05.2022
1590 Clouds 13 1019 60 10000 3.38 30 02:41 08.05.2022
1591 Clouds 12 1019 62 10000 4.12 33 00:21 08.05.2022
1592 Clouds 12 1019 62 10000 4.12 33 23:47 07.05.2022
1593 Clouds 12 1019 64 10000 4.03 36 22:46 07.05.2022
1594 Clear 12 1020 67 10000 3.8 39 21:57 07.05.2022
1595 Clear 12 1020 67 10000 3.8 39 21:33 07.05.2022
1596 Clouds 13 1020 70 10000 3.68 36 20:28 07.05.2022
1597 Clouds 13 1020 72 10000 3.76 32 19:23 07.05.2022
1598 Clouds 14 1020 76 10000 3.55 30 17:34 07.05.2022
1599 Clouds 15 1019 85 5522 2.24 42 15:41 07.05.2022
1600 Clouds 19 1016 63 6077 1.83 168 12:50 07.05.2022
1601 Clouds 20 1016 57 10000 2.47 186 10:33 07.05.2022
1602 Clouds 20 1017 56 10000 2.45 193 08:57 07.05.2022
1603 Clouds 20 1017 50 10000 1.53 225 07:50 07.05.2022
1604 Clouds 19 1018 54 10000 1.21 241 06:43 07.05.2022
1605 Clear 17 1019 56 10000 0.89 9 04:35 07.05.2022
1606 Clear 10 1020 67 10000 4.71 26 00:56 07.05.2022
1607 Clear 10 1020 68 10000 4.69 28 23:36 06.05.2022
1608 Clear 11 1020 68 10000 4.34 29 22:26 06.05.2022
1609 Clear 11 1020 68 10000 4.34 29 21:41 06.05.2022
1610 Clouds 11 1021 71 10000 4.1 27 20:24 06.05.2022
1611 Clouds 11 1022 71 10000 4.19 28 19:29 06.05.2022
1612 Clouds 11 1022 71 10000 4.19 28 18:56 06.05.2022
1613 Clouds 11 1022 72 10000 4.18 24 17:38 06.05.2022
1614 Clouds 13 1020 76 10000 3.53 23 16:23 06.05.2022
1615 Clouds 13 1020 76 10000 3.53 23 15:39 06.05.2022
1616 Clouds 14 1019 79 10000 2.63 24 14:33 06.05.2022
1617 Clouds 15 1019 83 5879 1.45 11 12:53 06.05.2022
1618 Clouds 15 1019 83 5879 1.45 11 12:31 06.05.2022
1619 Clouds 15 1018 87 4725 0.97 191 11:41 06.05.2022
1620 Clouds 17 1018 80 2901 1.98 184 10:26 06.05.2022
1621 Clouds 17 1018 80 2901 1.98 184 09:39 06.05.2022
1622 Clouds 19 1017 63 10000 2.59 188 07:59 06.05.2022
1623 Clouds 19 1018 57 10000 2.56 208 06:42 06.05.2022
1624 Clouds 17 1018 58 10000 0.37 108 04:51 06.05.2022
1625 Clouds 12 1019 69 10000 2.48 44 02:43 06.05.2022
1626 Clouds 12 1018 71 10000 3.16 43 23:36 05.05.2022
1627 Clouds 11 1019 70 10000 3.12 39 21:53 05.05.2022
1628 Clouds 12 1019 71 10000 3.41 35 21:19 05.05.2022
1629 Clouds 13 1019 72 10000 3.63 36 19:49 05.05.2022
1630 Clouds 13 1019 81 10000 3.08 36 16:57 05.05.2022
1631 Clouds 14 1018 88 10000 2.09 61 16:18 05.05.2022
1632 Clouds 15 1017 86 4589 1.35 123 14:43 05.05.2022
1633 Clouds 16 1017 80 4997 1.18 329 13:21 05.05.2022
1634 Clouds 17 1016 73 8026 1.7 231 12:24 05.05.2022
1635 Clouds 19 1015 65 5629 3.35 204 10:33 05.05.2022
1636 Clouds 20 1015 59 10000 3.1 201 09:39 05.05.2022
1637 Clouds 19 1017 51 10000 2.54 185 07:24 05.05.2022
1638 Clouds 13 1019 67 10000 3.45 34 03:00 05.05.2022
1639 Clouds 12 1019 69 10000 3.84 30 01:48 05.05.2022
1640 Clouds 12 1019 69 10000 4.04 36 01:22 05.05.2022
1641 Clouds 12 1019 69 10000 3.77 35 23:34 04.05.2022
1642 Clouds 12 1019 71 10000 4 34 22:27 04.05.2022
1643 Clouds 12 1019 71 10000 4 34 21:49 04.05.2022
1644 Clouds 12 1020 72 10000 3.87 34 21:26 04.05.2022
1645 Clouds 12 1020 72 10000 3.87 34 21:26 04.05.2022
1646 Clouds 13 1021 75 10000 3.51 38 20:22 04.05.2022
1647 Clouds 13 1021 75 10000 3.51 38 19:51 04.05.2022
1648 Clouds 13 1021 77 10000 3.32 36 18:51 04.05.2022
1649 Clouds 14 1021 82 10000 3.08 42 18:21 04.05.2022
1650 Clouds 14 1021 82 10000 3.08 42 17:30 04.05.2022
1651 Clouds 14 1020 92 8354 0.85 80 15:38 04.05.2022
1652 Clouds 15 1019 90 7345 2.19 167 15:20 04.05.2022
1653 Clouds 17 1017 78 8536 1.79 171 14:20 04.05.2022
1654 Clouds 18 1017 72 4873 1.58 164 13:26 04.05.2022
1655 Clouds 18 1017 74 4136 1.74 158 12:29 04.05.2022
1656 Clouds 19 1017 63 9965 4.39 180 10:40 04.05.2022
1657 Clouds 21 1016 48 10000 3.02 211 09:43 04.05.2022
1658 Clouds 21 1018 51 10000 2.93 203 08:41 04.05.2022
1659 Clouds 20 1019 47 10000 2.3 196 06:31 04.05.2022
1660 Clear 13 1022 63 10000 3.86 33 02:53 04.05.2022
1661 Clouds 11 1021 66 10000 4.5 31 00:33 04.05.2022
1662 Clouds 12 1020 66 10000 4.12 32 22:34 03.05.2022
1663 Clouds 13 1020 67 10000 3.99 29 21:43 03.05.2022
1664 Clouds 13 1020 68 10000 3.9 29 20:54 03.05.2022
1665 Clouds 14 1020 70 10000 3.95 27 19:57 03.05.2022
1666 Clouds 14 1021 84 10000 3.54 24 18:54 03.05.2022
1667 Clouds 14 1022 89 9318 3.12 38 18:20 03.05.2022
1668 Clouds 14 1022 93 3538 1.81 48 16:44 03.05.2022
1669 Clouds 13 1021 94 3483 2.47 21 15:38 03.05.2022
1670 Clouds 21 1013 57 10000 3.31 182 12:47 03.05.2022
1671 Clouds 22 1014 54 10000 3.36 199 12:27 03.05.2022
1672 Clouds 22 1014 56 10000 2.8 207 10:57 03.05.2022
1673 Clouds 22 1015 56 10000 2.91 197 09:34 03.05.2022
1674 Clouds 22 1015 48 10000 3.21 205 07:33 03.05.2022
1675 Clouds 22 1016 47 10000 2.51 196 06:44 03.05.2022
1676 Clear 13 1018 56 10000 5 30 00:54 03.05.2022
1677 Clear 13 1018 54 10000 5.04 32 22:39 02.05.2022
1678 Clear 13 1018 56 10000 4.9 32 21:54 02.05.2022
1679 Clear 13 1019 58 10000 4.82 31 20:51 02.05.2022
1680 Clouds 14 1019 63 10000 4.85 33 18:44 02.05.2022
1681 Clouds 14 1019 64 10000 4.76 28 18:25 02.05.2022
1682 Clouds 14 1019 64 10000 4.76 28 17:37 02.05.2022
1683 Clouds 16 1015 67 10000 2.53 37 16:23 02.05.2022
1684 Rain 17 1016 63 10000 2.93 44 15:31 02.05.2022
1685 Clouds 22 1012 54 10000 1.51 195 13:52 02.05.2022
1686 Clouds 23 1012 43 10000 0.88 242 12:20 02.05.2022
1687 Clouds 23 1012 45 10000 0.48 205 10:51 02.05.2022
1688 Clouds 23 1013 47 7206 0.48 141 09:30 02.05.2022
1689 Clear 23 1014 37 10000 2.07 198 07:52 02.05.2022
1690 Clear 20 1015 42 10000 1.17 31 04:36 02.05.2022
1691 Clear 12 1017 52 10000 5.06 29 00:25 02.05.2022
1692 Clear 12 1017 52 10000 5.06 29 23:52 01.05.2022
1693 Clear 12 1018 53 10000 4.98 30 22:40 01.05.2022
1694 Clear 12 1018 57 10000 5.31 27 21:26 01.05.2022
1695 Clouds 12 1019 59 10000 5.49 27 20:19 01.05.2022
1696 Clouds 13 1019 61 10000 5.22 29 19:18 01.05.2022
1697 Clouds 13 1019 61 10000 5.22 29 18:46 01.05.2022
1698 Clouds 13 1019 63 10000 5.07 29 17:46 01.05.2022
1699 Clouds 14 1018 70 10000 3.8 28 16:24 01.05.2022
1700 Clouds 14 1018 70 10000 3.8 28 15:38 01.05.2022
1701 Clouds 19 1014 65 10000 0.99 173 13:52 01.05.2022
1702 Clouds 20 1014 57 10000 1.66 237 11:41 01.05.2022
1703 Rain 21 1015 57 10000 1.86 353 09:32 01.05.2022
1704 Clouds 21 1016 61 9302 1.99 346 08:47 01.05.2022
1705 Clouds 18 1017 54 10000 2.18 35 04:31 01.05.2022
1706 Clouds 12 1020 58 10000 5.5 29 00:43 01.05.2022
1707 Clouds 12 1020 60 10000 5.43 29 21:52 30.04.2022
1708 Clouds 12 1020 60 10000 5.43 29 21:30 30.04.2022
1709 Clouds 12 1020 60 10000 5.35 30 19:47 30.04.2022
1710 Clouds 12 1021 61 10000 5.2 28 18:50 30.04.2022
1711 Clouds 14 1020 66 10000 4.99 27 17:20 30.04.2022
1712 Clouds 15 1018 68 10000 4.51 26 15:50 30.04.2022
1713 Clouds 16 1017 69 10000 3.25 15 14:54 30.04.2022
1714 Clouds 17 1017 74 10000 4.18 3 13:41 30.04.2022
1715 Clouds 17 1018 78 7807 4.41 6 11:34 30.04.2022
1716 Clouds 17 1018 79 7720 2.9 343 10:55 30.04.2022
1717 Clouds 20 1016 63 7701 2.58 266 09:54 30.04.2022
1718 Clear 22 1015 46 7867 0.71 227 07:35 30.04.2022
1719 Clear 16 1018 57 10000 3.69 30 03:45 30.04.2022
1720 Clear 11 1020 59 10000 5.63 28 23:54 29.04.2022
1721 Clear 11 1021 60 10000 5.54 29 22:36 29.04.2022
1722 Clear 11 1022 61 10000 5.49 29 21:54 29.04.2022
1723 Clear 11 1022 62 10000 5.47 29 21:21 29.04.2022
1724 Clouds 12 1023 65 10000 5.42 28 19:52 29.04.2022
1725 Clouds 12 1023 67 10000 5.29 27 18:58 29.04.2022
1726 Clouds 12 1023 69 10000 5.03 29 17:33 29.04.2022
1727 Clouds 13 1022 72 10000 4.75 27 16:30 29.04.2022
1728 Clouds 15 1021 81 6019 3.24 19 14:34 29.04.2022
1729 Clouds 18 1018 65 10000 1.25 356 13:27 29.04.2022
1730 Clouds 18 1018 65 10000 1.25 356 12:33 29.04.2022
1731 Clouds 20 1019 61 6462 1.01 314 09:52 29.04.2022
1732 Clouds 20 1020 69 4474 2.15 6 07:52 29.04.2022
1733 Clouds 19 1020 70 5153 2.29 8 07:24 29.04.2022
1734 Clouds 18 1021 70 10000 2.56 19 05:57 29.04.2022
1735 Clouds 11 1025 63 10000 5.77 25 00:52 29.04.2022
1736 Clouds 11 1025 63 10000 5.62 26 23:52 28.04.2022
1737 Clouds 12 1025 64 10000 5.43 26 22:47 28.04.2022
1738 Clouds 12 1025 66 10000 5.16 24 21:59 28.04.2022
1739 Clouds 12 1025 66 10000 5.16 24 21:37 28.04.2022
1740 Clouds 13 1025 67 10000 4.91 24 20:42 28.04.2022
1741 Clouds 13 1026 67 10000 5.31 23 19:49 28.04.2022
1742 Clouds 13 1025 70 10000 5.1 24 19:24 28.04.2022
1743 Clouds 13 1025 70 10000 5.1 24 18:45 28.04.2022
1744 Clouds 14 1025 73 10000 4.82 25 17:32 28.04.2022
1745 Clouds 14 1024 79 10000 4.31 28 16:50 28.04.2022
1746 Clouds 14 1024 82 9484 4.76 25 16:20 28.04.2022
1747 Clouds 14 1024 82 9484 4.76 25 16:20 28.04.2022
1748 Clouds 14 1024 82 9484 4.76 25 15:41 28.04.2022
1749 Clouds 14 1024 86 7322 4.39 21 14:56 28.04.2022
1750 Clouds 15 1022 82 5504 3.19 34 13:23 28.04.2022
1751 Clouds 19 1019 67 8299 0.35 0 12:28 28.04.2022
1752 Clouds 19 1019 69 5922 1.1 116 10:59 28.04.2022
1753 Clouds 21 1018 57 8349 1.53 240 10:26 28.04.2022
1754 Clouds 21 1018 57 8349 1.53 240 09:43 28.04.2022
1755 Clear 23 1017 35 10000 1.56 206 07:40 28.04.2022
1756 Clear 22 1018 37 10000 1.3 223 06:42 28.04.2022
1757 Clear 21 1018 40 10000 0.45 279 05:52 28.04.2022
1758 Clear 19 1019 44 10000 1.54 21 04:42 28.04.2022
1759 Clear 12 1021 58 10000 5.09 28 00:52 28.04.2022
1760 Clear 12 1022 58 10000 5 28 23:25 27.04.2022
1761 Clear 13 1022 58 10000 5 28 22:18 27.04.2022
1762 Clear 13 1022 58 10000 5 28 21:34 27.04.2022
1763 Clear 13 1022 58 10000 4.93 28 20:45 27.04.2022
1764 Clouds 13 1022 58 10000 4.88 28 19:55 27.04.2022
1765 Clouds 13 1022 57 10000 4.9 28 19:34 27.04.2022
1766 Clouds 13 1022 57 10000 4.88 28 18:39 27.04.2022
1767 Clouds 13 1022 57 10000 4.74 28 17:55 27.04.2022
1768 Clouds 15 1020 59 10000 3.24 32 15:57 27.04.2022
1769 Clouds 23 1015 39 10000 0.88 214 12:59 27.04.2022
1770 Clouds 23 1016 37 10000 0.39 38 11:25 27.04.2022
1771 Clouds 23 1016 37 10000 0.39 38 10:45 27.04.2022
1772 Clear 21 1018 45 10000 0.69 241 08:22 27.04.2022
1773 Clear 22 1018 29 10000 1.07 226 06:41 27.04.2022
1774 Clear 11 1022 39 10000 5.41 26 02:31 27.04.2022
1775 Clear 10 1022 45 10000 5.76 27 01:21 27.04.2022
1776 Clear 10 1022 47 10000 5.8 27 00:27 27.04.2022
1777 Clear 10 1022 48 10000 5.73 27 23:24 26.04.2022
1778 Clear 10 1022 48 10000 5.73 27 22:45 26.04.2022
1779 Clear 10 1023 50 10000 5.66 26 22:19 26.04.2022
1780 Clear 10 1024 51 10000 5.67 27 21:24 26.04.2022
1781 Clear 10 1024 51 10000 5.67 27 20:38 26.04.2022
1782 Clouds 11 1024 54 10000 5.42 29 19:45 26.04.2022
1783 Clouds 11 1024 55 10000 5.26 28 19:26 26.04.2022
1784 Clouds 11 1024 55 10000 5.26 28 18:39 26.04.2022
1785 Clouds 12 1024 56 10000 5.17 25 17:41 26.04.2022
1786 Clouds 13 1021 55 10000 4.38 24 15:41 26.04.2022
1787 Clouds 19 1016 48 10000 1.45 337 13:51 26.04.2022
1788 Clouds 20 1016 42 10000 1.23 342 13:28 26.04.2022
1789 Clouds 20 1017 39 10000 1.37 327 11:24 26.04.2022
1790 Clouds 20 1017 39 10000 1.37 327 10:30 26.04.2022
1791 Clouds 20 1018 41 10000 1.67 355 08:34 26.04.2022
1792 Clear 14 1021 48 10000 3.26 29 04:59 26.04.2022
1793 Clear 12 1022 56 10000 4.61 30 04:22 26.04.2022
1794 Clear 8 1023 60 10000 5.82 27 00:51 26.04.2022
1795 Clear 8 1023 62 10000 5.73 28 23:51 25.04.2022
1796 Clear 9 1023 64 10000 5.56 31 21:57 25.04.2022
1797 Clear 9 1023 64 10000 5.56 31 21:33 25.04.2022
1798 Clouds 11 1023 67 10000 4.56 25 19:58 25.04.2022
1799 Clouds 11 1024 67 10000 4.59 29 18:48 25.04.2022
1800 Clouds 10 1023 65 10000 4.55 26 17:40 25.04.2022
1801 Clouds 10 1023 65 10000 4.55 26 17:40 25.04.2022
1802 Clouds 11 1022 66 10000 4.57 31 16:44 25.04.2022
1803 Clouds 14 1019 72 10000 2.43 25 15:23 25.04.2022
1804 Clouds 14 1019 72 10000 2.43 25 14:34 25.04.2022
1805 Clouds 15 1018 77 7750 1.9 330 13:21 25.04.2022
1806 Clouds 16 1017 71 8160 2.36 346 10:44 25.04.2022
1807 Clouds 19 1015 51 10000 3.11 233 09:42 25.04.2022
1808 Clouds 21 1015 37 10000 1.12 186 07:56 25.04.2022
1809 Clouds 19 1017 39 10000 0.91 22 06:18 25.04.2022
1810 Clouds 8 1022 54 10000 5.88 31 01:49 25.04.2022
1811 Clouds 9 1021 54 10000 5.84 29 23:57 24.04.2022
1812 Clouds 9 1021 54 10000 5.7 28 23:28 24.04.2022
1813 Clouds 9 1021 54 10000 5.7 28 22:39 24.04.2022
1814 Clouds 9 1022 54 10000 5.6 29 21:58 24.04.2022
1815 Clouds 9 1023 55 10000 5.51 28 21:23 24.04.2022
1816 Clouds 9 1023 55 10000 5.51 28 20:47 24.04.2022
1817 Clouds 10 1022 59 10000 5.4 28 20:21 24.04.2022
1818 Clouds 10 1022 59 10000 5.37 29 18:54 24.04.2022
1819 Clouds 10 1022 59 10000 5.24 30 17:55 24.04.2022
1820 Clouds 10 1022 61 10000 5.03 30 17:22 24.04.2022
1821 Clouds 10 1022 61 10000 5.03 30 16:56 24.04.2022
1822 Clouds 11 1020 62 10000 4.38 30 16:29 24.04.2022
1823 Clouds 11 1020 62 10000 4.38 30 16:29 24.04.2022
1824 Clouds 11 1020 62 10000 4.38 30 15:53 24.04.2022
1825 Clouds 14 1017 63 10000 1.53 12 14:55 24.04.2022
1826 Clouds 18 1014 57 10000 0.39 333 13:45 24.04.2022
1827 Clouds 19 1014 51 10000 0.76 273 13:23 24.04.2022
1828 Clouds 19 1014 46 10000 0.8 246 11:53 24.04.2022
1829 Clear 19 1015 45 10000 0.26 199 10:59 24.04.2022
1830 Clear 19 1016 48 10000 0.45 196 09:47 24.04.2022
1831 Clear 18 1017 59 10000 0.45 283 08:23 24.04.2022
1832 Clear 16 1018 49 10000 1.86 19 05:46 24.04.2022
1833 Clear 7 1025 60 10000 6.02 27 02:49 24.04.2022
1834 Clear 6 1025 63 10000 5.99 27 00:47 24.04.2022
1835 Clear 6 1025 66 10000 5.91 26 23:55 23.04.2022
1836 Clear 6 1025 67 10000 5.83 27 23:25 23.04.2022
1837 Clear 6 1025 67 10000 5.83 27 22:40 23.04.2022
1838 Clear 7 1025 69 10000 5.53 29 21:48 23.04.2022
1839 Clear 8 1025 70 10000 5.08 28 21:29 23.04.2022
1840 Clouds 9 1025 70 10000 5.07 28 19:57 23.04.2022
1841 Clouds 9 1025 72 10000 5.07 29 19:20 23.04.2022
1842 Clouds 9 1025 72 10000 5.07 29 18:54 23.04.2022
1843 Clouds 9 1025 72 10000 5.07 29 18:32 23.04.2022
1844 Clouds 9 1025 72 10000 5.07 29 18:32 23.04.2022
1845 Clouds 10 1025 74 10000 4.7 27 17:47 23.04.2022
1846 Clouds 10 1024 74 10000 3.92 25 16:46 23.04.2022
1847 Clouds 10 1024 75 10000 3.77 21 15:52 23.04.2022
1848 Clouds 14 1020 69 10000 2.05 354 13:33 23.04.2022
1849 Clouds 15 1020 66 10000 1.56 317 11:30 23.04.2022
1850 Clouds 16 1020 65 10000 1.72 289 10:32 23.04.2022
1851 Clear 16 1021 65 10000 0.53 313 08:18 23.04.2022
1852 Clear 9 1024 64 10000 4.5 27 03:57 23.04.2022
1853 Clear 5 1027 64 10000 5.82 28 03:27 23.04.2022
1854 Clear 6 1025 68 10000 5.54 27 23:37 22.04.2022
1855 Clear 7 1025 69 10000 5.31 26 23:18 22.04.2022
1856 Clear 7 1025 71 10000 5.21 26 21:58 22.04.2022
1857 Clear 7 1025 71 10000 5.21 26 21:39 22.04.2022
1858 Clear 8 1025 74 10000 4.59 24 20:34 22.04.2022
1859 Clouds 9 1025 77 10000 4.33 24 19:26 22.04.2022
1860 Clouds 9 1025 77 10000 4.33 24 18:56 22.04.2022
1861 Clouds 9 1025 79 10000 4.1 24 18:26 22.04.2022
1862 Clouds 9 1024 81 10000 3.81 23 16:57 22.04.2022
1863 Clouds 9 1024 83 10000 3.42 29 15:59 22.04.2022
1864 Clouds 11 1021 85 10000 1.9 48 15:24 22.04.2022
1865 Clouds 11 1021 85 10000 1.9 48 14:38 22.04.2022
1866 Clouds 13 1020 87 3201 1.58 56 13:41 22.04.2022
1867 Clouds 14 1019 84 2581 0.77 39 12:47 22.04.2022
1868 Clouds 15 1019 79 5267 1.19 272 11:23 22.04.2022
1869 Clouds 15 1019 79 5267 1.19 272 10:56 22.04.2022
1870 Clouds 15 1019 79 5267 1.19 272 10:34 22.04.2022
1871 Clouds 17 1018 77 4279 1.64 215 09:57 22.04.2022
1872 Clouds 16 1019 77 4328 1.17 192 09:22 22.04.2022
1873 Clouds 16 1019 77 4328 1.17 192 08:48 22.04.2022
1874 Clouds 15 1020 80 9949 0.7 277 06:42 22.04.2022
1875 Clouds 8 1023 72 10000 4.43 27 01:24 22.04.2022
1876 Clouds 8 1023 72 10000 4.59 31 23:33 21.04.2022
1877 Clouds 8 1023 72 10000 4.61 28 22:43 21.04.2022
1878 Clouds 8 1024 72 10000 4.79 27 21:42 21.04.2022
1879 Clouds 8 1024 74 10000 4.69 27 20:31 21.04.2022
1880 Clouds 11 1022 93 7454 1.35 68 18:49 21.04.2022
1881 Clouds 11 1022 95 3753 0.58 67 18:28 21.04.2022
1882 Rain 11 1021 95 3308 1.03 92 17:19 21.04.2022
1883 Rain 11 1020 95 2330 0.85 350 16:19 21.04.2022
1884 Clouds 11 1020 96 2028 1.54 61 15:19 21.04.2022
1885 Clouds 12 1019 96 916 1.05 43 14:28 21.04.2022
1886 Clouds 13 1019 83 6125 3.24 29 13:21 21.04.2022
1887 Clouds 15 1018 74 6332 3.46 287 12:25 21.04.2022
1888 Clouds 20 1016 44 10000 2.19 145 09:36 21.04.2022
1889 Clouds 19 1018 47 10000 1.46 149 08:47 21.04.2022
1890 Clouds 19 1019 42 10000 1.34 201 06:44 21.04.2022
1891 Clouds 14 1021 62 10000 3.11 30 03:42 21.04.2022
1892 Clouds 11 1023 66 10000 4.5 30 03:22 21.04.2022
1893 Clouds 11 1023 66 10000 4.5 30 02:44 21.04.2022
1894 Clouds 11 1023 66 10000 4.5 30 02:44 21.04.2022
1895 Clouds 10 1023 66 10000 4.96 29 00:35 21.04.2022
1896 Clouds 10 1023 69 10000 4.53 29 23:40 20.04.2022
1897 Clouds 11 1023 67 10000 4.69 30 23:18 20.04.2022
1898 Clouds 11 1023 67 10000 4.69 30 22:36 20.04.2022
1899 Clouds 11 1023 68 10000 4.66 29 21:47 20.04.2022
1900 Clouds 11 1023 68 10000 4.79 29 20:45 20.04.2022
1901 Clouds 12 1022 67 10000 4.31 28 20:21 20.04.2022
1902 Clouds 12 1022 67 10000 4.31 28 19:46 20.04.2022
1903 Clouds 12 1023 66 10000 4.47 30 18:52 20.04.2022
1904 Clouds 12 1022 68 10000 3.69 33 17:52 20.04.2022
1905 Clouds 12 1022 67 10000 4.32 34 16:39 20.04.2022
1906 Clouds 13 1020 65 10000 3.21 30 15:33 20.04.2022
1907 Clouds 20 1016 53 10000 0.46 126 12:46 20.04.2022
1908 Clouds 19 1017 56 10000 0.01 196 11:42 20.04.2022
1909 Clouds 21 1016 45 9540 2.07 224 10:51 20.04.2022
1910 Clear 21 1017 43 10000 1.13 179 09:34 20.04.2022
1911 Clear 20 1018 47 10000 0.65 177 08:51 20.04.2022
1912 Clear 21 1018 45 10000 0.54 263 08:19 20.04.2022
1913 Clear 18 1020 54 10000 1.18 3 06:23 20.04.2022
1914 Clear 11 1023 62 10000 5.1 28 02:58 20.04.2022
1915 Clear 10 1023 61 10000 5.39 28 00:22 20.04.2022
1916 Clear 10 1023 62 10000 5.39 29 23:19 19.04.2022
1917 Clear 10 1024 63 10000 5.33 29 22:24 19.04.2022
1918 Clear 10 1024 63 10000 5.33 29 21:55 19.04.2022
1919 Clear 11 1024 64 10000 5.18 27 20:59 19.04.2022
1920 Clear 11 1024 64 10000 5.18 27 20:37 19.04.2022
1921 Clouds 11 1025 66 10000 5.29 23 19:41 19.04.2022
1922 Clouds 12 1025 67 10000 5.1 25 18:37 19.04.2022
1923 Clouds 13 1024 67 10000 4.42 27 17:24 19.04.2022
1924 Clouds 13 1024 67 10000 4.42 27 16:42 19.04.2022
1925 Clouds 13 1024 67 10000 4.42 27 16:42 19.04.2022
1926 Clouds 14 1023 68 10000 3.57 22 16:20 19.04.2022
1927 Clouds 15 1021 67 10000 3.2 18 14:46 19.04.2022
1928 Clouds 17 1021 71 10000 4.15 5 13:22 19.04.2022
1929 Clouds 17 1021 71 10000 4.15 5 12:49 19.04.2022
1930 Clouds 16 1022 77 10000 3.43 24 11:38 19.04.2022
1931 Clouds 20 1020 51 8556 2.23 258 09:57 19.04.2022
1932 Clouds 21 1020 44 10000 0.5 239 08:43 19.04.2022
1933 Clear 18 1022 49 10000 1.97 27 04:41 19.04.2022
1934 Clear 12 1025 61 10000 4.96 28 03:19 19.04.2022
1935 Clouds 11 1024 61 10000 5.13 29 00:24 19.04.2022
1936 Clouds 11 1024 62 10000 5.08 29 22:58 18.04.2022
1937 Clouds 12 1025 63 10000 5.06 29 21:29 18.04.2022
1938 Clouds 12 1025 63 10000 5.06 29 20:46 18.04.2022
1939 Clouds 12 1025 63 10000 5.08 29 20:25 18.04.2022
1940 Clouds 12 1025 64 10000 5.15 30 19:41 18.04.2022
1941 Clouds 12 1025 65 10000 5.01 31 18:53 18.04.2022
1942 Clouds 12 1025 66 10000 5.02 30 17:53 18.04.2022
1943 Clouds 13 1024 68 10000 4.57 30 17:28 18.04.2022
1944 Clouds 13 1024 68 10000 4.57 30 16:40 18.04.2022
1945 Clouds 14 1022 68 10000 3.45 26 15:54 18.04.2022
1946 Clouds 15 1020 70 10000 1.46 29 14:42 18.04.2022
1947 Clouds 15 1020 70 10000 1.46 29 14:42 18.04.2022
1948 Clouds 17 1019 68 10000 1.42 353 13:34 18.04.2022
1949 Clouds 17 1019 68 10000 1.42 353 13:34 18.04.2022
1950 Clouds 18 1018 62 10000 1.92 214 12:29 18.04.2022
1951 Clouds 21 1017 47 10000 2.26 252 11:27 18.04.2022
1952 Clear 21 1017 38 10000 1.42 275 10:29 18.04.2022
1953 Clear 21 1017 38 10000 1.42 275 09:30 18.04.2022
1954 Clear 22 1017 32 10000 1.22 227 07:35 18.04.2022
1955 Clear 20 1018 38 10000 1.15 2 05:35 18.04.2022
1956 Clouds 11 1021 52 10000 5.15 26 23:51 17.04.2022
1957 Clouds 10 1021 53 10000 5.2 26 22:40 17.04.2022
1958 Clouds 11 1022 55 10000 5.16 27 21:42 17.04.2022
1959 Clouds 11 1022 56 10000 4.97 27 21:21 17.04.2022
1960 Clouds 11 1022 56 10000 4.97 27 20:33 17.04.2022
1961 Clouds 11 1022 58 10000 4.9 28 19:23 17.04.2022
1962 Clouds 12 1021 61 10000 4.62 30 17:43 17.04.2022
1963 Clouds 14 1019 67 10000 3.43 44 15:39 17.04.2022
1964 Clouds 15 1017 70 10000 0.82 93 14:54 17.04.2022
1965 Clouds 18 1015 62 10000 1.6 218 13:47 17.04.2022
1966 Clouds 20 1014 44 10000 1.8 211 12:58 17.04.2022
1967 Clouds 21 1013 40 10000 1.18 209 12:18 17.04.2022
1968 Clouds 20 1014 36 10000 1.1 203 10:46 17.04.2022
1969 Clouds 20 1014 38 10000 1.15 210 10:27 17.04.2022
1970 Clouds 20 1015 41 10000 1.44 215 09:28 17.04.2022
1971 Clouds 20 1015 41 10000 1.44 215 08:42 17.04.2022
1972 Clear 20 1015 35 10000 0.92 203 07:26 17.04.2022
1973 Clear 13 1018 47 10000 4.7 26 03:53 17.04.2022
1974 Clear 8 1021 55 10000 5.78 25 00:55 17.04.2022
1975 Clear 8 1021 58 10000 5.72 24 23:50 16.04.2022
1976 Clear 8 1022 62 10000 5.46 26 22:29 16.04.2022
1977 Clear 8 1022 62 10000 5.46 26 21:31 16.04.2022
1978 Clouds 9 1022 64 10000 5.06 26 20:18 16.04.2022
1979 Clouds 9 1021 64 10000 4.78 24 18:55 16.04.2022
1980 Clouds 10 1021 67 10000 4.6 24 17:46 16.04.2022
1981 Clouds 10 1020 71 10000 4.24 21 16:38 16.04.2022
1982 Clouds 11 1018 74 10000 3.41 24 15:45 16.04.2022
1983 Clouds 13 1016 73 10000 2.36 29 14:56 16.04.2022
1984 Clouds 14 1015 73 8719 1.91 24 13:58 16.04.2022
1985 Clouds 14 1015 73 8719 1.91 24 13:32 16.04.2022
1986 Clouds 17 1013 53 8674 2.76 244 12:22 16.04.2022
1987 Clouds 19 1012 41 10000 2.24 221 10:49 16.04.2022
1988 Clouds 19 1013 39 10000 1.65 211 09:56 16.04.2022
1989 Clouds 18 1014 38 10000 1.25 201 08:57 16.04.2022
1990 Clear 17 1015 41 10000 0.95 219 07:52 16.04.2022
1991 Clear 17 1015 39 10000 1.09 236 06:58 16.04.2022
1992 Clear 8 1020 59 10000 5.38 26 02:46 16.04.2022
1993 Clouds 7 1019 63 10000 5.65 26 00:30 16.04.2022
1994 Clouds 7 1020 66 10000 5.27 30 22:58 15.04.2022
1995 Clouds 7 1020 66 10000 5.27 30 22:32 15.04.2022
1996 Clouds 8 1020 67 10000 5.09 32 21:50 15.04.2022
1997 Clouds 8 1021 68 10000 4.85 31 21:18 15.04.2022
1998 Clouds 8 1021 68 10000 4.57 29 20:21 15.04.2022
1999 Clouds 8 1021 65 10000 4.65 29 19:39 15.04.2022
2000 Clouds 9 1021 66 10000 4.25 30 18:53 15.04.2022
2001 Clouds 10 1020 68 10000 4.02 25 18:25 15.04.2022
2002 Clouds 10 1020 68 10000 4.02 25 17:34 15.04.2022
2003 Clouds 10 1019 72 10000 3.85 25 16:48 15.04.2022
2004 Clouds 11 1018 76 10000 3.23 26 16:18 15.04.2022
2005 Clouds 12 1016 79 10000 0.73 73 14:51 15.04.2022
2006 Clouds 14 1015 68 10000 0.15 241 13:40 15.04.2022
2007 Clouds 15 1014 65 10000 0.82 323 12:40 15.04.2022
2008 Clouds 15 1014 64 10000 1.55 342 11:56 15.04.2022
2009 Clouds 15 1014 64 10000 1.55 342 11:34 15.04.2022
2010 Clouds 15 1016 66 10000 1.53 293 10:43 15.04.2022
2011 Clouds 16 1015 56 10000 2.47 268 09:46 15.04.2022
2012 Clouds 17 1014 37 10000 1.28 287 09:21 15.04.2022
2013 Clouds 18 1015 40 10000 1.67 312 07:32 15.04.2022
2014 Clear 17 1016 43 10000 1.33 340 06:36 15.04.2022
2015 Clear 7 1021 58 10000 5.65 28 02:48 15.04.2022
2016 Clouds 7 1021 61 10000 5.5 28 23:31 14.04.2022
2017 Clouds 7 1021 62 10000 5.48 27 22:49 14.04.2022
2018 Clouds 7 1021 62 10000 5.48 27 22:30 14.04.2022
2019 Clouds 8 1021 63 10000 5.39 29 21:59 14.04.2022
2020 Clouds 8 1021 63 10000 5.08 27 20:57 14.04.2022
2021 Clouds 8 1021 63 10000 4.79 29 19:23 14.04.2022
2022 Clouds 8 1021 63 10000 4.79 29 18:30 14.04.2022
2023 Clouds 9 1020 65 10000 4.41 28 17:44 14.04.2022
2024 Clouds 9 1019 70 10000 4.45 22 16:46 14.04.2022
2025 Clouds 12 1017 77 10000 2.7 47 15:26 14.04.2022
2026 Clouds 14 1016 72 9881 0.49 29 13:47 14.04.2022
2027 Clouds 15 1014 65 10000 0.43 120 12:58 14.04.2022
2028 Clouds 15 1014 65 10000 0.43 120 12:31 14.04.2022
2029 Clouds 15 1015 72 10000 2.02 10 11:30 14.04.2022
2030 Clouds 14 1017 79 7832 2.6 351 10:54 14.04.2022
2031 Clouds 14 1017 78 6822 2.49 322 10:27 14.04.2022
2032 Clouds 17 1015 60 6391 2.23 266 09:26 14.04.2022
2033 Clouds 18 1015 47 8104 2.04 234 07:36 14.04.2022
2034 Clouds 15 1017 53 10000 2.23 23 04:35 14.04.2022
2035 Clouds 9 1020 62 10000 4.91 29 23:45 13.04.2022
2036 Clouds 10 1021 62 10000 4.79 29 22:29 13.04.2022
2037 Clouds 10 1021 62 10000 4.79 29 21:42 13.04.2022
2038 Clouds 10 1021 65 10000 4.84 27 20:27 13.04.2022
2039 Clouds 10 1021 66 10000 5.02 28 19:46 13.04.2022
2040 Clouds 10 1021 68 10000 4.85 27 18:36 13.04.2022
2041 Clouds 11 1022 74 10000 4.07 28 17:24 13.04.2022
2042 Clouds 11 1022 74 10000 4.07 28 16:44 13.04.2022
2043 Rain 11 1020 79 10000 3.67 31 15:44 13.04.2022
2044 Clouds 13 1019 81 10000 2.45 38 15:19 13.04.2022
2045 Clouds 13 1019 81 10000 2.45 38 14:34 13.04.2022
2046 Clouds 13 1019 85 6753 1.33 78 13:37 13.04.2022
2047 Clouds 14 1019 82 10000 1.61 102 12:41 13.04.2022
2048 Clouds 14 1018 86 6990 0.35 217 11:25 13.04.2022
2049 Clouds 19 1014 46 10000 2.41 204 09:53 13.04.2022
2050 Clouds 20 1015 45 10000 1.27 167 08:44 13.04.2022
2051 Clouds 21 1016 34 10000 1.59 192 07:38 13.04.2022
2052 Clouds 20 1017 39 10000 0.7 191 06:46 13.04.2022
2053 Clouds 19 1018 43 10000 0.51 56 06:23 13.04.2022
2054 Clouds 12 1021 67 10000 4.26 19 00:52 13.04.2022
2055 Clouds 12 1020 66 10000 3.76 14 00:19 13.04.2022
2056 Clouds 13 1020 61 10000 3.21 14 22:33 12.04.2022
2057 Clouds 12 1021 56 10000 4.24 29 21:47 12.04.2022
2058 Clouds 12 1022 56 10000 4.76 30 20:44 12.04.2022
2059 Clouds 12 1022 55 10000 4.65 31 20:18 12.04.2022
2060 Clouds 12 1022 60 10000 4.37 35 19:39 12.04.2022
2061 Clouds 12 1022 59 10000 4.17 32 18:53 12.04.2022
2062 Clouds 13 1022 57 10000 4.15 32 17:38 12.04.2022
2063 Clouds 13 1021 55 10000 4.03 36 16:38 12.04.2022
2064 Clouds 14 1019 55 10000 3.1 44 15:34 12.04.2022
2065 Clouds 16 1017 57 10000 1.47 92 14:41 12.04.2022
2066 Clouds 20 1015 50 10000 2.02 175 13:45 12.04.2022
2067 Clouds 21 1014 41 10000 2.22 175 13:23 12.04.2022
2068 Clouds 21 1014 41 10000 2.42 182 11:57 12.04.2022
2069 Clouds 21 1014 41 10000 2.42 182 11:32 12.04.2022
2070 Clouds 21 1016 43 10000 1.97 180 09:47 12.04.2022
2071 Clouds 21 1017 44 10000 1.67 186 08:38 12.04.2022
2072 Clouds 21 1017 37 10000 1.99 197 06:46 12.04.2022
2073 Clouds 20 1017 40 10000 0.31 152 05:38 12.04.2022
2074 Clouds 14 1020 53 10000 4.45 31 02:36 12.04.2022
2075 Clouds 13 1021 53 10000 4.92 32 23:20 11.04.2022
2076 Clouds 13 1021 53 10000 4.98 31 21:59 11.04.2022
2077 Clouds 13 1021 54 10000 4.98 31 21:18 11.04.2022
2078 Clouds 13 1021 54 10000 4.98 31 20:34 11.04.2022
2079 Clouds 13 1022 54 10000 5.02 31 19:58 11.04.2022
2080 Clouds 13 1022 55 10000 4.97 31 19:26 11.04.2022
2081 Clouds 13 1022 55 10000 4.97 31 18:53 11.04.2022
2082 Clouds 13 1022 55 10000 4.95 34 17:58 11.04.2022
2083 Clouds 13 1022 55 10000 4.95 34 17:38 11.04.2022
2084 Clouds 14 1020 55 10000 3.87 36 16:26 11.04.2022
2085 Clouds 16 1017 54 10000 1.33 67 14:49 11.04.2022
2086 Clouds 21 1014 48 10000 0.99 151 13:34 11.04.2022
2087 Clouds 23 1014 37 10000 1.23 174 12:38 11.04.2022
2088 Clouds 23 1014 34 10000 1.13 149 12:19 11.04.2022
2089 Clouds 23 1014 32 10000 0.98 146 10:37 11.04.2022
2090 Clouds 23 1015 32 10000 1 157 09:49 11.04.2022
2091 Clouds 23 1016 28 10000 0.87 203 07:58 11.04.2022
2092 Clear 14 1022 39 10000 5.14 28 04:18 11.04.2022
2093 Clear 11 1023 46 10000 6.05 29 23:30 10.04.2022
2094 Clear 11 1023 47 10000 5.79 29 22:27 10.04.2022
2095 Clear 11 1023 47 10000 5.79 29 21:49 10.04.2022
2096 Clear 11 1024 48 10000 5.8 29 20:50 10.04.2022
2097 Clear 11 1024 48 10000 5.8 29 19:56 10.04.2022
2098 Clear 11 1024 48 10000 5.8 29 19:34 10.04.2022
2099 Clear 11 1024 49 10000 5.69 30 18:48 10.04.2022
2100 Clear 12 1024 49 10000 5.46 32 18:24 10.04.2022
2101 Clear 12 1024 49 10000 5.46 32 17:42 10.04.2022
2102 Clear 12 1023 50 10000 5.16 31 16:51 10.04.2022
2103 Clear 13 1022 49 10000 4.79 33 15:38 10.04.2022
2104 Clouds 15 1019 50 10000 3.07 35 14:40 10.04.2022
2105 Clear 22 1016 40 10000 0.35 125 12:58 10.04.2022
2106 Clear 22 1015 41 10000 0.56 111 12:26 10.04.2022
2107 Clear 22 1015 41 10000 0.56 111 11:35 10.04.2022
2108 Clear 22 1016 42 10000 0.65 102 10:58 10.04.2022
2109 Clear 22 1017 43 10000 0.57 94 10:23 10.04.2022
2110 Clear 22 1017 43 10000 0.57 94 09:41 10.04.2022
2111 Clear 20 1018 48 9434 0.49 15 08:26 10.04.2022
2112 Clear 21 1018 42 9430 0.35 24 07:47 10.04.2022
2113 Clear 20 1019 43 10000 1.2 17 06:48 10.04.2022
2114 Clear 12 1023 55 10000 5.34 27 03:36 10.04.2022
2115 Clear 9 1024 56 10000 6.07 28 01:29 10.04.2022
2116 Clear 9 1024 58 10000 6.04 28 23:52 09.04.2022
2117 Clear 9 1024 60 10000 5.94 28 22:52 09.04.2022
2118 Clear 10 1024 61 10000 5.85 27 21:48 09.04.2022
2119 Clear 10 1025 63 10000 5.75 25 20:58 09.04.2022
2120 Clouds 10 1025 65 10000 5.54 26 20:26 09.04.2022
2121 Clouds 11 1024 62 10000 5.75 27 19:43 09.04.2022
2122 Clouds 11 1025 64 10000 5.37 27 19:21 09.04.2022
2123 Clouds 12 1024 68 10000 4.71 28 18:22 09.04.2022
2124 Clouds 12 1024 68 10000 4.71 28 17:42 09.04.2022
2125 Clouds 12 1024 71 10000 4.33 33 16:55 09.04.2022
2126 Clouds 13 1023 74 10000 3.63 38 16:28 09.04.2022
2127 Clouds 13 1023 74 10000 3.63 38 15:48 09.04.2022
2128 Clouds 13 1023 74 10000 3.63 38 15:48 09.04.2022
2129 Clouds 13 1022 78 10000 2.6 46 14:45 09.04.2022
2130 Clouds 15 1022 79 8629 1.9 72 14:25 09.04.2022
2131 Clouds 14 1021 79 8157 2.53 29 13:24 09.04.2022
2132 Clouds 14 1021 79 8157 2.53 29 12:53 09.04.2022
2133 Clouds 18 1018 62 9895 1.25 352 11:44 09.04.2022
2134 Clouds 20 1018 52 8985 1.57 203 10:22 09.04.2022
2135 Clouds 20 1018 52 8985 1.57 203 09:53 09.04.2022
2136 Clear 20 1018 52 10000 0.31 164 09:21 09.04.2022
2137 Clear 21 1018 37 10000 0.74 217 07:49 09.04.2022
2138 Clear 10 1023 55 10000 5.47 27 03:22 09.04.2022
2139 Clear 10 1024 55 10000 5.81 27 00:33 09.04.2022
2140 Clear 10 1024 56 10000 5.62 27 23:20 08.04.2022
2141 Clear 10 1024 56 10000 5.52 27 21:42 08.04.2022
2142 Clear 10 1025 57 10000 5.47 28 20:41 08.04.2022
2143 Clouds 11 1025 59 10000 5.43 28 19:41 08.04.2022
2144 Clouds 11 1025 61 10000 5.36 26 18:42 08.04.2022
2145 Clouds 11 1026 63 10000 5.29 26 18:18 08.04.2022
2146 Clouds 12 1025 69 10000 5.03 23 17:27 08.04.2022
2147 Clouds 12 1025 69 10000 5.03 23 16:52 08.04.2022
2148 Clouds 12 1024 75 10000 4.49 18 16:22 08.04.2022
2149 Clouds 14 1023 78 10000 3.29 5 15:28 08.04.2022
2150 Clouds 14 1023 78 10000 3.29 5 14:45 08.04.2022
2151 Rain 17 1019 65 10000 1.51 292 13:59 08.04.2022
2152 Rain 17 1019 65 10000 1.51 292 13:30 08.04.2022
2153 Rain 19 1018 58 10000 0.9 244 12:45 08.04.2022
2154 Clouds 21 1017 44 10000 1.28 241 10:56 08.04.2022
2155 Clear 21 1018 47 10000 0.51 158 09:57 08.04.2022
2156 Clear 20 1019 50 10000 0.27 145 08:59 08.04.2022
2157 Clear 21 1019 27 10000 0.72 191 07:43 08.04.2022
2158 Clear 21 1020 29 10000 0.16 34 06:45 08.04.2022
2159 Clear 10 1025 45 10000 5.66 29 02:53 08.04.2022
2160 Clear 10 1024 48 10000 5.58 29 00:30 08.04.2022
2161 Clear 10 1024 49 10000 5.55 29 23:43 07.04.2022
2162 Clear 10 1025 50 10000 5.44 29 22:44 07.04.2022
2163 Clear 10 1025 51 10000 5.39 29 22:23 07.04.2022
2164 Clear 10 1025 51 10000 5.39 29 21:58 07.04.2022
2165 Clear 10 1025 51 10000 5.39 29 21:30 07.04.2022
2166 Clear 10 1026 52 10000 5.33 29 20:46 07.04.2022
2167 Clear 11 1026 52 10000 5.27 30 20:20 07.04.2022
2168 Clouds 11 1027 56 10000 5.06 30 17:43 07.04.2022
2169 Clouds 12 1026 58 10000 4.79 29 17:22 07.04.2022
2170 Clouds 12 1026 58 10000 4.79 29 16:34 07.04.2022
2171 Clouds 12 1025 62 10000 4.25 28 15:52 07.04.2022
2172 Clouds 17 1021 62 10000 0.95 318 13:59 07.04.2022
2173 Clouds 20 1019 44 10000 2.19 218 13:24 07.04.2022
2174 Clouds 20 1019 44 10000 2.19 218 13:24 07.04.2022
2175 Clear 21 1018 37 10000 1.63 175 11:54 07.04.2022
2176 Clear 21 1019 34 10000 1.31 168 10:55 07.04.2022
2177 Clear 21 1021 42 10000 0.87 180 09:28 07.04.2022
2178 Clear 21 1021 23 10000 1.04 186 07:38 07.04.2022
2179 Clear 19 1022 28 10000 1.64 24 05:32 07.04.2022
2180 Clear 9 1026 40 10000 5.82 30 02:37 07.04.2022
2181 Clear 9 1026 44 10000 5.85 30 00:47 07.04.2022
2182 Clear 9 1026 46 10000 5.87 30 23:39 06.04.2022
2183 Clear 10 1026 48 10000 5.8 29 22:45 06.04.2022
2184 Clear 10 1027 50 10000 5.78 29 22:21 06.04.2022
2185 Clear 10 1027 51 10000 5.67 29 20:54 06.04.2022
2186 Clear 10 1027 52 10000 5.59 29 20:27 06.04.2022
2187 Clear 10 1028 52 10000 5.56 30 19:52 06.04.2022
2188 Clear 10 1028 52 10000 5.32 30 18:49 06.04.2022
2189 Clear 11 1028 52 10000 5.09 32 17:51 06.04.2022
2190 Clear 11 1027 53 10000 4.97 33 17:21 06.04.2022
2191 Clear 11 1027 53 10000 4.97 33 16:34 06.04.2022
2192 Clear 12 1025 54 10000 3.99 37 15:46 06.04.2022
2193 Clear 19 1019 47 10000 1.92 169 14:20 06.04.2022
2194 Clear 21 1018 37 10000 2.5 174 12:37 06.04.2022
2195 Clear 21 1018 32 10000 2.31 174 11:48 06.04.2022
2196 Clear 22 1019 32 10000 2.08 178 10:43 06.04.2022
2197 Clear 22 1020 33 10000 2.01 177 10:19 06.04.2022
2198 Clear 21 1020 30 10000 1.68 189 09:26 06.04.2022
2199 Clear 20 1021 41 10000 0.27 252 08:26 06.04.2022
2200 Clear 22 1021 22 10000 1.11 191 07:37 06.04.2022
2201 Clear 9 1027 41 10000 6.24 29 02:57 06.04.2022
2202 Clear 9 1027 46 10000 6.07 28 23:51 05.04.2022
2203 Clear 9 1028 48 10000 5.92 29 22:28 05.04.2022
2204 Clear 9 1029 48 10000 5.83 28 21:18 05.04.2022
2205 Clear 10 1029 49 10000 5.82 29 20:25 05.04.2022
2206 Clear 10 1029 49 10000 5.54 30 18:56 05.04.2022
2207 Clear 10 1029 48 10000 5.3 31 17:52 05.04.2022
2208 Clear 11 1028 49 10000 5.2 31 16:51 05.04.2022
2209 Clear 11 1027 50 10000 4.39 35 15:53 05.04.2022
2210 Clear 11 1027 50 10000 4.39 35 15:33 05.04.2022
2211 Clear 18 1021 47 10000 1.62 160 14:22 05.04.2022
2212 Clear 20 1019 38 10000 1.78 172 12:56 05.04.2022
2213 Clear 21 1019 36 10000 1.84 172 11:50 05.04.2022
2214 Clear 21 1019 36 10000 1.84 172 11:32 05.04.2022
2215 Clear 21 1020 35 10000 1.56 180 09:52 05.04.2022
2216 Clear 20 1021 38 10000 0.97 190 08:52 05.04.2022
2217 Clouds 20 1021 22 10000 0.35 20 06:52 05.04.2022
2218 Clouds 8 1026 40 10000 6.2 29 00:41 05.04.2022
2219 Clouds 9 1026 45 10000 5.97 29 22:41 04.04.2022
2220 Clouds 9 1027 47 10000 5.81 29 22:22 04.04.2022
2221 Clouds 9 1027 49 10000 5.67 28 21:21 04.04.2022
2222 Clouds 9 1027 49 10000 5.67 28 21:21 04.04.2022
2223 Clouds 9 1027 49 10000 5.67 28 20:49 04.04.2022
2224 Clouds 10 1027 50 10000 5.56 28 19:45 04.04.2022
2225 Clouds 10 1027 49 10000 5.36 29 19:25 04.04.2022
2226 Clouds 11 1027 50 10000 5.13 31 18:20 04.04.2022
2227 Clear 11 1026 51 10000 4.96 31 16:36 04.04.2022
2228 Clear 12 1024 51 10000 3.96 38 15:43 04.04.2022
2229 Clear 13 1021 54 10000 1.8 77 15:25 04.04.2022
2230 Clear 13 1021 54 10000 1.8 77 14:46 04.04.2022
2231 Clouds 18 1018 46 10000 1.75 164 13:30 04.04.2022
2232 Clouds 21 1016 34 10000 1.86 175 11:55 04.04.2022
2233 Clouds 21 1016 32 10000 1.72 168 11:29 04.04.2022
2234 Clouds 20 1018 35 10000 1.21 178 08:54 04.04.2022
2235 Clear 15 1020 34 10000 3.69 22 04:45 04.04.2022
2236 Clear 8 1025 48 10000 5.91 28 01:28 04.04.2022
2237 Clear 8 1025 49 10000 5.84 29 22:43 03.04.2022
2238 Clear 8 1026 49 10000 5.71 30 21:46 03.04.2022
2239 Clear 8 1026 50 10000 5.59 29 20:56 03.04.2022
2240 Clear 9 1026 50 10000 5.48 29 19:50 03.04.2022
2241 Clear 9 1026 50 10000 5.31 30 18:33 03.04.2022
2242 Clear 9 1026 50 10000 5.19 30 17:48 03.04.2022
2243 Clear 10 1025 50 10000 4.94 29 16:59 03.04.2022
2244 Clear 10 1025 50 10000 4.94 29 16:41 03.04.2022
2245 Clouds 12 1021 49 10000 2.64 41 14:52 03.04.2022
2246 Clear 17 1019 46 10000 0.47 66 13:55 03.04.2022
2247 Clear 19 1018 37 10000 0.38 153 12:46 03.04.2022
2248 Clear 19 1018 34 10000 0.55 124 11:33 03.04.2022
2249 Clear 19 1020 34 10000 0.72 58 09:39 03.04.2022
2250 Clear 19 1021 34 10000 0.82 29 08:40 03.04.2022
2251 Clear 17 1022 27 10000 1.63 10 05:42 03.04.2022
2252 Clear 8 1026 48 10000 5.21 29 02:54 03.04.2022
2253 Clear 9 1026 55 10000 4.59 30 23:22 02.04.2022
2254 Clear 9 1026 55 10000 4.59 30 22:38 02.04.2022
2255 Clear 9 1026 56 10000 4.33 33 21:49 02.04.2022
2256 Clear 10 1026 58 10000 3.85 35 21:19 02.04.2022
2257 Clear 10 1026 58 10000 3.85 35 20:35 02.04.2022
2258 Clear 10 1026 58 10000 3.49 37 18:27 02.04.2022
2259 Clear 10 1026 58 10000 3.49 37 17:54 02.04.2022
2260 Clear 11 1024 58 10000 3.03 41 16:39 02.04.2022
2261 Clear 13 1021 60 10000 1.5 149 15:23 02.04.2022
2262 Clear 13 1021 60 10000 1.5 149 14:51 02.04.2022
2263 Clear 17 1018 51 10000 3.27 193 13:57 02.04.2022
2264 Clear 19 1017 44 10000 3.98 193 13:23 02.04.2022
2265 Clear 20 1017 39 10000 4.33 192 11:54 02.04.2022
2266 Clear 21 1017 37 10000 3.84 189 09:57 02.04.2022
2267 Clear 21 1018 28 10000 3.64 196 07:33 02.04.2022
2268 Clear 13 1022 40 10000 4.14 29 03:59 02.04.2022
2269 Clear 10 1022 41 10000 5.44 28 00:27 02.04.2022
2270 Clear 10 1022 41 10000 5.44 28 23:53 01.04.2022
2271 Clear 10 1022 42 10000 5.44 28 22:34 01.04.2022
2272 Clear 11 1023 44 10000 5.46 29 20:54 01.04.2022
2273 Clear 11 1023 44 10000 5.46 29 20:32 01.04.2022
2274 Clear 11 1024 45 10000 5.47 30 19:41 01.04.2022
2275 Clear 11 1024 46 10000 5.5 29 19:23 01.04.2022
2276 Clear 11 1024 46 10000 5.5 29 18:36 01.04.2022
2277 Clear 12 1024 47 10000 5.44 30 17:36 01.04.2022
2278 Clear 12 1022 49 10000 4.93 31 15:46 01.04.2022
2279 Clear 14 1019 49 10000 2.82 44 14:51 01.04.2022
2280 Clear 19 1016 45 10000 0.63 143 13:39 01.04.2022
2281 Clear 22 1015 42 10000 1.53 179 12:34 01.04.2022
2282 Clear 23 1014 34 10000 1.74 179 11:47 01.04.2022
2283 Clear 23 1015 33 10000 1.57 177 10:50 01.04.2022
2284 Clear 23 1015 33 10000 1.62 181 09:39 01.04.2022
2285 Clear 22 1017 31 10000 1.03 184 07:31 01.04.2022
2286 Clear 16 1020 34 10000 4.18 24 04:59 01.04.2022
2287 Clear 16 1020 34 10000 4.18 24 04:39 01.04.2022
2288 Clear 9 1023 34 10000 6.56 28 03:18 01.04.2022
2289 Clear 8 1024 36 10000 6.47 28 01:34 01.04.2022
2290 Clear 8 1024 44 10000 6.29 28 22:31 31.03.2022
2291 Clear 8 1025 46 10000 6.15 29 21:40 31.03.2022
2292 Clear 8 1026 49 10000 6.05 29 20:51 31.03.2022
2293 Clear 8 1026 50 10000 5.94 29 20:28 31.03.2022
2294 Clear 9 1026 51 10000 5.77 30 19:29 31.03.2022
2295 Clear 9 1026 51 10000 5.77 30 18:34 31.03.2022
2296 Clear 10 1025 51 10000 5.2 31 16:53 31.03.2022
2297 Clear 10 1024 51 10000 4.92 32 15:56 31.03.2022
2298 Clear 12 1022 50 10000 3.51 37 15:29 31.03.2022
2299 Clear 12 1022 50 10000 3.51 37 14:48 31.03.2022
2300 Clear 17 1019 50 10000 1.23 52 13:53 31.03.2022
2301 Clear 19 1018 41 10000 0.87 90 11:31 31.03.2022
2302 Clear 19 1019 45 10000 0.53 58 10:27 31.03.2022
2303 Clear 19 1019 45 10000 0.53 58 09:40 31.03.2022
2304 Clear 18 1021 51 10000 0.62 342 07:49 31.03.2022
2305 Clear 10 1024 35 10000 5.23 28 03:48 31.03.2022
2306 Clear 7 1026 42 10000 5.75 30 23:25 30.03.2022
2307 Clear 8 1026 44 10000 5.57 30 22:19 30.03.2022
2308 Clear 8 1026 44 10000 5.57 30 21:31 30.03.2022
2309 Clear 8 1026 45 10000 5.39 31 20:44 30.03.2022
2310 Clear 8 1026 46 10000 5.2 32 19:54 30.03.2022
2311 Clear 9 1026 46 10000 5.07 32 18:50 30.03.2022
2312 Clear 9 1026 47 10000 4.83 34 17:52 30.03.2022
2313 Clear 10 1025 48 10000 4.6 33 17:29 30.03.2022
2314 Clear 10 1025 48 10000 4.6 33 16:41 30.03.2022
2315 Clear 10 1023 47 10000 3.82 36 16:18 30.03.2022
2316 Clear 12 1020 45 10000 1.69 69 14:42 30.03.2022
2317 Clear 19 1016 36 10000 2.95 181 13:26 30.03.2022
2318 Clear 19 1016 36 10000 2.95 181 12:32 30.03.2022
2319 Clear 20 1016 30 10000 2.98 182 10:48 30.03.2022
2320 Clear 20 1017 30 10000 2.71 183 09:58 30.03.2022
2321 Clear 19 1018 39 10000 2.26 193 08:28 30.03.2022
2322 Clear 19 1018 20 10000 2.26 203 07:29 30.03.2022
2323 Clear 18 1019 23 10000 0.38 243 05:40 30.03.2022
2324 Clear 9 1022 33 10000 5.18 29 02:40 30.03.2022
2325 Clear 10 1022 42 10000 5.01 29 22:43 29.03.2022
2326 Clear 10 1022 44 10000 4.87 28 21:58 29.03.2022
2327 Clear 10 1022 44 10000 4.87 28 21:37 29.03.2022
2328 Clear 10 1023 46 10000 4.86 30 20:30 29.03.2022
2329 Clear 10 1023 50 10000 4.67 29 19:34 29.03.2022
2330 Clear 11 1023 52 10000 4.53 33 18:54 29.03.2022
2331 Clear 11 1023 53 10000 4.5 34 17:52 29.03.2022
2332 Clear 11 1023 54 10000 4.47 37 17:19 29.03.2022
2333 Clear 11 1023 54 10000 4.47 37 16:53 29.03.2022
2334 Clear 12 1021 54 10000 3.7 44 15:41 29.03.2022
2335 Clear 13 1019 58 10000 1.82 76 14:43 29.03.2022
2336 Clear 13 1019 58 10000 1.82 76 14:43 29.03.2022
2337 Clear 18 1016 50 10000 2.05 171 13:36 29.03.2022
2338 Clear 20 1015 43 10000 2.77 181 12:39 29.03.2022
2339 Clear 22 1015 32 10000 2.41 180 11:24 29.03.2022
2340 Clear 21 1016 32 10000 2.06 176 10:20 29.03.2022
2341 Clear 21 1017 36 10000 1.75 185 08:52 29.03.2022
2342 Clear 20 1018 24 10000 0.6 228 06:53 29.03.2022
2343 Clear 9 1023 43 10000 5.48 27 02:55 29.03.2022
2344 Clear 9 1023 52 10000 5.23 27 23:40 28.03.2022
2345 Clear 10 1023 55 10000 5.22 28 22:57 28.03.2022
2346 Clear 10 1023 55 10000 5.22 28 22:33 28.03.2022
2347 Clear 10 1024 56 10000 5.12 30 21:43 28.03.2022
2348 Clear 10 1024 58 10000 5.02 29 20:37 28.03.2022
2349 Clear 10 1025 59 10000 4.79 31 19:48 28.03.2022
2350 Clear 10 1025 59 10000 4.79 31 19:48 28.03.2022
2351 Clear 10 1025 59 10000 4.79 31 19:30 28.03.2022
2352 Clear 11 1025 60 10000 4.73 31 18:51 28.03.2022
2353 Clear 11 1025 60 10000 4.62 31 17:41 28.03.2022
2354 Clear 11 1024 60 10000 4.45 33 16:56 28.03.2022
2355 Clear 13 1021 59 10000 2.46 44 15:22 28.03.2022
2356 Clear 17 1018 55 10000 0.68 111 14:24 28.03.2022
2357 Clear 19 1017 46 10000 0.97 131 13:19 28.03.2022
2358 Clear 20 1017 39 10000 1.03 135 11:52 28.03.2022
2359 Clear 19 1018 38 10000 0.78 157 09:58 28.03.2022
2360 Clear 19 1019 40 10000 0.6 169 09:21 28.03.2022
2361 Clear 19 1019 40 10000 0.6 169 08:40 28.03.2022
2362 Clear 20 1019 25 10000 0.99 205 08:20 28.03.2022
2363 Clear 19 1020 25 10000 0.43 226 06:55 28.03.2022
2364 Clear 9 1023 48 10000 5.22 28 02:20 28.03.2022
2365 Clear 9 1024 54 10000 4.92 30 22:36 27.03.2022
2366 Clear 10 1025 55 10000 4.78 30 21:47 27.03.2022
2367 Clear 10 1025 56 10000 4.71 30 21:26 27.03.2022
2368 Clear 10 1025 56 10000 4.71 30 20:41 27.03.2022
2369 Clear 10 1025 56 10000 4.8 30 19:37 27.03.2022
2370 Clear 10 1025 55 10000 4.82 30 18:45 27.03.2022
2371 Clear 10 1025 55 10000 4.75 29 18:23 27.03.2022
2372 Clear 10 1025 55 10000 4.75 29 18:23 27.03.2022
2373 Clear 10 1025 55 10000 4.75 29 17:36 27.03.2022
2374 Clear 11 1023 54 10000 4.44 33 15:51 27.03.2022
2375 Clear 17 1017 51 10000 0.33 147 13:59 27.03.2022
2376 Clear 19 1016 40 10000 1.49 182 13:21 27.03.2022
2377 Clear 20 1016 33 10000 1.83 180 11:41 27.03.2022
2378 Clear 20 1017 32 10000 1.9 184 09:49 27.03.2022
2379 Clear 20 1018 22 10000 1.77 204 07:39 27.03.2022
2380 Clear 11 1022 37 10000 4.85 28 04:25 27.03.2022
2381 Clear 8 1023 39 10000 5.74 27 00:26 27.03.2022
2382 Clear 8 1023 40 10000 5.83 27 22:52 26.03.2022
2383 Clear 8 1024 42 10000 5.88 26 22:22 26.03.2022
2384 Clear 8 1024 42 10000 5.88 26 21:30 26.03.2022
2385 Clear 8 1025 45 10000 5.88 27 19:38 26.03.2022
2386 Clear 8 1025 46 10000 6 27 18:44 26.03.2022
2387 Clear 9 1025 49 10000 5.95 27 17:41 26.03.2022
2388 Clear 9 1025 50 10000 5.78 27 16:46 26.03.2022
2389 Clear 9 1024 52 10000 5.42 27 15:43 26.03.2022
2390 Clear 11 1021 56 10000 3.37 30 13:57 26.03.2022
2391 Clear 11 1021 56 10000 3.37 30 13:36 26.03.2022
2392 Clear 18 1015 46 10000 0.95 290 12:18 26.03.2022
2393 Clear 19 1016 39 10000 0.82 328 10:49 26.03.2022
2394 Clear 18 1017 41 10000 0.96 335 09:19 26.03.2022
2395 Clear 17 1018 44 10000 1.33 358 07:34 26.03.2022
2396 Clear 15 1020 38 10000 2.41 24 05:49 26.03.2022
2397 Clear 7 1024 53 10000 5.77 27 02:34 26.03.2022
2398 Clear 5 1023 55 10000 5.95 28 22:47 25.03.2022
2399 Clear 6 1024 58 10000 5.66 27 20:58 25.03.2022
2400 Clear 6 1024 59 10000 5.46 27 20:26 25.03.2022
2401 Clear 6 1024 59 10000 5.46 27 20:26 25.03.2022
2402 Clouds 6 1025 61 10000 5.47 27 19:20 25.03.2022
2403 Clouds 6 1025 61 10000 5.47 27 18:36 25.03.2022
2404 Clouds 6 1025 64 10000 5.26 29 17:34 25.03.2022
2405 Clouds 8 1023 70 10000 4.13 32 16:29 25.03.2022
2406 Clouds 8 1023 70 10000 4.13 32 15:37 25.03.2022
2407 Clouds 11 1019 74 10000 1.45 17 13:32 25.03.2022
2408 Clouds 15 1015 50 10000 0.77 203 11:25 25.03.2022
2409 Clouds 15 1016 50 10000 0.98 234 09:43 25.03.2022
2410 Clouds 15 1016 50 10000 0.75 238 08:56 25.03.2022
2411 Clear 15 1017 51 10000 0.25 229 07:46 25.03.2022
2412 Clear 15 1017 40 10000 0.51 287 07:19 25.03.2022
2413 Clear 10 1019 56 10000 3.2 25 03:45 25.03.2022
2414 Clear 5 1021 63 10000 5.29 28 23:49 24.03.2022
2415 Clear 6 1021 65 10000 4.87 25 22:24 24.03.2022
2416 Clear 6 1021 67 10000 4.59 24 20:58 24.03.2022
2417 Clear 7 1022 70 10000 4.42 25 19:49 24.03.2022
2418 Clouds 7 1022 71 10000 4.33 29 18:45 24.03.2022
2419 Clouds 8 1022 74 10000 4.02 27 17:36 24.03.2022
2420 Clouds 8 1021 77 10000 3.62 25 16:33 24.03.2022
2421 Clouds 9 1019 80 6800 2.11 28 14:52 24.03.2022
2422 Clouds 11 1017 79 7563 0.88 19 14:22 24.03.2022
2423 Clouds 11 1017 80 5630 0.63 14 13:34 24.03.2022
2424 Clouds 13 1015 66 10000 0.93 297 12:29 24.03.2022
2425 Clouds 14 1015 64 10000 1.19 281 11:27 24.03.2022
2426 Clouds 15 1016 61 10000 1.42 275 09:28 24.03.2022
2427 Clouds 15 1016 61 10000 1.42 275 08:38 24.03.2022
2428 Clouds 15 1018 40 10000 1.4 9 05:36 24.03.2022
2429 Clear 6 1021 58 10000 5.35 29 00:38 24.03.2022
2430 Clear 7 1021 61 10000 4.78 27 22:21 23.03.2022
2431 Clear 7 1022 63 10000 4.6 28 21:24 23.03.2022
2432 Clear 7 1022 63 10000 4.6 28 20:36 23.03.2022
2433 Clear 7 1022 64 10000 4.54 28 19:33 23.03.2022
2434 Clear 8 1023 66 10000 4.48 31 18:18 23.03.2022
2435 Clear 8 1023 67 10000 4.14 32 17:25 23.03.2022
2436 Clear 8 1022 67 10000 3.64 35 15:56 23.03.2022
2437 Clear 9 1021 67 10000 2.93 39 14:48 23.03.2022
2438 Clear 10 1018 67 10000 1.1 81 13:34 23.03.2022
2439 Clear 16 1014 55 10000 3.29 198 11:33 23.03.2022
2440 Clear 18 1016 57 10000 2.84 191 08:49 23.03.2022
2441 Clear 17 1018 37 10000 1.66 223 06:25 23.03.2022
2442 Clear 14 1019 47 10000 2.65 19 03:44 23.03.2022
2443 Clear 8 1021 58 10000 5.01 29 00:27 23.03.2022
2444 Clear 9 1022 58 10000 5.02 28 21:53 22.03.2022
2445 Clear 9 1023 58 10000 4.96 29 21:23 22.03.2022
2446 Clear 9 1023 58 10000 4.86 29 20:29 22.03.2022
2447 Clear 9 1023 58 10000 4.97 30 19:27 22.03.2022
2448 Clear 10 1023 59 10000 4.87 31 18:49 22.03.2022
2449 Clear 10 1023 58 10000 4.86 30 17:44 22.03.2022
2450 Clear 10 1023 58 10000 4.73 31 16:58 22.03.2022
2451 Clear 10 1023 59 10000 4.62 32 15:48 22.03.2022
2452 Clear 11 1021 61 10000 4.11 33 15:21 22.03.2022
2453 Clear 11 1021 61 10000 4.11 33 14:45 22.03.2022
2454 Clear 12 1019 65 10000 2.42 44 13:52 22.03.2022
2455 Clear 17 1016 61 10000 1 155 12:40 22.03.2022
2456 Clear 19 1015 42 10000 1.77 180 11:26 22.03.2022
2457 Clear 19 1015 42 10000 1.68 186 09:52 22.03.2022
2458 Clear 19 1016 48 10000 1.08 221 07:44 22.03.2022
2459 Clear 17 1018 32 10000 2.44 19 04:36 22.03.2022
2460 Clear 10 1022 42 10000 5.38 29 02:54 22.03.2022
2461 Clear 8 1022 50 10000 5.66 28 23:21 21.03.2022
2462 Clear 8 1023 51 10000 5.73 28 21:47 21.03.2022
2463 Clear 8 1023 52 10000 5.78 27 20:45 21.03.2022
2464 Clear 8 1024 53 10000 5.78 27 20:26 21.03.2022
2465 Clear 8 1024 53 10000 5.78 27 19:53 21.03.2022
2466 Clear 8 1025 55 10000 5.73 27 19:23 21.03.2022
2467 Clear 8 1025 55 10000 5.59 28 17:43 21.03.2022
2468 Clear 9 1025 55 10000 5.36 29 17:00 21.03.2022
2469 Clear 9 1025 55 10000 5.36 29 16:37 21.03.2022
2470 Clear 9 1024 55 10000 5.13 32 15:46 21.03.2022
2471 Clear 10 1023 57 10000 4.73 33 14:48 21.03.2022
2472 Clear 11 1020 60 10000 2.91 34 13:43 21.03.2022
2473 Clouds 16 1017 56 10000 0.48 326 12:33 21.03.2022
2474 Clouds 17 1016 45 10000 1.09 318 11:44 21.03.2022
2475 Clear 18 1017 38 10000 0.75 16 10:20 21.03.2022
2476 Clear 17 1019 39 10000 1.31 8 08:29 21.03.2022
2477 Clear 17 1019 27 10000 1.62 8 06:36 21.03.2022
2478 Clear 8 1023 50 10000 5.26 29 02:40 21.03.2022
2479 Clear 7 1022 60 10000 5.56 27 23:40 20.03.2022
2480 Clear 7 1022 61 10000 5.43 28 22:43 20.03.2022
2481 Clouds 8 1022 61 10000 5.31 29 21:50 20.03.2022
2482 Clouds 8 1022 61 10000 5.1 30 21:20 20.03.2022
2483 Clouds 8 1022 61 10000 5.1 30 20:43 20.03.2022
2484 Clear 8 1023 61 10000 5.02 29 19:57 20.03.2022
2485 Clouds 9 1022 63 10000 4.93 31 19:26 20.03.2022
2486 Clouds 9 1022 67 10000 4.33 33 18:19 20.03.2022
2487 Clouds 9 1022 67 10000 4.33 33 17:33 20.03.2022
2488 Clouds 10 1021 69 10000 3.89 36 16:57 20.03.2022
2489 Clouds 10 1020 71 10000 3.41 37 15:34 20.03.2022
2490 Clouds 10 1020 74 10000 2.95 39 14:34 20.03.2022
2491 Clouds 15 1015 63 10000 3.02 190 12:30 20.03.2022
2492 Clouds 18 1013 47 10000 2.94 206 11:23 20.03.2022
2493 Clouds 18 1014 45 10000 2.18 198 09:26 20.03.2022
2494 Clear 17 1017 50 10000 1.41 214 07:28 20.03.2022
2495 Clear 18 1017 32 10000 1.21 226 05:40 20.03.2022
2496 Clear 8 1020 51 10000 5.2 25 01:50 20.03.2022
2497 Clear 8 1019 55 10000 5.12 27 00:45 20.03.2022
2498 Clear 9 1020 56 10000 5.13 27 23:19 19.03.2022
2499 Clear 9 1021 59 10000 5.15 27 21:27 19.03.2022
2500 Clear 9 1021 59 10000 5.15 27 20:49 19.03.2022
2501 Clear 10 1022 64 10000 5.02 29 18:58 19.03.2022
2502 Clear 10 1022 67 10000 4.6 30 18:23 19.03.2022
2503 Clear 10 1022 67 10000 4.6 30 17:35 19.03.2022
2504 Clear 11 1021 73 10000 3.71 34 15:44 19.03.2022
2505 Clear 11 1020 77 10000 2.82 38 14:57 19.03.2022
2506 Clouds 17 1015 65 10000 2.49 193 13:19 19.03.2022
2507 Clouds 17 1015 65 10000 2.49 193 13:19 19.03.2022
2508 Clouds 17 1015 67 10000 2.15 193 12:40 19.03.2022
2509 Clouds 19 1014 58 10000 3.02 206 11:54 19.03.2022
2510 Clouds 19 1014 58 10000 3.02 206 11:54 19.03.2022
2511 Clouds 19 1014 58 10000 3.02 206 11:54 19.03.2022
2512 Clouds 20 1013 54 10000 3.67 207 10:53 19.03.2022
2513 Clear 19 1017 58 10000 1.66 201 07:33 19.03.2022
2514 Clear 16 1020 53 10000 2.39 22 03:49 19.03.2022
2515 Clear 10 1022 58 10000 4.92 26 02:29 19.03.2022
2516 Clear 10 1022 53 10000 5.56 27 23:45 18.03.2022
2517 Clear 10 1023 56 10000 5.23 27 22:28 18.03.2022
2518 Clear 10 1023 56 10000 5.23 27 21:46 18.03.2022
2519 Clear 11 1024 61 10000 4.87 28 19:52 18.03.2022
2520 Clear 11 1024 61 10000 4.87 28 19:52 18.03.2022
2521 Clear 11 1024 64 10000 4.73 30 19:21 18.03.2022
2522 Clear 11 1024 66 10000 4.6 29 18:18 18.03.2022
2523 Clear 12 1024 67 10000 4.56 29 16:51 18.03.2022
2524 Clear 12 1023 67 10000 4.34 34 15:43 18.03.2022
2525 Clear 14 1020 74 10000 2.25 38 14:24 18.03.2022
2526 Clouds 18 1017 67 10000 0.96 171 12:39 18.03.2022
2527 Clouds 21 1016 46 10000 1.67 182 10:58 18.03.2022
2528 Clouds 21 1017 46 10000 1.6 185 09:30 18.03.2022
2529 Clouds 20 1018 49 10000 1.77 188 08:42 18.03.2022
2530 Clouds 21 1018 34 10000 2.92 200 06:37 18.03.2022
2531 Clouds 13 1022 41 10000 4.88 30 03:19 18.03.2022
2532 Clouds 11 1021 39 10000 5.68 30 00:39 18.03.2022
2533 Clouds 11 1021 39 10000 5.69 30 23:44 17.03.2022
2534 Clouds 12 1022 39 10000 5.74 30 22:25 17.03.2022
2535 Clouds 12 1022 39 10000 5.74 30 21:48 17.03.2022
2536 Clouds 12 1022 39 10000 5.74 30 21:48 17.03.2022
2537 Clear 12 1023 39 10000 5.97 30 21:27 17.03.2022
2538 Clear 12 1023 39 10000 5.97 30 20:51 17.03.2022
2539 Clear 12 1023 40 10000 5.98 30 19:53 17.03.2022
2540 Clear 12 1023 40 10000 5.98 30 19:33 17.03.2022
2541 Clear 12 1024 42 10000 6.01 30 18:51 17.03.2022
2542 Clouds 12 1024 45 10000 5.89 29 17:26 17.03.2022
2543 Clouds 12 1024 47 10000 5.64 30 15:57 17.03.2022
2544 Clouds 12 1024 47 10000 5.64 30 15:36 17.03.2022
2545 Clouds 13 1023 51 10000 5.32 31 14:55 17.03.2022
2546 Clouds 18 1017 62 10000 1.08 75 13:22 17.03.2022
2547 Clouds 19 1017 61 10000 1.13 70 12:38 17.03.2022
2548 Clouds 21 1015 55 10000 0.76 162 11:30 17.03.2022
2549 Clouds 23 1015 46 10000 0.71 216 10:34 17.03.2022
2550 Clouds 23 1015 48 10000 0.51 309 08:41 17.03.2022
2551 Clouds 22 1016 61 10000 0.76 349 07:57 17.03.2022
2552 Clouds 21 1017 34 10000 2.18 19 05:48 17.03.2022
2553 Clouds 16 1020 39 10000 4.96 26 03:45 17.03.2022
2554 Clouds 11 1021 39 10000 6.4 29 00:21 17.03.2022
2555 Clouds 11 1021 40 10000 6.31 30 22:52 16.03.2022
2556 Clouds 11 1021 40 10000 6.31 30 22:33 16.03.2022
2557 Clear 11 1021 41 10000 6.26 30 21:52 16.03.2022
2558 Clear 11 1022 41 10000 6.17 30 20:32 16.03.2022
2559 Clear 11 1022 41 10000 6.19 30 19:22 16.03.2022
2560 Clear 11 1022 40 10000 6.3 29 18:40 16.03.2022
2561 Clear 11 1023 41 10000 6.27 29 17:44 16.03.2022
2562 Clear 11 1023 43 10000 6.11 29 17:26 16.03.2022
2563 Clear 11 1022 46 10000 5.91 30 15:56 16.03.2022
2564 Clear 12 1021 50 10000 5.52 31 14:35 16.03.2022
2565 Clear 13 1019 55 10000 4.33 34 13:34 16.03.2022
2566 Clear 20 1014 63 10000 0.75 95 11:59 16.03.2022
2567 Clear 21 1013 57 9611 0.39 162 11:22 16.03.2022
2568 Clear 22 1013 56 10000 0.49 229 10:28 16.03.2022
2569 Clear 22 1013 56 10000 0.49 229 09:55 16.03.2022
2570 Clear 19 1016 68 10000 1.36 13 06:47 16.03.2022
2571 Clear 9 1021 32 10000 6.39 28 02:29 16.03.2022
2572 Clear 9 1021 46 10000 6.2 25 22:54 15.03.2022
2573 Clear 9 1021 46 10000 6.2 25 22:33 15.03.2022
2574 Clear 9 1022 53 10000 6.17 27 20:51 15.03.2022
2575 Clear 10 1022 56 10000 5.97 27 19:34 15.03.2022
2576 Clear 10 1023 60 10000 5.52 28 17:41 15.03.2022
2577 Clear 10 1023 62 10000 5.32 28 16:35 15.03.2022
2578 Clear 11 1021 67 10000 4.38 31 15:28 15.03.2022
2579 Clear 11 1021 67 10000 4.38 31 14:52 15.03.2022
2580 Clear 13 1019 71 10000 2.77 37 13:55 15.03.2022
2581 Clear 13 1019 71 10000 2.77 37 13:55 15.03.2022
2582 Clouds 16 1017 69 10000 0.31 119 13:20 15.03.2022
2583 Clouds 18 1016 60 10000 1.51 203 11:32 15.03.2022
2584 Clear 19 1015 46 10000 0.99 214 10:22 15.03.2022
2585 Clear 20 1016 50 10000 0.58 219 08:53 15.03.2022
2586 Clear 19 1017 53 10000 0.89 258 07:53 15.03.2022
2587 Clear 19 1017 53 10000 0.89 258 07:35 15.03.2022
2588 Clear 19 1018 44 10000 0.93 345 05:45 15.03.2022
2589 Clear 10 1022 53 10000 5.26 28 00:25 15.03.2022
2590 Clear 10 1023 54 10000 5.18 28 23:27 14.03.2022
2591 Clear 10 1023 54 10000 5.18 28 22:44 14.03.2022
2592 Clear 10 1023 54 10000 5.08 28 21:51 14.03.2022
2593 Clouds 10 1024 54 10000 5.1 29 20:55 14.03.2022
2594 Clouds 10 1025 54 10000 5.08 29 20:24 14.03.2022
2595 Clouds 10 1025 55 10000 5.12 29 19:22 14.03.2022
2596 Clouds 10 1026 56 10000 4.97 27 17:55 14.03.2022
2597 Clouds 10 1026 56 10000 4.97 27 17:33 14.03.2022
2598 Clouds 11 1025 56 10000 4.94 30 16:28 14.03.2022
2599 Clouds 11 1024 59 10000 4.88 30 14:47 14.03.2022
2600 Clear 16 1019 64 10000 0.65 83 13:20 14.03.2022
2601 Clear 20 1017 45 10000 1.32 176 10:59 14.03.2022
2602 Clear 20 1017 43 10000 1.47 177 09:57 14.03.2022
2603 Clear 20 1018 44 10000 1.76 187 09:24 14.03.2022
2604 Clear 20 1018 44 10000 1.76 187 08:57 14.03.2022
2605 Clear 20 1019 45 10000 1.89 209 08:26 14.03.2022
2606 Clouds 20 1019 36 10000 0.61 31 06:19 14.03.2022
2607 Clear 10 1024 32 10000 6.01 28 02:58 14.03.2022
2608 Clouds 9 1024 31 10000 6.33 28 01:36 14.03.2022
2609 Clear 8 1025 36 10000 6.4 29 23:29 13.03.2022
2610 Clear 8 1025 38 10000 6.34 27 21:46 13.03.2022
2611 Clear 8 1026 39 10000 6.43 28 21:21 13.03.2022
2612 Clear 8 1026 39 10000 6.43 28 20:46 13.03.2022
2613 Clear 9 1026 40 10000 6.38 29 20:21 13.03.2022
2614 Clear 9 1026 40 10000 6.38 29 19:41 13.03.2022
2615 Clear 9 1027 42 10000 6.33 29 19:21 13.03.2022
2616 Clear 9 1027 42 10000 6.33 29 18:41 13.03.2022
2617 Clear 9 1026 45 10000 6.04 30 18:22 13.03.2022
2618 Clear 9 1026 45 10000 6.04 30 17:36 13.03.2022
2619 Clear 9 1026 48 10000 6.08 29 16:44 13.03.2022
2620 Clear 10 1025 51 10000 5.78 28 16:21 13.03.2022
2621 Clear 10 1025 51 10000 5.78 28 15:36 13.03.2022
2622 Clear 12 1022 65 10000 4.03 30 14:20 13.03.2022
2623 Clear 15 1020 68 10000 1.57 20 13:27 13.03.2022
2624 Clouds 18 1018 60 10000 0.48 27 12:21 13.03.2022
2625 Clouds 18 1018 60 10000 0.48 27 11:36 13.03.2022
2626 Clouds 19 1017 52 10000 1.64 209 10:49 13.03.2022
2627 Clouds 19 1017 49 10000 1.7 208 10:25 13.03.2022
2628 Clouds 19 1017 49 10000 1.7 208 09:42 13.03.2022
2629 Clouds 19 1018 49 10000 1.59 211 08:49 13.03.2022
2630 Clouds 19 1018 51 10000 0.87 209 08:23 13.03.2022
2631 Clear 19 1019 45 10000 0.25 192 06:40 13.03.2022
2632 Clear 13 1021 45 10000 4.55 29 03:56 13.03.2022
2633 Clear 8 1023 45 10000 5.81 29 01:46 13.03.2022
2634 Clouds 8 1023 47 10000 5.49 27 22:51 12.03.2022
2635 Clouds 8 1024 48 10000 5.69 28 21:29 12.03.2022
2636 Clear 8 1024 48 10000 5.74 29 20:18 12.03.2022
2637 Clear 8 1024 48 10000 5.74 29 19:43 12.03.2022
2638 Clouds 8 1025 49 10000 5.44 27 18:37 12.03.2022
2639 Clouds 8 1025 49 10000 5.38 28 17:48 12.03.2022
2640 Clouds 9 1024 51 10000 5.22 29 16:28 12.03.2022
2641 Clouds 9 1024 51 10000 5.22 29 15:40 12.03.2022
2642 Clouds 9 1024 52 10000 5.17 28 15:18 12.03.2022
2643 Clear 10 1022 54 10000 3.91 31 13:53 12.03.2022
2644 Clouds 17 1017 48 10000 0.62 165 12:27 12.03.2022
2645 Clouds 17 1017 48 10000 0.62 165 11:52 12.03.2022
2646 Clear 17 1017 41 10000 0.69 163 11:21 12.03.2022
2647 Clear 18 1017 41 10000 1.22 192 10:18 12.03.2022
2648 Clear 18 1017 41 10000 1.22 192 09:41 12.03.2022
2649 Clear 17 1019 46 10000 1.03 184 07:52 12.03.2022
2650 Clear 16 1019 39 10000 1.14 18 05:46 12.03.2022
2651 Clear 5 1026 34 10000 7.04 27 00:27 12.03.2022
2652 Clear 5 1026 34 10000 7.04 27 23:38 11.03.2022
2653 Clear 5 1027 36 10000 6.79 27 22:29 11.03.2022
2654 Clear 5 1027 38 10000 6.64 26 21:23 11.03.2022
2655 Clear 5 1027 38 10000 6.64 26 20:42 11.03.2022
2656 Clear 5 1028 40 10000 6.73 28 20:22 11.03.2022
2657 Clear 5 1028 43 10000 6.66 27 19:29 11.03.2022
2658 Clear 5 1028 47 10000 6.34 25 17:53 11.03.2022
2659 Clear 5 1028 49 10000 6.21 26 17:24 11.03.2022
2660 Clear 6 1027 50 10000 5.54 24 15:58 11.03.2022
2661 Clear 6 1025 54 10000 5.12 26 15:29 11.03.2022
2662 Clear 12 1019 57 10000 1.22 51 13:28 11.03.2022
2663 Clear 12 1019 57 10000 1.27 56 12:37 11.03.2022
2664 Clear 15 1018 49 10000 0.28 142 11:57 11.03.2022
2665 Clear 16 1018 42 10000 0.19 148 10:30 11.03.2022
2666 Clear 16 1018 43 10000 0.42 242 09:33 11.03.2022
2667 Clear 15 1020 45 10000 0.79 262 08:28 11.03.2022
2668 Clear 15 1020 45 10000 0.79 262 07:48 11.03.2022
2669 Clear 14 1021 37 10000 1.41 8 06:26 11.03.2022
2670 Clouds 9 1024 48 10000 4.44 26 04:28 11.03.2022
2671 Clear 4 1027 51 10000 5.79 26 01:20 11.03.2022
2672 Clear 5 1026 52 10000 5.62 27 22:32 10.03.2022
2673 Clear 5 1027 52 10000 5.49 26 21:53 10.03.2022
2674 Clear 5 1027 53 10000 5.51 26 21:24 10.03.2022
2675 Clear 5 1027 53 10000 5.51 26 21:24 10.03.2022
2676 Clear 5 1027 53 10000 5.51 26 20:34 10.03.2022
2677 Clouds 5 1027 54 10000 5.52 27 19:20 10.03.2022
2678 Clear 5 1027 55 10000 5.59 27 17:50 10.03.2022
2679 Clouds 6 1027 56 10000 5.42 28 16:52 10.03.2022
2680 Clouds 7 1025 61 10000 4.59 26 15:28 10.03.2022
2681 Clouds 8 1022 66 10000 3.11 32 13:42 10.03.2022
2682 Clouds 12 1019 61 10000 0.56 118 12:41 10.03.2022
2683 Clear 15 1017 40 10000 1.59 199 11:28 10.03.2022
2684 Clear 15 1018 39 10000 1.3 202 09:42 10.03.2022
2685 Clear 15 1019 43 10000 0.93 267 08:23 10.03.2022
2686 Clear 14 1020 37 10000 1.63 17 05:32 10.03.2022
2687 Clear 5 1026 50 10000 5.79 27 02:33 10.03.2022
2688 Clouds 3 1026 49 10000 5.97 28 23:37 09.03.2022
2689 Clouds 4 1027 50 10000 5.91 27 22:28 09.03.2022
2690 Clouds 4 1027 50 10000 5.91 27 21:47 09.03.2022
2691 Clouds 4 1027 51 10000 5.88 27 20:44 09.03.2022
2692 Clouds 5 1026 50 10000 5.34 28 18:58 09.03.2022
2693 Clouds 6 1026 55 10000 5.11 29 17:28 09.03.2022
2694 Clouds 6 1026 55 10000 5.11 29 16:45 09.03.2022
2695 Clouds 6 1025 58 10000 4.98 31 15:37 09.03.2022
2696 Clouds 7 1022 64 10000 3.25 39 14:23 09.03.2022
2697 Clouds 11 1019 63 10000 1.02 139 13:25 09.03.2022
2698 Clouds 14 1018 51 10000 2.17 182 12:20 09.03.2022
2699 Clouds 14 1018 51 10000 2.17 182 11:45 09.03.2022
2700 Clouds 15 1018 39 10000 2.4 187 10:54 09.03.2022
2701 Clouds 15 1019 37 10000 2 198 09:25 09.03.2022
2702 Clouds 15 1019 37 10000 2 198 08:43 09.03.2022
2703 Clouds 13 1022 41 10000 1.71 8 05:36 09.03.2022
2704 Clouds 3 1028 49 10000 5.91 27 00:58 09.03.2022
2705 Clouds 3 1028 49 10000 5.98 28 23:46 08.03.2022
2706 Clouds 3 1029 49 10000 6.06 28 22:45 08.03.2022
2707 Clouds 3 1029 49 10000 6.28 29 21:46 08.03.2022
2708 Clear 3 1030 51 10000 6.36 29 21:19 08.03.2022
2709 Clear 3 1030 53 10000 6.25 27 20:19 08.03.2022
2710 Clear 3 1030 56 10000 6.27 29 18:55 08.03.2022
2711 Clouds 4 1030 57 10000 6.14 29 17:58 08.03.2022
2712 Clouds 4 1029 58 10000 5.76 27 16:40 08.03.2022
2713 Clear 5 1026 61 10000 5.16 29 14:36 08.03.2022
2714 Clouds 11 1020 62 10000 0.53 99 13:23 08.03.2022
2715 Clear 14 1019 55 10000 1.03 190 12:20 08.03.2022
2716 Clear 14 1019 55 10000 1.03 190 11:41 08.03.2022
2717 Clear 14 1020 47 10000 1.16 197 10:28 08.03.2022
2718 Clear 14 1021 47 10000 1.2 225 08:54 08.03.2022
2719 Clear 12 1024 44 10000 2.64 22 05:49 08.03.2022
2720 Clear 2 1032 57 10000 6.47 28 01:49 08.03.2022
2721 Clear 2 1031 60 10000 6.14 27 22:41 07.03.2022
2722 Clear 3 1031 61 10000 5.94 26 21:36 07.03.2022
2723 Clear 3 1031 62 10000 5.91 25 20:55 07.03.2022
2724 Clear 3 1031 62 10000 5.54 23 20:29 07.03.2022
2725 Clear 3 1031 62 10000 5.54 23 19:48 07.03.2022
2726 Clouds 3 1031 63 10000 5.4 24 18:50 07.03.2022
2727 Clouds 4 1031 65 10000 5.06 25 18:28 07.03.2022
2728 Clouds 4 1030 67 10000 4.61 24 16:56 07.03.2022
2729 Clouds 4 1030 67 10000 4.61 24 16:37 07.03.2022
2730 Clouds 6 1027 74 10000 3.76 46 14:49 07.03.2022
2731 Clouds 10 1022 71 6255 0.43 261 12:34 07.03.2022
2732 Clouds 12 1020 63 7618 2.24 210 11:21 07.03.2022
2733 Clouds 12 1020 60 10000 2.49 218 10:26 07.03.2022
2734 Clouds 12 1023 59 7786 2.81 206 08:19 07.03.2022
2735 Clouds 7 1024 86 5090 2 34 01:23 07.03.2022
2736 Clouds 7 1023 80 8895 2.25 24 00:20 07.03.2022
2737 Clouds 7 1023 78 10000 2.14 26 23:22 06.03.2022
2738 Clouds 7 1023 79 9660 2.42 38 22:26 06.03.2022
2739 Clouds 8 1024 79 10000 2.71 22 21:24 06.03.2022
2740 Clouds 8 1024 82 10000 2.59 27 20:29 06.03.2022
2741 Rain 8 1024 82 10000 2.59 27 19:39 06.03.2022
2742 Clouds 8 1024 79 5958 2.13 23 18:49 06.03.2022
2743 Clouds 8 1023 71 10000 2.53 24 17:46 06.03.2022
2744 Clouds 9 1023 70 10000 2.7 22 17:19 06.03.2022
2745 Clouds 9 1023 72 10000 2.71 33 16:28 06.03.2022
2746 Clouds 8 1022 73 9266 1.81 41 15:25 06.03.2022
2747 Clouds 8 1022 73 9266 1.81 41 14:42 06.03.2022
2748 Clouds 9 1021 73 10000 1.21 40 13:49 06.03.2022
2749 Clouds 11 1019 73 10000 0.9 76 12:40 06.03.2022
2750 Clouds 12 1019 69 10000 0.28 85 11:45 06.03.2022
2751 Clouds 13 1019 67 9046 0.83 251 10:39 06.03.2022
2752 Clouds 12 1020 71 10000 0.49 239 09:18 06.03.2022
2753 Clouds 13 1020 66 10000 0.27 42 08:28 06.03.2022
2754 Clouds 13 1020 67 10000 0.37 231 07:25 06.03.2022
2755 Clouds 9 1020 61 10000 3.88 29 02:22 06.03.2022
2756 Clouds 9 1018 60 10000 4.14 32 00:36 06.03.2022
2757 Clouds 10 1018 59 10000 4.09 31 00:18 06.03.2022
2758 Clouds 9 1019 58 10000 4.27 26 23:19 05.03.2022
2759 Clouds 9 1019 58 10000 4.27 26 22:34 05.03.2022
2760 Clouds 9 1021 57 10000 5.09 27 21:29 05.03.2022
2761 Clouds 9 1021 57 10000 5.09 27 20:32 05.03.2022
2762 Clouds 7 1024 56 10000 5.55 27 19:19 05.03.2022
2763 Clouds 7 1023 57 10000 5.53 27 18:37 05.03.2022
2764 Clouds 7 1024 57 10000 5.53 28 17:34 05.03.2022
2765 Clouds 7 1024 57 10000 5.53 28 17:34 05.03.2022
2766 Clouds 7 1024 58 10000 5.05 25 16:19 05.03.2022
2767 Clouds 6 1023 60 10000 4.87 26 15:20 05.03.2022
2768 Clouds 6 1023 60 10000 4.87 26 14:36 05.03.2022
2769 Clouds 7 1022 60 10000 4.03 25 13:42 05.03.2022
2770 Clouds 10 1019 62 10000 1.58 22 12:40 05.03.2022
2771 Clouds 13 1019 57 10000 0.5 142 11:20 05.03.2022
2772 Clouds 13 1019 57 10000 0.5 142 10:52 05.03.2022
2773 Clouds 13 1019 57 10000 1.19 183 09:33 05.03.2022
2774 Clouds 14 1019 57 10000 1.76 190 08:31 05.03.2022
2775 Clear 14 1020 54 10000 0.61 153 07:22 05.03.2022
2776 Clear 13 1020 46 10000 1.24 21 05:39 05.03.2022
2777 Clear 1 1028 42 10000 6.98 26 00:49 05.03.2022
2778 Clear 0 1029 46 10000 7.05 26 22:58 04.03.2022
2779 Clear 0 1029 46 10000 7.05 26 22:38 04.03.2022
2780 Clear 0 1030 47 10000 6.87 26 21:43 04.03.2022
2781 Clear 0 1031 50 10000 6.72 25 20:45 04.03.2022
2782 Clear 0 1031 52 10000 7.02 27 19:38 04.03.2022
2783 Clear 0 1031 55 10000 6.79 26 18:58 04.03.2022
2784 Clear 0 1031 56 10000 6.73 27 18:36 04.03.2022
2785 Clear 1 1031 61 10000 6.3 24 17:29 04.03.2022
2786 Clear 1 1030 66 10000 5.84 27 16:26 04.03.2022
2787 Clouds 2 1028 72 10000 5.17 29 15:27 04.03.2022
2788 Clouds 3 1025 77 10000 3.63 33 13:36 04.03.2022
2789 Clouds 8 1020 72 10000 0.14 195 12:48 04.03.2022
2790 Clouds 10 1019 61 10000 1.9 200 11:37 04.03.2022
2791 Clouds 10 1019 54 10000 2.39 192 10:30 04.03.2022
2792 Clouds 11 1020 55 10000 2.33 194 09:28 04.03.2022
2793 Clouds 10 1021 53 10000 2.22 206 08:20 04.03.2022
2794 Clouds 10 1022 49 10000 1.26 220 06:55 04.03.2022
2795 Clouds 0 1031 66 10000 5.78 27 02:52 04.03.2022
2796 Clouds 1 1029 75 10000 4.82 28 00:19 04.03.2022
2797 Rain 2 1028 79 10000 3.1 42 22:19 03.03.2022
2798 Rain 2 1028 79 10000 3.1 42 21:37 03.03.2022
2799 Clouds 4 1026 83 9615 2.42 46 20:56 03.03.2022
2800 Rain 4 1027 87 7450 2.66 49 19:48 03.03.2022
2801 Rain 4 1026 86 7453 2.83 39 18:49 03.03.2022
2802 Clouds 3 1028 78 10000 3.24 41 17:46 03.03.2022
2803 Clouds 2 1029 76 10000 3.81 36 17:26 03.03.2022
2804 Clouds 2 1027 79 10000 3.74 35 15:47 03.03.2022
2805 Rain 2 1026 84 10000 3.9 30 14:59 03.03.2022
2806 Rain 2 1026 84 10000 3.9 30 14:33 03.03.2022
2807 Rain 6 1021 92 4024 0.5 194 13:18 03.03.2022
2808 Rain 6 1021 92 4024 0.5 194 13:18 03.03.2022
2809 Clouds 7 1020 97 410 3.37 192 11:45 03.03.2022
2810 Rain 8 1019 98 390 3.72 201 10:40 03.03.2022
2811 Clouds 9 1020 79 3694 2.9 208 08:52 03.03.2022
2812 Clouds 9 1022 71 8440 1.46 227 07:25 03.03.2022
2813 Clouds 9 1022 75 5581 1.6 220 06:34 03.03.2022
2814 Clouds 4 1024 78 10000 2.71 36 01:52 03.03.2022
2815 Clouds 4 1024 68 10000 3.41 25 23:29 02.03.2022
2816 Clouds 4 1024 68 10000 3.41 25 22:52 02.03.2022
2817 Clouds 4 1025 67 10000 3.81 23 21:30 02.03.2022
2818 Clouds 3 1027 66 10000 3.88 26 20:45 02.03.2022
2819 Clouds 3 1027 65 10000 4.01 30 20:24 02.03.2022
2820 Clouds 3 1027 65 10000 4.01 30 19:35 02.03.2022
2821 Clouds 1 1030 61 10000 5.09 28 18:44 02.03.2022
2822 Clouds 1 1031 62 10000 5.34 27 17:59 02.03.2022
2823 Clouds 1 1030 66 10000 5.17 27 17:28 02.03.2022
2824 Clouds 1 1030 66 10000 5.17 27 16:51 02.03.2022
2825 Clouds 2 1028 73 10000 4.65 29 14:45 02.03.2022
2826 Clouds 8 1020 73 10000 1.04 149 13:25 02.03.2022
2827 Clouds 8 1020 73 10000 1.04 149 12:44 02.03.2022
2828 Clouds 10 1019 63 10000 2.09 190 11:51 02.03.2022
2829 Clouds 11 1019 54 10000 2.31 189 11:24 02.03.2022
2830 Clouds 11 1019 54 10000 2.31 189 11:24 02.03.2022
2831 Clouds 11 1020 53 10000 2.43 193 09:47 02.03.2022
2832 Clouds 11 1020 52 10000 2.65 199 09:23 02.03.2022
2833 Clouds 11 1021 49 10000 2.17 211 07:51 02.03.2022
2834 Clouds 10 1022 45 10000 0.27 316 06:54 02.03.2022
2835 Clear 0 1032 62 10000 5.79 26 02:54 02.03.2022
2836 Clouds 0 1030 67 10000 5.57 29 00:33 02.03.2022
2837 Clouds 1 1029 70 10000 5.49 28 22:50 01.03.2022
2838 Clouds 1 1029 70 10000 5.49 28 22:31 01.03.2022
2839 Clouds 1 1029 73 10000 4.93 27 21:25 01.03.2022
2840 Clouds 1 1029 73 10000 4.93 27 20:32 01.03.2022
2841 Clouds 1 1030 73 10000 4.6 27 19:50 01.03.2022
2842 Clouds 1 1030 73 10000 4.63 28 18:51 01.03.2022
2843 Clouds 1 1030 73 10000 4.65 30 18:21 01.03.2022
2844 Clouds 1 1030 73 10000 4.65 30 17:37 01.03.2022
2845 Clouds 2 1029 75 10000 4.47 29 16:35 01.03.2022
2846 Clouds 2 1028 79 10000 4.23 27 15:47 01.03.2022
2847 Clouds 3 1027 83 10000 3.92 29 14:41 01.03.2022
2848 Clouds 3 1025 85 10000 2.46 34 14:23 01.03.2022
2849 Clouds 8 1021 83 10000 1.54 192 13:26 01.03.2022
2850 Clouds 7 1021 83 9011 1.89 177 12:35 01.03.2022
2851 Clouds 9 1020 80 6467 2.5 193 10:57 01.03.2022
2852 Clouds 9 1021 81 5872 2.48 191 09:43 01.03.2022
2853 Clouds 8 1023 84 2393 2.19 182 08:20 01.03.2022
2854 Clouds 7 1024 80 1771 1.85 230 06:47 01.03.2022
2855 Clouds 3 1027 64 10000 4.74 31 02:58 01.03.2022
2856 Clouds 2 1026 66 10000 5.25 26 00:48 01.03.2022
2857 Clouds 3 1025 69 10000 4.85 23 23:39 28.02.2022
2858 Clouds 4 1024 71 10000 4.12 21 22:38 28.02.2022
2859 Clouds 4 1024 70 10000 3.74 23 21:47 28.02.2022
2860 Clouds 5 1023 67 10000 3.72 26 20:46 28.02.2022
2861 Clouds 5 1024 65 10000 3.28 29 19:51 28.02.2022
2862 Clouds 6 1023 64 10000 3.19 26 18:50 28.02.2022
2863 Clouds 6 1023 67 10000 3.28 26 17:43 28.02.2022
2864 Clouds 5 1024 68 10000 3.22 23 17:21 28.02.2022
2865 Clouds 6 1023 69 10000 3.45 24 16:25 28.02.2022
2866 Clouds 6 1023 71 10000 3.54 27 14:33 28.02.2022
2867 Clouds 6 1022 73 10000 2.7 30 13:56 28.02.2022
2868 Clouds 8 1020 73 10000 0.39 208 13:24 28.02.2022
2869 Clouds 10 1018 64 10000 1.45 198 12:25 28.02.2022
2870 Clouds 11 1018 55 10000 1.79 195 11:20 28.02.2022
2871 Clouds 11 1019 55 10000 2.36 200 10:23 28.02.2022
2872 Clouds 11 1019 55 10000 2.36 200 09:51 28.02.2022
2873 Clouds 11 1019 53 10000 2.67 201 09:23 28.02.2022
2874 Clouds 11 1019 51 10000 2.21 205 08:21 28.02.2022
2875 Clouds 11 1020 43 10000 0.6 217 06:31 28.02.2022
2876 Clear 8 1022 52 10000 3.44 23 04:31 28.02.2022
2877 Clear -1 1031 44 10000 6.67 27 01:24 28.02.2022
2878 Clear -1 1031 47 10000 6.43 26 22:57 27.02.2022
2879 Clear -1 1031 47 10000 6.43 26 22:32 27.02.2022
2880 Clear -1 1032 49 10000 6.47 27 21:42 27.02.2022
2881 Clear -1 1032 51 10000 6.43 27 20:51 27.02.2022
2882 Clear -2 1032 53 10000 6.27 27 20:22 27.02.2022
2883 Clear -2 1032 53 10000 6.27 27 19:50 27.02.2022
2884 Clear -1 1033 55 10000 6.23 26 19:24 27.02.2022
2885 Clear -2 1033 55 10000 6.2 26 18:37 27.02.2022
2886 Clear -1 1033 57 10000 6.16 26 17:53 27.02.2022
2887 Clear -1 1033 58 10000 6.11 25 16:31 27.02.2022
2888 Clear -1 1033 60 10000 5.98 26 15:39 27.02.2022
2889 Clouds 5 1022 76 10000 0.78 95 12:43 27.02.2022
2890 Clouds 8 1020 66 10000 1.39 182 12:25 27.02.2022
2891 Clouds 8 1020 55 10000 1.69 190 10:37 27.02.2022
2892 Clouds 8 1020 50 10000 1.97 200 09:58 27.02.2022
2893 Clear 8 1021 47 10000 1.82 205 09:24 27.02.2022
2894 Clear 8 1021 47 10000 1.82 205 08:54 27.02.2022
2895 Clouds 7 1022 39 10000 0.25 295 06:42 27.02.2022
2896 Clear 0 1032 68 10000 4.99 24 04:26 27.02.2022
2897 Snow 0 1027 93 3333 2.36 2 00:34 27.02.2022
2898 Snow 2 1025 95 1412 1.1 303 22:50 26.02.2022
2899 Snow 2 1026 95 2036 1.07 281 21:34 26.02.2022
2900 Snow 2 1026 95 1155 0.94 246 20:48 26.02.2022
2901 Clouds 2 1026 95 2214 0.99 195 19:59 26.02.2022
2902 Clouds 2 1026 95 2214 0.99 195 19:34 26.02.2022
2903 Rain 2 1027 97 149 0.36 184 18:46 26.02.2022
2904 Clouds 2 1027 96 463 0.91 155 17:40 26.02.2022
2905 Snow 2 1027 94 1626 1.54 88 16:48 26.02.2022
2906 Snow 2 1027 88 7285 1.77 63 15:48 26.02.2022
2907 Snow 1 1027 90 8849 2.24 50 15:20 26.02.2022
2908 Snow 1 1027 90 8849 2.24 50 14:52 26.02.2022
2909 Snow 0 1026 97 6872 1.98 71 14:25 26.02.2022
2910 Rain 4 1021 95 2668 2.33 172 13:19 26.02.2022
2911 Rain 5 1019 93 2843 2.81 170 12:20 26.02.2022
2912 Rain 6 1019 91 1469 3.38 183 11:28 26.02.2022
2913 Clouds 6 1019 91 1469 3.38 183 10:39 26.02.2022
2914 Rain 5 1020 95 585 3.77 192 08:48 26.02.2022
2915 Rain 5 1021 96 202 3.52 204 06:51 26.02.2022
2916 Clouds 3 1023 92 2300 0.72 38 00:50 26.02.2022
2917 Clouds 2 1023 93 1279 1.08 58 22:47 25.02.2022
2918 Clouds 2 1024 91 1487 1.97 65 21:43 25.02.2022
2919 Snow 2 1026 90 1533 2.41 44 21:23 25.02.2022
2920 Snow 2 1026 90 1533 2.41 44 20:32 25.02.2022
2921 Clouds 2 1026 79 10000 2.55 28 18:59 25.02.2022
2922 Clouds 1 1028 72 10000 4.55 25 17:27 25.02.2022
2923 Clouds 1 1028 72 10000 4.55 25 16:32 25.02.2022
2924 Clouds -1 1030 75 10000 4.63 30 15:47 25.02.2022
2925 Clouds 0 1029 80 10000 4.51 31 15:21 25.02.2022
2926 Clouds 0 1029 80 10000 4.51 31 14:42 25.02.2022
2927 Snow 1 1026 85 10000 3.25 35 13:51 25.02.2022
2928 Clouds 4 1021 83 5966 1.04 201 13:18 25.02.2022
2929 Clouds 7 1019 68 6958 3.08 195 11:28 25.02.2022
2930 Clouds 7 1019 68 6958 3.08 195 10:43 25.02.2022
2931 Rain 7 1019 67 7290 3.01 192 10:22 25.02.2022
2932 Clouds 7 1019 67 7290 3.01 192 09:30 25.02.2022
2933 Clouds 7 1022 68 9186 2.72 198 07:44 25.02.2022
2934 Clouds 6 1023 77 10000 1.52 204 05:58 25.02.2022
2935 Clouds 6 1023 77 10000 1.52 204 05:31 25.02.2022
2936 Snow 1 1025 86 4240 2.99 19 00:27 25.02.2022
2937 Clouds 2 1024 91 861 2.21 10 22:20 24.02.2022
2938 Clouds 2 1024 91 861 2.21 10 21:42 24.02.2022
2939 Clouds 3 1024 93 661 1.98 2 21:20 24.02.2022
2940 Clouds 3 1024 93 661 1.98 2 20:30 24.02.2022
2941 Clouds 3 1024 90 2522 1.72 343 19:19 24.02.2022
2942 Clouds 3 1024 90 2165 1.59 6 18:20 24.02.2022
2943 Clouds 3 1024 90 2165 1.59 6 17:46 24.02.2022
2944 Clouds 3 1023 92 3882 1.84 23 16:57 24.02.2022
2945 Clouds 2 1024 97 285 1.21 342 16:25 24.02.2022
2946 Clouds 2 1024 97 285 1.21 342 15:31 24.02.2022
2947 Clouds 3 1022 96 6971 1.04 1 14:43 24.02.2022
2948 Clouds 3 1021 98 1021 0.59 243 13:51 24.02.2022
2949 Clouds 3 1021 98 1021 0.59 243 13:30 24.02.2022
2950 Clouds 7 1018 86 970 2.69 200 10:50 24.02.2022
2951 Rain 7 1019 83 1105 2.7 213 09:42 24.02.2022
2952 Rain 7 1020 86 1018 2.95 220 08:43 24.02.2022
2953 Clouds 6 1022 82 2343 1.29 247 06:28 24.02.2022
2954 Rain 6 1022 82 2343 1.29 247 05:37 24.02.2022
2955 Clouds 4 1023 92 2381 1.83 4 00:30 24.02.2022
2956 Clouds 3 1024 85 7116 2.68 19 21:56 23.02.2022
2957 Clouds 2 1026 82 9100 3.46 23 20:44 23.02.2022
2958 Clouds 2 1027 82 10000 3.38 26 20:23 23.02.2022
2959 Clouds 2 1027 82 10000 3.38 26 19:34 23.02.2022
2960 Clouds 3 1026 90 4231 2.11 49 18:22 23.02.2022
2961 Clouds 5 1022 95 3833 0.98 169 16:27 23.02.2022
2962 Rain 6 1021 98 211 1.07 260 13:45 23.02.2022
2963 Rain 6 1020 96 313 0.38 226 12:31 23.02.2022
2964 Rain 9 1018 75 7401 1.44 205 10:58 23.02.2022
2965 Clouds 9 1019 75 10000 2.29 214 09:49 23.02.2022
2966 Clouds 9 1019 79 10000 2.13 209 08:54 23.02.2022
2967 Rain 9 1021 80 8383 1.35 198 07:53 23.02.2022
2968 Clouds 5 1021 94 2096 0.2 223 02:58 23.02.2022
2969 Clouds 6 1018 98 547 2.39 243 00:18 23.02.2022
2970 Clouds 6 1018 98 547 2.39 243 23:33 22.02.2022
2971 Rain 7 1016 98 75 4.38 193 22:28 22.02.2022
2972 Rain 7 1016 98 75 4.38 193 22:28 22.02.2022
2973 Rain 7 1016 98 75 4.38 193 21:45 22.02.2022
2974 Rain 7 1015 98 231 2.94 173 21:21 22.02.2022
2975 Rain 7 1015 98 231 2.94 173 20:43 22.02.2022
2976 Clouds 6 1017 98 425 1.55 160 20:25 22.02.2022
2977 Rain 6 1017 98 425 1.55 160 19:34 22.02.2022
2978 Clouds 6 1017 97 287 1.39 163 18:50 22.02.2022
2979 Clouds 7 1018 94 2482 1.97 194 17:36 22.02.2022
2980 Clouds 7 1018 93 3207 1.65 205 16:58 22.02.2022
2981 Clouds 7 1018 93 2212 1.28 236 16:26 22.02.2022
2982 Clouds 7 1018 93 2212 1.28 236 15:36 22.02.2022
2983 Clouds 7 1017 92 1197 1.52 231 14:37 22.02.2022
2984 Clouds 10 1013 82 4141 3.84 208 11:41 22.02.2022
2985 Clouds 10 1015 85 4787 2.14 183 10:22 22.02.2022
2986 Clouds 9 1017 76 4591 1.81 194 07:41 22.02.2022
2987 Clouds 9 1018 72 4384 1.42 181 07:23 22.02.2022
2988 Clouds 6 1018 69 10000 2.74 28 02:51 22.02.2022
2989 Clouds 5 1017 65 5658 3.5 14 00:44 22.02.2022
2990 Clouds 6 1016 54 6943 3.51 28 22:38 21.02.2022
2991 Clouds 4 1019 51 9527 3.93 30 21:24 21.02.2022
2992 Clouds 4 1019 50 10000 4.07 34 20:19 21.02.2022
2993 Clouds 2 1022 47 10000 4.9 29 18:40 21.02.2022
2994 Clouds 2 1022 50 10000 5.11 27 16:40 21.02.2022
2995 Clouds 3 1019 54 10000 4.45 32 14:24 21.02.2022
2996 Clouds 3 1019 54 10000 4.45 32 13:56 21.02.2022
2997 Clouds 6 1013 54 10000 1.41 45 12:58 21.02.2022
2998 Clear 9 1011 46 10000 0.73 171 12:22 21.02.2022
2999 Clear 10 1010 34 10000 0.96 211 10:35 21.02.2022
3000 Clear 10 1010 30 10000 0.55 320 08:31 21.02.2022
3001 Clear -4 1024 44 10000 7.58 27 00:56 21.02.2022
3002 Clear -4 1024 45 10000 7.19 27 22:45 20.02.2022
3003 Clear -4 1024 47 10000 7.15 27 22:18 20.02.2022
3004 Clear -4 1024 47 10000 7.15 27 21:41 20.02.2022
3005 Clear -4 1024 48 10000 6.95 27 20:51 20.02.2022
3006 Clear -3 1025 48 10000 6.69 27 20:21 20.02.2022
3007 Clear -3 1025 48 10000 6.56 28 19:29 20.02.2022
3008 Clear -3 1025 48 10000 6.56 28 18:49 20.02.2022
3009 Clear -3 1025 48 10000 6.57 28 18:30 20.02.2022
3010 Clear -3 1025 49 10000 6.58 26 17:30 20.02.2022
3011 Clouds -3 1024 53 10000 6.55 24 15:30 20.02.2022
3012 Clouds -2 1022 55 10000 5.98 25 14:33 20.02.2022
3013 Clouds 3 1011 68 10000 0.83 65 13:22 20.02.2022
3014 Clouds 3 1011 68 10000 0.83 65 13:22 20.02.2022
3015 Clouds 3 1011 68 10000 0.83 65 13:22 20.02.2022
3016 Clouds 7 1007 56 10000 1.44 202 11:56 20.02.2022
3017 Clouds 7 1007 56 10000 1.44 202 11:55 20.02.2022
3018 Clouds 8 1007 34 10000 1.16 209 10:21 20.02.2022
3019 Clouds 8 1007 34 10000 1.16 209 09:35 20.02.2022
3020 Clear 5 1012 44 10000 2.05 21 06:29 20.02.2022
3021 Clouds -3 1021 63 10000 4.88 29 00:32 20.02.2022
3022 Clouds -3 1021 63 10000 4.88 29 00:32 20.02.2022
3023 Clouds -2 1021 65 10000 4.44 26 23:33 19.02.2022
3024 Clouds 0 1020 73 10000 3.87 27 22:24 19.02.2022
3025 Clouds 0 1020 73 10000 3.87 27 21:47 19.02.2022
3026 Clouds 1 1021 75 10000 3.61 30 20:28 19.02.2022
3027 Clouds 1 1021 75 10000 3.61 30 19:35 19.02.2022
3028 Clouds 1 1021 75 10000 3.72 34 18:41 19.02.2022
3029 Snow 2 1021 75 10000 3.39 35 17:57 19.02.2022
3030 Clouds 2 1021 76 9357 3.22 38 17:21 19.02.2022
3031 Clouds 2 1022 77 9343 3.17 41 15:59 19.02.2022
3032 Clouds 2 1021 74 10000 2.8 51 14:55 19.02.2022
3033 Clouds 2 1020 74 10000 2.04 63 13:58 19.02.2022
3034 Clouds 7 1014 58 10000 2.51 209 11:53 19.02.2022
3035 Clouds 8 1015 44 10000 2.31 198 10:54 19.02.2022
3036 Clear 8 1016 30 10000 1.27 214 08:59 19.02.2022
3037 Clear 7 1018 36 10000 1.33 1 06:48 19.02.2022
3038 Clouds -3 1029 56 10000 5.67 25 00:42 19.02.2022
3039 Clouds -2 1027 60 10000 5.29 22 22:28 18.02.2022
3040 Clouds -2 1028 60 10000 5.06 23 21:22 18.02.2022
3041 Clouds -2 1028 61 10000 4.75 23 20:24 18.02.2022
3042 Clouds -2 1028 59 10000 4.82 27 19:25 18.02.2022
3043 Clouds -2 1028 58 10000 4.89 27 18:37 18.02.2022
3044 Clouds -2 1028 60 10000 4.89 28 18:18 18.02.2022
3045 Clouds -1 1027 63 10000 4.64 28 17:18 18.02.2022
3046 Clouds -1 1025 68 10000 4.34 31 14:30 18.02.2022
3047 Clouds 0 1023 70 10000 2.85 38 13:46 18.02.2022
3048 Clouds 3 1017 64 10000 1.44 165 12:50 18.02.2022
3049 Clouds 7 1014 54 10000 3.05 196 11:57 18.02.2022
3050 Clouds 8 1014 44 10000 3.66 198 10:42 18.02.2022
3051 Clouds 8 1017 30 10000 1.39 248 07:22 18.02.2022
3052 Clouds 8 1017 30 10000 1.39 248 06:35 18.02.2022
3053 Clouds 7 1017 37 10000 1.49 356 05:34 18.02.2022
3054 Clear -3 1029 45 10000 6.15 27 22:20 17.02.2022
3055 Clear -3 1029 45 10000 6.15 27 21:38 17.02.2022
3056 Clear -3 1029 47 10000 6.13 26 20:43 17.02.2022
3057 Clear -3 1029 48 10000 5.99 27 19:55 17.02.2022
3058 Clear -3 1030 50 10000 5.79 27 19:26 17.02.2022
3059 Clear -3 1029 52 10000 5.69 27 18:29 17.02.2022
3060 Clear -3 1029 52 10000 5.69 27 17:42 17.02.2022
3061 Clear -2 1028 59 10000 5.29 28 15:58 17.02.2022
3062 Clear -2 1027 61 10000 4.91 31 14:30 17.02.2022
3063 Clear -2 1027 61 10000 4.91 31 14:30 17.02.2022
3064 Clear -1 1024 63 10000 3.57 36 13:47 17.02.2022
3065 Clouds 7 1013 49 10000 2.83 192 11:52 17.02.2022
3066 Clear 8 1013 34 10000 2.98 197 10:20 17.02.2022
3067 Clear 8 1015 32 10000 2.19 217 07:56 17.02.2022
3068 Clear -4 1027 48 10000 5.85 26 23:50 16.02.2022
3069 Clear -4 1027 49 10000 5.78 27 22:36 16.02.2022
3070 Clear -3 1027 56 10000 5.59 27 20:22 16.02.2022
3071 Clouds -3 1027 60 10000 5.44 26 19:23 16.02.2022
3072 Clouds -3 1027 58 10000 5.46 26 18:34 16.02.2022
3073 Clouds -2 1026 68 10000 5.16 28 17:24 16.02.2022
3074 Clouds -1 1024 76 10000 4.02 36 15:23 16.02.2022
3075 Clouds 0 1020 76 10000 2.16 57 13:47 16.02.2022
3076 Clouds 7 1013 58 10000 3.27 197 12:27 16.02.2022
3077 Clouds 7 1013 58 10000 3.27 197 11:46 16.02.2022
3078 Clouds 8 1013 52 10000 3.87 195 10:35 16.02.2022
3079 Clouds 8 1013 47 10000 3.74 190 09:39 16.02.2022
3080 Clear 7 1016 42 10000 2.06 218 06:44 16.02.2022
3081 Clear -3 1027 56 10000 5.71 27 02:48 16.02.2022
3082 Clear -2 1026 57 10000 5.55 26 22:34 15.02.2022
3083 Clear -2 1026 59 10000 5.49 26 21:51 15.02.2022
3084 Clear -2 1026 59 10000 5.49 26 21:31 15.02.2022
3085 Clear -2 1027 60 10000 5.41 26 20:58 15.02.2022
3086 Clear -2 1027 60 10000 5.41 26 20:38 15.02.2022
3087 Clear -1 1027 63 10000 5.19 26 19:48 15.02.2022
3088 Clouds -1 1027 70 10000 4.98 26 18:28 15.02.2022
3089 Clouds -1 1027 70 10000 4.98 26 17:57 15.02.2022
3090 Clouds -1 1027 70 10000 4.98 26 17:38 15.02.2022
3091 Clouds 0 1025 79 10000 4.17 35 16:20 15.02.2022
3092 Clouds 0 1024 86 10000 3.26 40 14:35 15.02.2022
3093 Clouds 6 1016 83 6375 1.94 186 13:26 15.02.2022
3094 Clouds 7 1015 76 6116 2.87 196 11:43 15.02.2022
3095 Clouds 7 1015 72 5657 3.32 196 10:39 15.02.2022
3096 Clouds 9 1015 60 8007 3.21 194 09:23 15.02.2022
3097 Clouds 8 1017 53 10000 1.59 222 06:47 15.02.2022
3098 Clouds 1 1022 68 10000 4.32 26 00:26 15.02.2022
3099 Clouds 1 1023 68 10000 4.25 26 21:59 14.02.2022
3100 Clouds 1 1023 67 10000 4.13 28 21:19 14.02.2022
3101 Clouds 1 1023 66 10000 4.17 27 20:19 14.02.2022
3102 Clouds 1 1023 66 10000 4.17 27 19:30 14.02.2022
3103 Clouds 1 1024 62 10000 4.2 31 18:24 14.02.2022
3104 Clouds 1 1024 62 10000 4.2 31 17:43 14.02.2022
3105 Clouds 1 1023 64 10000 4.26 31 17:23 14.02.2022
3106 Clouds 1 1023 68 10000 4.21 30 15:58 14.02.2022
3107 Clouds 2 1021 78 10000 3.3 34 13:37 14.02.2022
3108 Clouds 5 1016 77 10000 0.87 138 13:18 14.02.2022
3109 Clouds 5 1016 76 10000 0.87 136 12:32 14.02.2022
3110 Clouds 8 1014 66 10000 2.32 192 11:43 14.02.2022
3111 Clouds 10 1013 53 10000 3.08 195 10:25 14.02.2022
3112 Clouds 10 1014 52 10000 3.25 195 08:34 14.02.2022
3113 Clouds 10 1015 45 10000 1.87 209 07:26 14.02.2022
3114 Clouds 1 1023 51 10000 5.38 27 23:37 13.02.2022
3115 Clouds 1 1023 52 10000 5.47 26 22:41 13.02.2022
3116 Clouds 1 1024 52 10000 5.44 26 22:23 13.02.2022
3117 Clouds 0 1025 51 10000 5.55 28 21:28 13.02.2022
3118 Clouds 0 1025 51 10000 5.55 28 20:32 13.02.2022
3119 Clouds 1 1025 52 10000 5.38 28 19:24 13.02.2022
3120 Clouds 1 1025 52 10000 5.48 28 18:42 13.02.2022
3121 Clouds 1 1025 54 10000 5.49 27 17:54 13.02.2022
3122 Clouds 1 1025 63 10000 5.18 28 15:54 13.02.2022
3123 Clouds 1 1025 63 10000 5.18 28 15:54 13.02.2022
3124 Clouds 1 1023 66 10000 4.9 29 14:58 13.02.2022
3125 Clouds 2 1022 69 10000 4.32 29 13:59 13.02.2022
3126 Clouds 5 1016 68 10000 1.18 59 12:50 13.02.2022
3127 Clouds 10 1014 51 10000 2.54 193 11:26 13.02.2022
3128 Clouds 10 1014 51 10000 2.54 193 10:30 13.02.2022
3129 Clouds 10 1014 45 10000 2.62 194 09:41 13.02.2022
3130 Clouds 10 1015 38 10000 1.22 226 07:21 13.02.2022
3131 Clear -1 1024 42 10000 6.22 28 00:35 13.02.2022
3132 Clear -1 1025 42 10000 6.14 27 23:39 12.02.2022
3133 Clear -1 1025 42 10000 5.95 26 22:33 12.02.2022
3134 Clear -1 1026 44 10000 5.99 27 21:20 12.02.2022
3135 Clear -1 1026 44 10000 5.99 27 20:32 12.02.2022
3136 Clear 0 1026 47 10000 6.03 27 19:27 12.02.2022
3137 Clear 0 1026 47 10000 6.03 27 18:53 12.02.2022
3138 Clear 0 1027 47 10000 5.97 28 18:35 12.02.2022
3139 Clear 1 1026 56 10000 5.77 28 16:58 12.02.2022
3140 Clear 1 1025 62 10000 5.53 28 16:25 12.02.2022
3141 Clear 1 1025 62 10000 5.53 28 15:51 12.02.2022
3142 Clear 2 1024 65 10000 5.15 26 14:31 12.02.2022
3143 Clear 5 1018 68 10000 1.48 48 13:19 12.02.2022
3144 Clear 11 1014 50 10000 1.9 197 10:42 12.02.2022
3145 Clear 11 1015 47 10000 2.13 195 09:49 12.02.2022
3146 Clear 11 1015 47 10000 2.39 200 09:26 12.02.2022
3147 Clear 11 1015 47 10000 2.39 200 08:44 12.02.2022
3148 Clear 10 1017 47 10000 1.25 14 05:40 12.02.2022
3149 Clear 7 1019 51 10000 3.3 25 04:30 12.02.2022
3150 Clear 0 1026 40 10000 6.18 27 02:18 12.02.2022
3151 Clear 0 1026 40 10000 6.2 27 22:37 11.02.2022
3152 Clear 0 1026 40 10000 6.26 27 22:18 11.02.2022
3153 Clear -1 1027 40 10000 6.31 27 20:43 11.02.2022
3154 Clear -1 1028 40 10000 6.42 27 19:48 11.02.2022
3155 Clear -1 1029 40 10000 6.44 27 19:27 11.02.2022
3156 Clear -1 1030 41 10000 6.56 27 18:26 11.02.2022
3157 Clear -2 1030 42 10000 6.67 28 17:26 11.02.2022
3158 Clear -2 1030 44 10000 6.66 24 16:26 11.02.2022
3159 Clear -2 1029 49 10000 6.5 24 14:57 11.02.2022
3160 Clear -2 1029 49 10000 6.5 24 14:36 11.02.2022
3161 Clear -1 1027 53 10000 5.64 25 14:18 11.02.2022
3162 Clear -1 1027 53 10000 5.64 25 13:39 11.02.2022
3163 Clear 7 1016 60 10000 0.46 4 12:20 11.02.2022
3164 Clear 9 1015 39 10000 0.31 331 10:28 11.02.2022
3165 Clear 9 1015 38 10000 0.99 358 09:19 11.02.2022
3166 Clear 8 1016 38 10000 1.64 13 08:28 11.02.2022
3167 Clear 8 1016 38 10000 1.64 13 07:39 11.02.2022
3168 Clear -6 1033 53 10000 7.31 26 02:40 11.02.2022
3169 Clear -6 1033 54 10000 7.16 26 02:20 11.02.2022
3170 Clear -6 1033 54 10000 7.16 26 02:20 11.02.2022
3171 Clear -5 1032 56 10000 6.43 26 23:40 10.02.2022
3172 Clear -5 1032 62 10000 6.21 26 21:55 10.02.2022
3173 Clear -5 1033 64 10000 6.28 26 21:26 10.02.2022
3174 Clear -5 1033 64 10000 6.28 26 20:48 10.02.2022
3175 Clear -5 1033 65 10000 6.05 24 19:37 10.02.2022
3176 Clouds -4 1032 66 10000 5.61 26 19:18 10.02.2022
3177 Clouds -4 1032 68 10000 5.37 26 17:43 10.02.2022
3178 Clouds -3 1030 74 10000 4.74 29 17:20 10.02.2022
3179 Clouds -3 1029 79 10000 4.37 33 16:23 10.02.2022
3180 Clouds -3 1029 79 10000 4.37 33 15:34 10.02.2022
3181 Clouds -2 1028 85 10000 3.77 41 14:49 10.02.2022
3182 Clouds -2 1028 85 10000 3.77 41 14:30 10.02.2022
3183 Clouds -2 1027 90 10000 2.72 60 13:33 10.02.2022
3184 Clouds -2 1027 90 10000 2.72 60 13:33 10.02.2022
3185 Snow 1 1021 87 10000 1.65 133 12:53 10.02.2022
3186 Clouds 5 1017 75 10000 2.97 182 11:48 10.02.2022
3187 Clouds 6 1016 65 10000 3.31 184 11:28 10.02.2022
3188 Clouds 6 1016 61 10000 3.14 187 10:21 10.02.2022
3189 Clouds 6 1017 58 10000 3 196 09:27 10.02.2022
3190 Clear 6 1018 58 10000 2.88 199 07:57 10.02.2022
3191 Clear 5 1019 49 10000 0.21 4 06:19 10.02.2022
3192 Clear -5 1031 59 10000 6.03 26 02:28 10.02.2022
3193 Clear -5 1030 61 10000 6.06 27 00:51 10.02.2022
3194 Clear -5 1030 61 10000 6.06 27 00:30 10.02.2022
3195 Clear -4 1031 66 10000 5.77 26 23:49 09.02.2022
3196 Clear -4 1031 69 10000 5.67 25 22:51 09.02.2022
3197 Clear -4 1031 69 10000 5.67 25 22:30 09.02.2022
3198 Clouds -4 1032 71 10000 5.58 25 21:45 09.02.2022
3199 Clouds -4 1032 72 10000 5.35 26 21:24 09.02.2022
3200 Clouds -4 1032 72 10000 5.35 26 20:41 09.02.2022
3201 Clouds -4 1032 73 10000 5.26 25 20:21 09.02.2022
3202 Clouds -4 1032 73 10000 5.26 25 20:21 09.02.2022
3203 Clouds -4 1032 73 10000 5.26 25 19:39 09.02.2022
3204 Clouds -4 1032 73 10000 5.04 28 17:50 09.02.2022
3205 Clouds -3 1031 74 10000 4.8 27 16:54 09.02.2022
3206 Clouds -3 1030 79 10000 4.48 29 15:56 09.02.2022
3207 Clouds -2 1028 86 10000 3.84 33 15:22 09.02.2022
3208 Snow 1 1020 96 3702 0.85 148 12:42 09.02.2022
3209 Clouds 4 1016 94 579 3.65 196 11:23 09.02.2022
3210 Clouds 4 1016 94 579 3.65 196 10:33 09.02.2022
3211 Clouds 4 1016 94 406 3.83 197 09:47 09.02.2022
3212 Clouds 4 1016 92 229 4.1 203 09:20 09.02.2022
3213 Clouds 4 1016 92 229 4.1 203 08:43 09.02.2022
3214 Clouds 3 1019 90 582 2.87 207 05:55 09.02.2022
3215 Clouds 2 1020 90 2254 1.01 235 03:51 09.02.2022
3216 Snow 1 1020 95 1285 0.56 189 01:55 09.02.2022
3217 Snow 1 1020 95 568 0.53 107 23:45 08.02.2022
3218 Snow 1 1020 96 546 0.5 215 23:18 08.02.2022
3219 Snow 1 1020 96 546 0.5 215 22:38 08.02.2022
3220 Snow 1 1021 96 315 1.35 260 22:18 08.02.2022
3221 Snow 2 1020 96 334 0.99 262 21:22 08.02.2022
3222 Snow 2 1020 96 334 0.99 262 21:22 08.02.2022
3223 Snow 2 1020 96 334 0.99 262 21:22 08.02.2022
3224 Snow 2 1020 96 334 0.99 262 20:57 08.02.2022
3225 Snow 2 1020 96 334 0.99 262 20:34 08.02.2022
3226 Snow 2 1021 93 288 0.71 347 19:18 08.02.2022
3227 Clouds 0 1024 84 4825 2.05 16 17:58 08.02.2022
3228 Clouds -1 1025 79 10000 3.14 33 16:56 08.02.2022
3229 Clouds -2 1026 78 10000 3.76 30 15:46 08.02.2022
3230 Clouds -1 1025 80 10000 3.9 34 14:58 08.02.2022
3231 Clouds -1 1024 81 10000 3.41 31 13:48 08.02.2022
3232 Clouds 6 1014 68 10000 2.01 193 12:24 08.02.2022
3233 Clear 7 1014 54 10000 2.21 194 10:48 08.02.2022
3234 Clear 7 1015 52 10000 2.36 194 09:48 08.02.2022
3235 Clear 7 1015 52 10000 2.71 196 08:38 08.02.2022
3236 Clear 6 1018 47 10000 0.89 17 06:24 08.02.2022
3237 Clear 3 1022 53 10000 3.09 19 04:40 08.02.2022
3238 Clear -1 1027 52 10000 5.15 22 04:22 08.02.2022
3239 Clear -1 1027 52 10000 5.15 22 03:36 08.02.2022
3240 Clear -4 1031 50 10000 6.08 27 03:18 08.02.2022
3241 Clear -4 1031 50 10000 6.08 27 02:59 08.02.2022
3242 Clear -4 1031 50 10000 6.08 27 02:36 08.02.2022
3243 Clear -4 1031 52 10000 6.17 26 02:18 08.02.2022
3244 Clear -4 1031 52 10000 6.17 26 01:44 08.02.2022
3245 Clear -4 1030 53 10000 6.13 27 01:25 08.02.2022
3246 Clear -4 1030 55 10000 6.04 28 00:55 08.02.2022
3247 Clear -4 1030 58 10000 6.11 26 00:21 08.02.2022
3248 Clear -4 1030 58 10000 6.11 26 23:44 07.02.2022
3249 Clear -4 1030 61 10000 6.01 26 23:18 07.02.2022
3250 Clear -4 1030 61 10000 6.01 26 22:59 07.02.2022
3251 Clear -3 1030 63 10000 5.92 26 22:19 07.02.2022
3252 Clear -3 1030 63 10000 5.92 26 21:50 07.02.2022
3253 Clear -3 1030 65 10000 5.84 25 21:27 07.02.2022
3254 Clear -3 1030 65 10000 5.84 25 20:45 07.02.2022
3255 Clear -3 1030 65 10000 5.64 25 20:27 07.02.2022
3256 Clear -3 1030 65 10000 5.64 25 19:47 07.02.2022
3257 Clouds -2 1030 67 10000 5.55 25 18:35 07.02.2022
3258 Clouds -1 1028 76 10000 4.76 31 17:23 07.02.2022
3259 Clouds -1 1028 76 10000 4.76 31 16:52 07.02.2022
3260 Clouds 0 1026 81 10000 4.01 37 15:48 07.02.2022
3261 Clouds 0 1023 93 8696 2.27 35 13:58 07.02.2022
3262 Clouds 3 1018 93 4260 1.07 208 13:27 07.02.2022
3263 Clouds 7 1016 83 4218 2.77 196 12:18 07.02.2022
3264 Clouds 7 1016 83 4218 2.77 196 11:40 07.02.2022
3265 Clouds 7 1016 78 5672 3.27 195 11:22 07.02.2022
3266 Clouds 7 1016 78 5672 3.27 195 10:41 07.02.2022
3267 Clouds 8 1016 76 3934 3.6 196 10:22 07.02.2022
3268 Clouds 8 1016 76 3934 3.6 196 09:51 07.02.2022
3269 Clouds 8 1016 77 2911 3.8 195 09:18 07.02.2022
3270 Clouds 8 1017 79 4245 3.2 197 07:53 07.02.2022
3271 Clouds 7 1018 76 10000 2.09 201 06:34 07.02.2022
3272 Clouds 5 1019 75 10000 0.34 135 04:49 07.02.2022
3273 Clouds 2 1022 86 9968 2.65 32 02:37 07.02.2022
3274 Clouds 2 1022 91 2385 1.56 30 00:20 07.02.2022
3275 Clouds 3 1022 91 1296 1.52 29 23:20 06.02.2022
3276 Clouds 3 1022 91 1296 1.52 29 22:42 06.02.2022
3277 Clouds 3 1022 89 2424 1.63 34 21:46 06.02.2022
3278 Clouds 3 1022 87 6925 1.54 40 21:21 06.02.2022
3279 Clouds 3 1022 87 6925 1.54 40 20:48 06.02.2022
3280 Clouds 3 1023 86 8079 1.98 39 20:24 06.02.2022
3281 Clouds 3 1023 84 8671 2.01 31 19:22 06.02.2022
3282 Clouds 3 1023 85 6246 1.78 44 18:33 06.02.2022
3283 Clouds 3 1023 84 8871 2.11 39 17:38 06.02.2022
3284 Clouds 3 1023 84 8379 2.43 37 16:52 06.02.2022
3285 Clouds 2 1023 81 10000 2.53 38 16:29 06.02.2022
3286 Clouds 2 1023 81 10000 2.53 38 15:47 06.02.2022
3287 Clouds 2 1023 81 10000 2.53 38 15:47 06.02.2022
3288 Clouds 2 1022 85 10000 2.7 46 15:25 06.02.2022
3289 Clouds 3 1020 87 8805 1.86 56 14:23 06.02.2022
3290 Clouds 7 1016 86 7312 1.99 157 13:23 06.02.2022
3291 Clouds 6 1016 86 9617 1.68 145 12:33 06.02.2022
3292 Clouds 9 1014 74 10000 3.25 189 10:37 06.02.2022
3293 Clouds 10 1015 73 10000 3.3 185 09:48 06.02.2022
3294 Clouds 10 1015 72 10000 3.41 192 08:41 06.02.2022
3295 Clouds 10 1016 71 10000 3.26 202 07:36 06.02.2022
3296 Clouds 9 1017 65 10000 1.73 356 05:28 06.02.2022
3297 Clouds 4 1018 66 10000 4.1 19 02:25 06.02.2022
3298 Clouds 4 1018 64 5683 3.26 7 00:51 06.02.2022
3299 Clouds 4 1018 58 6982 4.06 23 00:24 06.02.2022
3300 Clouds 3 1020 56 10000 3.76 26 21:59 05.02.2022
3301 Clouds 2 1023 55 10000 4.39 32 20:48 05.02.2022
3302 Clouds 1 1023 53 10000 4.7 28 20:23 05.02.2022
3303 Clouds 1 1023 53 10000 4.7 28 19:44 05.02.2022
3304 Clear -1 1025 50 10000 5.46 30 18:45 05.02.2022
3305 Clear -2 1027 51 10000 5.78 25 17:36 05.02.2022
3306 Clear -2 1027 56 10000 5.65 28 16:24 05.02.2022
3307 Clear -2 1027 56 10000 5.65 28 15:31 05.02.2022
3308 Clear -1 1023 65 10000 4.59 24 13:57 05.02.2022
3309 Clear 1 1018 72 10000 2.27 36 12:46 05.02.2022
3310 Clear 5 1013 74 10000 1.21 177 11:47 05.02.2022
3311 Clear 7 1012 60 10000 2.3 192 10:44 05.02.2022
3312 Clear 7 1012 53 10000 2.49 192 09:51 05.02.2022
3313 Clear 7 1012 46 10000 2.2 199 08:51 05.02.2022
3314 Clear 7 1012 41 10000 0.91 201 07:32 05.02.2022
3315 Clear 6 1013 43 10000 0.72 7 06:55 05.02.2022
3316 Clear -5 1026 57 10000 6.36 27 02:43 05.02.2022
3317 Clear -5 1024 61 10000 6.19 27 01:18 05.02.2022
3318 Clear -5 1025 61 10000 6.27 27 00:39 05.02.2022
3319 Clear -5 1024 63 10000 6.16 27 23:33 04.02.2022
3320 Clear -5 1025 65 10000 6 28 22:55 04.02.2022
3321 Clear -5 1025 67 10000 5.84 28 21:36 04.02.2022
3322 Clear -5 1024 69 10000 5.6 27 21:18 04.02.2022
3323 Clear -5 1024 69 10000 5.6 27 20:40 04.02.2022
3324 Clouds -4 1023 74 10000 4.85 25 19:29 04.02.2022
3325 Clouds -3 1022 80 10000 4.63 23 16:50 04.02.2022
3326 Clouds -3 1020 85 10000 4 24 15:34 04.02.2022
3327 Clouds -2 1018 93 10000 2.84 23 14:51 04.02.2022
3328 Clouds 2 1011 97 786 1.86 208 12:43 04.02.2022
3329 Clouds 3 1010 93 1828 2.31 201 11:46 04.02.2022
3330 Clouds 4 1009 93 1086 2.74 199 10:59 04.02.2022
3331 Clouds 4 1009 94 408 2.83 195 10:22 04.02.2022
3332 Rain 4 1010 95 342 2.67 193 08:33 04.02.2022
3333 Rain 2 1012 93 538 0.15 288 04:53 04.02.2022
3334 Snow 0 1013 89 5149 2.46 33 02:38 04.02.2022
3335 Snow 0 1012 89 7557 2.6 29 00:18 04.02.2022
3336 Snow -1 1014 85 10000 2.86 31 22:52 03.02.2022
3337 Clouds -3 1015 83 10000 2.79 27 22:22 03.02.2022
3338 Snow -3 1015 83 10000 2.79 27 21:41 03.02.2022
3339 Snow 0 1013 90 7497 2.86 10 20:22 03.02.2022
3340 Snow 0 1013 90 7497 2.86 10 19:49 03.02.2022
3341 Snow 1 1012 93 3832 1.58 1 19:23 03.02.2022
3342 Rain 2 1010 95 2200 1.29 357 18:24 03.02.2022
3343 Rain 2 1010 97 652 0.53 214 17:26 03.02.2022
3344 Rain 2 1009 98 85 1.08 203 15:44 03.02.2022
3345 Clouds 3 1008 98 84 1.29 179 14:22 03.02.2022
3346 Rain 4 1006 98 99 1.58 230 12:32 03.02.2022
3347 Rain 5 1006 97 110 2.81 201 08:59 03.02.2022
3348 Rain 5 1007 97 135 2.56 201 08:18 03.02.2022
3349 Snow 2 1013 94 459 2.21 34 02:56 03.02.2022
3350 Snow 1 1014 88 10000 1.67 29 00:29 03.02.2022
3351 Clouds 2 1014 93 2641 1.65 63 22:41 02.02.2022
3352 Rain 2 1016 96 912 0.76 171 21:52 02.02.2022
3353 Clouds 2 1016 96 429 1.82 207 21:29 02.02.2022
3354 Clouds 3 1016 95 3639 1.34 158 20:28 02.02.2022
3355 Clouds 3 1016 95 3639 1.34 158 19:49 02.02.2022
3356 Clouds 3 1016 97 559 1.63 182 19:20 02.02.2022
3357 Clouds 2 1017 98 103 1.79 191 18:25 02.02.2022
3358 Clouds 3 1015 95 356 0.36 160 17:23 02.02.2022
3359 Clouds 3 1015 95 356 0.36 160 16:59 02.02.2022
3360 Clouds 3 1016 94 510 0.74 221 16:20 02.02.2022
3361 Clouds 4 1013 86 1337 1.98 225 12:50 02.02.2022
3362 Clouds 5 1013 83 5409 1.56 199 11:51 02.02.2022
3363 Clouds 5 1013 83 5409 1.56 199 11:31 02.02.2022
3364 Clouds 9 1011 50 10000 3.62 199 09:22 02.02.2022
3365 Clouds 9 1013 48 10000 0.68 78 05:29 02.02.2022
3366 Clouds 1 1018 45 10000 4.93 27 22:44 01.02.2022
3367 Clouds 1 1019 44 10000 5.08 28 21:30 01.02.2022
3368 Clear 0 1020 42 10000 5.17 26 19:56 01.02.2022
3369 Clear 0 1021 45 10000 5.59 26 17:38 01.02.2022
3370 Clear -1 1022 47 10000 5.65 23 16:33 01.02.2022
3371 Clear 1 1017 61 10000 2.7 19 13:28 01.02.2022
3372 Clear 5 1011 54 10000 0.64 23 12:28 01.02.2022
3373 Clear 7 1011 43 10000 0.57 27 10:44 01.02.2022
3374 Clouds -5 1028 66 10000 5.45 23 02:30 01.02.2022
3375 Clouds -2 1023 74 10000 4.44 26 23:40 31.01.2022
3376 Snow -1 1022 81 10000 3.95 31 22:48 31.01.2022
3377 Snow -1 1023 82 10000 3.46 35 21:38 31.01.2022
3378 Snow -1 1023 84 8818 3.16 43 20:45 31.01.2022
3379 Snow 0 1022 84 5005 2.48 54 20:26 31.01.2022
3380 Snow 0 1022 86 4039 2.03 69 18:55 31.01.2022
3381 Snow 1 1022 87 4286 2.11 75 18:20 31.01.2022
3382 Clouds -1 1024 78 10000 3.1 38 17:25 31.01.2022
3383 Clouds -1 1023 77 10000 3.11 38 16:26 31.01.2022
3384 Clouds -1 1023 81 10000 3.35 34 14:54 31.01.2022
3385 Clouds -1 1022 83 10000 2.54 43 13:51 31.01.2022
3386 Clouds 2 1017 81 10000 1.3 154 12:38 31.01.2022
3387 Clouds 6 1013 66 10000 3.09 199 11:47 31.01.2022
3388 Clouds 7 1012 55 10000 3.34 192 10:50 31.01.2022
3389 Clouds 8 1012 49 10000 3.33 194 09:59 31.01.2022
3390 Clouds 8 1013 46 10000 3.09 198 09:23 31.01.2022
3391 Clouds 8 1013 46 10000 3.09 198 08:47 31.01.2022
3392 Clouds 8 1014 46 10000 2.93 203 08:20 31.01.2022
3393 Clear 7 1016 45 10000 0.68 277 06:18 31.01.2022
3394 Clouds 0 1019 54 10000 4.02 29 00:46 31.01.2022
3395 Clouds 1 1020 57 10000 3.69 26 22:40 30.01.2022
3396 Clouds 1 1020 59 10000 3.81 26 22:22 30.01.2022
3397 Clouds 1 1020 59 10000 3.81 26 21:38 30.01.2022
3398 Clouds 0 1021 59 10000 4 32 21:18 30.01.2022
3399 Clouds 0 1021 59 10000 4 32 20:45 30.01.2022
3400 Clouds 1 1021 60 10000 3.92 38 20:27 30.01.2022
3401 Clouds 1 1021 62 10000 3.79 41 19:24 30.01.2022
3402 Clouds 1 1021 62 10000 3.79 41 18:43 30.01.2022
3403 Clouds 2 1020 64 10000 3.78 39 18:18 30.01.2022
3404 Clouds 3 1019 66 10000 3.68 37 17:22 30.01.2022
3405 Clouds 3 1019 66 10000 3.68 37 16:39 30.01.2022
3406 Clouds 3 1018 69 10000 3.76 36 16:21 30.01.2022
3407 Clouds 3 1018 69 10000 3.76 36 15:50 30.01.2022
3408 Clouds 3 1018 69 10000 3.76 36 15:31 30.01.2022
3409 Clouds 5 1016 72 10000 3.32 34 14:46 30.01.2022
3410 Clouds 6 1014 74 10000 0.57 132 12:47 30.01.2022
3411 Clouds 9 1012 64 10000 1.51 184 11:57 30.01.2022
3412 Clouds 10 1012 55 10000 2 188 10:32 30.01.2022
3413 Clouds 10 1012 49 10000 2.53 196 09:50 30.01.2022
3414 Clear 11 1013 45 10000 2.39 199 08:55 30.01.2022
3415 Clear 10 1015 42 10000 0.82 348 07:28 30.01.2022
3416 Clear -2 1026 46 10000 6.28 25 01:56 30.01.2022
3417 Clear -2 1026 46 10000 6.28 25 01:56 30.01.2022
3418 Clear -2 1028 56 10000 6 24 00:23 30.01.2022
3419 Clear -2 1029 61 10000 5.84 26 23:20 29.01.2022
3420 Clear -2 1029 65 10000 5.52 26 21:50 29.01.2022
3421 Clear -1 1029 68 10000 5.39 26 21:24 29.01.2022
3422 Clear -1 1029 68 10000 5.39 26 20:32 29.01.2022
3423 Clouds -1 1029 70 10000 5.1 25 19:34 29.01.2022
3424 Clouds 0 1029 71 10000 5.08 28 18:52 29.01.2022
3425 Clouds 0 1028 69 10000 5.34 29 18:24 29.01.2022
3426 Clouds 0 1028 69 10000 5.34 29 17:31 29.01.2022
3427 Clouds 1 1026 74 10000 4.74 27 16:25 29.01.2022
3428 Clouds 1 1024 79 10000 4.1 32 14:23 29.01.2022
3429 Clouds 1 1024 79 10000 4.1 32 13:45 29.01.2022
3430 Clouds 3 1020 80 10000 1.57 65 13:24 29.01.2022
3431 Clouds 8 1017 73 10000 2.06 188 11:50 29.01.2022
3432 Clear 9 1016 65 10000 2.89 190 11:24 29.01.2022
3433 Clear 10 1017 59 10000 2.92 195 08:57 29.01.2022
3434 Clear 9 1019 50 10000 1.28 212 06:55 29.01.2022
3435 Clear 1 1025 59 10000 5.33 27 00:36 29.01.2022
3436 Clear 1 1025 58 10000 5.3 28 23:59 28.01.2022
3437 Clear 1 1025 58 10000 5.32 27 22:51 28.01.2022
3438 Clear 1 1026 57 10000 5.21 27 22:22 28.01.2022
3439 Clear 1 1026 57 10000 5.21 27 21:37 28.01.2022
3440 Clear 1 1025 56 10000 5.34 27 20:30 28.01.2022
3441 Clear 1 1026 56 10000 5.31 28 19:42 28.01.2022
3442 Clear 1 1026 56 10000 5.24 27 18:47 28.01.2022
3443 Clear 1 1026 56 10000 5.23 28 17:42 28.01.2022
3444 Clear 2 1024 57 10000 4.98 29 15:21 28.01.2022
3445 Clear 2 1023 60 10000 4.72 27 13:57 28.01.2022
3446 Clear 3 1020 65 10000 3.24 31 12:32 28.01.2022
3447 Clear 8 1016 68 10000 0.6 148 11:36 28.01.2022
3448 Clear 10 1014 44 10000 1.35 197 09:53 28.01.2022
3449 Clear 10 1014 40 10000 0.51 220 08:41 28.01.2022
3450 Clear 10 1015 42 10000 1.29 357 07:36 28.01.2022
3451 Clear 3 1022 46 10000 5.37 24 05:23 28.01.2022
3452 Clear -1 1027 43 10000 6.67 27 03:45 28.01.2022
3453 Clear -4 1029 41 10000 6.97 26 02:22 28.01.2022
3454 Clear -4 1029 41 10000 6.97 26 01:33 28.01.2022
3455 Clear -5 1029 44 10000 6.85 26 23:30 27.01.2022
3456 Clear -5 1030 47 10000 6.63 26 21:49 27.01.2022
3457 Clear -5 1030 49 10000 6.25 26 21:29 27.01.2022
3458 Clear -5 1030 49 10000 6.25 26 20:44 27.01.2022
3459 Clear -5 1030 52 10000 5.99 26 19:21 27.01.2022
3460 Clear -5 1030 55 10000 5.73 26 17:56 27.01.2022
3461 Clouds -4 1029 65 10000 4.98 27 15:18 27.01.2022
3462 Clouds -3 1027 70 10000 4.46 31 13:37 27.01.2022
3463 Clouds -1 1022 76 10000 2.31 46 12:45 27.01.2022
3464 Clouds 4 1016 56 10000 2.06 185 10:24 27.01.2022
3465 Clouds 4 1016 52 10000 2.15 194 08:57 27.01.2022
3466 Clouds 4 1016 52 10000 2.15 194 08:34 27.01.2022
3467 Clear 2 1020 50 10000 1.42 23 05:59 27.01.2022
3468 Clear -7 1030 58 10000 6.06 27 02:57 27.01.2022
3469 Clear -6 1030 63 10000 5.83 27 23:33 26.01.2022
3470 Clear -6 1030 64 10000 5.62 26 22:25 26.01.2022
3471 Clear -6 1030 64 10000 5.62 26 21:36 26.01.2022
3472 Clear -6 1030 64 10000 5.51 28 20:41 26.01.2022
3473 Clear -6 1030 64 10000 5.33 28 20:22 26.01.2022
3474 Clouds -6 1030 64 10000 5.16 28 19:23 26.01.2022
3475 Clouds -6 1030 64 10000 5.16 28 18:45 26.01.2022
3476 Clouds -5 1029 65 10000 5.19 28 17:51 26.01.2022
3477 Clouds -5 1029 69 10000 5.07 26 17:23 26.01.2022
3478 Clouds -5 1029 69 10000 5.07 26 16:33 26.01.2022
3479 Clouds -5 1028 76 10000 4.85 25 15:49 26.01.2022
3480 Clouds -3 1025 93 9747 3.55 36 14:20 26.01.2022
3481 Clouds 3 1016 89 9228 2.35 187 11:52 26.01.2022
3482 Clouds 4 1015 82 5818 3.29 188 10:28 26.01.2022
3483 Clouds 4 1015 82 5818 3.29 188 09:48 26.01.2022
3484 Clouds 4 1015 75 5048 2.79 198 08:27 26.01.2022
3485 Clouds -2 1023 74 10000 3.41 30 04:24 26.01.2022
3486 Snow -1 1020 86 5033 2.91 15 23:58 25.01.2022
3487 Snow -1 1021 84 1675 2.91 12 23:20 25.01.2022
3488 Snow -1 1021 81 1576 2.71 10 22:26 25.01.2022
3489 Snow -1 1021 81 1576 2.71 10 21:59 25.01.2022
3490 Snow -1 1022 78 1938 2.86 13 20:59 25.01.2022
3491 Snow -1 1022 78 1938 2.86 13 20:40 25.01.2022
3492 Clouds -2 1024 75 2565 3.43 17 19:53 25.01.2022
3493 Snow -1 1024 76 2216 3.59 19 18:38 25.01.2022
3494 Snow -3 1025 70 10000 3.98 22 17:45 25.01.2022
3495 Snow -4 1027 71 10000 4.29 26 16:47 25.01.2022
3496 Snow -3 1026 74 10000 4.37 31 16:21 25.01.2022
3497 Clouds -3 1026 74 10000 4.37 31 15:38 25.01.2022
3498 Clouds -3 1025 79 10000 4.18 33 14:58 25.01.2022
3499 Clouds -3 1023 86 10000 3.82 34 13:46 25.01.2022
3500 Clouds 4 1013 68 10000 2.66 190 10:58 25.01.2022
3501 Clouds 5 1013 64 10000 3 198 08:38 25.01.2022
3502 Clouds 5 1014 61 10000 2.74 205 07:30 25.01.2022
3503 Clear 4 1015 55 10000 0.84 237 06:50 25.01.2022
3504 Clear 0 1021 64 10000 3.8 27 05:22 25.01.2022
3505 Clouds -5 1027 72 10000 5.59 26 23:37 24.01.2022
3506 Clouds -5 1027 73 10000 5.39 25 23:19 24.01.2022
3507 Clouds -5 1027 73 10000 5.39 25 22:59 24.01.2022
3508 Clouds -5 1027 73 10000 5.39 25 22:41 24.01.2022
3509 Clouds -5 1027 73 10000 5.37 25 21:55 24.01.2022
3510 Clouds -4 1027 74 10000 5.17 25 21:29 24.01.2022
3511 Clouds -4 1027 74 10000 5.17 25 20:33 24.01.2022
3512 Clouds -4 1027 74 10000 5.29 26 19:52 24.01.2022
3513 Clouds -4 1027 74 10000 5.29 26 19:30 24.01.2022
3514 Clouds -4 1027 74 10000 5.24 25 18:19 24.01.2022
3515 Clouds -3 1026 76 10000 4.88 25 17:24 24.01.2022
3516 Clouds -3 1026 76 10000 4.88 25 16:55 24.01.2022
3517 Clouds -2 1024 81 10000 4.13 28 16:21 24.01.2022
3518 Clouds -1 1021 89 10000 3.11 30 14:44 24.01.2022
3519 Clouds 2 1015 99 789 0.57 179 13:26 24.01.2022
3520 Clouds 2 1015 95 561 0.89 200 12:30 24.01.2022
3521 Clouds 4 1012 95 412 2.65 200 10:46 24.01.2022
3522 Clouds 5 1011 92 577 2.84 206 09:49 24.01.2022
3523 Clouds 5 1012 90 1720 3.17 210 08:54 24.01.2022
3524 Clouds 5 1014 95 466 2.87 198 07:19 24.01.2022
3525 Clouds 5 1014 95 671 2.48 190 07:19 24.01.2022
3526 Snow 0 1016 93 1810 2.13 4 01:32 24.01.2022
3527 Snow 1 1014 95 394 1.73 54 00:45 24.01.2022
3528 Snow 1 1014 94 1948 1.64 63 00:26 24.01.2022
3529 Snow 0 1016 93 6286 2.01 26 22:43 23.01.2022
3530 Clouds 2 1014 96 2691 0.2 357 21:50 23.01.2022
3531 Clouds 2 1014 97 105 0.55 216 21:26 23.01.2022
3532 Clouds 2 1014 97 105 0.55 216 20:54 23.01.2022
3533 Clouds 2 1014 97 102 0.43 196 19:55 23.01.2022
3534 Snow 2 1015 97 101 0.3 40 18:52 23.01.2022
3535 Clouds 2 1015 95 735 1.05 30 17:52 23.01.2022
3536 Snow 1 1016 97 737 0.84 16 16:48 23.01.2022
3537 Clouds 3 1013 98 104 2.06 222 15:18 23.01.2022
3538 Rain 3 1013 98 104 2.06 222 14:32 23.01.2022
3539 Rain 4 1010 98 74 2.33 193 13:27 23.01.2022
3540 Rain 4 1011 98 97 2.3 210 12:36 23.01.2022
3541 Rain 4 1009 98 100 2.56 209 12:18 23.01.2022
3542 Rain 5 1009 98 68 2.95 198 11:24 23.01.2022
3543 Rain 5 1009 98 68 2.95 198 10:57 23.01.2022
3544 Rain 5 1008 99 55 3.71 190 10:21 23.01.2022
3545 Clouds 5 1008 98 60 3.68 194 09:22 23.01.2022
3546 Clouds 5 1010 97 102 2.68 203 05:59 23.01.2022
3547 Clouds 3 1009 97 111 0.62 253 02:25 23.01.2022
3548 Clouds 3 1009 97 111 0.62 253 01:35 23.01.2022
3549 Rain 2 1010 93 2632 1.89 52 00:41 23.01.2022
3550 Rain 3 1009 92 7170 1.79 33 23:57 22.01.2022
3551 Clouds 3 1010 95 1676 1.16 49 22:48 22.01.2022
3552 Clouds 2 1010 96 217 0.88 50 21:58 22.01.2022
3553 Clouds 3 1010 97 262 0.98 279 20:26 22.01.2022
3554 Clouds 3 1010 97 262 0.98 279 19:34 22.01.2022
3555 Rain 3 1011 96 548 0.59 302 18:36 22.01.2022
3556 Clouds 3 1011 97 459 0.3 265 17:42 22.01.2022
3557 Rain 3 1010 95 1837 0.57 349 17:18 22.01.2022
3558 Clouds 3 1010 97 409 0.52 142 16:22 22.01.2022
3559 Clouds 3 1010 97 409 0.52 142 15:44 22.01.2022
3560 Clouds 2 1009 96 238 1.09 56 14:22 22.01.2022
3561 Clouds 2 1008 90 4205 0.55 86 13:28 22.01.2022
3562 Clouds 2 1008 90 4205 0.55 86 12:37 22.01.2022
3563 Clouds 4 1007 91 966 0.24 339 12:18 22.01.2022
3564 Clouds 4 1008 89 2420 0.49 22 10:39 22.01.2022
3565 Clouds 5 1008 88 848 1.87 199 10:20 22.01.2022
3566 Clouds 5 1007 75 3016 2.16 209 08:55 22.01.2022
3567 Clouds 5 1007 75 3016 2.16 209 08:31 22.01.2022
3568 Clouds 6 1009 54 10000 1.74 200 06:46 22.01.2022
3569 Clouds -1 1019 69 10000 5.03 26 02:39 22.01.2022
3570 Clouds -1 1018 76 10000 3.72 38 23:50 21.01.2022
3571 Clouds -1 1017 79 10000 3.68 26 23:20 21.01.2022
3572 Snow 1 1016 87 9908 3 26 21:34 21.01.2022
3573 Snow 0 1019 87 1572 2.66 46 19:35 21.01.2022
3574 Snow 0 1020 84 6225 3.16 34 17:51 21.01.2022
3575 Snow 0 1020 88 2419 3.14 33 15:56 21.01.2022
3576 Snow 0 1020 89 1736 3.15 32 15:23 21.01.2022
3577 Rain 1 1017 89 3447 1.55 68 12:48 21.01.2022
3578 Clouds 6 1012 66 10000 2.27 193 11:29 21.01.2022
3579 Clouds 6 1012 66 10000 2.27 193 10:47 21.01.2022
3580 Clouds 6 1013 68 10000 2.83 202 09:24 21.01.2022
3581 Clouds 6 1014 69 10000 2.68 204 08:20 21.01.2022
3582 Clouds -2 1021 71 10000 4.7 26 01:55 21.01.2022
3583 Clouds -2 1022 72 10000 4.57 26 22:52 20.01.2022
3584 Clouds -2 1022 72 10000 4.52 28 21:49 20.01.2022
3585 Clouds -2 1022 72 10000 4.58 27 21:27 20.01.2022
3586 Clouds -1 1022 72 10000 4.6 30 19:55 20.01.2022
3587 Clouds -1 1022 73 10000 4.37 28 19:18 20.01.2022
3588 Clouds -1 1021 73 10000 4.6 28 17:37 20.01.2022
3589 Clouds -1 1021 76 10000 4.34 28 16:32 20.01.2022
3590 Clouds 0 1019 82 10000 3.77 34 15:32 20.01.2022
3591 Clouds 2 1016 90 10000 2.44 46 14:37 20.01.2022
3592 Clouds 4 1011 97 817 1.5 181 13:18 20.01.2022
3593 Clouds 4 1011 96 1569 1.37 171 12:30 20.01.2022
3594 Clouds 6 1010 92 841 2.66 196 11:20 20.01.2022
3595 Clouds 7 1010 91 732 2.82 196 10:19 20.01.2022
3596 Clouds 7 1010 90 671 2.88 201 09:18 20.01.2022
3597 Clouds 7 1012 83 3407 2.38 200 07:24 20.01.2022
3598 Snow 2 1016 77 4731 2.97 23 00:41 20.01.2022
3599 Snow 2 1016 76 9577 2.8 22 22:40 19.01.2022
3600 Clouds 1 1018 75 10000 3.06 21 21:41 19.01.2022
3601 Clouds 1 1019 73 10000 3.48 23 21:21 19.01.2022
3602 Snow 1 1019 73 10000 3.48 23 20:45 19.01.2022
3603 Clouds 1 1020 72 10000 4.03 27 19:26 19.01.2022
3604 Clouds 1 1021 70 10000 3.97 27 17:51 19.01.2022
3605 Snow 1 1021 71 10000 3.72 26 17:28 19.01.2022
3606 Clouds 1 1021 71 10000 3.62 29 15:36 19.01.2022
3607 Clouds 2 1019 74 10000 3.71 32 13:38 19.01.2022
3608 Clouds 6 1015 75 4152 0.71 107 12:24 19.01.2022
3609 Clouds 6 1015 75 4152 0.71 107 11:38 19.01.2022
3610 Clouds 8 1015 61 10000 2.31 193 10:19 19.01.2022
3611 Clouds 8 1015 61 10000 2.31 193 09:33 19.01.2022
3612 Clouds 10 1016 48 10000 2.57 212 06:34 19.01.2022
3613 Clouds 3 1022 50 10000 5.09 28 01:40 19.01.2022
3614 Clouds 0 1027 55 10000 5.75 28 23:18 18.01.2022
3615 Clear 0 1028 55 10000 5.91 27 21:56 18.01.2022
3616 Clear 0 1028 56 10000 5.74 27 20:47 18.01.2022
3617 Clear 0 1028 57 10000 5.57 25 19:54 18.01.2022
3618 Clear 0 1028 59 10000 5.68 25 19:35 18.01.2022
3619 Clear 0 1028 62 10000 5.76 24 18:36 18.01.2022
3620 Clear 0 1029 63 10000 5.66 26 17:51 18.01.2022
3621 Clear 0 1029 64 10000 5.42 28 16:35 18.01.2022
3622 Clouds 0 1027 67 10000 5.43 28 15:39 18.01.2022
3623 Clouds 1 1027 69 10000 5.14 27 15:19 18.01.2022
3624 Clouds 7 1017 79 10000 0.77 153 11:53 18.01.2022
3625 Clouds 9 1017 70 10000 1.51 192 10:43 18.01.2022
3626 Clouds 10 1017 62 10000 1.74 207 08:49 18.01.2022
3627 Clouds 10 1018 59 10000 1.2 226 07:46 18.01.2022
3628 Clouds 1 1028 67 10000 4.91 25 02:31 18.01.2022
3629 Clouds 2 1027 73 10000 4.64 25 23:22 17.01.2022
3630 Clouds 2 1027 76 10000 4.08 25 22:19 17.01.2022
3631 Clouds 2 1027 76 10000 4.08 25 21:32 17.01.2022
3632 Clouds 3 1026 82 10000 3.34 17 19:56 17.01.2022
3633 Clouds 4 1025 91 4962 2.09 27 18:29 17.01.2022
3634 Clouds 5 1024 92 5051 1.45 53 17:24 17.01.2022
3635 Clouds 6 1024 94 4272 0.65 89 16:27 17.01.2022
3636 Clouds 6 1023 95 1340 0.69 169 14:59 17.01.2022
3637 Clouds 6 1023 95 1340 0.69 169 14:33 17.01.2022
3638 Clouds 7 1021 95 934 1.34 173 13:20 17.01.2022
3639 Clouds 7 1021 95 934 1.34 173 12:55 17.01.2022
3640 Clouds 8 1021 91 2915 0.99 173 11:48 17.01.2022
3641 Clouds 9 1020 78 10000 1.09 198 10:21 17.01.2022
3642 Clouds 9 1020 78 10000 1.09 198 10:21 17.01.2022
3643 Clouds 9 1020 78 10000 1.09 198 09:33 17.01.2022
3644 Clouds 12 1020 67 10000 0.85 222 07:22 17.01.2022
3645 Clouds 4 1026 59 10000 4.86 28 02:54 17.01.2022
3646 Clouds 3 1027 58 10000 5.59 28 00:54 17.01.2022
3647 Clouds 4 1027 58 10000 5.49 29 22:18 16.01.2022
3648 Clouds 3 1028 58 10000 5.67 28 20:34 16.01.2022
3649 Clouds 3 1029 62 10000 5.48 27 18:51 16.01.2022
3650 Clouds 3 1029 61 10000 5.41 26 17:57 16.01.2022
3651 Clouds 3 1028 64 10000 5.03 22 16:59 16.01.2022
3652 Clouds 4 1027 66 10000 5.42 28 16:29 16.01.2022
3653 Clouds 4 1026 67 10000 4.79 30 14:30 16.01.2022
3654 Clouds 4 1026 67 10000 4.79 30 14:30 16.01.2022
3655 Clouds 5 1025 71 10000 4.41 31 13:33 16.01.2022
3656 Clouds 9 1020 72 10000 0.59 199 12:26 16.01.2022
3657 Clouds 9 1020 72 10000 0.59 199 11:38 16.01.2022
3658 Clouds 11 1019 64 10000 1.16 220 10:46 16.01.2022
3659 Clouds 11 1019 56 10000 0.87 184 09:59 16.01.2022
3660 Clouds 11 1019 56 10000 0.87 184 09:40 16.01.2022
3661 Clouds 11 1020 57 10000 1.1 218 09:21 16.01.2022
3662 Clouds 11 1022 51 10000 1.26 21 07:23 16.01.2022
3663 Clouds 1 1029 44 10000 6.44 27 00:36 16.01.2022
3664 Clouds 1 1029 45 10000 6.39 26 23:22 15.01.2022
3665 Clouds 2 1028 50 10000 5.39 29 21:23 15.01.2022
3666 Clouds 2 1028 50 10000 5.39 29 20:48 15.01.2022
3667 Clouds 2 1029 51 10000 5.45 28 20:29 15.01.2022
3668 Clouds 1 1030 51 10000 5.53 28 19:27 15.01.2022
3669 Clouds 0 1032 50 10000 5.85 29 18:23 15.01.2022
3670 Clouds 0 1032 51 10000 5.79 26 16:49 15.01.2022
3671 Clouds -1 1032 53 10000 5.65 27 14:48 15.01.2022
3672 Clear 1 1027 58 10000 4.23 26 13:29 15.01.2022
3673 Clear 6 1021 62 10000 0.78 65 11:32 15.01.2022
3674 Clear 9 1019 41 10000 0.06 49 09:46 15.01.2022
3675 Clear 2 1028 50 10000 4.84 25 05:18 15.01.2022
3676 Clear -4 1033 45 10000 6.74 27 23:32 14.01.2022
3677 Clear -4 1034 48 10000 6.55 28 21:19 14.01.2022
3678 Clear -4 1034 48 10000 6.55 28 20:37 14.01.2022
3679 Clear -4 1034 50 10000 6.3 27 19:55 14.01.2022
3680 Clear -4 1034 53 10000 6.26 27 18:42 14.01.2022
3681 Clear -4 1034 56 10000 6.29 27 17:39 14.01.2022
3682 Clear -4 1034 58 10000 6.17 27 16:43 14.01.2022
3683 Clear -3 1033 61 10000 5.91 27 15:33 14.01.2022
3684 Clear -3 1031 67 10000 5.1 27 14:28 14.01.2022
3685 Clouds -1 1027 71 10000 3.45 30 12:58 14.01.2022
3686 Clouds 4 1019 69 10000 0.83 161 11:53 14.01.2022
3687 Clouds 6 1018 57 10000 1.78 193 10:40 14.01.2022
3688 Clouds 7 1018 41 10000 1.69 214 08:53 14.01.2022
3689 Clouds 7 1019 39 10000 1.06 252 07:32 14.01.2022
3690 Clear -4 1032 49 10000 6.15 27 02:28 14.01.2022
3691 Clear -4 1031 50 10000 6.04 26 00:33 14.01.2022
3692 Clear -4 1031 54 10000 5.67 25 21:52 13.01.2022
3693 Clear -3 1031 55 10000 5.62 26 21:29 13.01.2022
3694 Clear -3 1031 56 10000 5.61 26 19:58 13.01.2022
3695 Clear -3 1032 59 10000 5.52 26 19:29 13.01.2022
3696 Clear -3 1032 59 10000 5.52 26 18:49 13.01.2022
3697 Clear -3 1031 62 10000 5.31 27 16:57 13.01.2022
3698 Clear -3 1030 66 10000 5.17 27 15:45 13.01.2022
3699 Clear -2 1029 71 10000 4.99 28 15:26 13.01.2022
3700 Clear -2 1028 76 10000 4.59 29 13:36 13.01.2022
3701 Clouds 4 1018 76 10000 1.33 166 11:38 13.01.2022
3702 Clear 7 1017 53 10000 2.6 198 09:24 13.01.2022
3703 Clear 7 1017 53 10000 2.6 198 08:52 13.01.2022
3704 Clear 7 1018 50 10000 2.26 205 08:18 13.01.2022
3705 Clouds 6 1019 44 10000 1.13 217 07:20 13.01.2022
3706 Clouds 3 1023 58 10000 2.69 30 05:21 13.01.2022
3707 Clouds 3 1023 58 10000 2.69 30 04:55 13.01.2022
3708 Clouds 0 1024 56 10000 4.15 27 01:41 13.01.2022
3709 Clouds 1 1023 60 10000 4.01 25 23:54 12.01.2022
3710 Clouds 1 1023 60 10000 4.01 25 23:34 12.01.2022
3711 Clouds 1 1024 61 10000 4.05 26 22:49 12.01.2022
3712 Clouds 1 1025 61 10000 4.4 26 21:54 12.01.2022
3713 Clouds 0 1026 61 10000 4.72 29 21:21 12.01.2022
3714 Clouds 0 1026 61 10000 4.72 29 20:53 12.01.2022
3715 Clouds -1 1029 61 10000 5.01 27 19:24 12.01.2022
3716 Clouds -1 1029 61 10000 5.05 27 18:28 12.01.2022
3717 Clouds -1 1029 61 10000 5.19 27 16:59 12.01.2022
3718 Clouds -1 1029 62 10000 5.23 29 15:53 12.01.2022
3719 Clouds -1 1028 64 10000 5.07 27 14:46 12.01.2022
3720 Clouds 0 1024 73 10000 3.53 36 12:58 12.01.2022
3721 Clouds 0 1024 73 10000 3.53 36 12:58 12.01.2022
3722 Clouds 7 1016 50 10000 1.74 195 09:59 12.01.2022
3723 Clouds 7 1017 45 10000 0.93 214 08:34 12.01.2022
3724 Clouds 7 1018 46 10000 0.45 308 07:34 12.01.2022
3725 Clear 5 1022 55 10000 2.72 14 06:21 12.01.2022
3726 Clear -4 1030 52 10000 6.26 26 23:30 11.01.2022
3727 Clear -4 1031 53 10000 6.3 26 22:41 11.01.2022
3728 Clear -4 1031 54 10000 6.2 26 22:21 11.01.2022
3729 Clear -4 1031 54 10000 6.11 26 20:51 11.01.2022
3730 Clear -4 1031 54 10000 6.19 26 19:45 11.01.2022
3731 Clouds -4 1032 52 10000 6.26 26 18:31 11.01.2022
3732 Clouds -4 1032 55 10000 6.19 27 17:19 11.01.2022
3733 Clouds -4 1032 55 10000 6.19 27 16:37 11.01.2022
3734 Clouds -3 1031 56 10000 6.09 27 15:34 11.01.2022
3735 Clouds -3 1031 57 10000 5.91 27 14:41 11.01.2022
3736 Clouds -3 1030 59 10000 5.55 26 13:54 11.01.2022
3737 Clouds -3 1030 59 10000 5.55 26 13:32 11.01.2022
3738 Clear -1 1027 62 10000 4.24 27 12:41 11.01.2022
3739 Clear 7 1018 58 10000 0.88 188 10:59 11.01.2022
3740 Clear 7 1019 42 10000 1.23 220 08:58 11.01.2022
3741 Clear 5 1022 53 10000 1.95 7 06:36 11.01.2022
3742 Clear -5 1035 59 10000 6.57 27 00:30 11.01.2022
3743 Clear -5 1034 61 10000 6.48 26 23:41 10.01.2022
3744 Clear -5 1034 62 10000 6.34 26 22:51 10.01.2022
3745 Clear -5 1034 62 10000 6.34 26 22:51 10.01.2022
3746 Clear -4 1034 63 10000 6.11 26 22:18 10.01.2022
3747 Clear -4 1034 63 10000 6.11 26 21:52 10.01.2022
3748 Clear -4 1034 64 10000 5.89 26 21:19 10.01.2022
3749 Clear -4 1034 64 10000 5.89 26 20:56 10.01.2022
3750 Clear -4 1034 65 10000 5.67 27 20:27 10.01.2022
3751 Clear -4 1034 65 10000 5.67 27 19:41 10.01.2022
3752 Clouds -3 1031 72 10000 4.89 29 19:20 10.01.2022
3753 Clouds -3 1031 72 10000 4.89 29 18:48 10.01.2022
3754 Clouds -2 1031 74 10000 4.64 29 17:40 10.01.2022
3755 Clouds -2 1029 77 10000 4.37 24 16:41 10.01.2022
3756 Snow 0 1026 79 8828 2.95 12 15:20 10.01.2022
3757 Snow 0 1025 81 8734 2.75 8 14:26 10.01.2022
3758 Clouds 4 1019 85 3528 1.2 229 11:58 10.01.2022
3759 Clouds 5 1018 78 4894 1.81 221 11:25 10.01.2022
3760 Clouds 5 1018 79 1228 3.17 224 09:48 10.01.2022
3761 Clouds 4 1020 94 2821 1.88 247 06:47 10.01.2022
3762 Clouds 4 1020 95 123 1.86 172 05:49 10.01.2022
3763 Clouds 2 1018 88 4698 1.81 54 01:30 10.01.2022
3764 Rain 3 1017 93 2101 2.06 45 00:24 10.01.2022
3765 Rain 3 1017 93 2101 2.06 45 23:33 09.01.2022
3766 Rain 2 1018 91 2328 1.79 28 22:37 09.01.2022
3767 Rain 3 1017 91 7143 2.06 27 21:46 09.01.2022
3768 Clouds 3 1018 92 5073 1.16 73 21:23 09.01.2022
3769 Clouds 3 1018 92 5073 1.16 73 20:51 09.01.2022
3770 Rain 3 1018 92 5073 1.16 73 20:33 09.01.2022
3771 Rain 4 1017 92 7657 0.95 25 19:44 09.01.2022
3772 Rain 4 1018 95 2286 1 163 19:23 09.01.2022
3773 Rain 3 1018 91 3152 1.62 86 18:56 09.01.2022
3774 Rain 3 1018 91 3152 1.62 86 18:34 09.01.2022
3775 Rain 4 1018 90 5448 2.13 55 17:40 09.01.2022
3776 Rain 3 1018 91 7146 1.61 65 17:20 09.01.2022
3777 Clouds 3 1018 93 5034 1.05 60 15:59 09.01.2022
3778 Clouds 3 1018 93 5034 1.05 60 15:36 09.01.2022
3779 Clouds 4 1017 96 4458 0.17 68 14:41 09.01.2022
3780 Clouds 3 1017 98 1914 0.48 236 13:51 09.01.2022
3781 Clouds 4 1015 99 577 1.39 213 13:25 09.01.2022
3782 Clouds 6 1014 98 274 2.51 217 11:55 09.01.2022
3783 Clouds 7 1014 92 436 2.76 201 11:19 09.01.2022
3784 Rain 7 1014 89 1291 2.33 199 09:51 09.01.2022
3785 Clouds 7 1015 91 1742 1.84 208 08:54 09.01.2022
3786 Clouds 5 1017 97 201 2.29 194 05:54 09.01.2022
3787 Clouds 4 1016 93 5033 1.14 86 01:25 09.01.2022
3788 Clouds 4 1016 90 7564 1.76 42 00:37 09.01.2022
3789 Clouds 4 1017 95 2170 1.34 146 23:27 08.01.2022
3790 Clouds 4 1017 95 2170 1.34 146 22:35 08.01.2022
3791 Clouds 4 1018 92 2693 1.52 58 21:26 08.01.2022
3792 Clouds 4 1018 92 2693 1.52 58 20:43 08.01.2022
3793 Clouds 5 1019 94 2078 1.65 132 20:21 08.01.2022
3794 Rain 5 1019 91 8203 1 99 18:46 08.01.2022
3795 Clouds 4 1019 96 473 1.53 101 17:24 08.01.2022
3796 Rain 4 1019 96 473 1.53 101 16:40 08.01.2022
3797 Rain 5 1018 94 4358 1.27 90 14:50 08.01.2022
3798 Rain 5 1018 95 1589 1.07 172 13:56 08.01.2022
3799 Clouds 7 1017 91 4662 1.91 204 11:30 08.01.2022
3800 Clouds 7 1017 90 4392 2.76 182 10:33 08.01.2022
3801 Clouds 7 1017 90 5095 2.16 163 09:57 08.01.2022
3802 Clouds 7 1017 90 5095 2.16 163 09:30 08.01.2022
3803 Clouds 6 1021 81 3876 2.26 33 05:39 08.01.2022
3804 Rain 4 1019 77 5341 4.33 27 00:59 08.01.2022
3805 Clouds 4 1019 77 10000 3.66 26 23:30 07.01.2022
3806 Clouds 4 1023 82 8712 2.92 34 21:46 07.01.2022
3807 Clouds 4 1023 81 5292 2.27 27 20:23 07.01.2022
3808 Clouds 4 1023 80 8727 2.93 29 19:26 07.01.2022
3809 Clouds 4 1022 75 10000 3.1 28 18:46 07.01.2022
3810 Clouds 4 1023 76 10000 3.35 29 18:18 07.01.2022
3811 Clouds 3 1025 78 10000 2.99 33 17:23 07.01.2022
3812 Clouds 4 1023 87 6375 1.69 50 14:55 07.01.2022
3813 Clouds 4 1023 87 3825 1.71 26 13:52 07.01.2022
3814 Clouds 5 1021 87 5302 1.24 2 12:51 07.01.2022
3815 Clouds 7 1018 71 8642 1.31 197 10:21 07.01.2022
3816 Clouds -1 1030 69 10000 5.66 27 02:59 07.01.2022
3817 Clouds -1 1030 69 10000 5.66 27 02:59 07.01.2022
3818 Clouds -2 1030 67 10000 5.47 26 02:22 07.01.2022
3819 Clouds -2 1030 67 10000 5.47 26 01:48 07.01.2022
3820 Clouds -3 1031 67 10000 5.5 28 01:25 07.01.2022
3821 Clouds -2 1030 68 10000 5.79 27 00:30 07.01.2022
3822 Clouds -2 1030 68 10000 5.67 27 22:33 06.01.2022
3823 Clear -2 1030 68 10000 5.48 28 20:43 06.01.2022
3824 Clear -2 1029 68 10000 5.48 30 19:58 06.01.2022
3825 Clear -2 1029 68 10000 5.48 30 19:36 06.01.2022
3826 Clouds -1 1029 69 10000 5.67 29 17:51 06.01.2022
3827 Clouds -1 1029 73 10000 5.46 27 17:21 06.01.2022
3828 Clouds -1 1029 73 10000 5.46 27 16:32 06.01.2022
3829 Clouds 0 1028 75 10000 5.07 26 15:44 06.01.2022
3830 Clouds 1 1026 80 10000 4.35 26 15:21 06.01.2022
3831 Clouds 3 1022 89 10000 2.87 29 14:20 06.01.2022
3832 Clouds 3 1022 89 10000 2.87 29 13:33 06.01.2022
3833 Clouds 6 1017 95 2148 0.18 196 12:20 06.01.2022
3834 Rain 6 1017 95 2148 0.18 196 11:30 06.01.2022
3835 Clouds 7 1017 93 1718 1.66 199 10:50 06.01.2022
3836 Clouds 7 1019 85 10000 1.38 186 06:38 06.01.2022
3837 Rain 5 1018 98 92 0.78 261 00:34 06.01.2022
3838 Clouds 5 1018 99 201 1.61 227 23:33 05.01.2022
3839 Rain 5 1017 98 72 1.86 222 22:48 05.01.2022
3840 Clouds 5 1017 99 81 1.4 199 22:26 05.01.2022
3841 Clouds 5 1017 99 378 2.82 180 21:28 05.01.2022
3842 Rain 5 1017 99 378 2.82 180 20:44 05.01.2022
3843 Clouds 6 1016 98 129 2.94 188 19:42 05.01.2022
3844 Rain 5 1016 98 61 2.8 196 18:22 05.01.2022
3845 Clouds 5 1015 98 64 2.38 211 16:57 05.01.2022
3846 Rain 5 1016 98 124 1.93 197 16:19 05.01.2022
3847 Rain 5 1016 98 68 1.78 175 15:20 05.01.2022
3848 Clouds 6 1016 98 78 2.82 204 13:35 05.01.2022
3849 Rain 6 1014 98 90 1.85 198 12:30 05.01.2022
3850 Rain 7 1015 98 79 2.32 195 08:47 05.01.2022
3851 Rain 7 1017 99 49 3.35 202 07:19 05.01.2022
3852 Rain 6 1019 98 451 0.84 160 01:58 05.01.2022
3853 Rain 6 1019 97 1377 0.69 261 23:44 04.01.2022
3854 Rain 6 1020 97 962 0.69 230 23:26 04.01.2022
3855 Rain 5 1021 96 1495 0.2 312 22:19 04.01.2022
3856 Clouds 6 1020 96 4537 0.55 112 20:46 04.01.2022
3857 Clouds 6 1021 97 444 0.38 229 18:44 04.01.2022
3858 Clouds 6 1022 97 289 0.57 93 17:34 04.01.2022
3859 Rain 5 1022 97 378 0.27 281 16:39 04.01.2022
3860 Rain 5 1020 96 534 0.93 45 16:20 04.01.2022
3861 Rain 4 1022 96 252 1.62 35 14:46 04.01.2022
3862 Clouds 3 1021 89 4997 2.63 44 14:23 04.01.2022
3863 Clouds 6 1019 98 112 0.58 176 12:37 04.01.2022
3864 Clouds 7 1018 98 64 2.58 198 10:29 04.01.2022
3865 Rain 7 1019 98 68 2.57 193 08:59 04.01.2022
3866 Rain 7 1021 96 321 1.91 190 06:46 04.01.2022
3867 Rain 5 1022 88 2596 1.56 26 00:50 04.01.2022
3868 Clouds 5 1022 88 2596 1.56 26 00:31 04.01.2022
3869 Clouds 5 1023 91 1416 1.97 16 22:41 03.01.2022
3870 Clouds 5 1024 90 1777 1.97 19 21:41 03.01.2022
3871 Clouds 5 1023 88 2770 0.85 40 21:23 03.01.2022
3872 Clouds 5 1024 86 2391 2.01 30 19:46 03.01.2022
3873 Clouds 5 1025 82 2698 1.91 7 18:33 03.01.2022
3874 Clouds 6 1024 72 8706 2.63 29 17:40 03.01.2022
3875 Clouds 6 1024 72 8706 2.63 29 17:40 03.01.2022
3876 Clouds 5 1024 68 10000 2.95 23 16:57 03.01.2022
3877 Clouds 5 1025 64 10000 3.72 23 14:54 03.01.2022
3878 Clouds 4 1025 64 10000 4.03 30 14:29 03.01.2022
3879 Clouds 5 1023 64 10000 2.92 37 12:35 03.01.2022
3880 Clouds 7 1021 62 10000 0.61 172 11:33 03.01.2022
3881 Clouds 10 1019 45 10000 1.36 182 09:49 03.01.2022
3882 Clouds 10 1020 43 10000 1.78 198 08:46 03.01.2022
3883 Clouds 9 1021 41 10000 0.68 211 06:48 03.01.2022
3884 Clouds 0 1029 63 10000 5.13 27 23:54 02.01.2022
3885 Clouds 0 1030 64 10000 4.92 27 23:18 02.01.2022
3886 Clouds 0 1030 64 10000 4.92 27 22:43 02.01.2022
3887 Clouds 1 1030 67 10000 4.99 27 21:38 02.01.2022
3888 Clouds 1 1030 70 10000 4.62 28 20:31 02.01.2022
3889 Clouds 1 1030 74 10000 4.54 30 19:52 02.01.2022
3890 Clouds 1 1030 78 10000 3.88 35 19:25 02.01.2022
3891 Clouds 1 1030 79 10000 3.95 37 18:33 02.01.2022
3892 Clouds 3 1028 84 10000 2.48 48 17:43 02.01.2022
3893 Clouds 4 1027 86 8463 1.56 66 17:21 02.01.2022
3894 Clouds 4 1027 86 8463 1.56 66 16:33 02.01.2022
3895 Clouds 4 1026 87 5882 1.13 99 15:51 02.01.2022
3896 Clouds 3 1025 88 5530 1.01 87 14:19 02.01.2022
3897 Clouds 4 1023 88 5442 1.13 136 12:34 02.01.2022
3898 Clouds 6 1020 83 4941 2.29 185 11:56 02.01.2022
3899 Clouds 7 1020 76 5659 2.69 185 11:20 02.01.2022
3900 Clouds 7 1020 76 5659 2.69 185 10:37 02.01.2022
3901 Clouds 8 1022 77 4989 2.37 203 08:27 02.01.2022
3902 Clouds 4 1026 86 4280 1.47 43 03:22 02.01.2022
3903 Clouds 4 1025 84 5383 1.97 45 23:58 01.01.2022
3904 Clouds 4 1025 84 5383 1.97 45 23:39 01.01.2022
3905 Clouds 4 1026 83 4962 2.03 38 22:45 01.01.2022
3906 Clouds 4 1026 80 7142 2.15 37 22:19 01.01.2022
3907 Clouds 4 1026 80 7142 2.15 37 21:43 01.01.2022
3908 Clouds 4 1026 73 9077 2.25 29 20:52 01.01.2022
3909 Clouds 4 1026 67 10000 2.17 28 19:55 01.01.2022
3910 Clouds 4 1026 64 10000 2.5 31 18:58 01.01.2022
3911 Clouds 5 1026 64 10000 2.78 29 17:57 01.01.2022
3912 Clouds 5 1026 63 10000 3.11 28 16:35 01.01.2022
3913 Clouds 4 1026 63 10000 3.47 30 15:57 01.01.2022
3914 Clouds 4 1027 63 10000 3.87 30 15:22 01.01.2022
3915 Clouds 3 1028 63 10000 4.15 28 13:42 01.01.2022
3916 Clouds 3 1026 64 10000 3.36 33 12:49 01.01.2022
3917 Clouds 6 1022 61 10000 0.74 100 11:51 01.01.2022
3918 Clouds 9 1021 54 10000 1.47 190 11:22 01.01.2022
3919 Clouds 10 1021 43 10000 1.66 195 10:26 01.01.2022
3920 Clouds 10 1021 43 10000 1.66 195 09:41 01.01.2022
3921 Clouds 10 1022 42 10000 0.58 238 08:25 01.01.2022
3922 Clouds 10 1022 42 10000 0.58 238 07:43 01.01.2022
3923 Clouds 9 1024 46 10000 1.51 11 06:47 01.01.2022
3924 Clouds 4 1029 55 10000 4.02 27 05:26 01.01.2022
3925 Clouds 4 1029 55 10000 4.02 27 04:37 01.01.2022
3926 Clouds -1 1033 51 10000 5.82 27 01:28 01.01.2022
3927 Clouds 0 1032 50 10000 5.49 27 23:35 31.12.2021
3928 Clouds 1 1031 53 10000 4.96 26 21:53 31.12.2021
3929 Clouds 1 1031 54 10000 4.91 27 20:37 31.12.2021
3930 Clouds 1 1032 55 10000 5.03 28 19:30 31.12.2021
3931 Clouds 1 1031 55 10000 4.92 26 18:37 31.12.2021
3932 Clouds 1 1032 55 10000 5.39 30 17:40 31.12.2021
3933 Clouds 1 1032 56 10000 5.07 28 17:18 31.12.2021
3934 Clouds 1 1032 57 10000 5.02 24 16:25 31.12.2021
3935 Clouds 1 1032 57 10000 5.02 24 15:57 31.12.2021
3936 Clouds 1 1032 57 10000 5.2 25 15:28 31.12.2021
3937 Clouds 1 1032 57 10000 5.2 25 14:56 31.12.2021
3938 Clouds 1 1032 57 10000 5.2 25 14:30 31.12.2021
3939 Clouds 1 1032 57 10000 4.95 27 13:36 31.12.2021
3940 Clouds 2 1029 57 10000 4.02 26 12:45 31.12.2021
3941 Clouds 5 1024 56 10000 1.14 46 11:52 31.12.2021
3942 Clouds 5 1024 56 10000 1.14 46 11:33 31.12.2021
3943 Clouds 8 1022 50 10000 0.52 161 10:38 31.12.2021
3944 Clear 9 1022 37 10000 1.12 209 10:20 31.12.2021
3945 Clear 9 1022 37 10000 1.12 209 09:33 31.12.2021
3946 Clear 9 1022 34 10000 0.82 218 08:43 31.12.2021
3947 Clear 9 1023 34 10000 0.24 239 07:31 31.12.2021
3948 Clouds -2 1035 43 10000 5.86 28 23:35 30.12.2021
3949 Clouds -2 1036 42 10000 5.79 27 22:38 30.12.2021
3950 Clouds -2 1036 43 10000 5.83 27 22:20 30.12.2021
3951 Clouds -2 1036 43 10000 5.83 27 21:37 30.12.2021
3952 Clouds -2 1036 44 10000 5.82 27 20:48 30.12.2021
3953 Clouds -2 1037 46 10000 5.85 28 20:28 30.12.2021
3954 Clouds -2 1037 46 10000 5.85 28 19:48 30.12.2021
3955 Clouds -2 1037 46 10000 5.81 28 18:51 30.12.2021
3956 Clouds -2 1037 48 10000 5.95 27 18:20 30.12.2021
3957 Clouds -3 1038 50 10000 5.92 27 16:34 30.12.2021
3958 Clouds -2 1037 52 10000 5.68 27 15:52 30.12.2021
3959 Clouds -3 1037 53 10000 5.47 27 14:41 30.12.2021
3960 Clouds -2 1036 55 10000 5.21 26 14:19 30.12.2021
3961 Clouds -1 1033 57 10000 4.12 27 13:23 30.12.2021
3962 Clouds 3 1026 53 10000 0.96 63 11:34 30.12.2021
3963 Clouds 7 1023 37 10000 1.73 198 10:27 30.12.2021
3964 Clouds 7 1024 34 10000 1.86 204 09:27 30.12.2021
3965 Clouds 6 1026 37 10000 1.16 25 06:55 30.12.2021
3966 Clouds 1 1032 47 10000 3.99 27 04:42 30.12.2021
3967 Clouds -3 1036 45 10000 5.36 28 03:40 30.12.2021
3968 Clouds -5 1038 44 10000 6.09 26 01:56 30.12.2021
3969 Clear -5 1037 44 10000 6.12 26 23:36 29.12.2021
3970 Clear -5 1037 47 10000 6.21 27 22:32 29.12.2021
3971 Clear -5 1037 49 10000 6.09 26 21:54 29.12.2021
3972 Clear -5 1037 50 10000 6.11 27 20:56 29.12.2021
3973 Clear -4 1036 50 10000 6.21 26 20:25 29.12.2021
3974 Clear -4 1036 50 10000 6.21 26 19:31 29.12.2021
3975 Clear -4 1036 50 10000 6.22 26 18:35 29.12.2021
3976 Clear -4 1036 51 10000 6.31 26 17:41 29.12.2021
3977 Clear -4 1036 52 10000 6.33 25 17:20 29.12.2021
3978 Clear -4 1036 54 10000 6.24 24 16:19 29.12.2021
3979 Clear -4 1034 56 10000 5.92 26 15:21 29.12.2021
3980 Clouds -2 1029 61 10000 4.06 28 12:57 29.12.2021
3981 Clear -2 1029 60 10000 4.25 26 12:32 29.12.2021
3982 Clouds 5 1019 52 10000 0.06 12 11:22 29.12.2021
3983 Clouds 6 1019 43 10000 0.46 193 09:30 29.12.2021
3984 Clear 5 1020 42 10000 0.19 192 07:30 29.12.2021
3985 Clear 5 1022 43 10000 0.96 355 06:32 29.12.2021
3986 Clear 3 1024 47 10000 2.25 9 05:55 29.12.2021
3987 Clear 0 1027 55 10000 3.72 20 04:58 29.12.2021
3988 Clear -5 1032 56 10000 5.77 27 00:43 29.12.2021
3989 Clear -5 1033 57 10000 5.64 26 23:58 28.12.2021
3990 Clear -5 1033 58 10000 5.7 27 22:57 28.12.2021
3991 Clear -5 1034 59 10000 5.66 26 22:25 28.12.2021
3992 Clear -5 1034 59 10000 5.66 26 22:25 28.12.2021
3993 Clear -5 1034 59 10000 5.66 26 22:25 28.12.2021
3994 Clear -5 1034 59 10000 5.66 26 21:54 28.12.2021
3995 Clear -5 1034 59 10000 5.66 26 21:35 28.12.2021
3996 Clear -5 1034 60 10000 5.46 26 20:25 28.12.2021
3997 Clear -5 1034 58 10000 5.43 26 18:54 28.12.2021
3998 Clear -5 1034 59 10000 5.47 26 18:28 28.12.2021
3999 Clear -5 1034 59 10000 5.47 26 17:39 28.12.2021
4000 Clouds -4 1033 64 10000 5.25 28 16:21 28.12.2021
4001 Clouds -4 1033 64 10000 5.25 28 15:41 28.12.2021
4002 Clouds -4 1032 66 10000 5.01 28 14:56 28.12.2021
4003 Clouds -4 1032 66 10000 5.01 28 14:56 28.12.2021
4004 Clouds -4 1032 66 10000 5.01 28 14:38 28.12.2021
4005 Clouds -4 1032 66 10000 5.01 28 14:38 28.12.2021
4006 Clouds -3 1031 68 10000 4.76 28 14:19 28.12.2021
4007 Clouds -3 1031 68 10000 4.76 28 13:37 28.12.2021
4008 Clouds -2 1028 69 10000 3.27 33 12:56 28.12.2021
4009 Clouds 2 1021 62 10000 0.69 124 12:29 28.12.2021
4010 Clouds 5 1018 52 10000 1.78 187 10:51 28.12.2021
4011 Clouds 6 1020 41 10000 0.95 242 07:39 28.12.2021
4012 Clouds 5 1022 44 10000 1.36 356 06:40 28.12.2021
4013 Clear -5 1035 57 10000 5.89 27 23:42 27.12.2021
4014 Clear -5 1035 58 10000 5.89 26 22:31 27.12.2021
4015 Clear -5 1036 58 10000 5.91 27 21:32 27.12.2021
4016 Clear -5 1036 58 10000 5.74 28 20:45 27.12.2021
4017 Clear -4 1036 59 10000 5.75 26 19:56 27.12.2021
4018 Clear -4 1036 59 10000 5.75 26 19:38 27.12.2021
4019 Clouds -4 1036 62 10000 5.74 27 17:55 27.12.2021
4020 Clouds -4 1036 65 10000 5.48 27 17:29 27.12.2021
4021 Clouds -4 1036 65 10000 5.48 27 16:36 27.12.2021
4022 Clouds -4 1035 69 10000 5.33 27 15:51 27.12.2021
4023 Clouds -3 1033 72 10000 5.1 28 14:30 27.12.2021
4024 Clouds -2 1032 77 10000 4.84 30 13:38 27.12.2021
4025 Clouds 3 1023 74 10000 1.09 129 11:41 27.12.2021
4026 Clouds 6 1020 58 10000 2.21 187 10:28 27.12.2021
4027 Clouds 6 1020 58 10000 2.21 187 09:39 27.12.2021
4028 Clouds 5 1022 54 10000 1.58 203 07:35 27.12.2021
4029 Clouds 5 1023 55 10000 0.43 347 06:38 27.12.2021
4030 Clouds -3 1033 71 10000 4.94 28 01:59 27.12.2021
4031 Clouds -3 1031 74 10000 4.15 25 23:57 26.12.2021
4032 Clouds -3 1031 74 10000 4.15 25 23:34 26.12.2021
4033 Clouds -2 1030 82 10000 3.51 24 21:53 26.12.2021
4034 Clouds -1 1029 87 4027 2.76 24 20:54 26.12.2021
4035 Snow -1 1029 90 2137 2.56 22 19:46 26.12.2021
4036 Clouds 0 1029 90 2256 2.34 22 18:23 26.12.2021
4037 Rain 2 1026 94 640 0.47 64 15:57 26.12.2021
4038 Clouds 2 1024 90 701 0.7 153 14:27 26.12.2021
4039 Clouds 2 1024 90 701 0.7 153 13:40 26.12.2021
4040 Clouds 2 1023 90 819 0.68 199 13:19 26.12.2021
4041 Clouds 2 1024 89 1154 0.78 178 12:32 26.12.2021
4042 Clouds 4 1021 67 5501 2.28 208 10:32 26.12.2021
4043 Clouds 5 1021 53 10000 2.08 191 09:19 26.12.2021
4044 Clouds 5 1021 53 10000 2.08 191 08:43 26.12.2021
4045 Clouds 6 1021 47 10000 2.52 199 07:34 26.12.2021
4046 Clouds -1 1027 53 10000 4.95 29 01:27 26.12.2021
4047 Clouds -1 1029 54 10000 5.13 30 23:54 25.12.2021
4048 Clouds -1 1029 55 10000 5.14 29 23:27 25.12.2021
4049 Clouds -1 1029 57 10000 5.02 28 22:26 25.12.2021
4050 Clouds -1 1030 57 10000 5.31 27 20:59 25.12.2021
4051 Clouds -2 1031 60 10000 5.28 29 19:26 25.12.2021
4052 Clouds -2 1031 60 10000 5.35 29 18:55 25.12.2021
4053 Clouds -2 1031 62 10000 5.2 29 17:37 25.12.2021
4054 Clouds -1 1030 63 10000 5.16 29 16:41 25.12.2021
4055 Clouds 0 1028 64 10000 4.63 31 15:24 25.12.2021
4056 Clouds 0 1027 66 10000 4.2 34 13:31 25.12.2021
4057 Clouds 5 1019 65 10000 0.7 147 11:53 25.12.2021
4058 Clouds 7 1017 47 10000 2.31 191 09:57 25.12.2021
4059 Clouds 7 1017 47 10000 2.31 191 09:37 25.12.2021
4060 Clouds 3 1024 50 10000 3.55 20 04:34 25.12.2021
4061 Clouds -3 1030 54 10000 5.76 24 01:27 25.12.2021
4062 Clouds -3 1031 55 10000 5.94 28 23:47 24.12.2021
4063 Clouds -2 1031 64 10000 5.61 25 19:50 24.12.2021
4064 Clouds -2 1031 67 10000 5.33 26 19:24 24.12.2021
4065 Clouds -2 1031 68 10000 5.16 28 18:23 24.12.2021
4066 Clouds -1 1029 72 10000 4.69 31 16:29 24.12.2021
4067 Clouds -1 1029 72 10000 4.69 31 15:49 24.12.2021
4068 Clouds -1 1028 74 10000 4.51 32 15:20 24.12.2021
4069 Clouds -1 1028 74 10000 4.51 32 14:31 24.12.2021
4070 Clouds 0 1026 76 10000 3.94 35 13:44 24.12.2021
4071 Clouds 1 1023 78 10000 2.34 57 12:55 24.12.2021
4072 Clouds 1 1023 76 10000 2.46 57 12:34 24.12.2021
4073 Clouds 5 1018 68 10000 1.68 159 11:42 24.12.2021
4074 Clouds 8 1016 59 10000 2.59 187 11:19 24.12.2021
4075 Clouds 8 1016 59 10000 2.59 187 10:33 24.12.2021
4076 Clouds 9 1016 51 10000 2.25 191 08:40 24.12.2021
4077 Clouds 8 1017 49 10000 1.69 212 07:58 24.12.2021
4078 Clear 8 1019 49 10000 0.36 313 06:44 24.12.2021
4079 Clouds -1 1028 64 10000 5.77 28 00:21 24.12.2021
4080 Clouds -1 1028 64 10000 5.77 28 23:39 23.12.2021
4081 Clouds -1 1028 65 10000 5.65 28 22:51 23.12.2021
4082 Clouds 0 1027 66 10000 5.45 29 22:24 23.12.2021
4083 Clouds 0 1027 66 10000 5.45 29 21:39 23.12.2021
4084 Clouds 0 1027 67 10000 5.43 28 20:30 23.12.2021
4085 Clouds 0 1028 67 10000 5.06 28 19:28 23.12.2021
4086 Clouds 0 1028 67 10000 5.29 30 18:18 23.12.2021
4087 Clouds 0 1028 67 10000 5.29 30 17:45 23.12.2021
4088 Clouds 2 1026 72 10000 4.74 33 16:27 23.12.2021
4089 Clouds 2 1026 72 10000 4.74 33 15:40 23.12.2021
4090 Clouds 2 1024 75 10000 4.25 37 15:22 23.12.2021
4091 Clouds 2 1024 75 10000 4.25 37 14:40 23.12.2021
4092 Clouds 2 1023 78 10000 3.72 43 13:43 23.12.2021
4093 Clouds 7 1017 76 10000 1.62 181 11:52 23.12.2021
4094 Clouds 9 1016 63 10000 2.73 194 09:53 23.12.2021
4095 Clouds 9 1016 63 10000 2.73 194 09:34 23.12.2021
4096 Clouds 10 1016 60 10000 2.52 194 08:38 23.12.2021
4097 Clouds 9 1019 59 10000 0.35 20 05:43 23.12.2021
4098 Clouds 2 1024 69 10000 4.55 28 02:56 23.12.2021
4099 Clouds 2 1023 66 10000 4.18 29 22:53 22.12.2021
4100 Clouds 3 1022 66 10000 4.25 32 22:22 22.12.2021
4101 Clouds 3 1022 66 10000 4.25 32 21:37 22.12.2021
4102 Clouds 3 1022 63 10000 4.01 32 21:19 22.12.2021
4103 Clouds 3 1022 63 10000 4.01 32 20:40 22.12.2021
4104 Clouds 3 1023 61 10000 4.23 29 19:57 22.12.2021
4105 Clear 2 1025 60 10000 4.84 28 18:56 22.12.2021
4106 Clear 2 1025 60 10000 4.75 30 17:38 22.12.2021
4107 Clear 2 1025 60 10000 4.76 30 16:32 22.12.2021
4108 Clear 2 1024 61 10000 4.72 28 15:21 22.12.2021
4109 Clouds 3 1021 64 10000 3.72 30 12:59 22.12.2021
4110 Clouds 6 1017 62 10000 0.82 73 11:58 22.12.2021
4111 Clouds 10 1015 48 10000 1.65 181 09:53 22.12.2021
4112 Clouds 10 1016 46 10000 2.47 192 08:58 22.12.2021
4113 Clouds 10 1017 43 10000 0.14 83 07:21 22.12.2021
4114 Clear 9 1019 48 10000 1.83 20 05:39 22.12.2021
4115 Clear 6 1021 51 10000 3.33 23 05:20 22.12.2021
4116 Clear 6 1021 51 10000 3.33 23 04:42 22.12.2021
4117 Clouds 2 1025 49 10000 4.92 27 03:56 22.12.2021
4118 Clouds 2 1025 49 10000 4.92 27 03:31 22.12.2021
4119 Clouds 1 1026 51 10000 5.74 27 23:57 21.12.2021
4120 Clouds 1 1026 53 10000 5.62 26 22:44 21.12.2021
4121 Clouds 0 1027 55 10000 5.7 25 22:24 21.12.2021
4122 Clouds 0 1027 55 10000 5.7 25 21:42 21.12.2021
4123 Clouds 0 1028 56 10000 5.87 27 20:44 21.12.2021
4124 Clouds 0 1029 57 10000 5.76 27 20:20 21.12.2021
4125 Clouds 0 1029 57 10000 5.76 27 20:20 21.12.2021
4126 Clouds 0 1029 57 10000 5.76 27 19:40 21.12.2021
4127 Clouds 0 1029 59 10000 5.76 27 18:36 21.12.2021
4128 Clear 0 1029 60 10000 5.69 27 17:59 21.12.2021
4129 Clear 0 1029 60 10000 5.69 27 17:40 21.12.2021
4130 Clear 0 1029 64 10000 5.33 27 15:46 21.12.2021
4131 Clear 1 1027 68 10000 4.77 27 14:29 21.12.2021
4132 Clear 1 1027 68 10000 4.77 27 13:42 21.12.2021
4133 Clouds 2 1024 69 10000 4.02 30 12:39 21.12.2021
4134 Clouds 8 1017 61 10000 1.48 181 10:53 21.12.2021
4135 Clouds 9 1016 50 10000 2.04 198 09:57 21.12.2021
4136 Clouds 10 1017 46 10000 1.06 178 09:18 21.12.2021
4137 Clouds 9 1018 45 10000 1.23 185 07:45 21.12.2021
4138 Clouds 9 1019 48 10000 0.55 212 07:24 21.12.2021
4139 Clouds 6 1022 55 10000 2.72 22 04:37 21.12.2021
4140 Clouds 1 1026 52 10000 5.27 29 02:31 21.12.2021
4141 Clouds 1 1026 52 10000 4.91 29 23:57 20.12.2021
4142 Clouds 1 1026 53 10000 4.89 29 22:48 20.12.2021
4143 Clouds 1 1026 54 10000 4.87 28 22:27 20.12.2021
4144 Clouds 1 1026 55 10000 4.77 29 21:28 20.12.2021
4145 Clouds 1 1026 55 10000 4.77 29 20:57 20.12.2021
4146 Clouds 1 1026 55 10000 4.77 29 20:32 20.12.2021
4147 Clouds 2 1027 56 10000 4.66 29 19:39 20.12.2021
4148 Clouds 2 1027 56 10000 4.61 29 19:20 20.12.2021
4149 Clouds 2 1027 56 10000 4.71 28 18:35 20.12.2021
4150 Clouds 2 1027 55 10000 4.73 29 17:52 20.12.2021
4151 Clouds 2 1026 54 10000 4.66 31 16:53 20.12.2021
4152 Clouds 2 1026 54 10000 4.66 31 16:35 20.12.2021
4153 Clouds 3 1026 55 10000 4.58 27 15:43 20.12.2021
4154 Clouds 3 1025 55 10000 4.33 29 14:40 20.12.2021
4155 Clouds 4 1022 58 10000 3.73 24 12:41 20.12.2021
4156 Clouds 10 1017 54 10000 1.27 170 10:55 20.12.2021
4157 Clouds 11 1017 44 10000 1.76 193 09:47 20.12.2021
4158 Clouds 12 1017 42 10000 1.99 200 08:56 20.12.2021
4159 Clouds 12 1017 42 10000 1.99 200 08:38 20.12.2021
4160 Clouds 12 1018 39 10000 1.53 202 07:44 20.12.2021
4161 Clear 12 1019 38 10000 0.19 327 06:40 20.12.2021
4162 Clear 2 1027 39 10000 5.83 29 02:32 20.12.2021
4163 Clear 1 1027 37 10000 5.92 28 23:37 19.12.2021
4164 Clear 1 1027 37 10000 5.86 28 22:44 19.12.2021
4165 Clear 1 1028 37 10000 5.78 26 21:49 19.12.2021
4166 Clear 1 1028 37 10000 5.82 29 21:25 19.12.2021
4167 Clear 1 1029 38 10000 5.89 29 20:29 19.12.2021
4168 Clear 1 1029 38 10000 5.89 29 19:45 19.12.2021
4169 Clear 1 1030 38 10000 5.75 28 18:54 19.12.2021
4170 Clear 0 1030 40 10000 5.97 24 18:24 19.12.2021
4171 Clear 0 1030 40 10000 5.97 24 17:46 19.12.2021
4172 Clear 0 1031 41 10000 6.38 33 16:55 19.12.2021
4173 Clear 0 1032 43 10000 6.09 27 15:58 19.12.2021
4174 Clear 0 1030 46 10000 6.11 27 15:26 19.12.2021
4175 Clear 0 1030 46 10000 6.11 27 14:49 19.12.2021
4176 Clear 0 1030 48 10000 5.87 27 13:46 19.12.2021
4177 Clear 1 1028 51 10000 5.16 29 13:21 19.12.2021
4178 Clear 1 1028 51 10000 5.16 29 12:33 19.12.2021
4179 Clear 5 1022 52 10000 2.19 40 11:40 19.12.2021
4180 Clear 8 1020 48 10000 0.61 122 10:52 19.12.2021
4181 Clear 10 1019 41 10000 0.65 147 10:23 19.12.2021
4182 Clear 10 1019 37 10000 0.55 204 09:26 19.12.2021
4183 Clear 10 1020 36 10000 0.89 35 07:47 19.12.2021
4184 Clear -3 1034 33 10000 7.53 27 02:35 19.12.2021
4185 Clear -4 1034 33 10000 7.09 25 00:55 19.12.2021
4186 Clear -4 1035 34 10000 7.34 29 23:31 18.12.2021
4187 Clear -4 1035 34 10000 7.34 27 22:31 18.12.2021
4188 Clear -5 1036 35 10000 7.31 27 21:54 18.12.2021
4189 Clear -5 1036 35 10000 7.31 27 21:33 18.12.2021
4190 Clear -5 1037 36 10000 7.26 28 20:44 18.12.2021
4191 Clear -5 1037 36 10000 7.33 28 19:50 18.12.2021
4192 Clear -5 1038 37 10000 7.31 27 19:19 18.12.2021
4193 Clear -6 1039 38 10000 7.54 27 18:19 18.12.2021
4194 Clear -6 1039 38 10000 7.54 27 17:47 18.12.2021
4195 Clear -6 1041 42 10000 7.79 26 16:25 18.12.2021
4196 Clear -6 1040 44 10000 7.73 27 15:26 18.12.2021
4197 Clear -6 1039 47 10000 7.54 26 14:22 18.12.2021
4198 Clear -4 1036 51 10000 6.7 26 13:18 18.12.2021
4199 Clear 4 1024 47 10000 3.43 29 10:52 18.12.2021
4200 Clear 5 1023 40 10000 3.24 28 09:37 18.12.2021
4201 Clear 5 1023 35 10000 3.41 29 08:43 18.12.2021
4202 Clear 5 1024 36 10000 3.62 29 08:18 18.12.2021
4203 Clear -7 1039 48 10000 7.4 26 01:48 18.12.2021
4204 Clouds -7 1037 48 10000 7.32 27 00:27 18.12.2021
4205 Clouds -7 1037 48 10000 7.32 27 23:37 17.12.2021
4206 Clouds -6 1037 49 10000 7.09 27 21:56 17.12.2021
4207 Clouds -6 1037 50 10000 6.96 26 20:51 17.12.2021
4208 Clouds -6 1037 50 10000 6.96 26 20:31 17.12.2021
4209 Clouds -6 1037 52 10000 6.86 26 18:58 17.12.2021
4210 Clouds -6 1037 52 10000 6.86 26 18:38 17.12.2021
4211 Clouds -5 1036 56 10000 6.31 24 17:26 17.12.2021
4212 Clouds -5 1036 56 10000 6.31 24 16:44 17.12.2021
4213 Clouds -5 1035 59 10000 5.75 24 16:19 17.12.2021
4214 Clouds -4 1033 61 10000 5.31 23 15:20 17.12.2021
4215 Clouds -4 1033 61 10000 5.31 23 14:38 17.12.2021
4216 Clouds -3 1029 67 10000 4.03 26 12:46 17.12.2021
4217 Clouds 4 1019 55 10000 0.82 141 11:27 17.12.2021
4218 Clouds 5 1019 44 10000 0.63 127 09:59 17.12.2021
4219 Clouds 5 1020 42 10000 0.71 49 08:58 17.12.2021
4220 Clouds 4 1021 43 10000 1.26 33 08:29 17.12.2021
4221 Clouds 2 1026 49 10000 3.14 28 05:41 17.12.2021
4222 Clouds -6 1037 59 10000 6.09 30 02:52 17.12.2021
4223 Clouds -5 1033 63 10000 5.18 29 23:20 16.12.2021
4224 Clouds -5 1033 64 10000 4.94 28 22:24 16.12.2021
4225 Clouds -5 1033 64 10000 4.94 28 22:24 16.12.2021
4226 Clouds -5 1033 64 10000 4.94 28 22:24 16.12.2021
4227 Clouds -5 1033 64 10000 4.94 28 21:47 16.12.2021
4228 Clouds -4 1033 64 10000 4.8 30 21:20 16.12.2021
4229 Clouds -4 1033 63 10000 4.77 29 20:27 16.12.2021
4230 Clouds -4 1033 63 10000 4.77 29 19:36 16.12.2021
4231 Clouds -5 1035 63 10000 4.86 29 18:38 16.12.2021
4232 Clouds -5 1035 64 10000 4.94 29 17:49 16.12.2021
4233 Clouds -5 1035 64 10000 4.85 30 17:28 16.12.2021
4234 Clouds -5 1034 65 10000 4.88 31 16:21 16.12.2021
4235 Clouds -4 1033 66 10000 4.7 32 14:50 16.12.2021
4236 Clear -4 1030 67 10000 3.57 36 12:57 16.12.2021
4237 Clear 4 1020 50 10000 2.52 181 11:20 16.12.2021
4238 Clear 4 1020 50 10000 2.52 181 10:48 16.12.2021
4239 Clear 5 1020 41 10000 3.16 186 09:59 16.12.2021
4240 Clear 5 1020 33 10000 3.17 194 07:31 16.12.2021
4241 Clear 4 1023 39 10000 0.46 347 06:19 16.12.2021
4242 Clear -5 1033 43 10000 5.6 29 00:54 16.12.2021
4243 Clear -5 1034 45 10000 5.58 28 23:22 15.12.2021
4244 Clear -5 1034 45 10000 5.62 28 22:29 15.12.2021
4245 Clear -5 1034 45 10000 5.62 28 21:52 15.12.2021
4246 Clear -5 1034 45 10000 5.68 29 21:26 15.12.2021
4247 Clear -5 1034 47 10000 5.79 29 19:55 15.12.2021
4248 Clear -5 1034 47 10000 5.79 29 19:36 15.12.2021
4249 Clear -5 1035 46 10000 5.99 30 18:37 15.12.2021
4250 Clear -4 1035 46 10000 6.03 29 17:51 15.12.2021
4251 Clear -4 1035 46 10000 6.03 29 17:51 15.12.2021
4252 Clear -4 1035 46 10000 6.03 29 17:32 15.12.2021
4253 Clear -4 1033 49 10000 5.75 30 16:27 15.12.2021
4254 Clear -4 1033 49 10000 5.75 30 15:46 15.12.2021
4255 Clear -3 1033 51 10000 5.58 30 15:27 15.12.2021
4256 Clear -3 1031 53 10000 5.46 31 14:18 15.12.2021
4257 Clear -2 1030 57 10000 4.47 32 12:32 15.12.2021
4258 Clear 6 1020 37 10000 2.28 189 10:27 15.12.2021
4259 Clear 6 1020 36 10000 1.98 195 08:55 15.12.2021
4260 Clear 6 1023 40 10000 0.71 320 06:54 15.12.2021
4261 Clear -4 1033 63 10000 5.13 29 01:20 15.12.2021
4262 Clear -3 1033 63 10000 5.11 29 23:42 14.12.2021
4263 Clear -3 1032 64 10000 4.98 29 22:48 14.12.2021
4264 Clear -3 1032 65 10000 4.83 30 22:19 14.12.2021
4265 Clear -2 1032 65 10000 4.54 32 20:28 14.12.2021
4266 Clear -2 1032 65 10000 4.54 32 19:40 14.12.2021
4267 Clouds -2 1032 66 10000 4.42 33 18:53 14.12.2021
4268 Clouds -2 1031 66 10000 4.31 33 18:25 14.12.2021
4269 Clouds -2 1031 66 10000 4.31 33 17:30 14.12.2021
4270 Clouds -2 1030 68 10000 4.15 33 16:39 14.12.2021
4271 Clouds -1 1029 69 10000 3.82 32 15:35 14.12.2021
4272 Clouds 0 1027 70 10000 3.5 33 13:31 14.12.2021
4273 Clouds 3 1022 66 10000 1.44 146 11:59 14.12.2021
4274 Clouds 6 1018 56 10000 2.99 189 11:24 14.12.2021
4275 Clouds 7 1018 47 10000 3.74 193 10:23 14.12.2021
4276 Clouds 7 1018 47 10000 3.74 193 09:43 14.12.2021
4277 Clouds 7 1019 44 10000 3.5 195 08:28 14.12.2021
4278 Clouds 7 1019 44 10000 3.5 195 07:43 14.12.2021
4279 Clear 6 1021 47 10000 0.58 243 05:35 14.12.2021
4280 Clouds -1 1028 56 10000 4.62 31 22:56 13.12.2021
4281 Clouds -1 1028 57 10000 4.62 31 21:53 13.12.2021
4282 Clouds -1 1028 57 10000 4.62 31 21:33 13.12.2021
4283 Clouds -1 1028 56 10000 4.61 31 20:43 13.12.2021
4284 Clouds 0 1029 56 10000 4.58 32 19:53 13.12.2021
4285 Clouds 0 1029 55 10000 4.73 33 18:33 13.12.2021
4286 Clouds 1 1028 56 10000 4.41 32 17:26 13.12.2021
4287 Clouds 1 1027 57 10000 4.21 32 15:56 13.12.2021
4288 Clouds 1 1027 57 10000 4.21 32 15:38 13.12.2021
4289 Clouds 3 1024 62 10000 3.45 35 13:47 13.12.2021
4290 Clouds 3 1023 64 10000 3.1 38 13:18 13.12.2021
4291 Clouds 5 1021 64 10000 1.3 93 12:19 13.12.2021
4292 Clouds 5 1021 64 10000 1.3 93 11:35 13.12.2021
4293 Clouds 8 1019 56 10000 2.15 177 10:53 13.12.2021
4294 Clear 10 1019 47 10000 2.77 184 10:21 13.12.2021
4295 Clear 10 1020 39 10000 2.68 201 07:57 13.12.2021
4296 Clear 9 1022 44 10000 1.06 7 05:37 13.12.2021
4297 Clear 2 1029 46 10000 4.75 27 03:31 13.12.2021
4298 Clouds 1 1029 46 10000 5.39 28 23:27 12.12.2021
4299 Clouds 1 1028 48 10000 5.14 28 21:50 12.12.2021
4300 Clouds 2 1029 48 10000 5.02 29 20:45 12.12.2021
4301 Clouds 2 1029 49 10000 4.84 27 19:30 12.12.2021
4302 Clouds 2 1029 49 10000 4.81 29 17:46 12.12.2021
4303 Clouds 3 1028 53 10000 4.94 29 16:28 12.12.2021
4304 Clouds 3 1028 53 10000 4.94 29 15:51 12.12.2021
4305 Clouds 3 1028 56 10000 4.65 30 15:26 12.12.2021
4306 Clouds 3 1028 56 10000 4.65 30 14:37 12.12.2021
4307 Clouds 3 1027 58 10000 4.6 29 13:43 12.12.2021
4308 Clouds 3 1025 59 10000 4.05 29 12:37 12.12.2021
4309 Clouds 7 1022 60 10000 0.91 45 11:45 12.12.2021
4310 Clouds 10 1020 54 10000 0.44 179 11:25 12.12.2021
4311 Clouds 10 1020 54 10000 0.44 179 10:39 12.12.2021
4312 Clouds 11 1020 42 10000 0.69 166 09:45 12.12.2021
4313 Clouds 11 1021 41 10000 1.71 191 08:38 12.12.2021
4314 Clouds 11 1022 35 10000 0.72 225 06:34 12.12.2021
4315 Clouds 8 1024 48 10000 2.48 20 05:27 12.12.2021
4316 Clouds 5 1026 45 10000 4.54 30 03:58 12.12.2021
4317 Clouds 3 1028 42 10000 5.35 27 00:42 12.12.2021
4318 Clouds 2 1030 40 10000 5.74 28 22:42 11.12.2021
4319 Clouds 2 1030 39 10000 5.91 27 22:19 11.12.2021
4320 Clouds 1 1031 40 10000 6 28 21:22 11.12.2021
4321 Clouds 1 1032 41 10000 5.99 28 19:46 11.12.2021
4322 Clouds 1 1032 43 10000 6.01 28 19:20 11.12.2021
4323 Clouds 1 1032 43 10000 6.01 28 18:39 11.12.2021
4324 Clear 1 1033 45 10000 6.07 28 17:41 11.12.2021
4325 Clear 1 1033 51 10000 5.91 28 15:57 11.12.2021
4326 Clear 1 1033 51 10000 5.91 28 15:37 11.12.2021
4327 Clear 1 1032 53 10000 5.75 27 14:33 11.12.2021
4328 Clear 6 1023 60 10000 1.8 42 12:20 11.12.2021
4329 Clear 10 1021 54 10000 0.99 168 10:43 11.12.2021
4330 Clear 11 1021 46 10000 1.87 188 09:38 11.12.2021
4331 Clear 0 1031 36 10000 6.49 28 03:26 11.12.2021
4332 Clear -1 1031 37 10000 6.52 27 00:47 11.12.2021
4333 Clear -1 1031 38 10000 6.5 27 23:42 10.12.2021
4334 Clear -1 1032 39 10000 6.55 27 22:33 10.12.2021
4335 Clear -1 1033 39 10000 6.51 26 21:40 10.12.2021
4336 Clear -1 1034 40 10000 6.56 27 20:22 10.12.2021
4337 Clear -1 1035 41 10000 6.6 27 19:18 10.12.2021
4338 Clear -1 1035 42 10000 6.65 27 17:46 10.12.2021
4339 Clear -1 1036 43 10000 6.75 27 16:35 10.12.2021
4340 Clear -1 1036 45 10000 6.7 27 15:43 10.12.2021
4341 Clear -1 1036 48 10000 6.57 26 15:25 10.12.2021
4342 Clear -1 1035 51 10000 6.3 26 14:29 10.12.2021
4343 Clear -1 1035 51 10000 6.3 26 13:48 10.12.2021
4344 Clear 0 1032 54 10000 5.49 26 12:55 10.12.2021
4345 Clear 0 1032 54 10000 5.49 26 12:55 10.12.2021
4346 Clear 4 1026 54 10000 2.91 32 11:41 10.12.2021
4347 Clear 9 1023 50 10000 0.95 22 10:56 10.12.2021
4348 Clear 10 1022 46 10000 0.44 352 09:36 10.12.2021
4349 Clear 8 1025 42 10000 2.46 22 07:28 10.12.2021
4350 Clear 4 1031 44 10000 4.74 27 04:57 10.12.2021
4351 Clear -2 1038 39 10000 6.9 27 02:39 10.12.2021
4352 Clear -2 1036 42 10000 6.55 27 23:40 09.12.2021
4353 Clear -2 1037 43 10000 6.46 27 22:41 09.12.2021
4354 Clear -2 1037 43 10000 6.46 27 22:41 09.12.2021
4355 Clear -2 1037 44 10000 6.3 26 22:21 09.12.2021
4356 Clear -2 1037 44 10000 6.3 26 21:40 09.12.2021
4357 Clear -1 1037 45 10000 6.24 26 20:35 09.12.2021
4358 Clear -1 1037 46 10000 6.09 26 19:43 09.12.2021
4359 Clear -1 1037 46 10000 5.93 27 19:20 09.12.2021
4360 Clear -1 1036 47 10000 5.65 28 18:19 09.12.2021
4361 Clear -1 1036 47 10000 5.65 28 17:48 09.12.2021
4362 Clear 0 1036 49 10000 5.4 30 17:24 09.12.2021
4363 Clear 0 1036 49 10000 5.4 30 16:41 09.12.2021
4364 Clear 0 1035 54 10000 5.2 31 15:19 09.12.2021
4365 Clear 0 1034 56 10000 5.15 31 14:36 09.12.2021
4366 Clear 1 1031 64 10000 4.17 32 12:48 09.12.2021
4367 Clear 5 1025 64 10000 1.19 81 11:51 09.12.2021
4368 Clear 10 1023 48 10000 2.54 185 10:28 09.12.2021
4369 Clear 11 1024 39 10000 2.23 207 07:53 09.12.2021
4370 Clear 2 1031 47 10000 5 27 03:58 09.12.2021
4371 Clear 0 1032 45 10000 5.76 27 00:26 09.12.2021
4372 Clear 0 1032 45 10000 5.76 27 23:37 08.12.2021
4373 Clear 0 1032 45 10000 5.69 27 22:57 08.12.2021
4374 Clear 0 1032 45 10000 5.69 27 22:36 08.12.2021
4375 Clear 0 1032 46 10000 5.68 27 21:38 08.12.2021
4376 Clear 0 1033 47 10000 5.63 27 20:58 08.12.2021
4377 Clear 0 1033 48 10000 5.61 28 19:57 08.12.2021
4378 Clear 1 1033 48 10000 5.63 28 19:29 08.12.2021
4379 Clear 1 1032 49 10000 5.54 28 18:22 08.12.2021
4380 Clouds 1 1032 52 10000 5.54 28 16:55 08.12.2021
4381 Clouds 1 1031 56 10000 5.36 30 15:45 08.12.2021
4382 Clouds 2 1030 62 10000 5.18 29 15:23 08.12.2021
4383 Clouds 3 1026 71 10000 3.9 33 13:27 08.12.2021
4384 Clouds 10 1021 62 10000 1.83 178 10:45 08.12.2021
4385 Clouds 11 1020 52 10000 2.26 187 10:23 08.12.2021
4386 Clouds 11 1021 49 10000 2.39 189 08:54 08.12.2021
4387 Clouds 12 1021 47 10000 1.66 202 06:52 08.12.2021
4388 Clouds 7 1022 60 10000 4.04 30 01:21 08.12.2021
4389 Clouds 7 1022 55 10000 3.93 26 23:29 07.12.2021
4390 Clouds 6 1024 52 10000 4.03 23 21:26 07.12.2021
4391 Clouds 5 1026 51 10000 4.43 28 20:26 07.12.2021
4392 Clouds 5 1026 51 10000 4.43 28 20:26 07.12.2021
4393 Clear 2 1030 48 10000 5.51 31 19:23 07.12.2021
4394 Clear 2 1030 48 10000 5.51 31 18:37 07.12.2021
4395 Clear 2 1031 54 10000 5.67 30 17:27 07.12.2021
4396 Clear 2 1031 54 10000 5.67 30 16:57 07.12.2021
4397 Clear 2 1030 55 10000 5.53 30 16:27 07.12.2021
4398 Clear 2 1029 56 10000 5.31 30 14:47 07.12.2021
4399 Clear 3 1028 57 10000 5.05 30 13:45 07.12.2021
4400 Clear 6 1023 59 10000 2.1 38 12:27 07.12.2021
4401 Clear 10 1020 52 10000 0.62 156 11:23 07.12.2021
4402 Clear 11 1020 46 10000 0.98 188 09:43 07.12.2021
4403 Clear 11 1021 42 10000 0.3 4 07:52 07.12.2021
4404 Clear 8 1024 51 10000 2.9 21 05:54 07.12.2021
4405 Clear 5 1027 53 10000 4.42 25 05:26 07.12.2021
4406 Clear -1 1031 56 10000 6.44 28 23:41 06.12.2021
4407 Clear -1 1031 58 10000 6.27 27 22:44 06.12.2021
4408 Clear -1 1031 59 10000 6.21 27 22:18 06.12.2021
4409 Clear -1 1031 59 10000 6.21 27 21:37 06.12.2021
4410 Clear -1 1031 62 10000 5.97 27 20:33 06.12.2021
4411 Clouds 0 1032 66 10000 5.68 27 19:25 06.12.2021
4412 Clouds 0 1032 66 10000 5.68 27 18:57 06.12.2021
4413 Clouds 0 1032 69 10000 5.59 26 17:55 06.12.2021
4414 Clouds 0 1032 69 10000 5.59 26 17:34 06.12.2021
4415 Clouds 1 1030 76 10000 4.32 24 16:21 06.12.2021
4416 Clouds 2 1028 83 10000 3.83 22 14:51 06.12.2021
4417 Clouds 3 1025 89 10000 3.01 20 13:45 06.12.2021
4418 Clouds 3 1024 93 5994 1.85 10 12:39 06.12.2021
4419 Clouds 7 1020 84 3248 2.11 201 10:31 06.12.2021
4420 Clouds 8 1020 82 1248 2.86 206 07:59 06.12.2021
4421 Clouds 6 1022 89 2663 0.87 352 03:52 06.12.2021
4422 Clouds 4 1023 87 5816 2.49 16 22:30 05.12.2021
4423 Clouds 5 1023 91 1362 0.98 339 21:26 05.12.2021
4424 Clouds 5 1023 91 1362 0.98 339 20:59 05.12.2021
4425 Rain 5 1024 89 1467 1.68 360 20:18 05.12.2021
4426 Clouds 5 1024 89 1467 1.68 360 19:33 05.12.2021
4427 Clouds 5 1024 83 4723 2.04 12 18:41 05.12.2021
4428 Clouds 5 1024 83 6219 2.23 8 18:19 05.12.2021
4429 Clouds 5 1024 83 6219 2.23 8 17:47 05.12.2021
4430 Clouds 5 1024 85 4620 1.9 349 16:45 05.12.2021
4431 Clouds 6 1024 88 5285 1.59 328 16:24 05.12.2021
4432 Clouds 6 1023 93 3933 0.87 283 14:49 05.12.2021
4433 Clouds 6 1023 93 3933 0.87 283 14:30 05.12.2021
4434 Rain 7 1022 95 1730 1.75 182 13:43 05.12.2021
4435 Clouds 8 1020 98 425 2.91 199 13:22 05.12.2021
4436 Rain 8 1020 98 263 2.36 194 12:31 05.12.2021
4437 Clouds 8 1020 96 351 3.79 203 11:56 05.12.2021
4438 Clouds 9 1020 93 754 3.93 206 10:52 05.12.2021
4439 Clouds 10 1019 79 3250 4.07 193 09:58 05.12.2021
4440 Clouds 11 1020 60 10000 3.07 198 07:55 05.12.2021
4441 Clouds 5 1025 64 10000 4.04 30 02:28 05.12.2021
4442 Clouds 4 1026 60 10000 4.55 30 23:31 04.12.2021
4443 Clear 4 1026 61 10000 4.74 30 21:54 04.12.2021
4444 Clear 5 1026 62 10000 4.79 30 20:55 04.12.2021
4445 Clear 5 1027 62 10000 4.69 29 19:55 04.12.2021
4446 Clear 5 1027 62 10000 4.69 29 19:31 04.12.2021
4447 Clear 5 1026 64 10000 4.7 28 18:20 04.12.2021
4448 Clear 5 1026 64 10000 4.7 28 17:38 04.12.2021
4449 Clear 5 1026 66 10000 4.71 28 16:49 04.12.2021
4450 Clear 5 1026 66 10000 4.71 28 16:30 04.12.2021
4451 Clear 6 1025 68 10000 4.47 29 15:22 04.12.2021
4452 Clear 11 1020 71 10000 1.18 53 11:51 04.12.2021
4453 Clear 11 1020 71 10000 1.18 53 11:32 04.12.2021
4454 Clear 14 1019 65 10000 1.23 172 10:44 04.12.2021
4455 Clear 15 1019 61 10000 1.3 207 08:48 04.12.2021
4456 Clear 13 1023 55 10000 2.11 14 06:28 04.12.2021
4457 Clear 10 1025 59 10000 3.64 24 04:42 04.12.2021
4458 Clear 5 1027 66 10000 5.57 26 00:24 04.12.2021
4459 Clear 5 1027 67 10000 5.42 27 23:26 03.12.2021
4460 Clear 5 1027 67 10000 5.42 27 23:26 03.12.2021
4461 Clear 5 1027 67 10000 5.42 27 22:46 03.12.2021
4462 Clouds 5 1028 68 10000 4.96 28 21:26 03.12.2021
4463 Clouds 5 1028 68 10000 4.96 28 20:54 03.12.2021
4464 Clouds 6 1028 68 10000 4.98 26 19:53 03.12.2021
4465 Clouds 6 1028 68 10000 4.77 27 18:34 03.12.2021
4466 Clouds 6 1028 69 10000 4.82 24 17:59 03.12.2021
4467 Clouds 6 1028 72 10000 4.87 24 16:33 03.12.2021
4468 Clouds 10 1023 92 7284 0.98 2 12:59 03.12.2021
4469 Clouds 11 1022 92 2927 0.43 229 12:20 03.12.2021
4470 Clouds 12 1022 92 4447 1.58 219 10:56 03.12.2021
4471 Clouds 13 1022 86 4597 2.1 213 08:29 03.12.2021
4472 Clouds 13 1022 86 4597 2.1 213 07:43 03.12.2021
4473 Clouds 13 1022 86 4597 2.1 213 07:43 03.12.2021
4474 Clouds 11 1023 77 10000 1.32 25 04:44 03.12.2021
4475 Clouds 8 1022 90 4758 2.89 18 00:48 03.12.2021
4476 Clouds 8 1022 91 2997 2.59 17 23:47 02.12.2021
4477 Clouds 7 1023 91 564 1.25 357 22:38 02.12.2021
4478 Clouds 8 1022 80 3973 2.59 11 21:41 02.12.2021
4479 Clouds 7 1023 70 6324 2.43 50 20:44 02.12.2021
4480 Clouds 8 1023 66 10000 2.94 23 20:22 02.12.2021
4481 Clouds 8 1024 84 6249 2.84 18 18:36 02.12.2021
4482 Clouds 8 1024 71 10000 2.47 28 16:35 02.12.2021
4483 Clouds 9 1023 72 10000 1.95 34 15:41 02.12.2021
4484 Clouds 9 1023 72 10000 1.95 34 15:41 02.12.2021
4485 Clouds 9 1023 73 10000 2.13 16 14:52 02.12.2021
4486 Clouds 10 1022 76 10000 1.97 4 13:36 02.12.2021
4487 Clouds 11 1022 80 10000 0.91 27 12:24 02.12.2021
4488 Clouds 11 1022 80 9298 0.29 238 10:42 02.12.2021
4489 Clouds 11 1023 78 5234 0.98 220 09:26 02.12.2021
4490 Clouds 11 1026 70 7983 0.87 3 07:19 02.12.2021
4491 Clouds 9 1024 77 10000 4.16 21 01:26 02.12.2021
4492 Clouds 9 1024 78 7559 3.72 18 00:26 02.12.2021
4493 Clouds 9 1024 68 6863 3.14 26 22:31 01.12.2021
4494 Clouds 10 1023 62 10000 3.13 29 21:44 01.12.2021
4495 Clouds 10 1023 49 10000 3.05 40 20:24 01.12.2021
4496 Clouds 10 1023 49 10000 3.05 40 19:43 01.12.2021
4497 Clouds 10 1024 47 10000 3.34 27 18:55 01.12.2021
4498 Clouds 9 1024 45 10000 3.53 31 17:31 01.12.2021
4499 Clouds 9 1025 43 10000 4.03 30 16:34 01.12.2021
4500 Clouds 9 1024 40 10000 4.11 35 14:35 01.12.2021
4501 Clouds 9 1024 41 10000 3.56 25 13:37 01.12.2021
4502 Clouds 12 1020 40 10000 1.03 41 10:45 01.12.2021
4503 Clouds 14 1020 37 10000 0.65 105 10:27 01.12.2021
4504 Clouds 14 1021 27 10000 1.14 181 08:53 01.12.2021
4505 Clouds 14 1022 30 10000 1.91 197 08:26 01.12.2021
4506 Clouds 14 1022 30 10000 1.91 197 07:31 01.12.2021
4507 Clouds 8 1026 35 10000 3.82 23 03:59 01.12.2021
4508 Clouds 8 1026 35 10000 3.82 23 03:32 01.12.2021
4509 Clouds 6 1026 33 10000 5.56 25 00:45 01.12.2021
4510 Clouds 5 1026 33 10000 5.77 27 23:33 30.11.2021
4511 Clouds 5 1027 34 10000 5.43 27 22:39 30.11.2021
4512 Clouds 5 1028 34 10000 5.68 27 20:48 30.11.2021
4513 Clouds 5 1028 35 10000 5.67 27 20:27 30.11.2021
4514 Clouds 5 1028 35 10000 5.67 27 19:47 30.11.2021
4515 Clouds 5 1028 36 10000 5.75 28 19:24 30.11.2021
4516 Clouds 5 1029 37 10000 5.78 28 17:57 30.11.2021
4517 Clouds 5 1028 39 10000 5.66 30 16:25 30.11.2021
4518 Clear 5 1027 39 10000 5.5 32 14:35 30.11.2021
4519 Clear 6 1026 41 10000 5.32 30 13:48 30.11.2021
4520 Clear 6 1024 43 10000 4.71 31 13:23 30.11.2021
4521 Clear 6 1024 43 10000 4.71 31 12:44 30.11.2021
4522 Clear 13 1019 39 10000 1.2 165 11:26 30.11.2021
4523 Clear 13 1019 39 10000 1.2 165 10:37 30.11.2021
4524 Clouds 15 1018 36 10000 1.38 190 09:44 30.11.2021
4525 Clouds 15 1019 32 10000 0.89 200 08:48 30.11.2021
4526 Clouds 15 1020 33 10000 0.51 282 08:19 30.11.2021
4527 Clouds 15 1020 33 10000 0.51 282 07:35 30.11.2021
4528 Clear 4 1027 32 10000 5.76 29 01:52 30.11.2021
4529 Clear 4 1027 32 10000 5.76 29 01:31 30.11.2021
4530 Clouds 5 1025 35 10000 5.19 28 23:56 29.11.2021
4531 Clouds 6 1025 35 10000 5.05 27 23:20 29.11.2021
4532 Clouds 6 1025 35 10000 5.05 27 22:44 29.11.2021
4533 Clouds 6 1026 35 10000 5.14 27 22:25 29.11.2021
4534 Clouds 5 1027 35 10000 5.32 26 21:21 29.11.2021
4535 Clouds 5 1027 35 10000 5.32 26 20:56 29.11.2021
4536 Clouds 5 1028 36 10000 5.6 26 20:22 29.11.2021
4537 Clouds 5 1028 36 10000 5.6 26 19:44 29.11.2021
4538 Clouds 5 1028 36 10000 5.6 26 19:44 29.11.2021
4539 Clouds 4 1029 35 10000 5.88 29 19:26 29.11.2021
4540 Clouds 4 1029 36 10000 5.94 28 18:47 29.11.2021
4541 Clouds 5 1029 41 10000 5.75 28 17:22 29.11.2021
4542 Clouds 5 1029 41 10000 5.75 28 16:56 29.11.2021
4543 Clouds 4 1029 42 10000 5.67 29 16:25 29.11.2021
4544 Clouds 4 1029 42 10000 5.68 28 15:27 29.11.2021
4545 Clouds 4 1029 42 10000 5.68 28 14:42 29.11.2021
4546 Clouds 5 1026 48 10000 4.79 28 13:28 29.11.2021
4547 Clouds 9 1023 47 10000 2.25 37 12:22 29.11.2021
4548 Clouds 9 1023 47 10000 2.25 37 11:31 29.11.2021
4549 Clear 13 1021 35 10000 0.74 181 10:27 29.11.2021
4550 Clear 14 1021 30 10000 0.91 208 08:45 29.11.2021
4551 Clear 12 1025 33 10000 1.64 11 05:58 29.11.2021
4552 Clear 2 1030 40 10000 5.47 27 01:35 29.11.2021
4553 Clear 3 1029 41 10000 5.35 27 00:36 29.11.2021
4554 Clear 3 1029 42 10000 5.33 27 23:42 28.11.2021
4555 Clear 3 1029 42 10000 5.26 27 22:42 28.11.2021
4556 Clear 3 1029 43 10000 5.25 28 21:41 28.11.2021
4557 Clear 3 1029 43 10000 5.16 27 20:58 28.11.2021
4558 Clear 3 1029 44 10000 5.23 28 19:55 28.11.2021
4559 Clear 3 1030 44 10000 5.27 28 18:45 28.11.2021
4560 Clear 3 1030 45 10000 5.26 28 18:26 28.11.2021
4561 Clear 3 1030 45 10000 5.26 28 17:49 28.11.2021
4562 Clear 3 1030 45 10000 5.26 28 17:30 28.11.2021
4563 Clear 4 1029 47 10000 5.54 29 16:28 28.11.2021
4564 Clear 4 1029 47 10000 5.54 29 15:53 28.11.2021
4565 Clear 4 1029 48 10000 5.48 29 14:56 28.11.2021
4566 Clear 4 1029 48 10000 5.48 29 14:35 28.11.2021
4567 Clouds 5 1025 51 10000 4.36 29 12:58 28.11.2021
4568 Clouds 9 1022 49 10000 1.65 43 12:29 28.11.2021
4569 Clouds 12 1020 43 10000 0.43 161 10:53 28.11.2021
4570 Clouds 13 1020 35 10000 1.18 179 10:20 28.11.2021
4571 Clouds 13 1020 35 10000 1.18 179 09:36 28.11.2021
4572 Clear 11 1024 32 10000 1.08 15 06:29 28.11.2021
4573 Clear 3 1028 44 10000 5.25 27 23:37 27.11.2021
4574 Clear 3 1028 48 10000 4.87 27 20:44 27.11.2021
4575 Clear 3 1028 50 10000 4.82 28 18:57 27.11.2021
4576 Clear 4 1027 52 10000 4.67 30 16:52 27.11.2021
4577 Clear 4 1027 55 10000 4.78 27 15:55 27.11.2021
4578 Clear 4 1025 60 10000 4.32 29 13:47 27.11.2021
4579 Clear 5 1023 64 10000 2.96 40 12:31 27.11.2021
4580 Clear 12 1018 48 10000 1.72 174 10:42 27.11.2021
4581 Clear 13 1018 41 10000 2.29 180 09:51 27.11.2021
4582 Clear 13 1018 38 10000 2.52 186 08:40 27.11.2021
4583 Clouds 10 1021 41 10000 1.28 34 04:58 27.11.2021
4584 Clouds 5 1023 44 10000 4.17 30 01:55 27.11.2021
4585 Clouds 5 1023 44 10000 4.82 29 23:35 26.11.2021
4586 Clear 4 1024 45 10000 4.94 28 22:25 26.11.2021
4587 Clear 4 1024 45 10000 4.94 28 21:36 26.11.2021
4588 Clear 4 1024 45 10000 4.94 26 20:53 26.11.2021
4589 Clear 4 1025 46 10000 5.08 27 20:19 26.11.2021
4590 Clear 4 1025 46 10000 5.08 27 19:47 26.11.2021
4591 Clear 4 1026 47 10000 5.15 28 18:33 26.11.2021
4592 Clear 4 1027 50 10000 5.1 28 17:23 26.11.2021
4593 Clear 4 1026 50 10000 4.98 28 15:57 26.11.2021
4594 Clear 5 1024 55 10000 4.57 27 13:36 26.11.2021
4595 Clear 5 1022 57 10000 3.45 31 12:40 26.11.2021
4596 Clear 12 1017 45 10000 1.55 179 10:38 26.11.2021
4597 Clear 13 1017 34 10000 1.53 197 08:59 26.11.2021
4598 Clear 13 1018 33 10000 1.06 200 08:21 26.11.2021
4599 Clear 13 1018 33 10000 1.06 200 07:33 26.11.2021
4600 Clear 12 1020 35 10000 0.91 29 06:28 26.11.2021
4601 Clear 12 1020 35 10000 0.91 29 06:28 26.11.2021
4602 Clear 9 1021 40 10000 2.58 24 04:52 26.11.2021
4603 Clear 3 1025 43 10000 5.41 27 03:26 26.11.2021
4604 Clear 3 1024 47 10000 5.5 27 23:27 25.11.2021
4605 Clear 3 1024 48 10000 5.48 27 21:51 25.11.2021
4606 Clear 3 1024 49 10000 5.46 27 20:40 25.11.2021
4607 Clear 4 1025 52 10000 5.3 27 18:49 25.11.2021
4608 Clear 4 1026 53 10000 5.42 27 17:59 25.11.2021
4609 Clear 4 1026 54 10000 5.41 27 17:26 25.11.2021
4610 Clear 4 1026 54 10000 5.41 27 16:41 25.11.2021
4611 Clear 4 1026 56 10000 5.28 27 15:58 25.11.2021
4612 Clear 5 1024 58 10000 4.76 29 14:21 25.11.2021
4613 Clouds 6 1022 61 10000 3.25 37 12:48 25.11.2021
4614 Clouds 10 1019 54 10000 0.86 134 11:55 25.11.2021
4615 Clouds 12 1018 47 10000 1.8 192 10:31 25.11.2021
4616 Clear 13 1020 35 10000 0.25 328 06:36 25.11.2021
4617 Clear 4 1026 49 10000 5.09 28 02:56 25.11.2021
4618 Clear 4 1024 48 10000 5.1 27 23:40 24.11.2021
4619 Clear 4 1024 47 10000 4.93 27 22:29 24.11.2021
4620 Clear 4 1024 47 10000 4.93 27 21:48 24.11.2021
4621 Clear 5 1025 47 10000 4.9 27 21:21 24.11.2021
4622 Clear 5 1025 47 10000 4.86 27 20:26 24.11.2021
4623 Clear 5 1025 47 10000 4.86 27 19:36 24.11.2021
4624 Clear 5 1026 49 10000 4.8 29 18:19 24.11.2021
4625 Clear 5 1025 51 10000 4.63 28 16:21 24.11.2021
4626 Clear 6 1024 51 10000 4.62 28 14:57 24.11.2021
4627 Clear 6 1024 53 10000 4.33 32 14:21 24.11.2021
4628 Clear 6 1024 52 10000 4.38 31 13:34 24.11.2021
4629 Clear 13 1017 41 10000 2.38 185 11:26 24.11.2021
4630 Clear 13 1017 41 10000 2.38 185 10:58 24.11.2021
4631 Clear 13 1017 41 10000 2.38 185 10:36 24.11.2021
4632 Clear 15 1017 36 10000 2.57 187 09:33 24.11.2021
4633 Clear 15 1018 29 10000 2.33 196 07:41 24.11.2021
4634 Clear 14 1019 31 10000 0.29 17 05:38 24.11.2021
4635 Clear 8 1022 38 10000 3.93 26 03:44 24.11.2021
4636 Clear 5 1023 39 10000 5.19 27 23:33 23.11.2021
4637 Clear 5 1023 40 10000 5.05 27 22:39 23.11.2021
4638 Clear 5 1023 41 10000 5.03 26 21:45 23.11.2021
4639 Clear 5 1024 43 10000 5.03 29 20:23 23.11.2021
4640 Clear 5 1024 43 10000 5.03 29 19:34 23.11.2021
4641 Clear 5 1025 42 10000 5.18 29 18:34 23.11.2021
4642 Clear 5 1025 42 10000 5.35 29 17:41 23.11.2021
4643 Clear 5 1025 42 10000 5.35 29 17:41 23.11.2021
4644 Clear 5 1025 43 10000 5.4 29 16:37 23.11.2021
4645 Clear 6 1024 43 10000 5.27 29 15:27 23.11.2021
4646 Clear 6 1024 43 10000 5.27 29 14:56 23.11.2021
4647 Clear 7 1021 47 10000 4.59 33 13:29 23.11.2021
4648 Clear 15 1015 39 10000 1.26 179 10:28 23.11.2021
4649 Clear 15 1015 39 10000 1.26 179 09:48 23.11.2021
4650 Clear 16 1015 34 10000 1.06 204 08:41 23.11.2021
4651 Clear 12 1019 35 10000 3.23 29 05:25 23.11.2021
4652 Clear 8 1021 35 10000 4.81 26 03:37 23.11.2021
4653 Clear 5 1021 34 10000 5.99 28 23:42 22.11.2021
4654 Clear 5 1022 34 10000 5.96 28 23:20 22.11.2021
4655 Clear 5 1022 34 10000 5.96 28 22:31 22.11.2021
4656 Clear 5 1022 35 10000 5.98 27 21:45 22.11.2021
4657 Clear 5 1023 36 10000 6 27 21:21 22.11.2021
4658 Clear 5 1023 36 10000 6 27 20:43 22.11.2021
4659 Clear 5 1024 38 10000 5.85 28 19:24 22.11.2021
4660 Clear 5 1024 39 10000 5.77 28 18:50 22.11.2021
4661 Clear 5 1024 39 10000 5.77 28 18:31 22.11.2021
4662 Clear 5 1024 40 10000 5.74 28 16:50 22.11.2021
4663 Clear 5 1024 40 10000 5.91 28 15:39 22.11.2021
4664 Clear 6 1021 47 10000 4.82 28 12:52 22.11.2021
4665 Clear 10 1018 47 10000 1.96 40 11:39 22.11.2021
4666 Clear 14 1016 40 10000 0.44 86 10:36 22.11.2021
4667 Clear 15 1016 33 10000 0.15 360 08:46 22.11.2021
4668 Clear 15 1017 30 10000 0.16 292 08:25 22.11.2021
4669 Clear 4 1026 34 10000 5.94 28 02:31 22.11.2021
4670 Clear 4 1026 34 10000 5.77 26 23:23 21.11.2021
4671 Clear 4 1026 34 10000 5.77 26 22:46 21.11.2021
4672 Clear 4 1026 35 10000 5.81 26 21:40 21.11.2021
4673 Clear 4 1026 37 10000 5.88 26 20:41 21.11.2021
4674 Clear 4 1026 39 10000 6.03 27 19:45 21.11.2021
4675 Clear 4 1027 44 10000 6.04 28 17:59 21.11.2021
4676 Clear 4 1027 44 10000 6.04 28 17:37 21.11.2021
4677 Clear 5 1026 47 10000 5.53 27 15:25 21.11.2021
4678 Clear 5 1026 47 10000 5.53 27 14:44 21.11.2021
4679 Clear 5 1025 49 10000 5.21 28 13:40 21.11.2021
4680 Clear 6 1023 51 10000 4.11 32 12:35 21.11.2021
4681 Clear 10 1020 48 10000 1.57 48 11:42 21.11.2021
4682 Clear 13 1018 41 10000 0.46 52 10:55 21.11.2021
4683 Clear 15 1018 38 10000 0.24 36 10:18 21.11.2021
4684 Clear 15 1018 26 10000 0.33 194 08:42 21.11.2021
4685 Clear 15 1019 28 10000 0.03 22 08:22 21.11.2021
4686 Clear 15 1019 28 10000 0.03 22 07:43 21.11.2021
4687 Clear 13 1021 32 10000 2.2 22 05:49 21.11.2021
4688 Clear 10 1023 37 10000 3.55 26 05:19 21.11.2021
4689 Clear 4 1027 41 10000 5.95 28 03:18 21.11.2021
4690 Clear 4 1027 41 10000 5.95 28 02:50 21.11.2021
4691 Clear 4 1026 43 10000 5.81 27 00:56 21.11.2021
4692 Clear 4 1026 44 10000 5.65 28 23:43 20.11.2021
4693 Clear 4 1026 43 10000 5.45 26 21:41 20.11.2021
4694 Clear 4 1026 43 10000 5.34 26 21:23 20.11.2021
4695 Clear 5 1026 44 10000 5.35 27 18:46 20.11.2021
4696 Clear 5 1026 44 10000 5.35 27 18:26 20.11.2021
4697 Clear 5 1026 44 10000 5.21 29 17:26 20.11.2021
4698 Clear 5 1026 44 10000 5.21 29 16:46 20.11.2021
4699 Clear 5 1024 45 10000 5.04 31 14:47 20.11.2021
4700 Clear 6 1023 47 10000 4.78 31 14:25 20.11.2021
4701 Clear 11 1018 43 10000 1.03 118 12:22 20.11.2021
4702 Clear 14 1016 37 10000 1.95 179 10:52 20.11.2021
4703 Clear 16 1016 34 10000 2.08 182 09:39 20.11.2021
4704 Clear 15 1017 28 10000 2.07 195 07:37 20.11.2021
4705 Clear 12 1020 34 10000 2.37 22 05:28 20.11.2021
4706 Clear 12 1020 34 10000 2.37 22 04:50 20.11.2021
4707 Clear 6 1023 35 10000 5.2 26 03:24 20.11.2021
4708 Clear 5 1022 36 10000 5.38 26 00:41 20.11.2021
4709 Clear 5 1022 37 10000 5.35 28 23:43 19.11.2021
4710 Clear 5 1022 38 10000 5.29 27 22:39 19.11.2021
4711 Clear 6 1023 39 10000 5.14 26 21:21 19.11.2021
4712 Clear 6 1023 39 10000 5.14 26 20:37 19.11.2021
4713 Clear 6 1023 39 10000 5.11 27 19:56 19.11.2021
4714 Clear 6 1023 39 10000 5.23 26 19:27 19.11.2021
4715 Clear 6 1023 39 10000 5.23 26 18:43 19.11.2021
4716 Clear 6 1023 38 10000 5.34 27 17:37 19.11.2021
4717 Clear 6 1023 39 10000 5.46 29 15:58 19.11.2021
4718 Clear 7 1021 41 10000 5.22 30 13:57 19.11.2021
4719 Clear 15 1015 37 10000 1.23 169 10:34 19.11.2021
4720 Clear 16 1015 32 10000 1.51 181 09:58 19.11.2021
4721 Clear 16 1015 27 10000 1.51 188 08:32 19.11.2021
4722 Clear 12 1020 34 10000 2.66 25 04:55 19.11.2021
4723 Clear 6 1024 37 10000 5.26 28 02:59 19.11.2021
4724 Clear 5 1023 39 10000 5.19 28 23:53 18.11.2021
4725 Clear 5 1023 40 10000 5.06 30 22:38 18.11.2021
4726 Clear 6 1023 40 10000 4.81 30 20:56 18.11.2021
4727 Clear 6 1023 40 10000 4.81 30 20:37 18.11.2021
4728 Clear 6 1024 40 10000 4.75 32 20:18 18.11.2021
4729 Clear 6 1024 40 10000 4.75 32 19:36 18.11.2021
4730 Clouds 6 1024 40 10000 4.7 31 18:35 18.11.2021
4731 Clouds 6 1024 40 10000 4.7 31 17:52 18.11.2021
4732 Clouds 6 1024 40 10000 4.68 33 16:46 18.11.2021
4733 Clouds 6 1024 40 10000 4.62 35 15:52 18.11.2021
4734 Clouds 7 1023 42 10000 4.44 35 14:40 18.11.2021
4735 Clouds 8 1021 46 10000 3.13 43 12:55 18.11.2021
4736 Clouds 11 1018 46 10000 1.39 131 11:44 18.11.2021
4737 Clouds 14 1016 38 10000 2.72 183 11:25 18.11.2021
4738 Clouds 16 1016 34 10000 3.17 190 10:24 18.11.2021
4739 Clouds 16 1016 32 10000 2.96 188 08:30 18.11.2021
4740 Clouds 16 1019 23 10000 1.81 205 06:40 18.11.2021
4741 Clouds 15 1020 27 10000 0.06 284 05:44 18.11.2021
4742 Clouds 6 1024 33 10000 4.78 32 01:26 18.11.2021
4743 Clouds 6 1024 33 10000 4.78 32 01:26 18.11.2021
4744 Clouds 7 1023 33 10000 4.6 33 23:35 17.11.2021
4745 Clouds 7 1023 33 10000 4.56 29 22:40 17.11.2021
4746 Clouds 7 1024 33 10000 4.64 30 22:19 17.11.2021
4747 Clouds 7 1024 33 10000 4.64 30 22:19 17.11.2021
4748 Clouds 7 1024 33 10000 4.64 30 21:35 17.11.2021
4749 Clouds 6 1025 33 10000 5.03 32 19:51 17.11.2021
4750 Clear 6 1026 33 10000 5.05 28 17:35 17.11.2021
4751 Clear 6 1026 35 10000 5.18 32 15:56 17.11.2021
4752 Clear 7 1026 41 10000 4.97 29 13:41 17.11.2021
4753 Clear 7 1024 43 10000 4.11 35 12:38 17.11.2021
4754 Clear 14 1019 36 10000 1.83 175 10:54 17.11.2021
4755 Clear 16 1019 34 10000 2.54 185 09:44 17.11.2021
4756 Clear 16 1019 30 10000 2.66 187 08:30 17.11.2021
4757 Clear 16 1020 28 10000 2.45 192 07:41 17.11.2021
4758 Clear 7 1025 28 10000 5.41 27 02:56 17.11.2021
4759 Clear 6 1024 27 10000 5.83 28 00:42 17.11.2021
4760 Clear 6 1024 28 10000 5.9 26 22:37 16.11.2021
4761 Clear 6 1026 31 10000 5.7 26 20:19 16.11.2021
4762 Clear 6 1026 31 10000 5.7 26 19:55 16.11.2021
4763 Clear 6 1026 33 10000 5.83 28 18:52 16.11.2021
4764 Clear 6 1026 35 10000 5.96 28 18:29 16.11.2021
4765 Clear 6 1026 37 10000 6.07 28 17:29 16.11.2021
4766 Clear 6 1026 37 10000 6.07 28 16:31 16.11.2021
4767 Clear 6 1026 38 10000 6.01 27 15:48 16.11.2021
4768 Clear 6 1025 42 10000 5.64 26 13:49 16.11.2021
4769 Clear 14 1017 35 10000 0.27 143 10:52 16.11.2021
4770 Clear 15 1017 28 10000 0.95 193 09:44 16.11.2021
4771 Clear 15 1018 25 10000 0.78 202 08:25 16.11.2021
4772 Clear 15 1018 25 10000 0.69 200 07:31 16.11.2021
4773 Clear 3 1025 33 10000 6.35 28 01:20 16.11.2021
4774 Clear 3 1025 36 10000 6.14 27 22:48 15.11.2021
4775 Clear 3 1025 38 10000 6.07 27 22:21 15.11.2021
4776 Clear 3 1025 38 10000 6.07 27 21:52 15.11.2021
4777 Clear 3 1025 41 10000 6.04 28 21:26 15.11.2021
4778 Clear 3 1025 43 10000 5.92 28 19:41 15.11.2021
4779 Clear 3 1025 46 10000 5.76 28 18:30 15.11.2021
4780 Clear 3 1024 48 10000 5.37 27 16:20 15.11.2021
4781 Clear 3 1024 48 10000 5.37 27 15:40 15.11.2021
4782 Clear 4 1023 49 10000 5.22 28 15:21 15.11.2021
4783 Clear 5 1020 55 10000 3.85 30 13:29 15.11.2021
4784 Clear 12 1016 42 10000 0.59 187 10:57 15.11.2021
4785 Clear 13 1016 30 10000 0.97 207 09:27 15.11.2021
4786 Clear 13 1016 29 10000 0.74 224 07:52 15.11.2021
4787 Clear 10 1019 34 10000 2.75 23 05:19 15.11.2021
4788 Clear 3 1022 45 10000 5.08 24 23:54 14.11.2021
4789 Clear 4 1022 46 10000 4.95 25 22:35 14.11.2021
4790 Clear 4 1023 48 10000 4.36 28 19:57 14.11.2021
4791 Clear 4 1023 49 10000 4.37 28 19:18 14.11.2021
4792 Clear 4 1023 49 10000 4.37 28 18:54 14.11.2021
4793 Clear 4 1023 49 10000 4.37 28 18:36 14.11.2021
4794 Clear 4 1023 50 10000 4.2 31 18:18 14.11.2021
4795 Clear 4 1023 50 10000 4.2 31 17:56 14.11.2021
4796 Clear 4 1023 50 10000 4.2 31 17:38 14.11.2021
4797 Clear 5 1023 50 10000 4.06 34 17:20 14.11.2021
4798 Clear 5 1023 50 10000 4.06 34 16:47 14.11.2021
4799 Clear 5 1022 50 10000 4.01 34 16:20 14.11.2021
4800 Clear 5 1022 52 10000 3.98 34 15:23 14.11.2021
4801 Clear 5 1022 52 10000 3.98 34 14:49 14.11.2021
4802 Clear 5 1021 55 10000 3.85 36 14:29 14.11.2021
4803 Clear 5 1021 55 10000 3.85 36 13:54 14.11.2021
4804 Clear 5 1021 55 10000 3.85 36 13:35 14.11.2021
4805 Clouds 10 1017 48 10000 1.58 162 12:27 14.11.2021
4806 Clouds 10 1017 48 10000 1.58 162 11:41 14.11.2021
4807 Clouds 13 1016 40 10000 2.93 184 10:42 14.11.2021
4808 Clouds 15 1015 34 10000 3.53 189 09:52 14.11.2021
4809 Clouds 15 1016 29 10000 3.35 188 08:55 14.11.2021
4810 Clear 15 1018 27 10000 2.4 206 07:23 14.11.2021
4811 Clear 6 1023 28 10000 5.46 28 00:26 14.11.2021
4812 Clear 6 1023 29 10000 5.49 26 22:26 13.11.2021
4813 Clear 6 1023 29 10000 5.49 26 21:57 13.11.2021
4814 Clear 6 1023 30 10000 5.56 27 21:23 13.11.2021
4815 Clear 6 1024 30 10000 5.83 27 19:47 13.11.2021
4816 Clear 6 1024 32 10000 5.95 29 18:33 13.11.2021
4817 Clear 6 1025 33 10000 6.13 29 17:56 13.11.2021
4818 Clear 6 1025 35 10000 6.12 28 16:38 13.11.2021
4819 Clear 6 1024 37 10000 6.03 27 15:34 13.11.2021
4820 Clear 7 1024 37 10000 5.9 27 14:30 13.11.2021
4821 Clear 7 1024 38 10000 5.77 26 13:38 13.11.2021
4822 Clear 12 1019 44 10000 2.12 45 12:28 13.11.2021
4823 Clear 12 1019 44 10000 2.12 45 11:38 13.11.2021
4824 Clear 16 1018 39 10000 0.82 119 10:45 13.11.2021
4825 Clear 17 1017 34 10000 1.22 179 10:22 13.11.2021
4826 Clear 17 1017 34 10000 1.22 179 09:38 13.11.2021
4827 Clear 17 1018 30 10000 1.18 192 08:56 13.11.2021
4828 Clear 17 1018 30 10000 1.18 192 08:31 13.11.2021
4829 Clear 16 1021 27 10000 1.44 20 05:59 13.11.2021
4830 Clear 13 1022 29 10000 3.04 23 04:30 13.11.2021
4831 Clear 5 1026 27 10000 6.16 28 01:38 13.11.2021
4832 Clear 5 1025 28 10000 6.17 28 22:58 12.11.2021
4833 Clear 5 1026 29 10000 6.1 28 21:49 12.11.2021
4834 Clear 6 1026 30 10000 6.02 29 20:18 12.11.2021
4835 Clear 6 1027 32 10000 5.95 29 19:28 12.11.2021
4836 Clear 6 1027 32 10000 5.97 29 18:46 12.11.2021
4837 Clear 6 1027 36 10000 6.04 29 16:39 12.11.2021
4838 Clear 6 1026 38 10000 6.01 29 15:33 12.11.2021
4839 Clear 8 1023 47 10000 4.34 31 12:54 12.11.2021
4840 Clear 8 1023 47 10000 4.34 31 12:54 12.11.2021
4841 Clear 16 1017 40 10000 1.4 164 10:51 12.11.2021
4842 Clear 17 1017 34 10000 1.95 182 09:45 12.11.2021
4843 Clear 17 1017 30 10000 2.09 188 08:39 12.11.2021
4844 Clear 7 1024 28 10000 5.39 27 03:27 12.11.2021
4845 Clear 6 1024 29 10000 5.56 27 23:42 11.11.2021
4846 Clear 6 1024 29 10000 5.33 28 22:40 11.11.2021
4847 Clear 6 1024 30 10000 5.59 26 21:29 11.11.2021
4848 Clear 6 1024 30 10000 5.59 26 20:48 11.11.2021
4849 Clear 6 1025 33 10000 5.58 27 19:24 11.11.2021
4850 Clear 6 1025 35 10000 5.59 28 18:22 11.11.2021
4851 Clear 6 1025 35 10000 5.59 28 17:37 11.11.2021
4852 Clear 6 1024 44 10000 5.28 29 15:19 11.11.2021
4853 Clear 6 1024 44 10000 5.28 29 14:30 11.11.2021
4854 Clear 7 1023 47 10000 5.11 26 13:41 11.11.2021
4855 Clear 8 1022 50 10000 3.83 30 12:52 11.11.2021
4856 Clear 12 1018 47 10000 1.02 76 11:57 11.11.2021
4857 Clear 16 1016 30 10000 2.02 187 09:54 11.11.2021
4858 Clear 16 1018 26 10000 1.65 198 08:21 11.11.2021
4859 Clear 15 1020 25 10000 0.62 1 06:19 11.11.2021
4860 Clear 5 1025 30 10000 5.75 27 00:37 11.11.2021
4861 Clear 5 1025 31 10000 5.64 28 22:38 10.11.2021
4862 Clear 5 1025 32 10000 5.65 27 21:46 10.11.2021
4863 Clear 5 1025 33 10000 5.67 27 20:53 10.11.2021
4864 Clear 6 1025 35 10000 5.68 28 19:50 10.11.2021
4865 Clear 6 1025 35 10000 5.68 28 19:32 10.11.2021
4866 Clear 6 1026 44 10000 5.45 29 16:50 10.11.2021
4867 Clear 7 1025 46 10000 5.37 28 15:46 10.11.2021
4868 Clear 7 1024 50 10000 4.88 28 14:23 10.11.2021
4869 Clear 7 1024 50 10000 4.88 28 13:31 10.11.2021
4870 Clear 13 1019 52 10000 0.9 68 11:40 10.11.2021
4871 Clear 17 1018 31 10000 1.16 191 09:18 10.11.2021
4872 Clear 17 1018 31 10000 1.16 191 08:40 10.11.2021
4873 Clear 17 1019 27 10000 0.49 224 06:45 10.11.2021
4874 Clear 16 1020 29 10000 1 9 05:58 10.11.2021
4875 Clear 5 1026 37 10000 5.28 27 01:56 10.11.2021
4876 Clear 6 1025 39 10000 5.63 26 21:59 09.11.2021
4877 Clear 6 1026 40 10000 5.5 28 20:39 09.11.2021
4878 Clear 6 1026 42 10000 5.65 28 19:29 09.11.2021
4879 Clear 6 1026 42 10000 5.65 28 18:48 09.11.2021
4880 Clear 7 1026 44 10000 5.41 28 16:53 09.11.2021
4881 Clear 7 1025 47 10000 5.42 28 15:20 09.11.2021
4882 Clear 8 1025 52 10000 5.17 26 13:31 09.11.2021
4883 Clear 9 1023 59 10000 3.6 29 12:47 09.11.2021
4884 Clear 16 1018 49 10000 1.51 181 10:58 09.11.2021
4885 Clear 17 1018 39 10000 1.92 188 09:59 09.11.2021
4886 Clear 17 1018 35 10000 1.98 200 08:54 09.11.2021
4887 Clear 17 1018 35 10000 1.06 207 07:52 09.11.2021
4888 Clear 7 1025 38 10000 5.45 26 02:37 09.11.2021
4889 Clear 6 1026 39 10000 5.62 26 01:51 09.11.2021
4890 Clear 6 1026 40 10000 5.76 26 00:39 09.11.2021
4891 Clear 6 1026 41 10000 5.7 26 23:31 08.11.2021
4892 Clear 6 1026 42 10000 5.72 26 22:45 08.11.2021
4893 Clear 6 1026 43 10000 5.83 27 21:45 08.11.2021
4894 Clear 6 1027 45 10000 5.8 27 20:34 08.11.2021
4895 Clear 6 1027 45 10000 5.6 28 19:40 08.11.2021
4896 Clear 6 1027 44 10000 5.61 28 17:44 08.11.2021
4897 Clear 6 1027 43 10000 5.4 29 15:56 08.11.2021
4898 Clear 6 1026 44 10000 5.44 26 14:56 08.11.2021
4899 Clear 6 1026 44 10000 5.44 26 14:33 08.11.2021
4900 Clear 8 1023 56 10000 3.64 31 13:18 08.11.2021
4901 Clear 12 1020 51 10000 0.81 60 11:55 08.11.2021
4902 Clear 15 1018 43 10000 0.38 179 10:50 08.11.2021
4903 Clear 16 1018 28 10000 0.26 330 09:26 08.11.2021
4904 Clear 16 1018 28 10000 0.26 330 08:42 08.11.2021
4905 Clear 16 1020 26 10000 0.65 5 06:56 08.11.2021
4906 Clear 9 1024 35 10000 4.28 26 03:35 08.11.2021
4907 Clear 4 1027 36 10000 5.92 28 01:35 08.11.2021
4908 Clear 5 1026 39 10000 5.6 27 23:25 07.11.2021
4909 Clear 5 1027 41 10000 5.49 27 21:26 07.11.2021
4910 Clear 5 1027 43 10000 5.56 27 20:28 07.11.2021
4911 Clear 5 1027 45 10000 5.52 28 19:19 07.11.2021
4912 Clear 5 1027 48 10000 5.37 29 17:44 07.11.2021
4913 Clear 5 1026 50 10000 5.37 29 16:42 07.11.2021
4914 Clear 6 1026 51 10000 5.15 29 15:41 07.11.2021
4915 Clear 7 1024 55 10000 4.5 28 14:27 07.11.2021
4916 Clear 8 1021 57 10000 3.14 34 12:55 07.11.2021
4917 Clear 12 1018 50 10000 0.84 133 11:42 07.11.2021
4918 Clear 16 1016 29 10000 1.72 189 09:21 07.11.2021
4919 Clear 9 1021 38 10000 4.16 25 03:40 07.11.2021
4920 Clear 4 1024 38 10000 5.68 27 02:28 07.11.2021
4921 Clear 4 1023 42 10000 5.54 26 22:57 06.11.2021
4922 Clear 4 1023 44 10000 5.49 26 22:29 06.11.2021
4923 Clear 5 1023 46 10000 5.45 27 21:27 06.11.2021
4924 Clear 5 1023 46 10000 5.45 27 20:30 06.11.2021
4925 Clear 5 1024 55 10000 5.28 29 17:50 06.11.2021
4926 Clear 5 1024 56 10000 5.13 30 16:38 06.11.2021
4927 Clear 6 1023 59 10000 4.83 29 14:31 06.11.2021
4928 Clear 6 1022 64 10000 4.48 29 13:38 06.11.2021
4929 Clear 14 1016 47 10000 1.42 184 11:25 06.11.2021
4930 Clear 15 1017 38 10000 1.12 202 09:21 06.11.2021
4931 Clear 12 1021 41 10000 2.03 19 04:55 06.11.2021
4932 Clear 4 1024 50 10000 5.36 27 01:27 06.11.2021
4933 Clear 4 1024 51 10000 5.16 26 23:34 05.11.2021
4934 Clear 5 1024 51 10000 5.13 27 22:33 05.11.2021
4935 Clear 5 1024 51 10000 5.13 27 22:33 05.11.2021
4936 Clear 5 1025 52 10000 4.96 28 20:42 05.11.2021
4937 Clear 5 1025 53 10000 4.94 29 20:19 05.11.2021
4938 Clear 5 1025 53 10000 5.15 28 19:32 05.11.2021
4939 Clouds 5 1025 55 10000 5.01 29 18:38 05.11.2021
4940 Clouds 6 1025 59 10000 4.64 29 17:25 05.11.2021
4941 Clouds 6 1024 65 10000 4.27 30 14:54 05.11.2021
4942 Clouds 7 1023 67 10000 3.77 31 13:33 05.11.2021
4943 Clouds 14 1018 42 10000 3.15 194 10:29 05.11.2021
4944 Clouds 14 1018 38 10000 2.76 193 08:39 05.11.2021
4945 Clear 14 1020 31 10000 1.62 210 07:21 05.11.2021
4946 Clear 12 1022 37 10000 1.16 8 04:43 05.11.2021
4947 Clear 4 1025 46 10000 4.75 25 02:24 05.11.2021
4948 Clear 4 1025 46 10000 4.79 25 00:30 05.11.2021
4949 Clear 4 1025 48 10000 4.65 24 22:59 04.11.2021
4950 Clear 4 1025 49 10000 4.65 26 22:18 04.11.2021
4951 Clear 4 1025 49 10000 4.65 26 21:31 04.11.2021
4952 Clear 4 1026 50 10000 4.83 25 20:40 04.11.2021
4953 Clear 5 1026 51 10000 4.79 24 20:19 04.11.2021
4954 Clear 5 1026 51 10000 4.79 24 19:40 04.11.2021
4955 Clouds 5 1026 53 10000 4.78 27 18:43 04.11.2021
4956 Clouds 5 1026 54 10000 4.75 27 17:36 04.11.2021
4957 Clouds 5 1026 56 10000 4.66 26 16:29 04.11.2021
4958 Clouds 6 1024 60 10000 4.33 28 14:20 04.11.2021
4959 Clouds 11 1019 52 10000 0.71 135 11:43 04.11.2021
4960 Clouds 13 1019 35 10000 1.34 198 09:29 04.11.2021
4961 Clouds 13 1020 33 10000 1.16 208 08:29 04.11.2021
4962 Clouds 13 1020 33 10000 1.16 208 07:34 04.11.2021
4963 Clear 3 1026 54 10000 4.91 27 23:54 03.11.2021
4964 Clear 3 1026 55 10000 4.87 26 22:50 03.11.2021
4965 Clear 3 1027 55 10000 4.77 26 21:47 03.11.2021
4966 Clear 3 1027 57 10000 4.86 26 21:25 03.11.2021
4967 Clear 3 1027 58 10000 4.74 26 20:34 03.11.2021
4968 Clear 3 1027 59 10000 4.81 26 19:40 03.11.2021
4969 Clouds 3 1027 61 10000 4.74 25 18:51 03.11.2021
4970 Clouds 4 1028 62 10000 4.8 26 18:18 03.11.2021
4971 Clouds 4 1028 64 10000 4.66 26 17:20 03.11.2021
4972 Clouds 4 1027 67 10000 4.42 26 16:18 03.11.2021
4973 Clouds 4 1027 67 10000 4.42 26 15:42 03.11.2021
4974 Clouds 7 1024 75 10000 3 37 13:49 03.11.2021
4975 Clouds 10 1020 65 9808 1.63 209 11:39 03.11.2021
4976 Clouds 11 1020 56 10000 2.15 208 10:53 03.11.2021
4977 Clouds 12 1020 51 10000 2.61 206 10:28 03.11.2021
4978 Clouds 12 1021 45 10000 2.54 203 09:29 03.11.2021
4979 Clouds 12 1022 45 10000 1.25 206 08:22 03.11.2021
4980 Clouds 12 1022 45 10000 1.25 206 07:39 03.11.2021
4981 Clear 7 1027 53 10000 3.55 25 04:26 03.11.2021
4982 Clear 2 1031 60 10000 5.19 26 01:49 03.11.2021
4983 Clear 2 1031 60 10000 5.19 26 01:49 03.11.2021
4984 Clouds 4 1028 61 10000 4.58 26 23:33 02.11.2021
4985 Clouds 4 1028 62 10000 4.59 25 22:29 02.11.2021
4986 Clouds 4 1029 62 10000 4.62 26 20:54 02.11.2021
4987 Clouds 4 1029 62 10000 4.62 26 20:32 02.11.2021
4988 Clouds 4 1029 63 10000 4.77 27 19:47 02.11.2021
4989 Clouds 4 1028 66 10000 4.32 28 18:51 02.11.2021
4990 Clouds 5 1028 66 10000 4.05 31 17:58 02.11.2021
4991 Clouds 5 1028 66 10000 4.05 31 17:32 02.11.2021
4992 Clouds 5 1028 70 10000 3.77 35 16:29 02.11.2021
4993 Clouds 6 1027 75 10000 3.4 37 15:26 02.11.2021
4994 Clouds 7 1026 78 10000 2.64 39 14:22 02.11.2021
4995 Clouds 9 1024 65 10000 1.15 359 13:27 02.11.2021
4996 Clouds 9 1024 65 10000 1.15 359 12:33 02.11.2021
4997 Clouds 10 1023 56 10000 0.76 255 11:32 02.11.2021
4998 Clouds 11 1022 51 10000 1.87 215 10:51 02.11.2021
4999 Clouds 12 1022 46 10000 2.59 209 10:25 02.11.2021
5000 Clouds 12 1022 41 10000 2.33 214 08:43 02.11.2021
5001 Clouds 12 1024 37 10000 2.25 211 06:50 02.11.2021
5002 Clouds 8 1026 41 10000 3 30 03:34 02.11.2021
5003 Clouds 4 1029 45 10000 4.55 29 02:18 02.11.2021
5004 Clouds 4 1028 45 10000 5.26 27 22:44 01.11.2021
5005 Clear 4 1029 49 10000 5.31 26 20:52 01.11.2021
5006 Clear 4 1029 49 10000 5.31 26 20:33 01.11.2021
5007 Clear 4 1029 52 10000 5.12 28 19:52 01.11.2021
5008 Clear 4 1028 56 10000 4.95 28 19:25 01.11.2021
5009 Clear 4 1028 61 10000 4.83 27 18:21 01.11.2021
5010 Clear 5 1028 65 10000 4.58 28 17:21 01.11.2021
5011 Clear 5 1028 65 10000 4.58 28 16:45 01.11.2021
5012 Clear 5 1027 67 10000 4.32 29 15:47 01.11.2021
5013 Clear 5 1026 69 10000 3.93 32 15:21 01.11.2021
5014 Clear 5 1026 69 10000 3.93 32 14:42 01.11.2021
5015 Clear 6 1024 72 10000 3.01 44 14:20 01.11.2021
5016 Clouds 7 1022 70 10000 0.94 92 13:25 01.11.2021
5017 Clouds 11 1020 57 10000 2.2 191 12:25 01.11.2021
5018 Clouds 13 1019 49 10000 2.89 194 10:33 01.11.2021
5019 Clouds 14 1019 43 10000 3.11 192 08:53 01.11.2021
5020 Clouds 14 1020 42 10000 2.74 192 07:48 01.11.2021
5021 Clouds 13 1021 38 10000 1.66 207 05:56 01.11.2021
5022 Clouds 9 1023 47 10000 2.35 28 03:42 01.11.2021
5023 Clear 5 1023 53 10000 4.55 29 00:27 01.11.2021
5024 Clear 6 1023 56 10000 4.59 29 21:55 31.10.2021
5025 Clear 6 1024 56 10000 4.55 28 20:36 31.10.2021
5026 Clear 6 1025 55 10000 4.61 28 18:54 31.10.2021
5027 Clear 6 1025 55 10000 4.61 28 18:32 31.10.2021
5028 Clear 6 1025 53 10000 4.82 30 16:49 31.10.2021
5029 Clear 7 1024 53 10000 4.82 28 15:29 31.10.2021
5030 Clear 7 1024 59 10000 4.47 27 13:38 31.10.2021
5031 Clear 8 1022 63 10000 2.7 37 12:37 31.10.2021
5032 Clear 15 1018 41 10000 1.53 199 10:57 31.10.2021
5033 Clear 15 1018 41 10000 1.53 199 10:36 31.10.2021
5034 Clear 16 1018 33 10000 0.68 198 09:19 31.10.2021
5035 Clear 13 1022 36 10000 2.53 24 04:55 31.10.2021
5036 Clear 5 1024 43 10000 5.13 27 00:48 31.10.2021
5037 Clear 6 1025 44 10000 4.98 28 22:33 30.10.2021
5038 Clear 6 1025 45 10000 4.85 27 21:33 30.10.2021
5039 Clear 6 1026 47 10000 5.3 26 20:19 30.10.2021
5040 Clear 6 1027 49 10000 5.29 28 18:33 30.10.2021
5041 Clear 6 1027 51 10000 5.19 27 16:42 30.10.2021
5042 Clear 6 1026 54 10000 4.87 25 14:36 30.10.2021
5043 Clear 8 1024 59 10000 2.87 33 13:39 30.10.2021
5044 Clear 12 1021 50 10000 0.69 117 13:20 30.10.2021
5045 Clear 15 1020 38 10000 0.97 181 11:51 30.10.2021
5046 Clear 15 1020 38 10000 0.97 181 11:31 30.10.2021
5047 Clear 15 1021 28 10000 1.02 196 10:24 30.10.2021
5048 Clear 15 1022 29 10000 0.59 194 08:48 30.10.2021
5049 Clear 12 1025 30 10000 2.58 22 06:26 30.10.2021
5050 Clear 12 1025 30 10000 2.58 22 05:38 30.10.2021
5051 Clear 4 1029 37 10000 5.8 25 23:52 29.10.2021
5052 Clear 5 1030 38 10000 5.79 26 22:37 29.10.2021
5053 Clear 5 1030 41 10000 5.72 25 21:52 29.10.2021
5054 Clear 5 1030 44 10000 5.64 25 20:44 29.10.2021
5055 Clear 5 1030 46 10000 5.43 26 19:49 29.10.2021
5056 Clear 6 1030 55 10000 5 27 18:27 29.10.2021
5057 Clear 6 1029 57 10000 4.85 28 16:51 29.10.2021
5058 Clear 7 1028 63 10000 4.28 29 14:33 29.10.2021
5059 Clear 15 1022 45 10000 2.11 181 11:43 29.10.2021
5060 Clear 16 1021 37 10000 2.24 185 10:35 29.10.2021
5061 Clear 16 1024 31 10000 1.58 203 08:19 29.10.2021
5062 Clear 5 1028 41 10000 5.37 26 00:36 29.10.2021
5063 Clear 6 1028 43 10000 5.43 26 22:59 28.10.2021
5064 Clear 6 1028 45 10000 5.48 26 21:55 28.10.2021
5065 Clear 6 1029 47 10000 5.54 27 20:32 28.10.2021
5066 Clear 6 1029 49 10000 5.55 27 19:48 28.10.2021
5067 Clear 6 1029 51 10000 5.33 27 18:20 28.10.2021
5068 Clear 6 1028 51 10000 5.4 27 16:58 28.10.2021
5069 Clear 7 1028 54 10000 4.67 27 15:20 28.10.2021
5070 Clear 9 1025 56 10000 2.81 33 13:46 28.10.2021
5071 Clear 13 1022 48 10000 0.54 95 13:22 28.10.2021
5072 Clear 13 1022 48 10000 0.54 95 12:41 28.10.2021
5073 Clear 16 1021 31 10000 1.48 187 10:57 28.10.2021
5074 Clear 16 1021 29 10000 1.61 195 09:38 28.10.2021
5075 Clear 16 1022 30 10000 1.23 201 08:58 28.10.2021
5076 Clear 16 1022 30 10000 1.23 201 08:34 28.10.2021
5077 Clear 10 1026 35 10000 4 25 04:48 28.10.2021
5078 Clear 4 1028 40 10000 6.02 27 23:50 27.10.2021
5079 Clear 4 1028 40 10000 6.02 27 22:31 27.10.2021
5080 Clear 4 1029 41 10000 6.02 28 21:33 27.10.2021
5081 Clear 4 1029 43 10000 5.95 28 20:53 27.10.2021
5082 Clear 4 1029 43 10000 5.95 28 20:33 27.10.2021
5083 Clear 4 1030 44 10000 5.89 28 19:40 27.10.2021
5084 Clear 4 1030 45 10000 5.91 26 18:52 27.10.2021
5085 Clear 5 1028 49 10000 5.91 27 16:27 27.10.2021
5086 Clear 5 1028 49 10000 5.91 27 15:32 27.10.2021
5087 Clear 5 1027 53 10000 5.12 26 14:40 27.10.2021
5088 Clear 12 1021 52 10000 0.68 94 12:33 27.10.2021
5089 Clear 14 1020 36 10000 0.23 122 10:58 27.10.2021
5090 Clear 14 1021 37 10000 0.25 281 09:51 27.10.2021
5091 Clear 14 1022 39 10000 0.37 256 08:36 27.10.2021
5092 Clouds 14 1022 34 10000 0.19 150 07:31 27.10.2021
5093 Clouds 5 1027 61 10000 4.83 28 02:30 27.10.2021
5094 Clear 5 1026 60 10000 4.68 25 00:57 27.10.2021
5095 Clear 5 1026 60 10000 4.68 25 00:30 27.10.2021
5096 Clear 5 1026 60 10000 4.3 26 23:43 26.10.2021
5097 Clear 5 1026 59 10000 4.27 26 22:39 26.10.2021
5098 Clear 5 1026 59 10000 4.19 25 21:59 26.10.2021
5099 Clear 6 1026 58 10000 4.19 26 20:40 26.10.2021
5100 Clear 6 1026 58 10000 4.5 26 19:32 26.10.2021
5101 Clear 6 1027 58 10000 4.56 28 18:41 26.10.2021
5102 Clear 6 1026 62 10000 4.56 27 16:42 26.10.2021
5103 Clear 7 1024 67 10000 3.78 33 14:56 26.10.2021
5104 Clear 14 1017 45 10000 3 186 11:47 26.10.2021
5105 Clear 15 1017 37 10000 3.32 187 10:33 26.10.2021
5106 Clear 15 1019 28 10000 2.4 194 07:47 26.10.2021
5107 Clear 14 1020 34 10000 0.23 173 07:20 26.10.2021
5108 Clear 4 1025 44 10000 5.5 28 23:51 25.10.2021
5109 Clear 4 1025 44 10000 5.5 28 23:51 25.10.2021
5110 Clear 4 1025 44 10000 5.5 28 23:51 25.10.2021
5111 Clear 4 1025 44 10000 5.58 28 22:55 25.10.2021
5112 Clear 4 1025 46 10000 5.72 28 22:20 25.10.2021
5113 Clear 4 1025 46 10000 5.72 28 21:39 25.10.2021
5114 Clear 5 1026 52 10000 5.74 27 20:18 25.10.2021
5115 Clear 5 1027 56 10000 5.7 27 19:26 25.10.2021
5116 Clear 5 1027 56 10000 5.7 27 18:59 25.10.2021
5117 Clear 5 1027 58 10000 5.61 27 18:20 25.10.2021
5118 Clear 6 1025 63 10000 5.18 26 16:20 25.10.2021
5119 Clear 7 1024 69 10000 4.53 29 14:36 25.10.2021
5120 Clear 13 1019 64 10000 1.64 172 12:30 25.10.2021
5121 Clear 15 1019 44 10000 2.15 187 10:23 25.10.2021
5122 Clear 15 1020 43 10000 2 191 08:37 25.10.2021
5123 Clear 12 1023 53 10000 1.9 16 06:26 25.10.2021
5124 Clear 4 1028 63 10000 5.44 26 02:31 25.10.2021
5125 Clouds 4 1027 66 10000 5.19 27 00:46 25.10.2021
5126 Clouds 5 1027 68 10000 4.95 27 23:47 24.10.2021
5127 Clouds 5 1026 70 10000 4.65 28 22:56 24.10.2021
5128 Clouds 5 1026 70 10000 4.65 28 22:36 24.10.2021
5129 Clouds 6 1027 72 10000 4.4 28 22:18 24.10.2021
5130 Clouds 6 1027 74 10000 3.9 30 20:46 24.10.2021
5131 Clouds 6 1027 76 10000 3.72 26 20:27 24.10.2021
5132 Clouds 6 1028 73 10000 4.12 30 18:53 24.10.2021
5133 Clouds 6 1027 74 10000 3.94 29 17:58 24.10.2021
5134 Clouds 7 1026 77 10000 3.7 29 17:18 24.10.2021
5135 Clouds 9 1025 87 8906 2.31 7 15:47 24.10.2021
5136 Rain 9 1024 92 4308 0.72 339 13:52 24.10.2021
5137 Rain 10 1023 90 2703 0.87 302 12:41 24.10.2021
5138 Rain 10 1023 90 2703 0.87 302 12:41 24.10.2021
5139 Clouds 10 1023 88 1988 1.39 279 11:43 24.10.2021
5140 Rain 10 1022 86 1465 1.34 271 10:47 24.10.2021
5141 Clouds 12 1022 72 3041 1.68 253 09:54 24.10.2021
5142 Clouds 12 1023 63 10000 2.43 2 05:35 24.10.2021
5143 Clouds 9 1022 80 10000 3.44 10 00:53 24.10.2021
5144 Clouds 9 1022 82 10000 3.63 9 23:34 23.10.2021
5145 Rain 9 1024 91 7778 1.91 352 21:56 23.10.2021
5146 Clouds 10 1024 93 4527 0.42 321 19:54 23.10.2021
5147 Rain 10 1024 90 3421 1.03 9 18:59 23.10.2021
5148 Rain 10 1023 86 1764 1.7 25 18:21 23.10.2021
5149 Rain 10 1023 86 1764 1.7 25 17:43 23.10.2021
5150 Rain 10 1023 86 1764 1.7 25 17:43 23.10.2021
5151 Clouds 11 1022 74 10000 2.49 42 16:22 23.10.2021
5152 Clouds 12 1021 72 10000 1.14 354 14:22 23.10.2021
5153 Clouds 13 1021 51 10000 1.45 17 03:33 23.10.2021
5154 Clouds 12 1019 50 10000 1.07 40 23:59 22.10.2021
5155 Clouds 12 1020 51 10000 1.53 48 22:53 22.10.2021
5156 Clouds 12 1022 55 10000 2.22 42 19:53 22.10.2021
5157 Clouds 11 1023 58 10000 2.65 41 18:41 22.10.2021
5158 Clouds 11 1023 61 10000 3.07 39 17:40 22.10.2021
5159 Clouds 12 1021 67 10000 1.87 69 15:25 22.10.2021
5160 Clouds 13 1020 67 10000 1.41 155 13:48 22.10.2021
5161 Clouds 18 1017 45 10000 3.92 191 11:24 22.10.2021
5162 Clouds 18 1017 45 10000 3.92 191 10:41 22.10.2021
5163 Clouds 19 1017 42 10000 3.78 188 09:56 22.10.2021
5164 Clouds 19 1017 38 10000 3.3 190 08:36 22.10.2021
5165 Clouds 18 1018 29 10000 1.76 201 07:22 22.10.2021
5166 Clouds 18 1018 29 10000 1.76 201 07:22 22.10.2021
5167 Clouds 10 1021 41 10000 4.36 30 02:57 22.10.2021
5168 Clear 11 1021 47 10000 4.43 29 23:55 21.10.2021
5169 Clear 11 1021 47 10000 4.43 29 23:35 21.10.2021
5170 Clear 11 1022 51 10000 4.22 29 21:50 21.10.2021
5171 Clear 11 1022 55 10000 4.32 29 20:40 21.10.2021
5172 Clear 11 1023 59 10000 4.29 29 20:18 21.10.2021
5173 Clear 12 1022 61 10000 4.18 32 19:29 21.10.2021
5174 Clear 12 1022 61 10000 4.18 32 18:45 21.10.2021
5175 Clear 12 1022 64 10000 4.01 31 17:56 21.10.2021
5176 Clear 12 1022 64 10000 4.01 31 17:37 21.10.2021
5177 Clear 13 1021 73 10000 3.41 32 15:49 21.10.2021
5178 Clear 13 1020 80 10000 2.22 47 15:20 21.10.2021
5179 Clear 13 1020 80 10000 2.22 47 14:38 21.10.2021
5180 Clear 18 1016 68 10000 2.34 189 13:19 21.10.2021
5181 Clear 20 1015 48 10000 2.99 189 11:24 21.10.2021
5182 Clear 21 1017 39 10000 2.66 190 08:34 21.10.2021
5183 Clear 20 1018 31 10000 1.44 181 07:28 21.10.2021
5184 Clear 11 1022 44 10000 4.65 30 03:29 21.10.2021
5185 Clear 12 1022 50 10000 4.35 33 23:25 20.10.2021
5186 Clear 12 1023 49 10000 4.31 34 21:51 20.10.2021
5187 Clear 12 1023 49 10000 4.31 34 21:30 20.10.2021
5188 Clear 12 1023 50 10000 4.18 37 20:54 20.10.2021
5189 Clear 12 1023 51 10000 4.14 37 20:28 20.10.2021
5190 Clear 12 1023 51 10000 4.12 38 19:51 20.10.2021
5191 Clear 12 1023 53 10000 4.23 36 18:54 20.10.2021
5192 Clear 12 1023 54 10000 4.3 34 17:45 20.10.2021
5193 Clear 13 1021 63 10000 3.42 36 15:26 20.10.2021
5194 Clear 21 1017 37 10000 2.43 188 10:25 20.10.2021
5195 Clear 21 1018 35 10000 2.29 191 08:53 20.10.2021
5196 Clear 10 1024 36 10000 4.78 32 03:21 20.10.2021
5197 Clear 10 1022 39 10000 4.62 33 00:47 20.10.2021
5198 Clear 11 1022 40 10000 4.55 33 23:59 19.10.2021
5199 Clear 11 1022 40 10000 4.47 34 21:43 19.10.2021
5200 Clear 11 1022 41 10000 4.52 34 20:54 19.10.2021
5201 Clear 11 1022 42 10000 4.6 34 20:25 19.10.2021
5202 Clear 11 1023 42 10000 4.5 35 19:41 19.10.2021
5203 Clear 11 1022 44 10000 4.57 34 19:19 19.10.2021
5204 Clear 11 1022 46 10000 4.58 34 17:58 19.10.2021
5205 Clear 12 1020 52 10000 4.28 35 15:48 19.10.2021
5206 Clear 12 1019 58 10000 3.65 42 15:20 19.10.2021
5207 Clear 14 1017 66 10000 1.64 75 14:26 19.10.2021
5208 Clear 14 1017 66 10000 1.53 77 13:35 19.10.2021
5209 Clear 19 1014 49 10000 2.14 175 11:36 19.10.2021
5210 Clear 20 1013 45 10000 2.38 177 10:36 19.10.2021
5211 Clear 20 1014 40 10000 2.34 176 08:58 19.10.2021
5212 Clear 17 1016 67 10000 0.76 341 07:20 19.10.2021
5213 Clear 7 1020 56 10000 5.83 27 00:26 19.10.2021
5214 Clear 7 1020 56 10000 5.83 27 23:51 18.10.2021
5215 Clear 7 1020 59 10000 5.63 27 23:20 18.10.2021
5216 Clear 7 1020 59 10000 5.63 27 22:54 18.10.2021
5217 Clear 8 1020 62 10000 5.58 27 21:54 18.10.2021
5218 Clear 8 1021 64 10000 5.44 27 20:42 18.10.2021
5219 Clouds 8 1021 68 10000 5.13 25 20:19 18.10.2021
5220 Clouds 8 1020 71 10000 5.05 26 19:30 18.10.2021
5221 Clouds 9 1020 72 10000 4.54 27 18:58 18.10.2021
5222 Clouds 10 1017 79 10000 3.56 24 15:56 18.10.2021
5223 Clouds 12 1017 92 10000 2.8 21 14:30 18.10.2021
5224 Clouds 14 1014 92 4994 1.74 48 11:20 18.10.2021
5225 Rain 14 1015 92 3696 1.87 21 09:37 18.10.2021
5226 Clouds 13 1017 94 2140 0.84 21 05:32 18.10.2021
5227 Clouds 14 1016 88 6829 1.85 22 23:51 17.10.2021
5228 Clouds 15 1016 83 8948 2.3 22 21:59 17.10.2021
5229 Clouds 15 1016 83 8948 2.3 22 21:40 17.10.2021
5230 Clouds 15 1016 82 10000 2.48 19 20:42 17.10.2021
5231 Clouds 14 1019 89 5624 2.27 37 19:56 17.10.2021
5232 Clouds 14 1019 89 5624 2.27 37 19:37 17.10.2021
5233 Clouds 14 1019 88 5134 2.96 21 18:28 17.10.2021
5234 Clouds 15 1019 85 7653 2.56 26 15:57 17.10.2021
5235 Clouds 14 1020 91 3993 2.3 48 14:38 17.10.2021
5236 Clouds 14 1020 92 2891 1.68 63 13:56 17.10.2021
5237 Clouds 14 1020 92 2891 1.68 63 13:30 17.10.2021
5238 Clouds 18 1018 66 10000 3.62 177 11:27 17.10.2021
5239 Clouds 20 1017 50 10000 4.56 189 09:56 17.10.2021
5240 Clouds 20 1019 36 10000 2.89 208 07:43 17.10.2021
5241 Clouds 15 1020 37 10000 3.27 30 02:57 17.10.2021
5242 Clear 14 1020 40 10000 3.84 28 00:30 17.10.2021
5243 Clouds 14 1020 41 10000 3.56 28 22:47 16.10.2021
5244 Clear 15 1021 41 10000 3.39 30 20:45 16.10.2021
5245 Clear 15 1021 42 10000 3.44 30 20:26 16.10.2021
5246 Clear 15 1021 42 10000 3.44 30 19:40 16.10.2021
5247 Clear 15 1021 43 10000 3.51 30 19:19 16.10.2021
5248 Clear 15 1021 43 10000 3.51 30 19:18 16.10.2021
5249 Clear 15 1021 43 10000 3.51 30 18:44 16.10.2021
5250 Clear 15 1021 45 10000 3.83 29 18:22 16.10.2021
5251 Clear 15 1021 45 10000 3.83 29 17:31 16.10.2021
5252 Clear 15 1020 52 10000 3.69 29 16:20 16.10.2021
5253 Clear 21 1015 38 10000 2.56 190 13:26 16.10.2021
5254 Clear 23 1014 28 10000 3.72 195 11:24 16.10.2021
5255 Clear 23 1015 26 10000 3.69 197 09:35 16.10.2021
5256 Clear 19 1018 29 10000 1.95 32 04:33 16.10.2021
5257 Clear 13 1019 39 10000 3.92 29 01:22 16.10.2021
5258 Clear 13 1018 36 10000 3.87 30 23:27 15.10.2021
5259 Clear 14 1019 35 10000 3.81 29 22:21 15.10.2021
5260 Clear 14 1019 35 10000 3.81 29 21:41 15.10.2021
5261 Clear 14 1019 35 10000 3.7 31 20:54 15.10.2021
5262 Clear 14 1019 35 10000 3.7 31 20:35 15.10.2021
5263 Clear 14 1019 39 10000 4 31 19:20 15.10.2021
5264 Clear 14 1019 40 10000 4.18 29 18:25 15.10.2021
5265 Clear 15 1018 43 10000 4.02 28 16:19 15.10.2021
5266 Clear 15 1018 43 10000 4.02 28 16:19 15.10.2021
5267 Clear 15 1016 46 10000 2.82 34 14:37 15.10.2021
5268 Clear 22 1013 28 10000 2.63 191 12:27 15.10.2021
5269 Clear 23 1013 24 10000 3.23 191 11:20 15.10.2021
5270 Clear 23 1013 24 10000 3.23 191 10:32 15.10.2021
5271 Clear 24 1014 19 10000 3.08 201 08:36 15.10.2021
5272 Clear 21 1016 17 10000 0.47 194 05:31 15.10.2021
5273 Clear 21 1016 17 10000 0.47 194 05:31 15.10.2021
5274 Clear 13 1018 24 10000 4.3 25 00:30 15.10.2021
5275 Clear 13 1018 25 10000 4.1 25 23:34 14.10.2021
5276 Clear 13 1018 25 10000 4.1 25 23:34 14.10.2021
5277 Clear 14 1018 26 10000 4.05 25 22:44 14.10.2021
5278 Clear 14 1019 28 10000 4.12 25 21:41 14.10.2021
5279 Clear 14 1019 32 10000 4.29 27 20:22 14.10.2021
5280 Clear 14 1019 32 10000 4.29 27 19:50 14.10.2021
5281 Clear 14 1019 34 10000 4.39 27 18:45 14.10.2021
5282 Clear 15 1020 35 10000 4.21 23 17:25 14.10.2021
5283 Clear 15 1020 35 10000 4.21 23 16:46 14.10.2021
5284 Clear 15 1019 43 10000 3.42 27 15:22 14.10.2021
5285 Clear 15 1019 42 10000 3.6 27 14:40 14.10.2021
5286 Clear 17 1017 51 10000 0.66 61 13:35 14.10.2021
5287 Clear 22 1015 24 10000 2.9 196 11:40 14.10.2021
5288 Clear 23 1015 18 10000 2.78 203 09:50 14.10.2021
5289 Clear 22 1017 14 10000 0.59 248 06:46 14.10.2021
5290 Clear 12 1021 25 10000 4.84 25 00:52 14.10.2021
5291 Clear 12 1020 31 10000 4.56 25 22:47 13.10.2021
5292 Clear 13 1020 33 10000 4.4 25 21:37 13.10.2021
5293 Clear 13 1020 36 10000 4.21 25 20:46 13.10.2021
5294 Clear 13 1020 37 10000 4.15 25 19:47 13.10.2021
5295 Clear 13 1020 38 10000 4.05 24 18:49 13.10.2021
5296 Clear 13 1020 38 10000 4.05 24 18:49 13.10.2021
5297 Clear 13 1020 41 10000 3.97 23 17:35 13.10.2021
5298 Clear 14 1017 61 10000 1.87 40 15:23 13.10.2021
5299 Clear 14 1017 61 10000 1.87 40 14:44 13.10.2021
5300 Clear 19 1014 37 10000 2.76 199 12:54 13.10.2021
5301 Clear 20 1014 29 10000 3.31 200 11:55 13.10.2021
5302 Clear 21 1014 23 10000 3.79 203 10:21 13.10.2021
5303 Clear 21 1016 22 10000 3.16 204 07:56 13.10.2021
5304 Clear 20 1017 21 10000 2.3 204 06:33 13.10.2021
5305 Clear 12 1019 27 10000 4.03 26 02:24 13.10.2021
5306 Clear 12 1019 33 10000 3.79 25 23:55 12.10.2021
5307 Clear 12 1019 37 10000 3.78 25 23:29 12.10.2021
5308 Clear 12 1019 37 10000 3.78 25 22:43 12.10.2021
5309 Clear 13 1020 43 10000 3.58 26 21:19 12.10.2021
5310 Clear 13 1020 43 10000 3.56 26 20:33 12.10.2021
5311 Clear 13 1020 45 10000 3.57 23 19:51 12.10.2021
5312 Clear 13 1020 50 10000 3.58 24 18:27 12.10.2021
5313 Clear 13 1020 50 10000 3.58 24 17:38 12.10.2021
5314 Clear 13 1020 55 10000 3.56 23 16:36 12.10.2021
5315 Clear 14 1019 61 10000 3.13 29 15:44 12.10.2021
5316 Clear 14 1018 66 10000 1.58 38 14:30 12.10.2021
5317 Clear 16 1016 59 10000 1.26 192 13:42 12.10.2021
5318 Clear 20 1015 32 10000 3.58 198 11:36 12.10.2021
5319 Clear 21 1015 27 10000 4.01 201 09:41 12.10.2021
5320 Clear 21 1016 25 10000 4.16 201 08:42 12.10.2021
5321 Clear 20 1017 23 10000 2.44 207 06:53 12.10.2021
5322 Clear 17 1019 28 10000 1.72 12 05:29 12.10.2021
5323 Clear 17 1019 28 10000 1.72 12 04:31 12.10.2021
5324 Clear 12 1019 51 10000 3.82 24 00:27 12.10.2021
5325 Clear 12 1019 51 10000 3.82 24 23:40 11.10.2021
5326 Clear 12 1019 53 10000 3.75 23 22:56 11.10.2021
5327 Clear 12 1020 54 10000 3.69 22 21:45 11.10.2021
5328 Clear 12 1020 55 10000 3.63 21 20:35 11.10.2021
5329 Clear 13 1020 58 10000 3.43 20 19:38 11.10.2021
5330 Clear 13 1020 64 10000 3.21 21 18:25 11.10.2021
5331 Clear 13 1020 69 10000 2.93 25 16:51 11.10.2021
5332 Clear 13 1020 69 10000 2.93 25 16:31 11.10.2021
5333 Clear 13 1019 73 10000 2.1 33 15:47 11.10.2021
5334 Clear 14 1018 76 10000 0.42 78 14:54 11.10.2021
5335 Clear 16 1017 62 10000 2.01 200 14:22 11.10.2021
5336 Clear 16 1017 62 10000 2.01 200 13:36 11.10.2021
5337 Clear 16 1017 62 10000 2.01 200 13:36 11.10.2021
5338 Clear 19 1015 39 10000 3.94 196 11:38 11.10.2021
5339 Clear 20 1014 35 10000 4.34 197 10:31 11.10.2021
5340 Clear 21 1015 29 10000 4.29 202 09:19 11.10.2021
5341 Clear 17 1018 25 10000 0.32 355 04:55 11.10.2021
5342 Clear 12 1019 30 10000 3.36 22 01:37 11.10.2021
5343 Clear 12 1019 31 10000 3.44 22 00:45 11.10.2021
5344 Clear 12 1019 34 10000 3.61 21 23:57 10.10.2021
5345 Clear 13 1019 43 10000 3.58 21 21:51 10.10.2021
5346 Clear 13 1020 48 10000 3.41 18 21:29 10.10.2021
5347 Clear 13 1020 49 10000 3.29 20 20:42 10.10.2021
5348 Clear 13 1020 53 10000 3.1 22 20:21 10.10.2021
5349 Clear 13 1020 53 10000 3.1 22 19:53 10.10.2021
5350 Clear 13 1020 53 10000 3.1 22 19:34 10.10.2021
5351 Clear 13 1020 58 10000 3.14 22 18:33 10.10.2021
5352 Clouds 14 1020 68 10000 2.4 31 16:45 10.10.2021
5353 Clouds 14 1019 71 10000 1.48 56 15:41 10.10.2021
5354 Clouds 17 1016 63 10000 2.33 196 13:43 10.10.2021
5355 Clouds 19 1015 50 10000 3.36 198 12:51 10.10.2021
5356 Clouds 19 1015 50 10000 3.36 198 12:33 10.10.2021
5357 Clouds 21 1014 44 10000 4.23 196 10:43 10.10.2021
5358 Clear 21 1015 40 10000 3.83 196 09:29 10.10.2021
5359 Clear 21 1015 40 10000 3.83 196 08:53 10.10.2021
5360 Clear 20 1017 41 10000 2.48 205 06:54 10.10.2021
5361 Clear 13 1019 56 10000 3.19 26 02:38 10.10.2021
5362 Clear 13 1017 57 10000 3.19 25 00:55 10.10.2021
5363 Clear 14 1017 58 10000 3.11 26 23:52 09.10.2021
5364 Clear 14 1018 58 10000 2.97 25 22:45 09.10.2021
5365 Clear 14 1018 58 10000 2.87 24 21:38 09.10.2021
5366 Clear 14 1018 58 10000 2.8 23 21:19 09.10.2021
5367 Clouds 14 1019 60 10000 2.87 21 19:44 09.10.2021
5368 Clouds 15 1019 61 10000 2.97 20 18:57 09.10.2021
5369 Clouds 15 1019 61 10000 2.97 20 18:32 09.10.2021
5370 Clouds 15 1019 70 10000 2.79 25 16:36 09.10.2021
5371 Clouds 15 1018 80 10000 2.22 33 15:32 09.10.2021
5372 Clouds 17 1016 79 10000 1.97 202 13:43 09.10.2021
5373 Clouds 19 1015 61 10000 3.2 201 12:38 09.10.2021
5374 Clouds 20 1014 51 10000 3.74 201 11:47 09.10.2021
5375 Clouds 21 1014 44 10000 3.89 201 10:42 09.10.2021
5376 Clear 22 1014 39 10000 3.89 197 09:36 09.10.2021
5377 Clear 22 1015 34 10000 3.1 197 08:29 09.10.2021
5378 Clear 22 1015 34 10000 3.1 197 07:46 09.10.2021
5379 Clear 18 1016 36 10000 1.27 33 05:28 09.10.2021
5380 Clear 13 1018 46 10000 3.38 25 02:57 09.10.2021
5381 Clear 13 1018 46 10000 3.38 25 02:38 09.10.2021
5382 Clear 14 1017 53 10000 3.19 30 23:41 08.10.2021
5383 Clear 14 1016 56 10000 3 29 22:54 08.10.2021
5384 Clear 14 1016 58 10000 2.87 29 22:23 08.10.2021
5385 Clear 15 1016 61 10000 2.77 31 20:53 08.10.2021
5386 Clouds 15 1017 69 10000 2.47 26 18:53 08.10.2021
5387 Clouds 16 1016 80 10000 2.2 29 17:28 08.10.2021
5388 Clouds 16 1016 80 10000 2.2 29 16:50 08.10.2021
5389 Clouds 17 1016 87 10000 1.64 41 16:23 08.10.2021
5390 Clear 19 1014 85 10000 1.89 201 13:57 08.10.2021
5391 Clear 20 1013 70 10000 2.92 201 12:48 08.10.2021
5392 Clear 22 1012 60 10000 3.5 200 11:31 08.10.2021
5393 Clear 23 1012 53 10000 3.8 198 10:40 08.10.2021
5394 Clear 23 1013 43 10000 3.52 199 09:18 08.10.2021
5395 Clear 16 1014 39 10000 3.35 22 23:55 07.10.2021
5396 Clear 16 1014 42 10000 3.18 21 23:18 07.10.2021
5397 Clear 16 1014 46 10000 3.2 20 21:45 07.10.2021
5398 Clear 16 1015 50 10000 3.11 19 21:20 07.10.2021
5399 Clear 16 1015 53 10000 2.79 21 20:20 07.10.2021
5400 Clear 17 1016 57 10000 2.7 21 19:29 07.10.2021
5401 Clear 17 1016 60 10000 2.52 21 18:22 07.10.2021
5402 Clear 17 1016 64 10000 2.41 20 17:18 07.10.2021
5403 Clear 17 1016 70 10000 2.2 23 15:34 07.10.2021
5404 Clear 19 1015 74 10000 1.28 198 13:47 07.10.2021
5405 Clear 21 1013 58 10000 2.48 197 13:28 07.10.2021
5406 Clear 21 1013 58 10000 2.48 197 12:40 07.10.2021
5407 Clear 23 1013 46 10000 3.21 198 10:52 07.10.2021
5408 Clear 23 1013 42 10000 3.32 198 10:19 07.10.2021
5409 Clear 23 1013 42 10000 3.32 198 10:19 07.10.2021
5410 Clear 23 1013 42 10000 3.32 198 09:32 07.10.2021
5411 Clear 23 1014 38 10000 3.2 198 08:41 07.10.2021
5412 Clear 23 1014 36 10000 3.06 195 07:42 07.10.2021
5413 Clear 23 1015 32 10000 2.49 195 06:59 07.10.2021
5414 Clear 15 1016 37 10000 3.33 18 02:26 07.10.2021
5415 Clear 15 1016 42 10000 3.21 19 23:55 06.10.2021
5416 Clear 15 1016 44 10000 2.88 20 22:50 06.10.2021
5417 Clear 16 1016 46 10000 2.67 21 21:53 06.10.2021
5418 Clear 16 1016 47 10000 2.68 26 20:35 06.10.2021
5419 Clear 16 1017 49 10000 2.42 28 19:53 06.10.2021
5420 Clear 16 1017 50 10000 2.31 27 18:40 06.10.2021
5421 Clear 17 1018 55 10000 2.56 20 16:56 06.10.2021
5422 Clear 17 1017 72 10000 1.68 26 15:27 06.10.2021
5423 Clear 19 1016 74 10000 0.79 199 13:55 06.10.2021
5424 Clear 21 1015 56 10000 2.47 203 12:59 06.10.2021
5425 Clear 21 1015 56 10000 2.47 203 12:41 06.10.2021
5426 Clear 22 1014 48 10000 3.02 200 12:21 06.10.2021
5427 Clear 23 1015 38 10000 3.29 194 10:18 06.10.2021
5428 Clear 23 1015 38 10000 3.29 194 09:39 06.10.2021
5429 Clear 23 1016 35 10000 3.08 195 08:42 06.10.2021
5430 Clear 23 1017 35 10000 2.76 197 07:48 06.10.2021
5431 Clear 19 1020 38 10000 0.9 6 05:26 06.10.2021
5432 Clear 14 1020 53 10000 2.92 24 00:28 06.10.2021
5433 Clear 14 1020 53 10000 2.92 24 23:57 05.10.2021
5434 Clear 14 1020 53 10000 2.92 24 23:38 05.10.2021
5435 Clear 14 1020 54 10000 2.75 23 23:20 05.10.2021
5436 Clear 15 1020 55 10000 2.54 25 22:27 05.10.2021
5437 Clear 15 1020 55 10000 2.54 25 22:27 05.10.2021
5438 Clear 15 1020 55 10000 2.54 25 21:47 05.10.2021
5439 Clear 15 1021 56 10000 2.51 22 20:42 05.10.2021
5440 Clouds 15 1020 57 10000 2.6 22 20:24 05.10.2021
5441 Clouds 15 1020 57 10000 2.6 22 19:43 05.10.2021
5442 Clouds 16 1021 58 10000 2.85 22 18:54 05.10.2021
5443 Clouds 16 1021 66 10000 2.84 28 16:38 05.10.2021
5444 Clouds 16 1019 83 10000 0.93 24 14:36 05.10.2021
5445 Clouds 18 1018 73 10000 1.62 208 13:34 05.10.2021
5446 Clouds 20 1017 58 10000 2.61 205 12:46 05.10.2021
5447 Clouds 21 1016 52 10000 3.19 202 12:18 05.10.2021
5448 Clouds 21 1016 49 10000 3.51 200 10:59 05.10.2021
5449 Clouds 22 1018 44 10000 3.22 197 09:25 05.10.2021
5450 Clear 18 1020 52 10000 1.01 21 04:47 05.10.2021
5451 Clear 14 1019 70 10000 2.81 29 23:53 04.10.2021
5452 Clear 14 1019 70 10000 2.64 25 22:38 04.10.2021
5453 Clear 15 1019 71 10000 2.52 23 19:59 04.10.2021
5454 Clear 15 1019 72 10000 3.04 22 18:34 04.10.2021
5455 Clouds 16 1017 82 10000 1.54 22 16:24 04.10.2021
5456 Clear 16 1017 85 10000 1.77 28 15:31 04.10.2021
5457 Clear 16 1016 85 10000 0.28 156 14:42 04.10.2021
5458 Clouds 18 1015 76 10000 1.75 197 13:57 04.10.2021
5459 Clouds 20 1014 66 10000 3.05 199 13:25 04.10.2021
5460 Clouds 20 1013 62 10000 3.54 200 12:27 04.10.2021
5461 Clouds 20 1013 62 10000 3.54 200 11:31 04.10.2021
5462 Clouds 22 1013 52 10000 4.41 202 10:18 04.10.2021
5463 Clouds 22 1014 52 10000 3.82 202 08:41 04.10.2021
5464 Clear 22 1015 55 10000 3.56 198 07:36 04.10.2021
5465 Clouds 15 1015 82 10000 0.42 15 00:40 04.10.2021
5466 Clouds 15 1015 85 10000 0.36 74 22:37 03.10.2021
5467 Clouds 15 1016 86 10000 0.37 78 21:39 03.10.2021
5468 Clear 16 1016 87 10000 0.51 62 21:19 03.10.2021
5469 Clouds 16 1016 88 10000 0.29 57 19:59 03.10.2021
5470 Clouds 16 1016 88 10000 0.29 57 19:30 03.10.2021
5471 Clouds 17 1016 89 10000 0.87 52 18:27 03.10.2021
5472 Clouds 17 1016 90 10000 0.68 39 17:24 03.10.2021
5473 Clouds 17 1014 93 10000 0.3 255 14:47 03.10.2021
5474 Clouds 19 1013 87 9973 1.74 200 14:18 03.10.2021
5475 Clouds 19 1013 87 9973 1.74 200 13:34 03.10.2021
5476 Clouds 21 1012 72 10000 3.29 202 12:29 03.10.2021
5477 Clouds 22 1011 66 10000 3.72 201 10:37 03.10.2021
5478 Clear 23 1013 58 10000 3.42 200 08:43 03.10.2021
5479 Clouds 16 1016 73 10000 2.08 29 01:51 03.10.2021
5480 Clouds 16 1017 81 10000 2.14 23 22:40 02.10.2021
5481 Clouds 16 1018 87 10000 1.64 37 20:57 02.10.2021
5482 Clouds 16 1018 91 10000 1.16 51 19:50 02.10.2021
5483 Clouds 16 1018 91 10000 1.11 39 18:54 02.10.2021
5484 Clouds 17 1018 93 10000 0.58 9 17:57 02.10.2021
5485 Clouds 17 1017 93 10000 0.36 9 17:21 02.10.2021
5486 Clouds 18 1016 94 10000 0.28 137 15:29 02.10.2021
5487 Clouds 20 1018 86 10000 0.45 190 16:35 30.09.2021
5488 Clouds 20 1017 85 10000 0.27 196 15:36 30.09.2021
5489 Clouds 22 1016 86 5986 2.26 201 13:20 30.09.2021
5490 Clouds 23 1015 80 4428 3.08 200 11:37 30.09.2021
5491 Clouds 24 1015 75 5163 3.2 200 10:42 30.09.2021
5492 Clouds 24 1016 70 10000 3.33 202 09:32 30.09.2021
5493 Clear 24 1017 62 10000 2.88 196 08:29 30.09.2021
5494 Clear 24 1018 61 10000 2.67 198 07:23 30.09.2021
5495 Clear 22 1019 59 10000 0.37 198 04:52 30.09.2021
5496 Clear 17 1019 73 10000 2.05 31 01:19 30.09.2021
5497 Clear 18 1019 75 10000 1.87 30 23:49 29.09.2021
5498 Clear 18 1019 77 10000 1.72 36 22:28 29.09.2021
5499 Clear 18 1020 77 10000 1.58 39 21:24 29.09.2021
5500 Clouds 18 1019 79 10000 1.14 51 20:24 29.09.2021
5501 Clouds 18 1019 79 10000 1.14 51 19:43 29.09.2021
5502 Clouds 19 1019 83 10000 1.3 56 18:28 29.09.2021
5503 Clouds 19 1019 83 10000 1.3 56 17:33 29.09.2021
5504 Clouds 20 1018 84 10000 0.9 62 16:46 29.09.2021
5505 Clouds 20 1018 86 10000 0.39 96 15:49 29.09.2021
5506 Clouds 20 1017 90 10000 0.54 150 14:39 29.09.2021
5507 Clouds 21 1016 89 10000 0.89 196 13:41 29.09.2021
5508 Clouds 22 1016 86 3098 2.23 204 12:47 29.09.2021
5509 Clouds 23 1015 77 4739 3.1 196 11:54 29.09.2021
5510 Clouds 24 1015 68 10000 3.25 199 10:44 29.09.2021
5511 Clouds 24 1015 64 10000 3.29 199 09:49 29.09.2021
5512 Clouds 24 1016 62 10000 3.19 198 08:49 29.09.2021
5513 Clear 24 1017 60 10000 3.09 197 07:31 29.09.2021
5514 Clear 17 1020 71 10000 2.47 25 03:29 29.09.2021
5515 Clear 17 1019 73 10000 2.2 27 23:26 28.09.2021
5516 Clear 18 1020 73 10000 1.99 29 22:23 28.09.2021
5517 Clear 18 1020 73 10000 1.99 29 21:35 28.09.2021
5518 Clear 18 1020 74 10000 1.71 35 20:35 28.09.2021
5519 Clouds 18 1019 75 10000 1.9 35 19:42 28.09.2021
5520 Clouds 18 1019 76 10000 1.66 28 18:44 28.09.2021
5521 Clouds 19 1019 78 10000 1.67 23 17:53 28.09.2021
5522 Clouds 19 1018 87 10000 1.88 27 15:44 28.09.2021
5523 Clouds 20 1017 88 9457 0.79 191 13:44 28.09.2021
5524 Clouds 21 1016 85 10000 2.01 200 12:47 28.09.2021
5525 Clouds 22 1016 82 10000 3.01 201 12:19 28.09.2021
5526 Clouds 22 1016 82 10000 3.01 201 11:45 28.09.2021
5527 Clouds 23 1015 77 6037 3.32 199 10:55 28.09.2021
5528 Clouds 23 1016 73 7898 3.37 200 09:53 28.09.2021
5529 Clouds 24 1016 69 10000 3.49 202 08:58 28.09.2021
5530 Clouds 24 1016 69 10000 3.49 202 08:37 28.09.2021
5531 Clear 24 1016 67 10000 3.22 198 07:31 28.09.2021
5532 Clear 22 1018 61 10000 0.14 168 05:28 28.09.2021
5533 Clear 17 1018 75 10000 2.29 23 01:23 28.09.2021
5534 Clear 18 1018 76 10000 2.18 26 00:25 28.09.2021
5535 Clear 18 1018 76 10000 2.18 26 23:32 27.09.2021
5536 Clear 18 1018 77 10000 1.97 28 22:55 27.09.2021
5537 Clear 18 1018 77 10000 1.77 28 21:44 27.09.2021
5538 Clear 18 1018 79 10000 1.61 33 20:44 27.09.2021
5539 Clouds 18 1018 80 10000 1.46 41 19:55 27.09.2021
5540 Clouds 19 1017 82 10000 1.17 51 19:27 27.09.2021
5541 Clouds 19 1017 82 10000 1.17 51 18:49 27.09.2021
5542 Clouds 20 1017 87 10000 0.6 51 17:29 27.09.2021
5543 Clouds 20 1017 87 10000 0.6 51 16:49 27.09.2021
5544 Clouds 20 1016 87 10000 0.44 48 15:44 27.09.2021
5545 Clouds 20 1016 89 10000 0.17 196 15:18 27.09.2021
5546 Clouds 21 1015 85 10000 1.35 202 13:32 27.09.2021
5547 Clear 24 1014 68 10000 3.2 202 11:40 27.09.2021
5548 Clear 25 1013 60 10000 3.37 201 10:36 27.09.2021
5549 Clear 25 1014 52 10000 3.16 200 08:51 27.09.2021
5550 Clear 22 1017 50 10000 0.31 2 05:22 27.09.2021
5551 Clear 17 1018 66 10000 3.24 21 03:21 27.09.2021
5552 Clear 17 1018 73 10000 2.47 28 22:38 26.09.2021
5553 Clear 17 1018 75 10000 1.73 33 21:53 26.09.2021
5554 Clear 18 1017 75 10000 1.5 39 21:25 26.09.2021
5555 Clouds 18 1017 76 10000 1.32 43 20:22 26.09.2021
5556 Clouds 18 1017 76 10000 1.32 43 19:52 26.09.2021
5557 Clouds 18 1017 76 10000 1.23 48 18:47 26.09.2021
5558 Clouds 18 1017 78 10000 1.28 48 17:57 26.09.2021
5559 Clouds 19 1017 81 10000 1.54 43 17:24 26.09.2021
5560 Clouds 19 1017 81 10000 1.54 43 16:57 26.09.2021
5561 Clouds 19 1016 88 10000 1.67 34 16:20 26.09.2021
5562 Clouds 19 1016 93 10000 0.33 4 15:22 26.09.2021
5563 Clear 21 1015 83 10000 1.84 201 13:57 26.09.2021
5564 Clear 22 1013 72 10000 2.76 201 13:29 26.09.2021
5565 Clear 24 1012 62 10000 3.44 200 12:25 26.09.2021
5566 Clear 24 1012 62 10000 3.44 200 11:51 26.09.2021
5567 Clear 25 1012 54 10000 3.42 199 10:37 26.09.2021
5568 Clear 25 1014 43 10000 3.17 199 09:21 26.09.2021
5569 Clear 24 1014 42 10000 2.89 201 07:57 26.09.2021
5570 Clear 16 1016 60 10000 2.87 27 00:28 26.09.2021
5571 Clear 16 1016 60 10000 2.87 27 23:40 25.09.2021
5572 Clear 16 1017 62 10000 2.74 25 22:38 25.09.2021
5573 Clear 17 1017 65 10000 2.92 25 21:56 25.09.2021
5574 Clear 17 1017 65 10000 2.92 25 21:33 25.09.2021
5575 Clear 17 1017 65 10000 2.92 25 21:33 25.09.2021
5576 Clear 17 1017 67 10000 2.66 26 20:51 25.09.2021
5577 Clouds 17 1017 69 10000 2.84 25 19:32 25.09.2021
5578 Clouds 18 1016 79 10000 2.26 27 18:26 25.09.2021
5579 Clouds 19 1016 85 10000 2.23 20 16:51 25.09.2021
5580 Clouds 21 1014 83 10000 1.98 204 14:24 25.09.2021
5581 Clouds 21 1014 83 10000 1.98 204 13:46 25.09.2021
5582 Clear 23 1012 63 10000 3.47 200 12:29 25.09.2021
5583 Clear 24 1012 56 10000 3.59 200 10:36 25.09.2021
5584 Clear 25 1013 50 10000 3.4 201 09:56 25.09.2021
5585 Clear 25 1014 47 10000 3.14 201 08:45 25.09.2021
5586 Clear 24 1014 44 10000 2.89 202 07:46 25.09.2021
5587 Clear 16 1018 64 10000 3.44 24 00:50 25.09.2021
5588 Clear 16 1018 64 10000 3.44 24 00:50 25.09.2021
5589 Clear 17 1019 71 10000 2.72 21 21:57 24.09.2021
5590 Clear 17 1019 73 10000 2.28 20 21:25 24.09.2021
5591 Clouds 17 1019 75 10000 1.87 18 20:19 24.09.2021
5592 Clouds 17 1019 77 10000 1.77 20 18:36 24.09.2021
5593 Clouds 18 1018 81 10000 1.67 35 17:56 24.09.2021
5594 Clouds 18 1018 81 10000 1.67 35 17:38 24.09.2021
5595 Clouds 18 1018 86 10000 1.59 36 17:19 24.09.2021
5596 Clouds 18 1017 92 10000 1.32 28 15:38 24.09.2021
5597 Clouds 22 1014 78 10000 2.38 199 13:20 24.09.2021
5598 Clouds 22 1014 78 10000 2.38 199 12:42 24.09.2021
5599 Clouds 22 1014 74 10000 3.03 199 12:24 24.09.2021
5600 Clouds 23 1014 70 10000 3.53 198 10:38 24.09.2021
5601 Clouds 24 1016 66 10000 3.29 203 08:59 24.09.2021
5602 Clouds 23 1016 64 10000 2.67 200 07:55 24.09.2021
5603 Clouds 22 1017 66 10000 2.33 197 06:57 24.09.2021
5604 Clear 21 1018 61 10000 0.1 301 05:22 24.09.2021
5605 Clouds 17 1018 83 10000 2.26 32 01:24 24.09.2021
5606 Clouds 17 1018 85 10000 0.38 19 22:37 23.09.2021
5607 Clouds 18 1018 85 10000 0.34 23 21:58 23.09.2021
5608 Clouds 18 1018 86 10000 0.22 348 20:52 23.09.2021
5609 Clouds 18 1018 88 10000 0.48 44 20:26 23.09.2021
5610 Clouds 18 1018 90 6245 0.36 53 18:27 23.09.2021
5611 Clouds 18 1017 91 10000 0.44 100 15:37 23.09.2021
5612 Clouds 18 1016 92 3934 0.21 159 15:18 23.09.2021
5613 Clouds 19 1015 88 10000 0.86 190 13:57 23.09.2021
5614 Clouds 20 1015 86 10000 1.66 194 13:23 23.09.2021
5615 Clouds 20 1015 86 10000 1.66 194 12:54 23.09.2021
5616 Clouds 20 1014 84 7206 2.61 198 12:24 23.09.2021
5617 Rain 20 1014 84 7206 2.61 198 11:56 23.09.2021
5618 Clouds 21 1015 79 4992 2.86 198 10:29 23.09.2021
5619 Clouds 21 1015 79 4992 2.86 198 09:53 23.09.2021
5620 Clouds 21 1015 78 10000 2.86 195 08:42 23.09.2021
5621 Clouds 20 1016 70 10000 0.91 166 05:29 23.09.2021
5622 Clouds 17 1015 86 10000 1.38 7 23:48 22.09.2021
5623 Clouds 17 1015 88 10000 1.07 10 22:49 22.09.2021
5624 Clouds 17 1016 89 10000 0.81 11 22:18 22.09.2021
5625 Clouds 17 1016 89 10000 0.81 11 21:41 22.09.2021
5626 Clouds 17 1016 89 10000 0.46 15 20:57 22.09.2021
5627 Clouds 18 1016 87 10000 0.52 153 19:34 22.09.2021
5628 Clouds 18 1016 86 10000 0.61 175 18:47 22.09.2021
5629 Clouds 18 1015 86 10000 0.53 51 18:25 22.09.2021
5630 Clouds 18 1015 87 10000 0.69 59 16:57 22.09.2021
5631 Clouds 18 1015 87 10000 0.46 81 15:38 22.09.2021
5632 Clouds 20 1013 85 10000 1.27 187 14:25 22.09.2021
5633 Clouds 21 1012 83 10000 2.14 198 12:55 22.09.2021
5634 Clouds 22 1012 77 7435 3.23 201 10:59 22.09.2021
5635 Clouds 22 1013 74 6979 3.38 203 09:30 22.09.2021
5636 Clouds 23 1013 71 10000 3.3 203 08:36 22.09.2021
5637 Clouds 23 1013 67 10000 3 204 07:30 22.09.2021
5638 Clouds 21 1014 70 10000 2.07 199 06:23 22.09.2021
5639 Clouds 21 1014 70 10000 2.07 199 05:45 22.09.2021
5640 Clouds 19 1014 78 10000 0.22 55 03:58 22.09.2021
5641 Clouds 17 1014 84 10000 0.74 88 02:55 22.09.2021
5642 Clouds 17 1014 83 10000 1.56 27 23:31 21.09.2021
5643 Clouds 17 1015 84 10000 1.18 30 21:49 21.09.2021
5644 Clouds 17 1015 84 10000 1.38 29 20:31 21.09.2021
5645 Clouds 18 1015 85 10000 1.42 18 19:25 21.09.2021
5646 Clouds 18 1015 85 10000 1.42 18 18:35 21.09.2021
5647 Clouds 19 1014 86 10000 1.23 6 16:47 21.09.2021
5648 Clouds 19 1014 90 10000 0.67 18 15:56 21.09.2021
5649 Clouds 19 1014 92 10000 0.45 190 14:59 21.09.2021
5650 Clouds 20 1013 89 10000 1.71 194 14:20 21.09.2021
5651 Clouds 20 1013 87 10000 1.51 190 13:39 21.09.2021
5652 Clouds 21 1013 85 10000 2.49 200 12:44 21.09.2021
5653 Clouds 22 1012 78 7198 3.18 201 10:42 21.09.2021
5654 Clouds 23 1013 72 10000 3.31 198 09:22 21.09.2021
5655 Rain 23 1014 69 10000 3.31 198 07:38 21.09.2021
5656 Clouds 21 1016 70 10000 0.6 198 05:18 21.09.2021
5657 Clouds 18 1016 82 10000 1.5 48 23:19 20.09.2021
5658 Clouds 18 1016 83 10000 1.52 45 21:43 20.09.2021
5659 Clouds 19 1016 84 10000 1.38 46 21:25 20.09.2021
5660 Clouds 19 1016 85 10000 1.15 48 19:48 20.09.2021
5661 Clouds 19 1016 86 10000 1.11 54 18:36 20.09.2021
5662 Clouds 20 1016 91 10000 0.95 41 17:25 20.09.2021
5663 Clouds 20 1015 93 10000 0.58 58 16:26 20.09.2021
5664 Clouds 20 1015 93 10000 0.58 58 15:43 20.09.2021
5665 Rain 21 1015 93 10000 0.78 193 14:42 20.09.2021
5666 Clouds 23 1013 80 10000 2.39 198 12:44 20.09.2021
5667 Clouds 24 1013 78 10000 2.85 199 12:26 20.09.2021
5668 Clouds 24 1013 76 10000 3.19 197 10:57 20.09.2021
5669 Clouds 24 1013 73 10000 3.02 193 09:51 20.09.2021
5670 Clouds 24 1013 73 10000 3.02 193 09:33 20.09.2021
5671 Clouds 24 1013 73 10000 3.02 193 09:33 20.09.2021
5672 Clouds 24 1014 74 10000 2.8 192 08:54 20.09.2021
5673 Clouds 24 1015 74 10000 2.79 200 06:33 20.09.2021
5674 Clouds 21 1016 86 10000 0.12 4 23:28 19.09.2021
5675 Clouds 20 1016 88 10000 0.45 52 21:51 19.09.2021
5676 Clouds 20 1017 89 10000 0.38 74 21:21 19.09.2021
5677 Clouds 20 1017 90 8356 0.32 151 20:19 19.09.2021
5678 Clouds 21 1017 86 8033 0.49 163 18:54 19.09.2021
5679 Clouds 21 1016 84 5279 0.24 134 17:56 19.09.2021
5680 Clouds 22 1016 84 10000 0.17 315 16:52 19.09.2021
5681 Clouds 22 1015 84 10000 0.25 259 15:44 19.09.2021
5682 Clouds 22 1015 83 10000 0.45 180 14:49 19.09.2021
5683 Clouds 23 1015 87 10000 1.31 203 14:24 19.09.2021
5684 Clouds 24 1014 83 5698 2.59 206 12:56 19.09.2021
5685 Clouds 24 1014 83 5698 2.59 206 12:30 19.09.2021
5686 Rain 26 1013 70 7771 3.25 196 11:25 19.09.2021
5687 Clouds 26 1014 67 10000 3.37 199 09:52 19.09.2021
5688 Clouds 26 1015 67 10000 3.17 197 09:26 19.09.2021
5689 Clear 24 1016 69 10000 2.51 197 06:49 19.09.2021
5690 Clear 19 1016 76 10000 1.86 28 01:39 19.09.2021
5691 Clear 19 1016 79 10000 1.88 32 23:25 18.09.2021
5692 Clear 19 1016 81 10000 1.05 39 21:58 18.09.2021
5693 Clear 19 1016 80 10000 0.65 54 20:48 18.09.2021
5694 Clouds 20 1016 77 10000 0.99 47 20:26 18.09.2021
5695 Clouds 20 1017 80 10000 1.12 39 19:37 18.09.2021
5696 Clouds 20 1017 81 10000 1.11 40 19:19 18.09.2021
5697 Clouds 20 1017 81 10000 1.11 40 18:31 18.09.2021
5698 Clouds 21 1016 85 10000 0.93 46 17:22 18.09.2021
5699 Clouds 21 1015 88 8866 0.62 57 15:45 18.09.2021
5700 Clouds 23 1013 86 10000 0.82 191 13:46 18.09.2021
5701 Clouds 24 1013 81 10000 1.82 204 13:24 18.09.2021
5702 Clouds 25 1012 75 4765 2.7 201 12:23 18.09.2021
5703 Clouds 25 1012 75 4765 2.7 201 11:34 18.09.2021
5704 Clouds 25 1012 71 10000 3 199 10:31 18.09.2021
5705 Clouds 25 1013 68 10000 2.93 196 09:24 18.09.2021
5706 Clouds 25 1014 67 10000 2.79 197 08:29 18.09.2021
5707 Clouds 18 1014 86 10000 0.78 34 00:55 18.09.2021
5708 Clouds 18 1014 85 10000 0.81 24 23:56 17.09.2021
5709 Clouds 18 1014 85 10000 0.81 24 23:32 17.09.2021
5710 Clouds 19 1015 86 10000 0.88 50 22:25 17.09.2021
5711 Clouds 19 1015 86 10000 0.88 50 21:45 17.09.2021
5712 Clouds 19 1015 90 10000 0.89 64 19:53 17.09.2021
5713 Clouds 20 1014 85 10000 0.47 85 18:43 17.09.2021
5714 Clouds 21 1014 85 10000 0.43 26 16:47 17.09.2021
5715 Clouds 21 1013 88 7316 0.23 295 15:32 17.09.2021
5716 Clouds 23 1011 82 8427 2.15 198 12:31 17.09.2021
5717 Clouds 25 1011 65 10000 3.24 197 10:25 17.09.2021
5718 Clouds 24 1012 68 10000 2.77 199 07:50 17.09.2021
5719 Clear 22 1013 74 10000 2.04 202 06:29 17.09.2021
5720 Clouds 18 1012 85 10000 0.44 51 00:34 17.09.2021
5721 Clouds 19 1012 86 10000 0.95 7 22:46 16.09.2021
5722 Clouds 18 1013 90 10000 0.63 357 22:24 16.09.2021
5723 Clouds 18 1013 90 10000 0.63 357 21:36 16.09.2021
5724 Clouds 19 1013 92 10000 0.13 239 20:36 16.09.2021
5725 Clouds 19 1013 91 5574 0.2 294 19:18 16.09.2021
5726 Clouds 19 1014 92 6988 0.09 296 18:19 16.09.2021
5727 Clouds 19 1014 92 6988 0.09 296 18:19 16.09.2021
5728 Clouds 19 1013 93 9507 0.38 226 17:22 16.09.2021
5729 Clouds 20 1012 92 4808 0.92 201 14:51 16.09.2021
5730 Clouds 21 1011 92 2532 1.58 211 13:47 16.09.2021
5731 Clouds 21 1011 89 1770 2.61 203 12:47 16.09.2021
5732 Clouds 22 1010 84 2759 3.36 202 11:55 16.09.2021
5733 Clouds 24 1010 74 5089 3.7 200 11:24 16.09.2021
5734 Clouds 24 1010 67 8831 3.52 198 10:29 16.09.2021
5735 Clouds 24 1010 67 8831 3.52 198 09:32 16.09.2021
5736 Clear 24 1012 64 10000 3.06 198 08:28 16.09.2021
5737 Clouds 23 1013 72 10000 2.62 199 06:58 16.09.2021
5738 Clouds 23 1013 72 10000 2.62 199 06:39 16.09.2021
5739 Clear 20 1014 72 10000 0.49 345 04:18 16.09.2021
5740 Rain 18 1015 78 10000 1.59 21 00:59 16.09.2021
5741 Clouds 18 1015 81 10000 1.42 25 23:32 15.09.2021
5742 Clouds 18 1015 83 10000 1 29 22:45 15.09.2021
5743 Clouds 18 1016 83 10000 0.97 49 21:31 15.09.2021
5744 Clouds 18 1016 83 10000 1 57 20:54 15.09.2021
5745 Clouds 18 1016 79 10000 1.46 46 19:34 15.09.2021
5746 Clouds 19 1016 80 10000 1.42 45 18:57 15.09.2021
5747 Clouds 19 1016 81 10000 1.36 40 17:46 15.09.2021
5748 Clouds 19 1016 84 10000 1.36 48 16:44 15.09.2021
5749 Clouds 20 1014 89 10000 0.12 154 15:29 15.09.2021
5750 Clouds 20 1014 89 10000 0.12 154 14:44 15.09.2021
5751 Clouds 22 1013 79 10000 1.49 201 13:51 15.09.2021
5752 Clouds 23 1012 70 10000 2.26 201 13:29 15.09.2021
5753 Clouds 23 1012 70 10000 2.26 201 12:34 15.09.2021
5754 Clouds 24 1012 66 10000 2.96 202 11:51 15.09.2021
5755 Clouds 24 1012 64 10000 3.17 204 10:58 15.09.2021
5756 Clouds 24 1012 64 10000 3.17 204 10:35 15.09.2021
5757 Clear 25 1014 61 10000 3.36 198 09:23 15.09.2021
5758 Clear 25 1014 59 10000 3.38 200 07:30 15.09.2021
5759 Clear 17 1017 77 10000 1.05 18 02:50 15.09.2021
5760 Clouds 18 1017 80 10000 1.5 38 22:36 14.09.2021
5761 Clouds 18 1018 79 10000 1.74 34 21:38 14.09.2021
5762 Clouds 18 1018 75 10000 1.81 40 20:25 14.09.2021
5763 Clouds 18 1018 75 10000 1.81 40 19:41 14.09.2021
5764 Clouds 19 1017 82 10000 1.57 28 17:34 14.09.2021
5765 Clouds 19 1017 86 10000 1.13 41 16:49 14.09.2021
5766 Clouds 20 1015 94 10000 0.25 231 15:27 14.09.2021
5767 Clouds 21 1014 85 10000 2 199 14:28 14.09.2021
5768 Clouds 24 1012 64 10000 3.51 202 11:50 14.09.2021
5769 Clouds 25 1012 60 10000 3.56 202 10:49 14.09.2021
5770 Clouds 25 1013 57 10000 3.52 200 09:50 14.09.2021
5771 Clear 25 1015 49 10000 2.85 198 08:24 14.09.2021
5772 Clear 23 1016 50 10000 1.06 206 06:22 14.09.2021
5773 Clouds 17 1016 74 10000 2.63 21 23:36 13.09.2021
5774 Clouds 18 1016 76 10000 2.47 23 22:29 13.09.2021
5775 Clouds 18 1016 76 10000 2.47 23 21:59 13.09.2021
5776 Clouds 18 1016 76 10000 2.47 23 21:39 13.09.2021
5777 Clouds 18 1016 77 10000 2.6 24 19:48 13.09.2021
5778 Clouds 18 1016 78 10000 2.38 23 18:45 13.09.2021
5779 Clouds 19 1015 81 10000 2.32 20 17:41 13.09.2021
5780 Clouds 19 1015 84 10000 2 24 16:50 13.09.2021
5781 Clouds 19 1013 92 10000 0.26 67 14:56 13.09.2021
5782 Clouds 22 1011 75 10000 3.29 201 11:52 13.09.2021
5783 Clouds 23 1011 71 10000 3.51 200 10:58 13.09.2021
5784 Clouds 24 1011 57 10000 3.6 200 08:55 13.09.2021
5785 Clouds 17 1012 83 10000 1.61 26 00:48 13.09.2021
5786 Clouds 18 1012 83 10000 0.83 23 22:55 12.09.2021
5787 Clouds 18 1013 84 10000 0.99 43 22:24 12.09.2021
5788 Clouds 18 1013 85 10000 1.04 33 21:23 12.09.2021
5789 Clouds 19 1013 85 10000 0.75 49 20:19 12.09.2021
5790 Clouds 19 1013 85 10000 0.75 49 19:49 12.09.2021
5791 Clouds 19 1013 86 10000 0.9 41 19:18 12.09.2021
5792 Clouds 19 1013 88 10000 0.81 47 18:18 12.09.2021
5793 Clouds 19 1013 90 10000 0.37 51 15:59 12.09.2021
5794 Clouds 19 1012 91 7940 0.35 105 14:48 12.09.2021
5795 Clouds 19 1012 88 10000 0.74 175 12:45 12.09.2021
5796 Clouds 21 1011 77 10000 1.96 182 10:35 12.09.2021
5797 Clouds 21 1013 79 10000 1.85 208 08:40 12.09.2021
5798 Clouds 21 1013 75 10000 1.87 220 07:39 12.09.2021
5799 Clouds 18 1014 87 6525 0.31 254 00:48 12.09.2021
5800 Clouds 19 1014 85 10000 0.26 329 23:18 11.09.2021
5801 Clouds 19 1014 87 9578 0.21 200 21:40 11.09.2021
5802 Clouds 19 1015 84 8892 0.56 232 20:18 11.09.2021
5803 Clouds 19 1015 84 10000 0.29 285 18:32 11.09.2021
5804 Clouds 19 1015 88 10000 1.07 340 17:29 11.09.2021
5805 Rain 19 1015 92 8282 0.73 337 15:38 11.09.2021
5806 Clouds 19 1015 92 9916 0.75 91 13:30 11.09.2021
5807 Rain 20 1014 93 2366 1.76 211 11:47 11.09.2021
5808 Rain 21 1014 86 5131 1.76 213 10:51 11.09.2021
5809 Rain 22 1014 76 10000 1.7 221 09:30 11.09.2021
5810 Clouds 23 1015 68 10000 1.24 246 07:44 11.09.2021
5811 Clouds 21 1017 75 10000 1.66 311 06:31 11.09.2021
5812 Clouds 19 1015 77 10000 1.65 21 22:48 10.09.2021
5813 Clouds 20 1015 76 10000 1.63 20 22:22 10.09.2021
5814 Clouds 20 1015 76 10000 1.63 20 21:46 10.09.2021
5815 Clouds 20 1015 79 10000 1.63 8 19:41 10.09.2021
5816 Clouds 20 1015 81 10000 1.61 12 18:20 10.09.2021
5817 Rain 20 1015 82 10000 1.61 21 16:34 10.09.2021
5818 Clouds 21 1012 89 6229 1.91 203 13:52 10.09.2021
5819 Clouds 24 1011 72 10000 2.99 207 11:46 10.09.2021
5820 Clouds 24 1013 68 10000 3.22 203 08:29 10.09.2021
5821 Clouds 24 1013 69 10000 2.98 200 07:45 10.09.2021
5822 Clouds 18 1015 79 10000 2.39 19 00:42 10.09.2021
5823 Clouds 18 1016 79 10000 2.5 15 22:18 09.09.2021
5824 Clouds 18 1016 79 10000 2.26 16 21:28 09.09.2021
5825 Clouds 18 1016 79 10000 2.26 16 20:42 09.09.2021
5826 Clouds 19 1015 80 10000 2.07 17 18:55 09.09.2021
5827 Clouds 19 1015 81 10000 2.26 17 17:54 09.09.2021
5828 Clouds 19 1015 83 10000 2 14 16:40 09.09.2021
5829 Clouds 20 1013 82 10000 1.11 350 15:27 09.09.2021
5830 Clouds 21 1013 78 10000 2.2 358 12:48 09.09.2021
5831 Rain 20 1014 83 10000 1.48 1 11:33 09.09.2021
5832 Clouds 19 1016 96 1392 0.87 224 09:39 09.09.2021
5833 Clouds 20 1015 97 235 2.86 207 08:32 09.09.2021
5834 Clouds 21 1015 87 1486 1.63 202 06:24 09.09.2021
5835 Rain 20 1014 88 6467 0.24 309 01:31 09.09.2021
5836 Clouds 20 1014 90 10000 0.6 53 22:34 08.09.2021
5837 Clouds 19 1015 94 6826 0.68 47 21:22 08.09.2021
5838 Clouds 20 1015 95 6591 0.69 92 19:56 08.09.2021
5839 Clouds 20 1015 95 5066 0.57 165 18:50 08.09.2021
5840 Clouds 20 1015 91 10000 0.49 173 18:28 08.09.2021
5841 Clouds 20 1015 91 10000 0.49 173 17:55 08.09.2021
5842 Clouds 21 1014 92 10000 0.64 35 16:28 08.09.2021
5843 Clouds 22 1013 91 4535 1.83 202 14:23 08.09.2021
5844 Clouds 22 1012 85 10000 1.85 201 12:43 08.09.2021
5845 Clouds 22 1013 85 10000 2.08 201 12:25 08.09.2021
5846 Rain 23 1013 83 10000 2.57 198 11:29 08.09.2021
5847 Clouds 23 1013 83 10000 2.57 198 10:33 08.09.2021
5848 Clouds 23 1013 81 10000 2.81 200 09:58 08.09.2021
5849 Clouds 22 1016 86 1508 2.31 194 07:55 08.09.2021
5850 Clouds 22 1016 86 1508 2.31 194 07:32 08.09.2021
5851 Clouds 20 1017 91 6342 0.6 211 03:41 08.09.2021
5852 Clouds 20 1016 91 10000 0.4 243 22:38 07.09.2021
5853 Clouds 20 1017 93 10000 0.46 211 21:46 07.09.2021
5854 Clouds 20 1017 93 4067 0.37 205 19:47 07.09.2021
5855 Clouds 20 1017 94 10000 0.46 214 18:39 07.09.2021
5856 Clouds 21 1017 94 5992 0.64 202 17:47 07.09.2021
5857 Clouds 21 1016 90 5070 0.29 253 15:59 07.09.2021
5858 Clouds 21 1016 90 5070 0.29 253 15:35 07.09.2021
5859 Clouds 22 1015 90 6264 0.26 200 14:41 07.09.2021
5860 Rain 23 1014 88 2205 1.95 203 12:38 07.09.2021
5861 Rain 23 1014 88 2205 1.95 203 12:38 07.09.2021
5862 Rain 24 1014 85 1352 2.8 199 11:36 07.09.2021
5863 Clouds 25 1014 78 2801 3.34 199 10:40 07.09.2021
5864 Clouds 25 1015 69 10000 2.79 206 08:23 07.09.2021
5865 Clouds 24 1017 74 10000 1.93 199 06:44 07.09.2021
5866 Clouds 22 1018 83 10000 1.56 209 04:47 07.09.2021
5867 Clouds 21 1016 89 9803 0.15 224 02:28 07.09.2021
5868 Clouds 21 1016 90 9518 0.14 311 00:40 07.09.2021
5869 Clouds 21 1016 90 10000 0.12 193 23:31 06.09.2021
5870 Clouds 21 1017 90 10000 0.17 125 22:53 06.09.2021
5871 Clouds 21 1017 90 10000 0.17 125 22:32 06.09.2021
5872 Clouds 20 1017 91 10000 0.25 115 20:55 06.09.2021
5873 Clouds 20 1016 90 10000 0.22 46 19:22 06.09.2021
5874 Clouds 20 1016 90 10000 0.22 46 19:22 06.09.2021
5875 Clouds 20 1016 90 10000 0.22 46 18:46 06.09.2021
5876 Clouds 21 1016 90 10000 0.36 162 18:23 06.09.2021
5877 Clouds 21 1016 90 10000 0.36 162 17:36 06.09.2021
5878 Clouds 22 1014 87 10000 0.02 6 15:49 06.09.2021
5879 Clouds 23 1013 86 10000 1.67 215 13:47 06.09.2021
5880 Clouds 24 1013 80 10000 3.06 203 12:46 06.09.2021
5881 Clouds 26 1012 69 10000 3.98 203 10:44 06.09.2021
5882 Clouds 26 1013 63 10000 3.01 198 07:59 06.09.2021
5883 Clouds 23 1015 69 10000 1.22 202 04:45 06.09.2021
5884 Clear 19 1014 80 10000 1.61 32 23:34 05.09.2021
5885 Clear 19 1014 80 10000 1.31 36 22:47 05.09.2021
5886 Clouds 20 1014 80 10000 1.27 46 21:58 05.09.2021
5887 Clouds 20 1014 80 10000 1.27 46 21:30 05.09.2021
5888 Clouds 20 1013 83 10000 1.04 38 20:21 05.09.2021
5889 Clouds 20 1013 86 10000 0.69 53 18:46 05.09.2021
5890 Clouds 21 1013 88 10000 0.44 82 17:31 05.09.2021
5891 Clouds 22 1012 91 10000 0.18 213 15:28 05.09.2021
5892 Clouds 22 1012 90 10000 1.33 211 14:19 05.09.2021
5893 Clouds 25 1010 79 6313 3.43 204 12:29 05.09.2021
5894 Clouds 26 1010 71 10000 3.98 203 10:55 05.09.2021
5895 Clouds 26 1010 71 10000 3.98 203 10:31 05.09.2021
5896 Clouds 26 1011 64 10000 3.42 202 09:22 05.09.2021
5897 Clear 26 1011 65 10000 2.93 203 07:51 05.09.2021
5898 Clear 19 1014 74 10000 1.97 24 02:36 05.09.2021
5899 Clear 19 1013 77 10000 1.81 30 00:30 05.09.2021
5900 Clear 19 1013 77 10000 1.81 30 00:30 05.09.2021
5901 Clear 19 1012 78 10000 1.5 34 23:42 04.09.2021
5902 Clear 19 1012 80 10000 1.67 36 22:36 04.09.2021
5903 Clear 19 1012 83 10000 1.35 41 21:58 04.09.2021
5904 Clouds 20 1012 82 10000 0.9 49 19:53 04.09.2021
5905 Clouds 20 1012 83 10000 0.95 49 19:27 04.09.2021
5906 Clouds 22 1012 83 10000 0.33 43 16:26 04.09.2021
5907 Clouds 22 1011 83 5657 1.91 199 13:30 04.09.2021
5908 Clouds 24 1010 75 9146 3.33 201 11:20 04.09.2021
5909 Clouds 25 1011 68 10000 3.58 201 09:26 04.09.2021
5910 Clouds 24 1012 68 10000 2.28 201 06:55 04.09.2021
5911 Clouds 19 1012 87 10000 1.22 14 00:27 04.09.2021
5912 Clouds 19 1012 87 10000 1.22 14 23:32 03.09.2021
5913 Clouds 19 1013 91 10000 0.33 32 22:40 03.09.2021
5914 Clouds 19 1013 90 10000 0.35 224 21:36 03.09.2021
5915 Clouds 19 1013 88 10000 0.18 166 20:49 03.09.2021
5916 Clouds 19 1014 87 10000 0.88 28 19:56 03.09.2021
5917 Clouds 19 1014 87 10000 0.44 58 19:23 03.09.2021
5918 Clouds 20 1014 88 10000 0.77 36 17:56 03.09.2021
5919 Clouds 20 1014 88 10000 0.77 36 17:56 03.09.2021
5920 Clouds 20 1014 90 10000 1.09 29 16:40 03.09.2021
5921 Clouds 20 1013 94 4996 0.74 187 15:20 03.09.2021
5922 Rain 21 1012 85 3921 1.87 211 12:59 03.09.2021
5923 Clouds 23 1011 75 10000 2.83 206 10:43 03.09.2021
5924 Clouds 24 1012 69 10000 3.21 207 09:19 03.09.2021
5925 Clouds 24 1013 60 10000 1.94 224 07:51 03.09.2021
5926 Clouds 22 1015 65 10000 1.11 229 05:30 03.09.2021
5927 Clouds 22 1015 65 10000 1.11 229 05:30 03.09.2021
5928 Clouds 19 1015 75 10000 2.53 24 23:25 02.09.2021
5929 Clouds 19 1015 75 10000 2.31 28 21:41 02.09.2021
5930 Clouds 19 1016 76 10000 1.81 31 20:18 02.09.2021
5931 Clouds 19 1016 80 10000 1.59 30 17:33 02.09.2021
5932 Clouds 20 1015 89 10000 1.07 22 16:19 02.09.2021
5933 Rain 22 1013 81 10000 2.18 201 13:59 02.09.2021
5934 Clouds 23 1013 75 10000 3.13 200 12:56 02.09.2021
5935 Clouds 24 1012 71 10000 3.81 200 11:36 02.09.2021
5936 Clouds 24 1012 67 10000 4.45 201 10:37 02.09.2021
5937 Clouds 25 1012 57 10000 3.76 201 08:40 02.09.2021
5938 Clouds 24 1014 52 10000 2.53 201 07:20 02.09.2021
5939 Clouds 17 1017 70 10000 2.79 23 02:58 02.09.2021
5940 Clouds 17 1017 70 10000 2.79 23 02:33 02.09.2021
5941 Clear 17 1017 70 10000 2.89 24 01:34 02.09.2021
5942 Clear 17 1017 71 10000 2.97 25 23:40 01.09.2021
5943 Clear 17 1017 71 10000 2.63 26 22:42 01.09.2021
5944 Clear 18 1017 72 10000 2.39 31 21:41 01.09.2021
5945 Clear 18 1017 72 10000 2.15 36 20:53 01.09.2021
5946 Clouds 18 1017 72 10000 2.37 26 19:22 01.09.2021
5947 Clouds 19 1018 78 10000 2.22 31 17:47 01.09.2021
5948 Clouds 19 1018 86 10000 1.81 29 16:48 01.09.2021
5949 Clouds 19 1017 90 10000 0.6 26 15:52 01.09.2021
5950 Clouds 23 1014 69 10000 3.56 201 12:41 01.09.2021
5951 Clouds 24 1014 63 10000 3.96 203 11:45 01.09.2021
5952 Clear 25 1015 54 10000 3.77 202 09:25 01.09.2021
5953 Clear 24 1017 51 10000 3.46 203 07:53 01.09.2021
5954 Clear 23 1018 52 10000 2.14 203 05:40 01.09.2021
5955 Clear 17 1019 71 10000 2.82 27 23:19 31.08.2021
5956 Clear 18 1019 71 10000 2.5 27 21:40 31.08.2021
5957 Clouds 18 1019 73 10000 2.44 30 19:48 31.08.2021
5958 Clouds 18 1019 74 10000 1.99 33 18:37 31.08.2021
5959 Clouds 18 1019 79 10000 2.05 27 17:38 31.08.2021
5960 Clouds 19 1019 85 10000 1.95 28 17:20 31.08.2021
5961 Clouds 19 1018 90 10000 1 18 16:24 31.08.2021
5962 Clouds 22 1016 76 10000 2.63 199 13:46 31.08.2021
5963 Clouds 24 1014 62 10000 3.86 199 11:36 31.08.2021
5964 Clouds 24 1014 58 10000 4.29 200 10:56 31.08.2021
5965 Clouds 25 1015 55 10000 4.15 201 09:45 31.08.2021
5966 Clouds 24 1016 56 10000 3.9 203 08:41 31.08.2021
5967 Clear 24 1016 55 10000 3.49 202 07:38 31.08.2021
5968 Clear 22 1017 61 10000 2.38 198 05:55 31.08.2021
5969 Clear 17 1018 71 10000 2.68 26 23:35 30.08.2021
5970 Clear 17 1018 75 10000 2.3 29 21:53 30.08.2021
5971 Clear 17 1018 75 10000 2.3 29 21:35 30.08.2021
5972 Clear 17 1019 75 10000 1.87 34 20:32 30.08.2021
5973 Clouds 18 1018 74 10000 1.55 32 19:30 30.08.2021
5974 Clouds 18 1018 74 10000 1.61 23 18:44 30.08.2021
5975 Clouds 18 1017 76 10000 1.68 32 17:48 30.08.2021
5976 Clouds 19 1016 86 10000 1.38 28 16:25 30.08.2021
5977 Clouds 19 1016 86 10000 1.38 28 15:39 30.08.2021
5978 Clouds 22 1013 71 10000 1.66 202 13:51 30.08.2021
5979 Clouds 23 1013 66 10000 2.87 204 12:49 30.08.2021
5980 Clouds 24 1014 63 10000 3.98 201 10:41 30.08.2021
5981 Clouds 17 1016 74 10000 0.63 356 02:37 30.08.2021
5982 Clear 17 1016 82 10000 1.34 44 21:33 29.08.2021
5983 Clear 17 1016 83 10000 0.99 40 20:34 29.08.2021
5984 Clouds 18 1015 80 10000 1.59 27 19:20 29.08.2021
5985 Clouds 18 1015 82 10000 1.71 20 17:58 29.08.2021
5986 Clouds 19 1013 87 10000 0.25 59 15:50 29.08.2021
5987 Clouds 21 1012 79 10000 2.23 197 14:25 29.08.2021
5988 Clouds 21 1012 79 10000 2.23 197 13:47 29.08.2021
5989 Clouds 22 1011 74 10000 3.09 198 12:42 29.08.2021
5990 Clouds 23 1010 71 10000 3.4 199 11:53 29.08.2021
5991 Clouds 23 1011 69 10000 3.73 199 11:28 29.08.2021
5992 Clouds 23 1011 69 10000 3.73 199 10:46 29.08.2021
5993 Clouds 23 1011 68 9003 3.92 202 10:27 29.08.2021
5994 Clouds 23 1011 66 10000 4.24 203 09:21 29.08.2021
5995 Clouds 17 1013 74 10000 2.56 29 02:37 29.08.2021
5996 Clouds 17 1013 86 10000 1.15 14 22:25 28.08.2021
5997 Clouds 18 1013 87 10000 0.66 23 20:30 28.08.2021
5998 Clouds 19 1013 84 10000 0.72 3 18:53 28.08.2021
5999 Clouds 19 1013 84 10000 0.62 349 18:21 28.08.2021
6000 Clouds 19 1013 84 10000 0.62 349 17:45 28.08.2021
6001 Clouds 20 1012 87 10000 0.23 137 16:21 28.08.2021
6002 Clouds 20 1011 88 10000 1.04 195 14:42 28.08.2021
6003 Clouds 21 1010 84 10000 1.83 187 13:46 28.08.2021
6004 Clouds 22 1009 82 10000 2.71 194 12:46 28.08.2021
6005 Clouds 23 1009 80 10000 3.18 197 11:58 28.08.2021
6006 Clouds 23 1010 78 10000 3.41 197 10:44 28.08.2021
6007 Clouds 23 1010 78 10000 3.48 198 09:33 28.08.2021
6008 Clouds 22 1012 76 10000 2.39 203 07:25 28.08.2021
6009 Clouds 19 1012 92 8071 0.52 102 22:50 27.08.2021
6010 Clouds 19 1013 91 10000 0.44 95 21:26 27.08.2021
6011 Clouds 19 1013 91 10000 0.44 95 20:33 27.08.2021
6012 Clouds 20 1013 89 10000 0.59 25 19:26 27.08.2021
6013 Clouds 20 1013 89 10000 0.59 25 18:38 27.08.2021
6014 Clouds 20 1013 88 10000 0.64 12 17:30 27.08.2021
6015 Rain 21 1012 91 10000 0.2 165 16:28 27.08.2021
6016 Clouds 21 1011 88 10000 1.11 188 14:44 27.08.2021
6017 Clouds 23 1010 83 10000 2.42 199 12:55 27.08.2021
6018 Clouds 23 1010 82 5932 2.86 204 11:38 27.08.2021
6019 Clouds 24 1010 81 1176 3.27 196 10:45 27.08.2021
6020 Clouds 25 1010 75 5552 3.25 195 09:51 27.08.2021
6021 Clouds 25 1010 74 10000 2.85 205 08:48 27.08.2021
6022 Clouds 24 1011 77 10000 2.94 207 07:39 27.08.2021
6023 Clouds 21 1012 88 10000 1.14 199 05:33 27.08.2021
6024 Clouds 20 1009 94 2352 0.68 187 00:37 27.08.2021
6025 Clouds 20 1010 96 1210 0.54 194 23:28 26.08.2021
6026 Clouds 20 1010 96 1175 0.58 197 22:19 26.08.2021
6027 Clouds 20 1010 96 595 0.66 207 21:28 26.08.2021
6028 Clouds 21 1011 97 522 1.19 198 19:20 26.08.2021
6029 Clouds 21 1011 97 601 1.22 198 17:47 26.08.2021
6030 Clouds 21 1010 96 683 1.02 196 17:24 26.08.2021
6031 Clouds 21 1009 97 580 1.11 202 16:26 26.08.2021
6032 Clouds 22 1008 94 4201 1.99 195 13:59 26.08.2021
6033 Clouds 23 1007 91 10000 2.26 202 12:58 26.08.2021
6034 Clouds 23 1007 91 10000 2.26 202 12:31 26.08.2021
6035 Clouds 24 1007 80 10000 3.46 201 10:33 26.08.2021
6036 Clouds 25 1007 74 10000 3.74 199 08:35 26.08.2021
6037 Clouds 25 1008 74 10000 3.29 199 07:47 26.08.2021
6038 Clouds 20 1008 92 5629 0.29 191 22:56 25.08.2021
6039 Clouds 20 1008 92 5629 0.29 191 22:36 25.08.2021
6040 Clouds 20 1009 92 5539 0.44 133 21:55 25.08.2021
6041 Clouds 21 1009 92 8266 0.22 195 20:55 25.08.2021
6042 Rain 21 1010 94 5764 0.39 253 20:29 25.08.2021
6043 Rain 21 1010 92 1811 0.46 287 18:45 25.08.2021
6044 Rain 21 1010 93 2205 0.79 228 17:51 25.08.2021
6045 Clouds 21 1009 95 3037 0.75 232 15:46 25.08.2021
6046 Clouds 21 1009 94 4143 1.03 210 14:49 25.08.2021
6047 Clouds 21 1009 94 4143 1.03 210 14:30 25.08.2021
6048 Clouds 22 1008 92 810 1.72 210 13:31 25.08.2021
6049 Clouds 23 1008 88 3750 2.13 204 11:34 25.08.2021
6050 Clouds 23 1009 88 2330 2.4 201 10:55 25.08.2021
6051 Clouds 23 1010 87 2083 2.51 199 09:59 25.08.2021
6052 Clouds 23 1010 82 2980 2.9 198 09:25 25.08.2021
6053 Clouds 23 1010 82 2980 2.9 198 08:32 25.08.2021
6054 Clouds 21 1011 89 1849 1.46 189 04:51 25.08.2021
6055 Clouds 21 1010 91 5194 0.32 230 00:53 25.08.2021
6056 Clouds 21 1010 95 506 0.3 216 22:51 24.08.2021
6057 Clouds 21 1011 95 558 0.56 212 20:48 24.08.2021
6058 Clouds 21 1012 94 6730 0.31 166 19:53 24.08.2021
6059 Clouds 21 1012 94 7730 0.43 186 18:51 24.08.2021
6060 Clouds 21 1012 94 4281 0.53 236 17:52 24.08.2021
6061 Clouds 22 1012 93 10000 0.71 221 17:20 24.08.2021
6062 Clouds 22 1011 92 10000 1.45 195 14:38 24.08.2021
6063 Clouds 23 1009 90 2534 2.53 202 13:29 24.08.2021
6064 Clouds 23 1009 90 2534 2.53 202 12:36 24.08.2021
6065 Clouds 23 1009 90 2534 2.53 202 12:36 24.08.2021
6066 Clouds 25 1009 81 4963 3.35 201 11:19 24.08.2021
6067 Clouds 25 1009 81 4963 3.35 201 10:35 24.08.2021
6068 Clouds 26 1009 75 10000 3.22 195 09:23 24.08.2021
6069 Clouds 25 1011 76 10000 2.45 202 07:28 24.08.2021
6070 Clouds 24 1011 79 10000 2.19 206 05:30 24.08.2021
6071 Clouds 21 1011 85 10000 0.18 188 00:59 24.08.2021
6072 Clouds 21 1012 87 10000 0.76 351 23:26 23.08.2021
6073 Clouds 21 1012 87 10000 0.76 351 22:42 23.08.2021
6074 Clouds 20 1013 94 10000 0.55 24 20:58 23.08.2021
6075 Clouds 21 1013 95 2642 0.3 254 19:30 23.08.2021
6076 Clouds 21 1013 95 2642 0.3 254 19:30 23.08.2021
6077 Clouds 22 1012 93 4937 0.44 265 16:45 23.08.2021
6078 Clouds 23 1011 87 10000 1.26 208 15:24 23.08.2021
6079 Clouds 23 1010 85 10000 1.12 230 13:47 23.08.2021
6080 Clouds 24 1010 83 10000 2.19 218 12:30 23.08.2021
6081 Clouds 25 1011 81 10000 2.88 190 10:46 23.08.2021
6082 Clouds 25 1011 78 7027 3.42 197 09:52 23.08.2021
6083 Clouds 26 1011 71 10000 3.69 202 08:34 23.08.2021
6084 Clouds 25 1012 71 10000 2.42 198 06:57 23.08.2021
6085 Clouds 25 1012 71 10000 2.42 198 06:38 23.08.2021
6086 Clouds 20 1012 81 10000 0.93 36 00:59 23.08.2021
6087 Clouds 20 1013 82 10000 0.98 44 23:39 22.08.2021
6088 Clouds 20 1013 80 10000 0.83 61 22:42 22.08.2021
6089 Clouds 20 1014 84 10000 1.27 48 20:46 22.08.2021
6090 Clouds 20 1014 87 10000 0.73 75 20:18 22.08.2021
6091 Clouds 21 1015 88 10000 1.88 35 17:41 22.08.2021
6092 Clouds 21 1013 92 10000 0.25 63 15:48 22.08.2021
6093 Clouds 22 1013 89 10000 0.19 239 14:53 22.08.2021
6094 Clouds 22 1013 90 2739 0.39 176 13:38 22.08.2021
6095 Clouds 23 1013 90 1946 1.99 199 13:19 22.08.2021
6096 Clouds 23 1013 85 7373 2.36 197 12:29 22.08.2021
6097 Clouds 23 1013 85 7373 2.36 197 11:43 22.08.2021
6098 Clouds 24 1013 85 10000 2.91 203 10:53 22.08.2021
6099 Clouds 25 1014 75 10000 2.94 195 08:41 22.08.2021
6100 Clouds 24 1015 74 10000 2.48 200 06:59 22.08.2021
6101 Clouds 19 1016 87 10000 1.1 21 00:32 22.08.2021
6102 Clouds 20 1016 87 10000 0.39 19 22:36 21.08.2021
6103 Clouds 20 1016 85 10000 0.46 14 21:34 21.08.2021
6104 Clouds 22 1016 77 10000 0.98 13 18:47 21.08.2021
6105 Rain 22 1016 77 10000 1.45 14 18:21 21.08.2021
6106 Clouds 22 1016 79 10000 1.96 15 16:58 21.08.2021
6107 Clouds 21 1016 83 10000 2.24 19 16:29 21.08.2021
6108 Clouds 21 1016 83 10000 2.24 19 15:38 21.08.2021
6109 Clouds 21 1016 89 10000 1.83 20 15:20 21.08.2021
6110 Clouds 21 1016 92 10000 0.96 286 13:35 21.08.2021
6111 Clouds 21 1015 89 10000 0.76 208 12:39 21.08.2021
6112 Clouds 21 1016 88 10000 0.22 13 10:39 21.08.2021
6113 Clouds 23 1015 83 7772 3.25 189 07:50 21.08.2021
6114 Clouds 23 1015 83 7772 3.25 189 07:50 21.08.2021
6115 Clouds 20 1015 88 10000 0.18 67 23:51 20.08.2021
6116 Clouds 21 1016 86 10000 0.38 247 21:56 20.08.2021
6117 Clouds 21 1016 85 10000 0.35 359 19:31 20.08.2021
6118 Clouds 21 1015 90 10000 0.49 74 16:29 20.08.2021
6119 Clouds 22 1014 87 10000 1.51 195 14:27 20.08.2021
6120 Clouds 23 1013 78 10000 2.44 196 11:55 20.08.2021
6121 Clouds 23 1013 84 9152 2.98 194 11:27 20.08.2021
6122 Rain 24 1013 84 2097 3.8 196 09:46 20.08.2021
6123 Rain 25 1012 72 3346 3.93 197 08:57 20.08.2021
6124 Rain 25 1012 72 3346 3.93 197 08:36 20.08.2021
6125 Clouds 22 1013 59 10000 1.58 201 04:38 20.08.2021
6126 Clouds 22 1013 58 10000 0.4 351 04:19 20.08.2021
6127 Clouds 20 1013 73 10000 2.66 20 23:27 19.08.2021
6128 Clouds 20 1013 73 10000 2.66 20 22:37 19.08.2021
6129 Clouds 20 1014 76 10000 2.18 27 21:49 19.08.2021
6130 Rain 20 1013 74 10000 1.49 24 19:59 19.08.2021
6131 Clouds 21 1013 79 10000 1.73 33 17:52 19.08.2021
6132 Clouds 21 1012 86 10000 1.46 32 16:42 19.08.2021
6133 Clouds 22 1011 85 10000 0.86 209 14:33 19.08.2021
6134 Clouds 25 1009 71 10000 3.43 198 12:46 19.08.2021
6135 Clouds 26 1009 64 10000 3.83 200 12:27 19.08.2021
6136 Clear 26 1009 59 10000 4.01 200 10:47 19.08.2021
6137 Clear 27 1009 54 10000 3.82 202 09:48 19.08.2021
6138 Clear 27 1010 51 10000 3.5 203 09:26 19.08.2021
6139 Clear 27 1010 50 10000 3.47 204 08:33 19.08.2021
6140 Clouds 22 1012 50 10000 1.56 4 03:37 19.08.2021
6141 Clouds 18 1013 59 10000 2.96 21 02:19 19.08.2021
6142 Clear 19 1013 62 10000 2.53 23 23:28 18.08.2021
6143 Clear 19 1013 62 10000 2.53 23 22:31 18.08.2021
6144 Clear 19 1013 64 10000 2.56 28 20:50 18.08.2021
6145 Clouds 19 1013 66 10000 1.82 32 20:20 18.08.2021
6146 Clouds 20 1012 67 10000 1.99 20 19:26 18.08.2021
6147 Clouds 20 1012 67 10000 1.99 20 18:33 18.08.2021
6148 Clouds 20 1012 80 10000 2.22 22 16:56 18.08.2021
6149 Clouds 21 1012 88 10000 1.35 6 15:40 18.08.2021
6150 Clouds 22 1011 82 10000 1.32 210 15:21 18.08.2021
6151 Clear 25 1009 65 10000 3.59 202 12:51 18.08.2021
6152 Clear 26 1008 57 10000 3.97 203 12:27 18.08.2021
6153 Clear 26 1008 57 10000 3.97 203 11:49 18.08.2021
6154 Clear 26 1011 45 10000 3.08 203 08:29 18.08.2021
6155 Clear 18 1015 63 10000 3.22 21 02:29 18.08.2021
6156 Clear 18 1015 67 10000 2.57 25 22:40 17.08.2021
6157 Clear 18 1015 68 10000 2.26 27 21:54 17.08.2021
6158 Clear 19 1015 68 10000 2.04 29 21:22 17.08.2021
6159 Clear 19 1015 68 10000 2.19 25 19:42 17.08.2021
6160 Clear 20 1015 75 10000 2.06 25 17:47 17.08.2021
6161 Clear 20 1015 81 10000 1.93 28 17:26 17.08.2021
6162 Clouds 20 1014 87 10000 0.79 40 15:46 17.08.2021
6163 Clouds 22 1013 77 10000 1.49 204 14:56 17.08.2021
6164 Clouds 24 1012 61 10000 3.44 199 12:44 17.08.2021
6165 Clear 26 1012 52 10000 4.02 204 10:40 17.08.2021
6166 Clear 26 1013 49 10000 3.65 197 09:19 17.08.2021
6167 Clear 25 1014 45 10000 2.7 200 07:24 17.08.2021
6168 Clear 18 1017 71 10000 2.42 25 23:25 16.08.2021
6169 Clear 18 1017 71 10000 2.42 25 22:54 16.08.2021
6170 Clear 18 1017 71 10000 2.42 25 22:35 16.08.2021
6171 Clear 18 1017 72 10000 2.32 33 21:46 16.08.2021
6172 Clear 18 1017 74 10000 1.65 35 20:52 16.08.2021
6173 Clouds 19 1017 74 10000 2.12 21 19:29 16.08.2021
6174 Clouds 19 1017 74 10000 2.12 21 18:46 16.08.2021
6175 Clouds 19 1017 79 10000 2.4 15 17:54 16.08.2021
6176 Clouds 19 1017 84 10000 1.72 8 16:51 16.08.2021
6177 Clouds 20 1015 82 10000 1.61 208 15:26 16.08.2021
6178 Clouds 22 1013 70 10000 2.73 211 14:21 16.08.2021
6179 Clouds 23 1013 62 10000 3.63 210 12:59 16.08.2021
6180 Clouds 24 1012 56 10000 4.3 207 12:28 16.08.2021
6181 Clouds 25 1013 48 10000 4.07 199 09:43 16.08.2021
6182 Clear 25 1013 45 10000 3.76 198 08:43 16.08.2021
6183 Clear 25 1013 41 10000 3.25 197 07:30 16.08.2021
6184 Clear 23 1015 41 10000 1.23 207 05:58 16.08.2021
6185 Clear 17 1015 67 10000 2.6 27 01:22 16.08.2021
6186 Clear 18 1014 71 10000 0.91 17 21:34 15.08.2021
6187 Clouds 18 1015 74 10000 1.89 21 19:57 15.08.2021
6188 Clouds 18 1015 75 10000 2.03 32 18:41 15.08.2021
6189 Clouds 19 1014 76 10000 1.67 36 17:49 15.08.2021
6190 Clouds 19 1014 77 10000 1.12 25 17:22 15.08.2021
6191 Clouds 20 1013 76 10000 0.34 333 15:45 15.08.2021
6192 Clouds 21 1012 70 10000 1.38 224 14:38 15.08.2021
6193 Clouds 22 1010 71 10000 2.85 203 13:34 15.08.2021
6194 Clouds 23 1010 63 10000 3.56 200 10:50 15.08.2021
6195 Clouds 23 1012 64 10000 2.36 212 08:35 15.08.2021
6196 Clear 17 1011 82 10000 1.94 35 01:22 15.08.2021
6197 Clear 17 1011 82 10000 1.94 35 00:33 15.08.2021
6198 Clear 18 1011 82 10000 1.48 49 21:27 14.08.2021
6199 Clouds 19 1010 84 10000 1.46 37 20:28 14.08.2021
6200 Clouds 19 1011 87 10000 0.53 72 19:33 14.08.2021
6201 Clouds 19 1011 87 10000 0.52 39 18:33 14.08.2021
6202 Clouds 20 1011 87 10000 0.43 58 16:44 14.08.2021
6203 Clouds 20 1010 89 10000 0.41 166 15:36 14.08.2021
6204 Clouds 21 1009 85 10000 2.36 196 14:22 14.08.2021
6205 Clouds 23 1008 80 10000 3.44 200 11:32 14.08.2021
6206 Clouds 23 1008 77 10000 3.71 202 09:54 14.08.2021
6207 Clouds 22 1010 79 10000 1.55 205 05:35 14.08.2021
6208 Clouds 20 1010 89 10000 0.34 146 23:52 13.08.2021
6209 Clouds 20 1011 87 10000 0.78 191 22:18 13.08.2021
6210 Clouds 21 1011 83 10000 0.44 206 20:24 13.08.2021
6211 Clouds 21 1012 86 10000 0.41 162 18:46 13.08.2021
6212 Clouds 21 1011 85 10000 0.05 145 17:23 13.08.2021
6213 Clouds 21 1011 90 10000 0.56 193 15:57 13.08.2021
6214 Clouds 24 1009 80 10000 2.94 198 11:58 13.08.2021
6215 Clouds 24 1010 79 10000 3.32 197 11:18 13.08.2021
6216 Clouds 25 1011 75 10000 3.37 201 08:41 13.08.2021
6217 Clouds 25 1011 71 10000 3 197 08:21 13.08.2021
6218 Clouds 24 1012 73 10000 2.49 197 06:40 13.08.2021
6219 Clouds 20 1012 87 10000 0.22 45 02:27 13.08.2021
6220 Clouds 20 1013 85 10000 0.34 169 21:53 12.08.2021
6221 Clouds 21 1014 85 10000 0.47 167 20:43 12.08.2021
6222 Clouds 21 1014 86 10000 0.71 185 19:50 12.08.2021
6223 Clouds 21 1014 85 10000 0.59 209 18:41 12.08.2021
6224 Clouds 21 1014 86 10000 0.42 121 16:57 12.08.2021
6225 Clouds 21 1013 90 10000 0.58 140 16:28 12.08.2021
6226 Clouds 24 1011 77 10000 2.53 202 13:53 12.08.2021
6227 Clouds 26 1010 66 10000 3.47 204 12:23 12.08.2021
6228 Clouds 27 1010 61 10000 3.96 203 09:58 12.08.2021
6229 Clouds 26 1012 64 10000 2.95 199 07:53 12.08.2021
6230 Clear 19 1013 73 10000 1.9 33 00:30 12.08.2021
6231 Clear 20 1012 74 10000 1.36 33 21:56 11.08.2021
6232 Clouds 20 1013 83 10000 1.1 38 19:36 11.08.2021
6233 Clouds 21 1012 85 10000 0.57 62 18:27 11.08.2021
6234 Clouds 21 1012 90 7509 0.25 193 15:38 11.08.2021
6235 Clouds 22 1011 87 10000 1.67 195 15:20 11.08.2021
6236 Clouds 23 1010 78 10000 2.75 201 14:20 11.08.2021
6237 Clouds 24 1009 75 10000 3.27 201 12:30 11.08.2021
6238 Clouds 25 1009 69 10000 3.83 199 11:46 11.08.2021
6239 Clouds 25 1009 69 10000 3.83 199 11:46 11.08.2021
6240 Clouds 26 1009 66 10000 3.99 199 11:22 11.08.2021
6241 Clouds 26 1009 65 10000 3.69 197 09:44 11.08.2021
6242 Clouds 25 1010 67 10000 3.06 196 07:30 11.08.2021
6243 Clear 18 1012 77 10000 1.65 24 23:31 10.08.2021
6244 Clear 19 1012 82 10000 1.17 32 22:29 10.08.2021
6245 Clear 19 1012 84 10000 0.9 40 20:57 10.08.2021
6246 Clouds 20 1013 84 10000 0.94 32 19:51 10.08.2021
6247 Clouds 20 1012 83 10000 0.77 23 18:31 10.08.2021
6248 Clouds 21 1011 89 10000 0.62 197 16:28 10.08.2021
6249 Clouds 22 1010 84 10000 1.49 208 14:52 10.08.2021
6250 Clouds 24 1009 75 7916 3.82 199 12:22 10.08.2021
6251 Clouds 26 1009 66 10000 3.98 203 09:51 10.08.2021
6252 Clouds 24 1011 69 10000 2.84 200 06:48 10.08.2021
6253 Clouds 23 1011 73 10000 1.37 207 04:58 10.08.2021
6254 Clouds 19 1012 82 10000 1.73 16 23:41 09.08.2021
6255 Clouds 19 1013 91 10000 1.16 31 21:55 09.08.2021
6256 Clouds 19 1013 91 10000 1.16 31 21:35 09.08.2021
6257 Clouds 20 1014 85 10000 0.92 50 19:36 09.08.2021
6258 Clouds 21 1013 88 10000 0.19 64 17:22 09.08.2021
6259 Clouds 21 1012 89 10000 0.3 205 15:35 09.08.2021
6260 Clouds 22 1012 85 10000 1.61 196 13:52 09.08.2021
6261 Clouds 23 1012 85 10000 2.51 197 13:27 09.08.2021
6262 Clouds 23 1012 85 10000 2.51 197 13:27 09.08.2021
6263 Clouds 24 1012 82 9893 3.29 199 10:50 09.08.2021
6264 Clouds 25 1012 73 10000 3.11 203 08:26 09.08.2021
6265 Clouds 21 1014 85 10000 0.03 308 02:54 09.08.2021
6266 Clouds 21 1015 91 5174 0.27 7 21:26 08.08.2021
6267 Clouds 21 1015 89 10000 0.29 7 19:51 08.08.2021
6268 Clouds 21 1014 89 10000 0.6 17 16:55 08.08.2021
6269 Rain 22 1013 92 10000 0.07 37 15:42 08.08.2021
6270 Clouds 23 1012 80 10000 2.13 194 13:41 08.08.2021
6271 Clouds 25 1011 76 10000 3.69 201 11:26 08.08.2021
6272 Clouds 26 1011 65 10000 3.26 204 08:21 08.08.2021
6273 Clouds 25 1012 67 10000 3.05 201 06:40 08.08.2021
6274 Clear 19 1013 75 10000 1.87 21 00:33 08.08.2021
6275 Clear 20 1014 79 10000 1.74 29 23:18 07.08.2021
6276 Clear 20 1014 81 10000 1.51 37 21:41 07.08.2021
6277 Clear 20 1014 83 10000 1.2 46 20:55 07.08.2021
6278 Clouds 21 1014 84 10000 0.65 349 17:46 07.08.2021
6279 Clouds 22 1013 83 10000 0.4 20 16:50 07.08.2021
6280 Clouds 22 1012 86 10000 1.59 202 14:56 07.08.2021
6281 Clouds 23 1011 82 10000 2.29 202 13:33 07.08.2021
6282 Clouds 23 1011 82 10000 2.29 202 13:33 07.08.2021
6283 Clouds 26 1010 67 10000 3.76 199 10:27 07.08.2021
6284 Clouds 25 1012 63 10000 2.63 201 06:31 07.08.2021
6285 Clear 19 1012 69 10000 2.79 20 01:51 07.08.2021
6286 Clear 19 1012 79 10000 1.53 38 21:51 06.08.2021
6287 Clear 20 1012 80 10000 1.09 46 20:34 06.08.2021
6288 Clouds 20 1012 80 10000 1.09 23 19:56 06.08.2021
6289 Clouds 21 1012 81 10000 1.7 28 18:32 06.08.2021
6290 Clouds 21 1012 81 10000 1.7 28 18:32 06.08.2021
6291 Clouds 21 1012 81 10000 1.7 28 18:32 06.08.2021
6292 Clouds 21 1010 89 10000 0.42 34 15:48 06.08.2021
6293 Clouds 26 1008 69 10000 4.16 198 10:51 06.08.2021
6294 Clouds 26 1008 67 10000 4.09 202 09:56 06.08.2021
6295 Clear 26 1008 63 10000 3.44 200 07:47 06.08.2021
6296 Clear 19 1010 77 10000 1.85 32 23:33 05.08.2021
6297 Clear 19 1011 82 10000 1.3 39 21:56 05.08.2021
6298 Clear 20 1011 83 10000 1 53 20:44 05.08.2021
6299 Clouds 21 1011 81 10000 1 48 19:25 05.08.2021
6300 Clouds 21 1010 88 10000 0.92 29 16:33 05.08.2021
6301 Clouds 24 1008 80 10000 2.79 201 14:25 05.08.2021
6302 Clouds 27 1006 64 10000 4.05 202 11:21 05.08.2021
6303 Clouds 26 1007 63 10000 3.72 201 08:38 05.08.2021
6304 Clouds 23 1010 72 10000 1.33 201 04:50 05.08.2021
6305 Clouds 20 1010 81 10000 1.89 27 23:20 04.08.2021
6306 Clouds 20 1011 82 10000 2.15 28 21:44 04.08.2021
6307 Clouds 21 1012 84 10000 2.1 31 21:21 04.08.2021
6308 Clouds 22 1011 86 10000 0.59 345 18:22 04.08.2021
6309 Clouds 22 1011 86 10000 0.86 17 16:40 04.08.2021
6310 Clouds 23 1010 89 10000 1.34 191 14:42 04.08.2021
6311 Clouds 26 1008 71 10000 3.69 201 11:20 04.08.2021
6312 Clouds 24 1010 73 10000 1.6 202 04:54 04.08.2021
6313 Clouds 21 1011 88 10000 1.03 41 20:35 03.08.2021
6314 Clouds 21 1011 84 10000 0.74 33 19:58 03.08.2021
6315 Clouds 22 1010 84 10000 0.99 350 17:50 03.08.2021
6316 Clouds 23 1009 89 8392 0.68 199 16:23 03.08.2021
6317 Clouds 26 1007 71 10000 3.46 207 12:20 03.08.2021
6318 Clouds 27 1007 67 10000 3.79 206 10:39 03.08.2021
6319 Clouds 21 1010 69 10000 2.27 19 02:38 03.08.2021
6320 Clouds 21 1010 86 10000 1.15 29 17:48 02.08.2021
6321 Clouds 22 1009 89 10000 0.79 34 16:38 02.08.2021
6322 Rain 23 1008 84 10000 1.34 197 14:51 02.08.2021
6323 Clouds 26 1006 69 10000 3.85 204 11:59 02.08.2021
6324 Clouds 26 1006 69 10000 3.85 204 11:59 02.08.2021
6325 Clouds 26 1006 69 10000 3.85 204 11:34 02.08.2021
6326 Clouds 27 1007 65 10000 4 203 09:49 02.08.2021
6327 Clouds 21 1007 80 10000 0.51 81 22:40 01.08.2021
6328 Clouds 22 1008 85 10000 0.17 57 18:19 01.08.2021
6329 Clouds 22 1006 86 10000 0.77 186 15:29 01.08.2021
6330 Clouds 25 1005 79 10000 2.77 206 11:38 01.08.2021
6331 Clouds 24 1007 80 10000 2.81 197 08:51 01.08.2021
6332 Clouds 22 1007 85 10000 0.33 182 03:47 01.08.2021
6333 Clouds 21 1008 88 10000 0.4 104 22:52 31.07.2021
6334 Clouds 22 1010 88 10000 0.33 8 20:52 31.07.2021
6335 Clouds 22 1010 88 5733 0.31 231 17:49 31.07.2021
6336 Clouds 22 1009 92 4655 0.71 178 16:28 31.07.2021
6337 Clouds 24 1007 85 3660 2.52 202 12:31 31.07.2021
6338 Clouds 26 1008 74 7689 3.55 201 08:34 31.07.2021
6339 Clouds 20 1009 86 10000 0.75 25 00:54 31.07.2021
6340 Clouds 21 1011 86 10000 0.44 358 20:30 30.07.2021
6341 Clouds 21 1010 88 10000 0.27 7 19:23 30.07.2021
6342 Clouds 23 1009 84 10000 1.29 186 07:50 30.07.2021
6343 Clouds 22 1007 96 2230 0.33 73 16:53 29.07.2021
6344 Clouds 25 1005 74 10000 2.2 197 06:32 29.07.2021
6345 Clouds 22 1006 81 10000 0.15 358 04:29 29.07.2021
6346 Clouds 22 1007 83 10000 1.02 26 21:21 28.07.2021
6347 Rain 22 1006 90 10000 0.28 200 17:22 28.07.2021
6348 Clouds 23 1005 90 10000 0.93 0 15:25 28.07.2021
6349 Clouds 24 1005 90 448 2.95 196 07:53 28.07.2021
6350 Clouds 22 1003 81 10000 0.8 41 23:31 27.07.2021
6351 Clouds 23 1004 83 10000 0.12 154 21:28 27.07.2021
6352 Rain 24 1003 84 10000 2.12 347 14:53 27.07.2021
6353 Rain 26 1002 91 383 2.85 204 11:19 27.07.2021
6354 Clouds 27 1002 84 1307 2.87 199 08:57 27.07.2021
6355 Clouds 24 1006 98 341 0.66 334 17:54 26.07.2021
6356 Clouds 24 1005 99 66 1.28 202 15:31 26.07.2021
6357 Clouds 25 1007 83 10000 1.76 196 04:52 26.07.2021
6358 Rain 23 1008 95 619 0.16 340 20:56 25.07.2021
6359 Rain 24 1007 89 8650 0.66 333 18:25 25.07.2021
6360 Rain 24 1007 96 1779 0.65 237 15:46 25.07.2021
6361 Clouds 26 1007 83 3216 3 202 10:56 25.07.2021
6362 Clouds 26 1008 81 5089 2.45 201 08:19 25.07.2021
6363 Clouds 22 1009 93 8902 0.44 138 21:37 24.07.2021
6364 Clouds 22 1010 94 2279 0.41 103 20:19 24.07.2021
6365 Clouds 23 1009 98 465 1 188 15:44 24.07.2021
6366 Clouds 23 1010 75 10000 0.07 148 04:20 24.07.2021
6367 Clouds 23 1008 89 10000 0.53 130 14:38 23.07.2021
6368 Clouds 24 1007 87 10000 1.19 195 12:41 23.07.2021
6369 Clouds 22 1010 84 10000 0.87 313 06:18 23.07.2021
6370 Clouds 21 1008 90 10000 0.34 258 20:33 22.07.2021
6371 Clouds 23 1006 84 10000 1.23 187 11:28 22.07.2021
6372 Clouds 24 1006 73 10000 2.19 207 09:23 22.07.2021
6373 Clouds 22 1007 79 10000 0.57 211 03:42 22.07.2021
6374 Clouds 21 1007 90 10000 0.27 282 21:46 21.07.2021
6375 Clouds 21 1007 89 10000 0.29 204 21:28 21.07.2021
6376 Clouds 23 1005 88 10000 1.31 197 14:42 21.07.2021
6377 Clouds 25 1005 76 6565 3.85 202 09:49 21.07.2021
6378 Clouds 26 1005 69 10000 3.77 203 08:21 21.07.2021
6379 Clouds 20 1007 89 10000 0.94 47 23:47 20.07.2021
6380 Clouds 20 1009 94 5014 0.18 177 17:22 20.07.2021
6381 Clouds 21 1008 90 6422 0.71 198 16:25 20.07.2021
6382 Clouds 23 1006 80 10000 0.87 240 15:25 20.07.2021
6383 Clouds 21 1009 98 898 1.48 197 10:22 20.07.2021
6384 Clouds 22 1008 86 8420 1.47 183 04:48 20.07.2021
6385 Clouds 21 1007 87 10000 0.88 1 22:25 19.07.2021
6386 Clouds 21 1007 87 10000 0.88 1 22:25 19.07.2021
6387 Clouds 21 1008 90 10000 1.24 69 12:54 19.07.2021
6388 Clouds 21 1008 90 10000 0.79 216 10:29 19.07.2021
6389 Rain 23 1009 97 1499 0.75 202 19:42 18.07.2021
6390 Clouds 25 1006 90 2100 1.7 186 14:21 18.07.2021
6391 Clouds 26 1007 80 10000 3.16 205 10:18 18.07.2021
6392 Clouds 22 1011 99 446 0.89 203 22:25 17.07.2021
6393 Clouds 22 1011 99 446 0.89 203 21:53 17.07.2021
6394 Clouds 22 1011 99 446 0.89 203 21:35 17.07.2021
6395 Clouds 25 1010 87 1527 2.03 206 12:30 17.07.2021
6396 Clouds 26 1011 78 1725 3 202 10:20 17.07.2021
6397 Clouds 23 1014 84 7866 1.39 211 04:46 17.07.2021
6398 Clouds 24 1013 88 2724 1.13 210 14:23 16.07.2021
6399 Clouds 27 1013 65 9160 3.22 199 08:47 16.07.2021
6400 Clouds 20 1016 85 10000 0.61 39 02:18 16.07.2021
6401 Clouds 23 1012 82 8966 1.63 206 13:53 15.07.2021
6402 Clouds 24 1012 81 10000 2.19 199 12:53 15.07.2021
6403 Clouds 26 1012 63 10000 2.92 201 07:44 15.07.2021
6404 Clear 19 1015 80 10000 1.37 21 21:47 14.07.2021
6405 Clouds 22 1013 87 10000 0.58 358 15:58 14.07.2021
6406 Clouds 25 1012 71 7431 3.87 198 09:55 14.07.2021
6407 Clear 19 1015 79 10000 2.22 24 23:20 13.07.2021
6408 Clouds 19 1016 83 10000 2.7 19 19:59 13.07.2021
6409 Rain 19 1016 83 10000 2.7 19 19:39 13.07.2021
6410 Clouds 20 1016 86 10000 1.67 22 19:19 13.07.2021
6411 Clouds 20 1016 86 10000 1.67 22 18:43 13.07.2021
6412 Clouds 20 1015 88 10000 1.27 27 18:23 13.07.2021
6413 Clouds 22 1012 88 10000 2.27 200 13:22 13.07.2021
6414 Clouds 24 1013 73 10000 3.34 203 09:27 13.07.2021
6415 Clouds 19 1015 82 10000 1.76 40 20:29 12.07.2021
6416 Clouds 20 1014 83 10000 1.78 26 16:46 12.07.2021
6417 Clouds 21 1014 85 10000 0.86 200 14:37 12.07.2021
6418 Rain 22 1013 93 10000 0.13 33 23:22 11.07.2021
6419 Clouds 22 1014 94 10000 0.44 178 20:49 11.07.2021
6420 Clouds 24 1011 84 10000 1.9 203 14:29 11.07.2021
6421 Clouds 21 1013 89 9956 0.44 324 01:26 11.07.2021
6422 Clouds 22 1012 92 10000 0.61 275 16:54 10.07.2021
6423 Clouds 26 1011 71 10000 3.28 204 07:50 10.07.2021
6424 Clouds 20 1013 80 10000 1.24 12 02:18 10.07.2021
6425 Clouds 21 1013 84 10000 1.16 0 19:27 09.07.2021
6426 Clouds 24 1011 77 10000 1.6 200 14:50 09.07.2021
6427 Clouds 25 1011 66 10000 2.25 191 12:40 09.07.2021
6428 Clouds 20 1013 77 10000 1.3 32 23:53 08.07.2021
6429 Clouds 20 1013 79 10000 1.33 37 22:49 08.07.2021
6430 Clouds 20 1014 73 10000 1.84 35 19:49 08.07.2021
6431 Clouds 21 1015 76 10000 1.85 27 17:47 08.07.2021
6432 Clouds 24 1011 60 10000 1.72 150 13:48 08.07.2021
6433 Clouds 25 1011 57 10000 2.72 156 13:29 08.07.2021
6434 Clouds 25 1011 57 10000 2.72 156 12:32 08.07.2021
6435 Clouds 28 1009 45 10000 3.46 201 10:54 08.07.2021
6436 Clouds 24 1012 53 10000 1.95 205 05:38 08.07.2021
6437 Clouds 19 1015 67 10000 2.24 19 02:53 08.07.2021
6438 Clouds 19 1013 69 10000 2.28 26 22:57 07.07.2021
6439 Clouds 19 1013 71 10000 2.03 22 22:19 07.07.2021
6440 Clouds 19 1013 71 10000 2.03 22 21:44 07.07.2021
6441 Clouds 20 1013 74 10000 1.85 10 21:24 07.07.2021
6442 Clouds 21 1014 72 10000 2.3 13 19:58 07.07.2021
6443 Clouds 21 1014 72 10000 1.76 5 19:29 07.07.2021
6444 Clouds 21 1013 72 10000 0.81 356 17:36 07.07.2021
6445 Clouds 22 1012 71 10000 0.65 228 15:47 07.07.2021
6446 Clouds 25 1010 62 10000 1.97 205 13:56 07.07.2021
6447 Clouds 27 1011 57 10000 3.83 204 10:23 07.07.2021
6448 Clear 25 1012 57 10000 3.14 202 06:47 07.07.2021
6449 Clear 24 1012 57 10000 2.25 202 05:48 07.07.2021
6450 Clear 20 1014 69 10000 1.38 22 02:52 07.07.2021
6451 Clouds 20 1014 74 10000 1.43 14 19:31 06.07.2021
6452 Clouds 21 1014 76 10000 1.1 10 18:54 06.07.2021
6453 Clouds 21 1014 76 10000 1.1 10 18:33 06.07.2021
6454 Clouds 21 1014 77 10000 0.59 9 17:29 06.07.2021
6455 Clouds 24 1011 65 10000 2.13 198 13:33 06.07.2021
6456 Rain 26 1011 60 10000 3.65 201 09:43 06.07.2021
6457 Rain 26 1011 56 10000 3.48 205 08:35 06.07.2021
6458 Rain 26 1011 56 10000 3.48 205 08:35 06.07.2021
6459 Rain 26 1012 59 10000 3.37 209 07:39 06.07.2021
6460 Clouds 18 1014 75 10000 1.78 26 01:54 06.07.2021
6461 Clouds 19 1014 78 10000 1.54 16 23:57 05.07.2021
6462 Clouds 19 1015 86 10000 1.43 26 21:58 05.07.2021
6463 Clouds 20 1015 87 10000 0.25 333 17:21 05.07.2021
6464 Clouds 26 1012 51 10000 3.77 204 08:57 05.07.2021
6465 Clear 24 1014 54 10000 2.35 206 05:48 05.07.2021
6466 Clear 23 1015 55 10000 1.43 210 04:41 05.07.2021
6467 Clear 23 1015 55 10000 1.43 210 04:41 05.07.2021
6468 Clear 23 1015 55 10000 1.43 210 04:41 05.07.2021
6469 Clouds 19 1015 79 10000 0.93 20 23:22 04.07.2021
6470 Clouds 19 1016 80 10000 0.19 53 20:47 04.07.2021
6471 Clouds 20 1015 73 10000 0.45 297 17:35 04.07.2021
6472 Clouds 22 1013 68 10000 1.59 180 14:36 04.07.2021
6473 Clouds 26 1012 49 10000 3.98 201 10:19 04.07.2021
6474 Clear 24 1013 49 10000 2.74 203 06:47 04.07.2021
6475 Clear 17 1014 71 10000 2.42 9 23:26 03.07.2021
6476 Clouds 18 1015 73 10000 2.33 355 19:46 03.07.2021
6477 Clouds 23 1011 59 10000 1.99 213 12:43 03.07.2021
6478 Clouds 24 1011 51 10000 2.8 223 11:29 03.07.2021
6479 Clouds 24 1012 48 10000 3.58 209 09:27 03.07.2021
6480 Clouds 24 1012 48 10000 3.58 209 08:45 03.07.2021
6481 Clouds 17 1013 65 10000 2.59 17 22:55 02.07.2021
6482 Clouds 24 1010 48 10000 2.92 199 08:58 02.07.2021
6483 Clouds 24 1010 43 10000 2.54 209 07:28 02.07.2021
6484 Clouds 18 1012 59 10000 2.35 36 02:25 02.07.2021
6485 Clouds 19 1011 59 10000 1.31 37 22:30 01.07.2021
6486 Clouds 20 1011 57 10000 1.03 40 21:35 01.07.2021
6487 Clouds 21 1011 50 10000 1.23 348 20:22 01.07.2021
6488 Clouds 22 1011 52 10000 1.04 344 19:20 01.07.2021
6489 Clouds 22 1011 52 10000 1.04 344 18:47 01.07.2021
6490 Clouds 22 1011 53 10000 1.06 338 17:41 01.07.2021
6491 Clouds 22 1010 56 10000 0.96 311 16:28 01.07.2021
6492 Clouds 24 1009 52 10000 1.69 267 15:23 01.07.2021
6493 Clouds 25 1008 46 10000 2.13 267 14:19 01.07.2021
6494 Clouds 28 1007 39 10000 4.3 216 09:55 01.07.2021
6495 Clouds 28 1007 39 10000 4.3 216 09:55 01.07.2021
6496 Clouds 20 1011 62 10000 2.45 22 03:21 01.07.2021
6497 Clouds 20 1010 63 10000 1.5 13 23:18 30.06.2021
6498 Clouds 20 1010 64 10000 1.22 11 21:58 30.06.2021
6499 Clouds 21 1011 60 10000 1.19 18 21:20 30.06.2021
6500 Clouds 23 1011 58 10000 0.86 29 20:24 30.06.2021
6501 Clouds 23 1011 58 10000 0.61 189 17:19 30.06.2021
6502 Clouds 25 1009 55 10000 2.59 224 14:21 30.06.2021
6503 Clouds 28 1008 42 10000 3.79 203 10:43 30.06.2021
6504 Clear 20 1012 64 10000 2.02 26 02:52 30.06.2021
6505 Clouds 21 1012 75 10000 1.25 347 20:34 29.06.2021
6506 Clouds 22 1013 74 10000 0.44 9 17:48 29.06.2021
6507 Clouds 22 1013 75 10000 0.26 230 17:28 29.06.2021
6508 Clouds 23 1012 72 10000 1.35 215 15:51 29.06.2021
6509 Clouds 24 1011 67 10000 1.98 213 14:55 29.06.2021
6510 Clouds 26 1009 57 10000 3.23 209 13:26 29.06.2021
6511 Clear 27 1011 50 10000 3.33 202 08:26 29.06.2021
6512 Clear 18 1015 64 10000 2.74 29 23:55 28.06.2021
6513 Clear 19 1015 66 10000 2.73 21 21:32 28.06.2021
6514 Clouds 20 1016 71 10000 2.2 28 19:21 28.06.2021
6515 Clouds 21 1016 78 10000 0.5 353 17:21 28.06.2021
6516 Clouds 24 1013 60 10000 2.13 194 14:32 28.06.2021
6517 Clouds 26 1013 54 10000 3.37 202 12:57 28.06.2021
6518 Clear 18 1017 63 10000 2.55 30 00:57 28.06.2021
6519 Clear 18 1017 63 10000 2.75 27 22:53 27.06.2021
6520 Clouds 19 1018 62 10000 2.75 19 19:46 27.06.2021
6521 Clouds 20 1018 63 10000 2.7 22 18:57 27.06.2021
6522 Clouds 21 1016 75 10000 0.61 223 15:57 27.06.2021
6523 Clouds 25 1014 51 10000 3.47 200 12:35 27.06.2021
6524 Clear 23 1016 39 10000 0.74 223 05:25 27.06.2021
6525 Clouds 17 1017 63 10000 3.03 16 22:46 26.06.2021
6526 Clear 17 1017 67 10000 2.74 12 20:58 26.06.2021
6527 Clear 18 1017 68 10000 2.56 16 20:39 26.06.2021
6528 Clouds 19 1016 72 10000 1.17 21 17:46 26.06.2021
6529 Clouds 22 1013 63 10000 2.48 204 14:49 26.06.2021
6530 Clouds 24 1011 50 10000 4.16 204 12:27 26.06.2021
6531 Clouds 24 1011 50 10000 4.16 204 12:27 26.06.2021
6532 Clouds 24 1012 42 10000 2.96 200 07:47 26.06.2021
6533 Clouds 15 1015 60 10000 3.54 24 01:24 26.06.2021
6534 Clear 17 1015 63 10000 2.8 18 20:39 25.06.2021
6535 Clouds 17 1015 64 10000 3.36 17 19:31 25.06.2021
6536 Clouds 18 1014 66 10000 2.31 36 17:45 25.06.2021
6537 Clouds 18 1014 67 10000 1.04 42 16:49 25.06.2021
6538 Clouds 21 1011 58 10000 1.19 201 14:47 25.06.2021
6539 Clouds 24 1009 45 10000 4.32 206 10:52 25.06.2021
6540 Clear 24 1010 40 10000 3.31 195 08:22 25.06.2021
6541 Clear 23 1011 40 10000 2.73 195 07:20 25.06.2021
6542 Clear 19 1013 51 10000 1.63 11 03:46 25.06.2021
6543 Clear 16 1015 67 10000 2.29 18 22:20 24.06.2021
6544 Clear 16 1015 67 10000 2.29 18 21:40 24.06.2021
6545 Clouds 17 1015 71 10000 1.85 17 20:40 24.06.2021
6546 Clouds 18 1015 75 10000 2.07 17 18:45 24.06.2021
6547 Clouds 19 1014 77 10000 0.89 192 16:19 24.06.2021
6548 Clouds 20 1013 71 10000 2.1 196 15:22 24.06.2021
6549 Clouds 20 1013 71 10000 2.1 196 14:47 24.06.2021
6550 Clouds 23 1012 53 10000 3.67 199 11:20 24.06.2021
6551 Clouds 23 1012 54 10000 3.93 202 09:34 24.06.2021
6552 Clouds 24 1012 45 10000 3.9 207 08:23 24.06.2021
6553 Clear 20 1014 51 10000 0.69 2 03:32 24.06.2021
6554 Clear 17 1016 64 10000 3.07 21 23:20 23.06.2021
6555 Clear 17 1017 64 10000 2.81 17 21:44 23.06.2021
6556 Clear 18 1017 65 10000 2.82 14 20:47 23.06.2021
6557 Clouds 18 1017 67 10000 3.21 14 18:38 23.06.2021
6558 Clouds 19 1017 70 10000 3.2 13 17:38 23.06.2021
6559 Clouds 19 1017 72 10000 3.53 359 16:34 23.06.2021
6560 Clouds 25 1012 40 10000 3.74 205 13:22 23.06.2021
6561 Clear 25 1012 38 10000 4.04 202 11:59 23.06.2021
6562 Clear 26 1012 37 10000 4.01 197 10:22 23.06.2021
6563 Clear 25 1013 38 10000 3.64 200 08:50 23.06.2021
6564 Clear 25 1014 39 10000 3.32 202 07:52 23.06.2021
6565 Clear 24 1014 40 10000 2.97 203 07:25 23.06.2021
6566 Clear 22 1014 40 10000 0.74 223 04:34 23.06.2021
6567 Clear 16 1016 69 10000 3.53 23 00:45 23.06.2021
6568 Clouds 16 1016 69 10000 3.37 23 23:56 22.06.2021
6569 Clouds 17 1016 70 10000 3.03 18 22:46 22.06.2021
6570 Clouds 17 1016 72 10000 2.52 16 22:24 22.06.2021
6571 Clouds 17 1016 72 10000 2.52 16 21:39 22.06.2021
6572 Clear 17 1017 75 10000 2.75 15 19:47 22.06.2021
6573 Clouds 17 1016 78 10000 2.82 19 18:57 22.06.2021
6574 Clouds 18 1016 80 10000 2.46 24 18:25 22.06.2021
6575 Clouds 18 1015 80 10000 1.15 30 17:22 22.06.2021
6576 Clouds 18 1015 80 10000 1.15 30 16:32 22.06.2021
6577 Clouds 22 1012 64 10000 2.83 197 14:39 22.06.2021
6578 Clouds 23 1011 57 10000 3.28 204 13:56 22.06.2021
6579 Clouds 24 1011 55 10000 3.81 202 12:56 22.06.2021
6580 Clouds 25 1010 53 10000 3.95 203 11:33 22.06.2021
6581 Clear 25 1011 49 10000 4.17 200 10:24 22.06.2021
6582 Clear 24 1012 46 10000 3.13 200 06:46 22.06.2021
6583 Clear 16 1014 64 10000 3.17 21 00:50 22.06.2021
6584 Clear 17 1014 70 10000 2.88 18 23:27 21.06.2021
6585 Clear 17 1014 73 10000 2.16 14 22:22 21.06.2021
6586 Clear 17 1014 76 10000 1.89 12 21:23 21.06.2021
6587 Clear 17 1014 76 10000 1.89 12 20:43 21.06.2021
6588 Clouds 18 1014 77 10000 1.15 20 19:53 21.06.2021
6589 Clouds 19 1014 79 10000 1.16 356 18:57 21.06.2021
6590 Clouds 20 1013 80 10000 0.54 351 17:26 21.06.2021
6591 Clouds 20 1013 80 10000 0.54 351 16:44 21.06.2021
6592 Clouds 20 1013 81 10000 0.84 194 16:23 21.06.2021
6593 Clouds 20 1013 81 10000 0.84 194 15:45 21.06.2021
6594 Clouds 22 1011 70 10000 2.84 196 14:18 21.06.2021
6595 Clouds 22 1011 70 10000 2.84 196 13:33 21.06.2021
6596 Clouds 23 1011 67 10000 3.48 195 12:36 21.06.2021
6597 Clouds 23 1011 63 10000 3.8 198 11:49 21.06.2021
6598 Clouds 24 1011 62 10000 3.81 196 10:30 21.06.2021
6599 Clouds 24 1011 60 10000 3.97 199 09:29 21.06.2021
6600 Clear 24 1011 58 10000 3.81 200 08:21 21.06.2021
6601 Clear 24 1011 54 10000 3.15 204 07:20 21.06.2021
6602 Clouds 16 1013 69 10000 3.09 28 00:42 21.06.2021
6603 Clouds 17 1013 71 10000 2.95 29 23:35 20.06.2021
6604 Clouds 18 1013 74 10000 1.77 18 22:58 20.06.2021
6605 Clouds 18 1014 76 10000 1.32 29 21:58 20.06.2021
6606 Clouds 18 1014 78 10000 0.83 26 21:26 20.06.2021
6607 Clouds 18 1015 80 10000 0.66 335 19:42 20.06.2021
6608 Clouds 18 1015 82 10000 0.51 349 19:23 20.06.2021
6609 Clouds 18 1014 85 10000 0.31 360 18:21 20.06.2021
6610 Clouds 18 1013 87 10000 0.46 18 16:51 20.06.2021
6611 Clouds 19 1012 91 10000 0.75 200 15:52 20.06.2021
6612 Clouds 19 1012 91 10000 0.75 200 15:32 20.06.2021
6613 Clouds 20 1011 81 10000 2.17 202 14:46 20.06.2021
6614 Clouds 21 1010 76 10000 2.48 201 13:41 20.06.2021
6615 Clouds 22 1010 74 10000 3.05 199 12:57 20.06.2021
6616 Clouds 22 1009 71 10000 3.44 198 11:46 20.06.2021
6617 Clouds 23 1009 65 10000 3.9 200 10:40 20.06.2021
6618 Clouds 24 1008 61 10000 4.2 201 09:46 20.06.2021
6619 Clouds 24 1009 55 10000 2.71 221 07:42 20.06.2021
6620 Clouds 17 1011 77 10000 2.28 8 23:57 19.06.2021
6621 Clouds 17 1011 79 10000 1.13 349 22:59 19.06.2021
6622 Clouds 18 1011 80 10000 0.44 324 21:53 19.06.2021
6623 Clouds 18 1012 79 10000 0.2 248 21:27 19.06.2021
6624 Clouds 19 1012 73 10000 0.8 6 18:55 19.06.2021
6625 Clouds 19 1012 76 10000 0.03 65 18:22 19.06.2021
6626 Clouds 19 1011 80 10000 0.27 162 17:27 19.06.2021
6627 Clouds 19 1011 80 10000 0.27 162 16:49 19.06.2021
6628 Clouds 19 1011 84 10000 1.1 191 15:42 19.06.2021
6629 Clouds 22 1008 69 10000 3.37 195 13:23 19.06.2021
6630 Clouds 24 1008 61 10000 3.95 199 12:25 19.06.2021
6631 Clear 25 1007 55 10000 4.21 201 10:49 19.06.2021
6632 Clear 25 1007 55 10000 4.21 201 10:49 19.06.2021
6633 Clear 25 1007 55 10000 4.21 201 10:49 19.06.2021
6634 Clear 25 1007 55 10000 4.21 201 10:49 19.06.2021
6635 Clear 25 1007 52 10000 4.04 199 10:27 19.06.2021
6636 Clear 25 1007 52 10000 4.04 199 09:59 19.06.2021
6637 Clear 24 1009 59 10000 2.8 182 08:26 19.06.2021
6638 Clear 23 1009 57 10000 2.47 182 06:55 19.06.2021
6639 Clear 20 1011 62 10000 1.75 32 04:23 19.06.2021
6640 Clouds 16 1012 73 10000 3.05 19 00:23 19.06.2021
6641 Clouds 16 1012 73 10000 3.05 19 23:49 18.06.2021
6642 Clouds 16 1013 74 10000 2.78 27 22:56 18.06.2021
6643 Clouds 16 1013 74 10000 2.78 27 22:35 18.06.2021
6644 Clouds 16 1013 75 10000 2.4 33 21:51 18.06.2021
6645 Clouds 16 1014 77 10000 2.15 38 21:27 18.06.2021
6646 Clouds 18 1013 76 10000 1.29 34 20:28 18.06.2021
6647 Clouds 18 1013 79 10000 0.52 27 18:46 18.06.2021
6648 Clouds 18 1013 83 10000 0.11 102 17:59 18.06.2021
6649 Clouds 18 1012 86 8754 0.57 184 16:48 18.06.2021
6650 Clouds 18 1012 87 8677 1.11 185 15:49 18.06.2021
6651 Clouds 19 1010 84 5430 1.99 192 14:51 18.06.2021
6652 Clouds 20 1009 80 5285 2.33 196 13:56 18.06.2021
6653 Clouds 21 1009 80 5217 2.35 199 13:23 18.06.2021
6654 Clouds 21 1009 80 5217 2.35 199 12:43 18.06.2021
6655 Clouds 21 1009 76 7452 2.72 195 11:48 18.06.2021
6656 Clouds 22 1009 71 8689 2.75 188 11:19 18.06.2021
6657 Clouds 22 1009 71 8689 2.75 188 10:42 18.06.2021
6658 Clouds 22 1009 65 8097 2.5 176 10:19 18.06.2021
6659 Clouds 22 1010 64 10000 1.69 171 09:23 18.06.2021
6660 Clouds 22 1010 64 10000 1.69 171 08:35 18.06.2021
6661 Clouds 22